DL234 / N823NW 7700 Squawk Report (6th of October, 2020)

Aircraft A333 Reg No. N823NW Age 5 years old
Model A330 Jet engines 2 First flight 12-01-15
Registered 26-08-15 Rollout 01-15 Delivered 26-08-15
Construction No. 1628 Line No. N/A Series 302
ADSHEX AB3D41 Airline name Delta Air Lines Owner N/A
Airfield based Atlanta-Hartsfield~GA~N First tracked N/A

Flight history for N823NW

Route Flight No Date Playback
Hartsfield Jackson Atlanta Intl (ATL) - Cancun Intl (CUN) DL598 2020-10-22 15:02:00
Cancun Intl (CUN) - Hartsfield Jackson Atlanta Intl (ATL) DL597 2020-10-20 20:24:00
Hartsfield Jackson Atlanta Intl (ATL) - Cancun Intl (CUN) DL598 2020-10-20 18:25:00
Schiphol (AMS) - Hartsfield Jackson Atlanta Intl (ATL) DL75 2020-10-19 22:02:00
Hartsfield Jackson Atlanta Intl (ATL) - Schiphol (AMS) DL74 2020-10-19 12:34:00
John F Kennedy Intl (JFK) - Hartsfield Jackson Atlanta Intl (ATL) DL45 2020-10-18 21:19:00
Ben Gurion (TLV) - John F Kennedy Intl (JFK) DL235 2020-10-18 19:01:00
John F Kennedy Intl (JFK) - Ben Gurion (TLV) DL234 2020-10-17 14:36:00
Fiumicino (FCO) - John F Kennedy Intl (JFK) DL153 2020-10-16 17:02:00
John F Kennedy Intl (JFK) - Fiumicino (FCO) DL152 2020-10-16 05:20:00
Hartsfield Jackson Atlanta Intl (ATL) - John F Kennedy Intl (JFK) DL44 2020-10-15 21:11:00
John F Kennedy Intl (JFK) - Hartsfield Jackson Atlanta Intl (ATL) DL45 2020-10-13 23:47:00
Hartsfield Jackson Atlanta Intl (ATL) - John F Kennedy Intl (JFK) DL44 2020-10-12 18:21:00
John F Kennedy Intl (JFK) - Hartsfield Jackson Atlanta Intl (ATL) DL417 2020-10-12 14:37:00
Ben Gurion (TLV) - John F Kennedy Intl (JFK) DL235 2020-10-12 12:28:00
John F Kennedy Intl (JFK) - Ben Gurion (TLV) DL234 2020-10-11 14:16:00
Hartsfield Jackson Atlanta Intl (ATL) - John F Kennedy Intl (JFK) DL44 2020-10-10 18:35:00
John F Kennedy Intl (JFK) - Hartsfield Jackson Atlanta Intl (ATL) DL45 2020-10-09 21:25:00
Ben Gurion (TLV) - John F Kennedy Intl (JFK) DL235 2020-10-09 09:14:00
John F Kennedy Intl (JFK) - Ben Gurion (TLV) DL234 2020-10-08 13:48:00
Time Lat Lon Altitude Heading Speed Vertical Rate
2020-10-06 16:19:24 GMT 32.011787 34.896164 125 209 139 -64
2020-10-06 16:19:15 GMT 32.012375 34.896587 125 209 139 -64
2020-10-06 16:19:06 GMT 32.016396 34.899136 125 209 140 -256
2020-10-06 16:18:57 GMT 32.021839 34.902668 275 209 142 -704
2020-10-06 16:18:46 GMT 32.028313 34.906815 400 209 143 -704
2020-10-06 16:18:37 GMT 32.033806 34.910347 525 209 144 -704
2020-10-06 16:18:26 GMT 32.039810 34.914215 650 210 145 -768
2020-10-06 16:18:10 GMT 32.049259 34.920380 850 209 145 -768
2020-10-06 16:18:04 GMT 32.052891 34.922733 925 209 146 -768
2020-10-06 16:17:56 GMT 32.058292 34.926155 1,025 209 147 -768
2020-10-06 16:17:48 GMT 32.062111 34.928677 1,125 210 147 -768
2020-10-06 16:17:45 GMT 32.064240 34.930042 1,150 209 148 -768
2020-10-06 16:17:40 GMT 32.067043 34.931870 1,225 209 148 -768
2020-10-06 16:17:33 GMT 32.071564 34.934822 1,325 209 149 -768
2020-10-06 16:17:30 GMT 32.073326 34.935963 1,350 209 149 -768
2020-10-06 16:17:19 GMT 32.080032 34.940224 1,500 209 149 -768
2020-10-06 16:17:07 GMT 32.088364 34.945602 1,675 209 148 -704
2020-10-06 16:16:56 GMT 32.093948 34.949268 1,825 210 154 -704
2020-10-06 16:16:48 GMT 32.098572 34.952232 1,875 210 156 -704
2020-10-06 16:16:39 GMT 32.104889 34.956352 1,900 210 160 -768
2020-10-06 16:16:34 GMT 32.110477 34.959953 2,125 210 166 -768
2020-10-06 16:16:24 GMT 32.115280 34.963112 2,225 209 173 -896
2020-10-06 16:16:15 GMT 32.122952 34.968082 2,325 209 175 -960
2020-10-06 16:16:11 GMT 32.123749 34.968548 2,400 209 181 -704
2020-10-06 16:16:05 GMT 32.127842 34.971218 2,475 210 185 -960
2020-10-06 16:15:56 GMT 32.135147 34.976021 2,925 207 193 -832
2020-10-06 16:15:46 GMT 32.142506 34.980804 2,925 207 193 -832
2020-10-06 16:15:36 GMT 32.154564 34.988037 3,150 201 197 -960
2020-10-06 16:15:25 GMT 32.160141 34.990410 3,125 195 199 -960
2020-10-06 16:15:20 GMT 32.165634 34.992004 3,200 193 200 -832
2020-10-06 16:15:13 GMT 32.171082 34.992939 3,275 187 203 -384
2020-10-06 16:15:05 GMT 32.179607 34.993977 3,275 184 206 -64
2020-10-06 16:14:53 GMT 32.190361 34.994034 3,300 169 206 256
2020-10-06 16:14:43 GMT 32.205536 34.982765 3,300 108 213 0
2020-10-06 16:14:33 GMT 32.205536 34.982765 3,300 119 206 256
2020-10-06 16:14:22 GMT 32.212566 34.960403 3,300 107 245 -640
2020-10-06 16:14:12 GMT 32.212566 34.960403 3,300 106 225 0
2020-10-06 16:14:02 GMT 32.215805 34.948006 3,375 107 245 -640
2020-10-06 16:13:51 GMT 32.219604 34.933556 3,375 106 251 -640
2020-10-06 16:13:40 GMT 32.223358 34.919109 3,550 106 253 -768
2020-10-06 16:13:31 GMT 32.226379 34.907467 3,825 106 254 -1088
2020-10-06 16:13:21 GMT 32.229881 34.893867 3,925 106 254 -1088
2020-10-06 16:13:10 GMT 32.233700 34.879181 4,050 106 254 -832
2020-10-06 16:13:00 GMT 32.237045 34.866211 4,325 107 256 -1600
2020-10-06 16:12:49 GMT 32.240917 34.851044 4,500 106 261 -1216
2020-10-06 16:12:39 GMT 32.244408 34.837479 4,675 106 269 -1216
2020-10-06 16:12:29 GMT 32.248077 34.823364 4,850 107 275 -1280
2020-10-06 16:12:21 GMT 32.251740 34.809410 5,025 108 275 -128
2020-10-06 16:12:18 GMT 32.252060 34.808147 5,025 108 275 -128
2020-10-06 16:12:08 GMT 32.256454 34.793922 5,025 112 274 0
2020-10-06 16:11:58 GMT 32.261726 34.779465 5,025 113 274 0
2020-10-06 16:11:50 GMT 32.266006 34.767803 5,050 113 274 -128
2020-10-06 16:11:47 GMT 32.266987 34.765003 5,050 113 274 -192
2020-10-06 16:11:41 GMT 32.270279 34.756020 5,100 113 274 -768
2020-10-06 16:11:35 GMT 32.272850 34.748917 5,175 113 274 -1024
2020-10-06 16:11:32 GMT 32.274899 34.743309 5,250 113 274 -1024
2020-10-06 16:11:27 GMT 32.277271 34.736862 5,325 113 273 -1024
2020-10-06 16:11:22 GMT 32.279572 34.730476 5,425 113 274 -1024
2020-10-06 16:11:17 GMT 32.282303 34.722961 5,500 113 274 -1088
2020-10-06 16:11:06 GMT 32.287674 34.708336 5,700 113 275 -1024
2020-10-06 16:11:01 GMT 32.290054 34.701855 5,775 113 277 -1088
2020-10-06 16:10:56 GMT 32.292709 34.694496 5,875 113 277 -1088
2020-10-06 16:10:52 GMT 32.294685 34.689106 5,925 113 278 -1088
2020-10-06 16:10:45 GMT 32.298035 34.679859 6,050 113 279 -1024
2020-10-06 16:10:40 GMT 32.300720 34.672523 6,150 112 279 -1024
2020-10-06 16:10:35 GMT 32.303284 34.665382 6,225 113 279 -1088
2020-10-06 16:10:32 GMT 32.305157 34.660240 6,300 113 279 -1088
2020-10-06 16:10:25 GMT 32.308418 34.651272 6,425 113 278 -1088
2020-10-06 16:10:22 GMT 32.310745 34.644825 6,500 113 278 -1024
2020-10-06 16:10:15 GMT 32.313675 34.636814 6,600 113 278 -1024
2020-10-06 16:10:09 GMT 32.316608 34.628628 6,700 112 279 -1024
2020-10-06 16:10:04 GMT 32.318939 34.622093 6,825 113 280 -1088
2020-10-06 16:10:00 GMT 32.321220 34.615845 6,850 113 280 -1088
2020-10-06 16:09:54 GMT 32.324295 34.607430 6,975 113 281 -1088
2020-10-06 16:09:50 GMT 32.326859 34.600395 7,050 113 282 -1088
2020-10-06 16:09:43 GMT 32.329597 34.592751 7,150 113 283 -1088
2020-10-06 16:09:39 GMT 32.331985 34.586170 7,225 112 284 -1024
2020-10-06 16:09:33 GMT 32.335091 34.577507 7,350 112 284 -1088
2020-10-06 16:09:23 GMT 32.340134 34.563538 7,525 112 284 -1088
2020-10-06 16:09:19 GMT 32.342056 34.558098 7,575 112 285 -1024
2020-10-06 16:09:13 GMT 32.345470 34.548695 7,700 113 285 -1152
2020-10-06 16:09:10 GMT 32.347321 34.543598 7,775 113 285 -1152
2020-10-06 16:09:02 GMT 32.350891 34.534039 7,900 115 286 -960
2020-10-06 16:08:58 GMT 32.353340 34.527843 7,975 117 287 -1024
2020-10-06 16:08:55 GMT 32.355202 34.523697 8,025 120 287 -1088
2020-10-06 16:08:52 GMT 32.357391 34.519482 8,075 123 288 -1152
2020-10-06 16:08:47 GMT 32.360882 34.513214 8,175 125 289 -1152
2020-10-06 16:08:44 GMT 32.364075 34.508057 8,250 125 289 -1088
2020-10-06 16:08:39 GMT 32.368050 34.501610 8,350 125 289 -1088
2020-10-06 16:08:31 GMT 32.373310 34.493034 8,475 126 288 -1088
2020-10-06 16:08:21 GMT 32.381516 34.479820 8,650 126 289 -1152
2020-10-06 16:08:11 GMT 32.389847 34.466366 8,825 126 292 -1088
2020-10-06 16:08:00 GMT 32.397858 34.453457 9,025 126 294 -1152
2020-10-06 16:07:50 GMT 32.406315 34.439671 9,225 125 296 -1152
2020-10-06 16:07:42 GMT 32.413101 34.428516 9,400 125 297 -1152
2020-10-06 16:07:29 GMT 32.423492 34.411652 9,625 125 298 -1216
2020-10-06 16:07:19 GMT 32.431549 34.398476 9,825 125 299 -768
2020-10-06 16:07:08 GMT 32.440338 34.384075 9,925 125 299 -512
2020-10-06 16:06:58 GMT 32.448681 34.370445 10,000 125 301 -512
2020-10-06 16:06:48 GMT 32.456871 34.357162 10,075 125 306 -512
2020-10-06 16:06:37 GMT 32.465607 34.342934 10,175 125 313 -512
2020-10-06 16:06:30 GMT 32.472061 34.332329 10,225 125 318 -512
2020-10-06 16:06:26 GMT 32.474979 34.327621 10,250 125 319 -448
2020-10-06 16:06:16 GMT 32.483734 34.313332 10,350 125 327 -704
2020-10-06 16:06:06 GMT 32.492718 34.298698 10,475 125 334 -768
2020-10-06 16:05:56 GMT 32.502090 34.283440 10,600 125 341 -576
2020-10-06 16:05:45 GMT 32.512363 34.266640 10,700 125 350 -576
2020-10-06 16:05:36 GMT 32.521545 34.251579 10,875 125 355 -1664
2020-10-06 16:05:25 GMT 32.531570 34.235210 11,150 125 356 -1728
2020-10-06 16:05:15 GMT 32.541824 34.218403 11,475 125 358 -1728
2020-10-06 16:05:04 GMT 32.551712 34.202309 11,750 125 360 -1728
2020-10-06 16:04:54 GMT 32.561939 34.185585 12,075 125 362 -1792
2020-10-06 16:04:44 GMT 32.571945 34.169239 12,350 125 364 -1728
2020-10-06 16:04:33 GMT 32.582474 34.151989 12,675 125 367 -1792
2020-10-06 16:04:23 GMT 32.592316 34.135841 12,950 125 369 -1728
2020-10-06 16:04:12 GMT 32.603668 34.117218 13,300 125 372 -1792
2020-10-06 16:04:02 GMT 32.613647 34.100849 13,600 125 374 -1856
2020-10-06 16:03:52 GMT 32.623810 34.084206 13,900 125 376 -1792
2020-10-06 16:03:42 GMT 32.634521 34.066628 14,225 125 378 -1792
2020-10-06 16:03:32 GMT 32.644711 34.049828 14,525 125 380 -1856
2020-10-06 16:03:21 GMT 32.655277 34.032394 14,825 125 381 -1856
2020-10-06 16:03:11 GMT 32.665844 34.015018 15,150 125 384 -1792
2020-10-06 16:03:01 GMT 32.676865 33.996971 15,475 125 385 -1920
2020-10-06 16:02:50 GMT 32.688282 33.978191 15,825 125 387 -1920
2020-10-06 16:02:40 GMT 32.698517 33.961323 16,125 125 389 -1920
2020-10-06 16:02:29 GMT 32.710117 33.942261 16,475 125 392 -1920
2020-10-06 16:02:20 GMT 32.720078 33.925838 16,775 125 394 -1984
2020-10-06 16:02:09 GMT 32.731064 33.907677 17,100 125 395 -1664
2020-10-06 16:01:58 GMT 32.743149 33.887878 17,325 125 396 -960
2020-10-06 16:01:49 GMT 32.753036 33.871452 17,475 125 396 -960
2020-10-06 16:01:38 GMT 32.764675 33.852242 17,650 125 397 -1024
2020-10-06 16:01:28 GMT 32.775375 33.834595 17,825 125 398 -960
2020-10-06 16:01:17 GMT 32.786694 33.815861 17,975 125 398 -1024
2020-10-06 16:01:07 GMT 32.797497 33.798092 18,150 125 399 -1024
2020-10-06 16:00:57 GMT 32.808975 33.779060 18,325 125 400 -1024
2020-10-06 16:00:47 GMT 32.819698 33.761211 18,475 125 401 -1024
2020-10-06 16:00:36 GMT 32.831337 33.742043 18,650 126 403 -960
2020-10-06 16:00:26 GMT 32.842758 33.724678 18,825 131 404 -1024
2020-10-06 16:00:16 GMT 32.856243 33.707455 19,000 134 405 -1024
2020-10-06 16:00:06 GMT 32.869263 33.691608 19,175 134 404 -1088
2020-10-06 15:59:55 GMT 32.882721 33.675240 19,350 134 405 -1088
2020-10-06 15:59:45 GMT 32.896362 33.658649 19,650 134 406 -1984
2020-10-06 15:59:35 GMT 32.910095 33.642002 19,975 134 409 -1920
2020-10-06 15:59:24 GMT 32.924068 33.624947 20,325 134 411 -1920
2020-10-06 15:59:14 GMT 32.937386 33.608692 20,650 134 414 -1920
2020-10-06 15:58:59 GMT 32.958160 33.583447 21,000 134 417 -1984
2020-10-06 15:58:53 GMT 32.966106 33.573769 21,350 134 420 -1920
2020-10-06 15:58:43 GMT 32.979492 33.557465 21,675 134 422 -1984
2020-10-06 15:58:32 GMT 32.993668 33.540253 22,000 134 425 -1984
2020-10-06 15:58:22 GMT 33.007912 33.522987 22,350 134 428 -1984
2020-10-06 15:58:12 GMT 33.022484 33.505219 22,700 134 431 -2048
2020-10-06 15:57:54 GMT 33.046692 33.475780 23,050 134 434 -2048
2020-10-06 15:57:51 GMT 33.052094 33.469242 23,450 135 437 -2368
2020-10-06 15:57:40 GMT 33.067429 33.452435 23,850 140 439 -2560
2020-10-06 15:57:30 GMT 33.083511 33.437843 24,425 146 437 -4032
2020-10-06 15:57:20 GMT 33.100689 33.424782 24,950 148 437 -2176
2020-10-06 15:57:10 GMT 33.118984 33.411499 25,300 148 439 -1984
2020-10-06 15:56:59 GMT 33.138062 33.397614 25,675 148 442 -1984
2020-10-06 15:56:49 GMT 33.155621 33.384815 26,000 148 444 -2048
2020-10-06 15:56:38 GMT 33.174240 33.371197 26,350 148 446 -1984
2020-10-06 15:56:28 GMT 33.191700 33.358471 26,700 148 448 -2048
2020-10-06 15:56:18 GMT 33.210571 33.344658 27,050 148 451 -2048
2020-10-06 15:56:07 GMT 33.228523 33.331566 27,400 148 454 -2048
2020-10-06 15:55:57 GMT 33.247284 33.317909 27,750 148 455 -2048
2020-10-06 15:55:46 GMT 33.267838 33.302910 28,125 148 458 -2112
2020-10-06 15:55:36 GMT 33.285095 33.290333 28,475 148 461 -2112
2020-10-06 15:55:26 GMT 33.304310 33.276241 28,875 148 463 -2112
2020-10-06 15:55:15 GMT 33.324093 33.261780 29,225 148 466 -1984
2020-10-06 15:55:05 GMT 33.341537 33.248970 29,550 148 469 -1984
2020-10-06 15:54:55 GMT 33.360916 33.234764 29,900 148 474 -1984
2020-10-06 15:54:47 GMT 33.377472 33.222656 30,200 148 476 -2048
2020-10-06 15:54:44 GMT 33.380493 33.220459 30,250 148 476 -2048
2020-10-06 15:54:34 GMT 33.400452 33.205849 30,600 148 479 -1984
2020-10-06 15:54:26 GMT 33.416016 33.194420 30,875 148 483 -1920
2020-10-06 15:54:14 GMT 33.450623 33.169044 31,600 148 484 -2624
2020-10-06 15:54:03 GMT 33.460190 33.162010 31,700 148 484 -2688
2020-10-06 15:53:52 GMT 33.483170 33.145203 32,375 148 485 -2624
2020-10-06 15:53:45 GMT 33.495438 33.136192 32,650 148 486 -2752
2020-10-06 15:53:41 GMT 33.502251 33.131180 32,825 148 486 -2752
2020-10-06 15:53:34 GMT 33.514984 33.121803 33,125 148 486 -2688
2020-10-06 15:53:30 GMT 33.522732 33.116100 33,300 148 486 -2752
2020-10-06 15:53:24 GMT 33.534790 33.107189 33,600 148 487 -2688
2020-10-06 15:53:21 GMT 33.540936 33.102665 33,725 148 487 -2688
2020-10-06 15:53:14 GMT 33.555923 33.091679 34,100 148 487 -2752
2020-10-06 15:53:11 GMT 33.560257 33.088524 34,200 148 487 -2752
2020-10-06 15:53:01 GMT 33.580318 33.073769 34,675 148 487 -2688
2020-10-06 15:52:28 GMT 33.642883 33.027649 36,125 148 484 -2368
2020-10-06 15:52:12 GMT 33.673737 33.004890 36,725 148 485 -2240
2020-10-06 15:52:09 GMT 33.677845 33.001842 37,025 148 485 -2176
2020-10-06 15:52:00 GMT 33.695343 32.988918 37,150 148 486 -2176
2020-10-06 15:51:57 GMT 33.700333 32.985218 37,225 148 487 -2176
2020-10-06 15:51:49 GMT 33.716343 32.973347 37,450 148 488 -2112
2020-10-06 15:51:44 GMT 33.725281 32.966721 37,700 148 488 -2176
2020-10-06 15:51:40 GMT 33.732605 32.961338 37,850 148 488 -2432
2020-10-06 15:51:37 GMT 33.739246 32.956409 38,000 148 488 -2688
2020-10-06 15:51:28 GMT 33.765038 32.937412 38,575 148 487 -2176
2020-10-06 15:51:17 GMT 33.776825 32.928661 38,725 148 488 -2240
2020-10-06 15:51:06 GMT 33.798889 32.912235 39,225 148 488 -2240
2020-10-06 15:50:55 GMT 33.819408 32.897015 39,600 148 489 -2112
2020-10-06 15:50:47 GMT 33.884487 32.848778 40,025 148 491 -2176
2020-10-06 15:50:23 GMT 33.884487 32.848778 40,675 150 242 -1344
2020-10-06 15:50:19 GMT 33.897060 32.839394 40,800 148 490 -960
2020-10-06 15:50:15 GMT 33.919968 32.822384 40,825 148 490 -1024
2020-10-06 15:50:03 GMT 33.919968 32.822384 40,975 148 491 -448
2020-10-06 15:48:53 GMT 34.058270 32.719402 41,000 150 242 64
2020-10-06 15:48:50 GMT 34.062012 32.716614 41,000 147 491 0
2020-10-06 15:48:05 GMT 34.144951 32.643814 41,000 142 492 0
2020-10-06 15:46:18 GMT 34.336578 32.464825 41,000 144 243 0
2020-10-06 15:46:15 GMT 34.343628 32.458210 41,000 142 494 0
2020-10-06 15:46:05 GMT 34.362762 32.440273 41,000 142 495 0
2020-10-06 15:46:01 GMT 34.366306 32.436275 41,000 142 495 0
2020-10-06 15:45:56 GMT 34.376221 32.427269 41,000 142 495 0
2020-10-06 15:45:52 GMT 34.385651 32.418468 41,000 142 495 0
2020-10-06 15:45:46 GMT 34.393158 32.411068 41,000 142 495 0
2020-10-06 15:45:41 GMT 34.403362 32.401485 41,000 142 494 0
2020-10-06 15:45:35 GMT 34.413391 32.392067 41,000 142 494 0
2020-10-06 15:45:31 GMT 34.421860 32.384109 41,000 142 494 0
2020-10-06 15:45:25 GMT 34.432644 32.374706 41,000 142 493 0
2020-10-06 15:45:15 GMT 34.450703 32.357769 41,000 142 493 0
2020-10-06 15:45:05 GMT 34.468185 32.340611 41,000 142 493 0
2020-10-06 15:44:19 GMT 34.553677 32.260780 41,000 142 493 0
2020-10-06 15:44:16 GMT 34.558228 32.256420 41,000 142 493 0
2020-10-06 15:44:13 GMT 34.563629 32.251373 41,000 142 493 0
2020-10-06 15:44:08 GMT 34.572578 32.242928 41,000 142 493 0
2020-10-06 15:44:05 GMT 34.576767 32.238922 41,000 142 493 0
2020-10-06 15:44:02 GMT 34.583008 32.232628 41,000 142 493 0
2020-10-06 15:43:57 GMT 34.590546 32.225533 41,000 142 493 0
2020-10-06 15:43:52 GMT 34.599884 32.216396 41,000 141 493 0
2020-10-06 15:43:47 GMT 34.608376 32.208424 41,000 141 492 0
2020-10-06 15:43:37 GMT 34.627899 32.189941 41,000 143 242 0
2020-10-06 15:43:34 GMT 34.632629 32.185707 41,000 141 493 0
2020-10-06 15:43:31 GMT 34.637238 32.181419 41,000 141 493 0
2020-10-06 15:43:16 GMT 34.664288 32.155781 41,000 141 493 0
2020-10-06 15:43:11 GMT 34.674454 32.146164 41,000 142 494 0
2020-10-06 15:42:02 GMT 34.797890 32.029610 41,000 141 491 0
2020-10-06 15:41:58 GMT 34.805832 32.022121 41,000 141 491 0
2020-10-06 15:41:34 GMT 34.849377 31.980686 41,000 141 490 0
2020-10-06 15:41:30 GMT 34.855362 31.974979 41,000 141 490 0
2020-10-06 15:41:02 GMT 34.907520 31.925182 41,000 141 489 0
2020-10-06 15:40:57 GMT 34.913574 31.919403 41,000 141 489 0
2020-10-06 15:40:52 GMT 34.922649 31.910763 41,000 141 489 0
2020-10-06 15:40:48 GMT 34.931076 31.902672 41,000 141 488 0
2020-10-06 15:40:43 GMT 34.940762 31.893425 41,000 141 488 0
2020-10-06 15:40:38 GMT 34.948769 31.885757 41,000 141 488 0
2020-10-06 15:40:35 GMT 34.953461 31.881260 41,000 141 488 0
2020-10-06 15:40:30 GMT 34.963943 31.871225 41,000 141 488 0
2020-10-06 15:40:26 GMT 34.971954 31.863604 41,000 141 488 0
2020-10-06 15:40:21 GMT 34.977722 31.858120 41,000 141 488 0
2020-10-06 15:40:18 GMT 34.983307 31.852783 41,000 141 488 0
2020-10-06 15:40:15 GMT 34.989265 31.847076 41,000 141 487 0
2020-10-06 15:40:10 GMT 35.000015 31.836809 41,000 141 487 0
2020-10-06 15:40:06 GMT 35.004272 31.832718 41,000 141 487 0
2020-10-06 15:39:59 GMT 35.017731 31.819824 41,000 141 487 0
2020-10-06 15:39:54 GMT 35.026611 31.811361 41,000 141 487 0
2020-10-06 15:39:46 GMT 35.040573 31.797964 41,000 141 487 0
2020-10-06 15:39:21 GMT 35.085800 31.754692 41,000 141 487 0
2020-10-06 15:39:15 GMT 35.095081 31.745739 41,000 141 487 0
2020-10-06 15:39:05 GMT 35.115658 31.725998 41,000 141 487 0
2020-10-06 15:39:02 GMT 35.119194 31.722565 41,000 141 488 0
2020-10-06 15:38:45 GMT 35.147919 31.694323 41,000 141 489 0
2020-10-06 15:38:41 GMT 35.157181 31.686058 41,000 141 489 0
2020-10-06 15:38:34 GMT 35.167419 31.676218 41,000 141 489 0
2020-10-06 15:38:31 GMT 35.174591 31.669292 41,000 141 489 0
2020-10-06 15:38:24 GMT 35.185810 31.658478 41,000 141 489 0
2020-10-06 15:38:21 GMT 35.193443 31.651096 41,000 141 490 0
2020-10-06 15:38:14 GMT 35.204201 31.640568 41,000 141 489 0
2020-10-06 15:38:04 GMT 35.229568 31.616373 41,000 141 489 0
2020-10-06 15:38:00 GMT 35.229568 31.616373 41,000 141 489 0
2020-10-06 15:37:53 GMT 35.241028 31.605263 41,000 141 489 0
2020-10-06 15:37:50 GMT 35.247162 31.599197 41,000 141 489 0
2020-10-06 15:37:46 GMT 35.254120 31.592560 41,000 141 489 0
2020-10-06 15:37:43 GMT 35.258652 31.588268 41,000 141 490 0
2020-10-06 15:37:37 GMT 35.270096 31.577053 41,000 141 489 0
2020-10-06 15:36:31 GMT 35.386185 31.465073 41,000 141 488 0
2020-10-06 15:36:15 GMT 35.415916 31.436325 41,000 141 488 0
2020-10-06 15:36:08 GMT 35.429672 31.422958 41,000 141 488 0
2020-10-06 15:35:16 GMT 35.520569 31.334703 41,000 141 489 0
2020-10-06 15:35:12 GMT 35.526855 31.328602 41,000 141 489 0
2020-10-06 15:35:09 GMT 35.531555 31.324009 41,000 141 489 0
2020-10-06 15:35:06 GMT 35.539886 31.315886 41,000 141 489 0
2020-10-06 15:34:58 GMT 35.551666 31.304398 41,000 141 489 0
2020-10-06 15:34:55 GMT 35.557762 31.298471 41,000 141 489 0
2020-10-06 15:34:49 GMT 35.568005 31.288420 41,000 141 489 0
2020-10-06 15:34:45 GMT 35.576614 31.280022 41,000 141 489 0
2020-10-06 15:34:37 GMT 35.588287 31.268635 41,000 141 489 0
2020-10-06 15:34:34 GMT 35.594330 31.262798 41,000 141 489 0
2020-10-06 15:34:28 GMT 35.604176 31.253181 41,000 141 489 0
2020-10-06 15:34:24 GMT 35.612835 31.244766 41,000 141 488 0
2020-10-06 15:34:16 GMT 35.631180 31.226921 41,000 141 488 0
2020-10-06 15:34:06 GMT 35.643356 31.214962 41,000 141 488 0
2020-10-06 15:34:03 GMT 35.649719 31.208725 41,000 141 488 0
2020-10-06 15:33:55 GMT 35.664509 31.194336 41,000 141 488 0
2020-10-06 15:33:46 GMT 35.678612 31.180544 41,000 141 488 0
2020-10-06 15:33:43 GMT 35.686573 31.172771 41,000 141 488 0
2020-10-06 15:33:35 GMT 35.698975 31.160603 41,000 141 487 0
2020-10-06 15:33:32 GMT 35.704102 31.155567 41,000 141 487 0
2020-10-06 15:33:27 GMT 35.712936 31.146927 41,000 141 487 0
2020-10-06 15:33:24 GMT 35.719803 31.140232 41,000 141 487 0
2020-10-06 15:33:15 GMT 35.734406 31.125870 41,000 141 487 0
2020-10-06 15:33:12 GMT 35.740482 31.119944 41,000 141 487 0
2020-10-06 15:33:04 GMT 35.752899 31.107788 41,000 141 486 0
2020-10-06 15:33:00 GMT 35.760033 31.100777 41,000 141 486 0
2020-10-06 15:32:54 GMT 35.770226 31.090782 41,000 141 486 0
2020-10-06 15:32:50 GMT 35.777527 31.083641 41,000 141 486 0
2020-10-06 15:32:44 GMT 35.790104 31.071264 41,000 141 486 0
2020-10-06 15:32:41 GMT 35.795551 31.065947 41,000 141 486 0
2020-10-06 15:32:36 GMT 35.803139 31.058525 41,000 141 486 0
2020-10-06 15:32:30 GMT 35.813049 31.048737 41,000 141 486 0
2020-10-06 15:32:24 GMT 35.823994 31.037954 41,000 141 486 0
2020-10-06 15:32:19 GMT 35.831398 31.030708 41,000 141 486 0
2020-10-06 15:32:14 GMT 35.842476 31.019838 41,000 141 486 0
2020-10-06 15:32:10 GMT 35.849213 31.013203 41,000 141 486 0
2020-10-06 15:32:03 GMT 35.860912 31.001722 41,000 141 485 0
2020-10-06 15:31:59 GMT 35.867294 30.995464 41,000 141 485 0
2020-10-06 15:31:53 GMT 35.878460 30.984484 41,000 141 485 0
2020-10-06 15:31:49 GMT 35.885696 30.977325 41,000 141 485 0
2020-10-06 15:31:42 GMT 35.896408 30.966797 41,000 141 485 0
2020-10-06 15:31:39 GMT 35.904327 30.959015 41,000 141 485 0
2020-10-06 15:31:33 GMT 35.921814 30.941734 41,000 141 485 0
2020-10-06 15:31:28 GMT 35.921814 30.941734 41,000 141 485 0
2020-10-06 15:31:24 GMT 35.928772 30.934868 41,000 141 485 0
2020-10-06 15:31:21 GMT 35.933254 30.930429 41,000 141 485 0
2020-10-06 15:31:18 GMT 35.940048 30.923710 41,000 141 484 0
2020-10-06 15:31:13 GMT 35.957832 30.906059 41,000 141 484 0
2020-10-06 15:31:07 GMT 35.957832 30.906059 41,000 141 484 0
2020-10-06 15:31:01 GMT 35.969006 30.894957 41,000 141 483 0
2020-10-06 15:30:57 GMT 35.977898 30.886133 41,000 140 484 0
2020-10-06 15:30:51 GMT 35.986557 30.877426 41,000 140 484 0
2020-10-06 15:30:47 GMT 35.994053 30.870005 41,000 140 483 0
2020-10-06 15:30:40 GMT 36.004715 30.859280 41,000 141 483 0
2020-10-06 15:30:36 GMT 36.011929 30.852121 41,000 141 483 0
2020-10-06 15:30:33 GMT 36.018211 30.845928 41,000 141 482 0
2020-10-06 15:30:30 GMT 36.023098 30.841137 41,000 141 482 0
2020-10-06 15:30:27 GMT 36.029243 30.835175 41,000 142 482 0
2020-10-06 15:30:20 GMT 36.041069 30.823896 41,000 142 482 0
2020-10-06 15:30:16 GMT 36.047882 30.817394 41,000 142 483 0
2020-10-06 15:30:11 GMT 36.057690 30.808002 41,000 142 483 0
2020-10-06 15:30:06 GMT 36.067108 30.798969 41,000 142 483 0
2020-10-06 15:29:59 GMT 36.077427 30.789068 41,000 142 483 0
2020-10-06 15:29:55 GMT 36.084873 30.781939 41,000 142 483 0
2020-10-06 15:29:51 GMT 36.092091 30.774984 41,000 142 483 0
2020-10-06 15:29:47 GMT 36.097908 30.769432 41,000 142 483 0
2020-10-06 15:29:44 GMT 36.103317 30.764236 41,000 142 483 0
2020-10-06 15:29:41 GMT 36.108765 30.758972 41,000 142 483 0
2020-10-06 15:29:38 GMT 36.113644 30.754356 41,000 142 483 0
2020-10-06 15:29:35 GMT 36.121418 30.746876 41,000 142 483 0
2020-10-06 15:29:31 GMT 36.127304 30.741177 41,000 142 483 0
2020-10-06 15:29:28 GMT 36.132172 30.736532 41,000 142 483 0
2020-10-06 15:29:24 GMT 36.139664 30.729332 41,000 142 484 0
2020-10-06 15:29:18 GMT 36.150558 30.718884 41,000 142 484 0
2020-10-06 15:29:14 GMT 36.157700 30.711994 41,000 142 484 0
2020-10-06 15:29:11 GMT 36.162895 30.707022 41,000 142 484 0
2020-10-06 15:29:06 GMT 36.170563 30.699635 41,000 142 483 0
2020-10-06 15:29:03 GMT 36.177883 30.692587 41,000 142 483 0
2020-10-06 15:29:00 GMT 36.181423 30.689198 41,000 142 483 0
2020-10-06 15:28:57 GMT 36.186729 30.684113 41,000 142 483 0
2020-10-06 15:28:53 GMT 36.194733 30.676403 41,000 142 483 0
2020-10-06 15:28:47 GMT 36.204514 30.666990 41,000 142 483 0
2020-10-06 15:28:40 GMT 36.217484 30.654488 41,000 142 483 0
2020-10-06 15:28:36 GMT 36.223740 30.648466 41,000 142 483 0
2020-10-06 15:28:30 GMT 36.235378 30.637245 41,000 142 483 0
2020-10-06 15:28:27 GMT 36.241974 30.630913 41,000 142 483 0
2020-10-06 15:28:22 GMT 36.248840 30.624275 41,000 142 483 0
2020-10-06 15:28:19 GMT 36.253235 30.620041 41,000 142 483 0
2020-10-06 15:28:16 GMT 36.260284 30.613289 41,000 142 483 64
2020-10-06 15:28:09 GMT 36.271641 30.602360 41,000 142 483 0
2020-10-06 15:28:05 GMT 36.278412 30.595779 41,000 142 483 0
2020-10-06 15:27:59 GMT 36.289238 30.585411 41,000 142 483 0
2020-10-06 15:27:55 GMT 36.296722 30.578156 41,000 141 482 0
2020-10-06 15:27:49 GMT 36.307297 30.567970 41,000 141 482 0
2020-10-06 15:27:45 GMT 36.314667 30.560818 41,000 141 482 0
2020-10-06 15:27:38 GMT 36.325928 30.549946 41,000 141 482 0
2020-10-06 15:27:35 GMT 36.333042 30.543043 41,000 141 482 0
2020-10-06 15:27:31 GMT 36.345894 30.530655 41,000 142 483 0
2020-10-06 15:27:24 GMT 36.351105 30.525627 41,000 142 483 0
2020-10-06 15:27:18 GMT 36.361679 30.515442 41,000 142 483 0
2020-10-06 15:27:13 GMT 36.369415 30.507946 41,000 141 482 0
2020-10-06 15:27:10 GMT 36.380947 30.496820 41,000 141 482 0
2020-10-06 15:27:03 GMT 36.387909 30.490093 41,000 141 482 0
2020-10-06 15:27:00 GMT 36.393982 30.484198 41,000 141 482 0
2020-10-06 15:26:55 GMT 36.402035 30.476366 41,000 141 481 0
2020-10-06 15:26:52 GMT 36.406597 30.471985 41,000 141 482 0
2020-10-06 15:26:47 GMT 36.416519 30.462341 41,000 141 481 0
2020-10-06 15:26:43 GMT 36.424255 30.454845 41,000 141 481 0
2020-10-06 15:26:37 GMT 36.434052 30.445347 41,000 141 481 0
2020-10-06 15:26:32 GMT 36.442581 30.437096 41,000 141 481 0
2020-10-06 15:26:27 GMT 36.451401 30.428467 41,000 141 481 0
2020-10-06 15:26:22 GMT 36.461929 30.418282 41,000 141 481 0
2020-10-06 15:26:18 GMT 36.466644 30.413704 41,000 141 481 0
2020-10-06 15:26:14 GMT 36.473648 30.406895 41,000 141 481 0
2020-10-06 15:26:11 GMT 36.479599 30.401115 41,000 141 481 0
2020-10-06 15:26:06 GMT 36.487839 30.393105 41,000 141 480 0
2020-10-06 15:26:00 GMT 36.497818 30.383434 41,000 141 480 0
2020-10-06 15:25:56 GMT 36.505753 30.375677 41,000 141 480 0
2020-10-06 15:25:51 GMT 36.515388 30.366327 41,000 141 480 0
2020-10-06 15:25:45 GMT 36.523682 30.358257 41,000 141 479 0
2020-10-06 15:25:40 GMT 36.533478 30.348759 41,000 141 480 0
2020-10-06 15:25:35 GMT 36.541672 30.340748 41,000 141 479 0
2020-10-06 15:25:32 GMT 36.547325 30.335239 41,000 141 479 0
2020-10-06 15:25:29 GMT 36.554581 30.328217 41,000 141 479 0
2020-10-06 15:25:25 GMT 36.559010 30.323902 41,000 141 479 0
2020-10-06 15:25:20 GMT 36.575069 30.308241 41,000 141 479 0
2020-10-06 15:25:17 GMT 36.575069 30.308241 41,000 141 479 0
2020-10-06 15:25:10 GMT 36.584747 30.298805 41,000 141 479 0
2020-10-06 15:25:07 GMT 36.589783 30.293827 41,000 141 479 0
2020-10-06 15:25:04 GMT 36.595135 30.288664 41,000 141 479 64
2020-10-06 15:25:00 GMT 36.603058 30.280895 41,000 141 479 0
2020-10-06 15:24:56 GMT 36.611618 30.272598 41,000 141 480 0
2020-10-06 15:24:50 GMT 36.619492 30.264931 41,000 141 480 0
2020-10-06 15:24:45 GMT 36.629162 30.255470 41,000 141 480 0
2020-10-06 15:24:39 GMT 36.638615 30.246239 41,000 141 480 0
2020-10-06 15:24:34 GMT 36.648575 30.236538 41,000 141 481 0
2020-10-06 15:24:30 GMT 36.655743 30.229525 41,000 141 481 0
2020-10-06 15:24:27 GMT 36.662613 30.222759 41,000 141 481 0
2020-10-06 15:24:23 GMT 36.666824 30.218639 41,000 141 481 0
2020-10-06 15:24:18 GMT 36.676620 30.209084 41,000 141 481 0
2020-10-06 15:24:13 GMT 36.685257 30.200598 41,000 141 481 0
2020-10-06 15:24:09 GMT 36.692688 30.193291 41,000 141 482 0
2020-10-06 15:24:06 GMT 36.702164 30.184078 41,000 141 482 0
2020-10-06 15:23:58 GMT 36.711090 30.175323 41,000 141 482 0
2020-10-06 15:23:53 GMT 36.720497 30.166121 41,000 141 482 0
2020-10-06 15:23:48 GMT 36.729172 30.157642 41,000 141 482 0
2020-10-06 15:23:43 GMT 36.738144 30.148830 41,000 141 484 0
2020-10-06 15:23:36 GMT 36.749908 30.137329 41,000 141 484 0
2020-10-06 15:23:32 GMT 36.756996 30.130356 41,000 141 484 0
2020-10-06 15:23:27 GMT 36.766167 30.121355 41,000 141 484 0
2020-10-06 15:23:22 GMT 36.774673 30.112953 41,000 141 484 0
2020-10-06 15:23:17 GMT 36.783646 30.104141 41,000 141 484 0
2020-10-06 15:23:11 GMT 36.792984 30.094986 41,000 141 485 0
2020-10-06 15:23:08 GMT 36.799850 30.088234 41,000 141 485 0
2020-10-06 15:23:05 GMT 36.804153 30.084015 41,000 141 485 0
2020-10-06 15:23:02 GMT 36.810345 30.077936 41,000 141 484 0
2020-10-06 15:22:58 GMT 36.818256 30.070164 41,000 141 485 0
2020-10-06 15:22:54 GMT 36.823704 30.064848 41,000 141 485 0
2020-10-06 15:22:51 GMT 36.829102 30.059566 41,000 141 485 0
2020-10-06 15:22:45 GMT 36.839394 30.049419 41,000 141 485 0
2020-10-06 15:22:41 GMT 36.847046 30.041885 41,000 141 485 0
2020-10-06 15:22:35 GMT 36.856293 30.032801 41,000 141 484 0
2020-10-06 15:22:31 GMT 36.864716 30.024500 41,000 141 484 0
2020-10-06 15:22:25 GMT 36.873962 30.015467 41,000 141 484 0
2020-10-06 15:22:21 GMT 36.882935 30.006641 41,000 141 484 0
2020-10-06 15:22:15 GMT 36.892368 29.997393 41,000 141 484 0
2020-10-06 15:22:10 GMT 36.901356 29.988556 41,000 141 484 0
2020-10-06 15:22:04 GMT 36.910904 29.979118 41,000 141 484 0
2020-10-06 15:22:00 GMT 36.919277 29.970882 41,000 141 483 0
2020-10-06 15:21:54 GMT 36.928726 29.961508 41,000 141 483 0
2020-10-06 15:21:48 GMT 36.941154 29.949207 41,000 141 483 0
2020-10-06 15:21:44 GMT 36.947163 29.943296 41,000 141 483 0
2020-10-06 15:21:39 GMT 36.955811 29.934706 41,000 141 484 0
2020-10-06 15:21:34 GMT 36.964710 29.925982 41,000 141 484 0
2020-10-06 15:21:28 GMT 36.977463 29.913433 41,000 141 484 0
2020-10-06 15:21:24 GMT 36.982727 29.908291 41,000 141 484 0
2020-10-06 15:21:18 GMT 36.991943 29.899174 41,000 141 483 0
2020-10-06 15:21:14 GMT 36.999485 29.891708 41,000 141 483 0
2020-10-06 15:21:11 GMT 37.004837 29.886377 41,000 141 484 0
2020-10-06 15:21:08 GMT 37.010380 29.880901 41,000 141 484 0
2020-10-06 15:21:02 GMT 37.021225 29.870094 41,000 141 484 0
2020-10-06 15:20:58 GMT 37.028000 29.863411 41,000 141 484 0
2020-10-06 15:20:54 GMT 37.036972 29.854528 41,000 141 485 0
2020-10-06 15:20:51 GMT 37.040314 29.851255 41,000 141 485 0
2020-10-06 15:20:47 GMT 37.046551 29.845078 41,000 141 485 0
2020-10-06 15:20:42 GMT 37.058075 29.833666 41,000 141 485 0
2020-10-06 15:20:38 GMT 37.064148 29.827642 41,000 141 485 0
2020-10-06 15:20:31 GMT 37.075413 29.816477 41,000 141 486 0
2020-10-06 15:20:27 GMT 37.082626 29.809313 41,000 141 486 0
2020-10-06 15:20:23 GMT 37.089520 29.802505 41,000 141 486 64
2020-10-06 15:20:20 GMT 37.094082 29.797968 41,000 141 487 0
2020-10-06 15:20:17 GMT 37.100510 29.791533 41,000 141 487 0
2020-10-06 15:20:10 GMT 37.111397 29.780771 41,000 141 488 0
2020-10-06 15:20:07 GMT 37.118797 29.773426 41,000 141 488 0
2020-10-06 15:20:01 GMT 37.129738 29.762560 41,000 141 488 0
2020-10-06 15:19:56 GMT 37.137634 29.754717 41,000 141 488 0
2020-10-06 15:19:50 GMT 37.147800 29.744646 41,000 141 488 0
2020-10-06 15:19:45 GMT 37.155388 29.737064 41,000 141 488 0
2020-10-06 15:19:40 GMT 37.165443 29.727093 41,000 141 488 0
2020-10-06 15:19:36 GMT 37.173843 29.718719 41,000 141 488 0
2020-10-06 15:19:32 GMT 37.179970 29.712645 41,000 141 488 0
2020-10-06 15:19:29 GMT 37.183914 29.708668 41,000 141 488 0
2020-10-06 15:19:25 GMT 37.191608 29.701000 41,000 141 488 0
2020-10-06 15:19:20 GMT 37.201813 29.690903 41,000 141 489 0
2020-10-06 15:19:15 GMT 37.209854 29.682909 41,000 141 489 0
2020-10-06 15:19:09 GMT 37.220097 29.672640 41,000 141 489 0
2020-10-06 15:19:05 GMT 37.229500 29.663324 41,000 141 489 0
2020-10-06 15:19:01 GMT 37.234909 29.657944 41,000 141 489 0
2020-10-06 15:18:58 GMT 37.238670 29.654131 41,000 141 489 0
2020-10-06 15:18:53 GMT 37.247818 29.645029 41,000 141 489 0
2020-10-06 15:18:48 GMT 37.257477 29.635441 41,000 141 489 64
2020-10-06 15:18:43 GMT 37.265350 29.627556 41,000 141 490 -64
2020-10-06 15:18:38 GMT 37.275101 29.617855 41,000 141 491 0
2020-10-06 15:18:34 GMT 37.283875 29.609051 41,000 141 491 -64
2020-10-06 15:18:28 GMT 37.293732 29.599213 41,000 141 491 0
2020-10-06 15:18:23 GMT 37.301472 29.591496 41,000 141 491 0
2020-10-06 15:18:20 GMT 37.308033 29.584929 41,000 141 491 0
2020-10-06 15:18:17 GMT 37.312828 29.580151 41,000 141 491 0
2020-10-06 15:18:14 GMT 37.316666 29.576305 41,000 141 492 0
2020-10-06 15:18:10 GMT 37.325119 29.567850 41,000 141 492 0
2020-10-06 15:18:06 GMT 37.331543 29.561462 41,000 141 492 0
2020-10-06 15:18:03 GMT 37.338730 29.554276 41,000 141 493 0
2020-10-06 15:18:00 GMT 37.344635 29.548372 41,000 141 493 0
2020-10-06 15:17:57 GMT 37.349762 29.543230 41,000 141 493 0
2020-10-06 15:17:52 GMT 37.357269 29.535690 41,000 141 493 0
2020-10-06 15:17:49 GMT 37.363495 29.529497 41,000 141 493 0
2020-10-06 15:17:46 GMT 37.368118 29.524822 41,000 141 493 0
2020-10-06 15:17:41 GMT 37.375443 29.517517 41,000 141 493 0
2020-10-06 15:17:36 GMT 37.387684 29.505278 41,000 141 493 0
2020-10-06 15:17:32 GMT 37.394249 29.498650 41,000 141 493 0
2020-10-06 15:17:25 GMT 37.405327 29.487602 41,000 141 494 0
2020-10-06 15:17:21 GMT 37.411938 29.480976 41,000 141 494 0
2020-10-06 15:17:18 GMT 37.418037 29.474886 41,000 141 494 0
2020-10-06 15:17:13 GMT 37.426529 29.466385 41,000 141 494 0
2020-10-06 15:17:08 GMT 37.437241 29.455631 41,000 141 495 0
2020-10-06 15:17:05 GMT 37.442848 29.449926 41,000 141 495 0
2020-10-06 15:17:01 GMT 37.449459 29.443300 41,000 141 495 0
2020-10-06 15:16:55 GMT 37.458847 29.433891 41,000 141 495 0
2020-10-06 15:16:52 GMT 37.463379 29.429268 41,000 141 495 0
2020-10-06 15:16:49 GMT 37.469193 29.423431 41,000 141 494 0
2020-10-06 15:16:45 GMT 37.477203 29.415367 41,000 141 494 0
2020-10-06 15:16:42 GMT 37.481689 29.410868 41,000 141 494 0
2020-10-06 15:16:37 GMT 37.492401 29.400114 41,000 141 494 0
2020-10-06 15:16:34 GMT 37.495872 29.396608 41,000 141 494 0
2020-10-06 15:16:30 GMT 37.504898 29.387550 41,000 141 493 0
2020-10-06 15:16:25 GMT 37.512817 29.379591 41,000 141 493 0
2020-10-06 15:16:22 GMT 37.517349 29.374987 41,000 141 493 0
2020-10-06 15:16:19 GMT 37.522594 29.369740 41,000 141 493 0
2020-10-06 15:16:16 GMT 37.528503 29.363768 41,000 141 493 0
2020-10-06 15:16:13 GMT 37.535069 29.357141 41,000 141 493 0
2020-10-06 15:16:09 GMT 37.540749 29.351410 41,000 141 493 0
2020-10-06 15:16:06 GMT 37.547173 29.344959 41,000 141 492 0
2020-10-06 15:16:02 GMT 37.552155 29.339945 41,000 141 492 0
2020-10-06 15:15:59 GMT 37.559418 29.332600 41,000 141 492 0
2020-10-06 15:15:53 GMT 37.569191 29.322748 41,000 141 492 0
2020-10-06 15:15:50 GMT 37.581345 29.310472 41,000 141 492 -64
2020-10-06 15:15:46 GMT 37.581345 29.310472 41,000 141 492 0
2020-10-06 15:15:43 GMT 37.586090 29.305733 41,000 141 492 0
2020-10-06 15:15:37 GMT 37.596889 29.294806 41,000 141 491 0
2020-10-06 15:15:34 GMT 37.603268 29.288357 41,000 141 491 0
2020-10-06 15:15:30 GMT 37.609222 29.282364 41,000 141 491 0
2020-10-06 15:15:25 GMT 37.619156 29.272369 41,000 141 491 0
2020-10-06 15:15:22 GMT 37.624542 29.266920 41,000 141 491 0
2020-10-06 15:15:18 GMT 37.632248 29.259106 41,000 141 491 0
2020-10-06 15:15:14 GMT 37.639439 29.251875 41,000 141 491 0
2020-10-06 15:15:06 GMT 37.651451 29.239695 41,000 141 491 0
2020-10-06 15:15:03 GMT 37.657379 29.233685 41,000 141 491 -64
2020-10-06 15:14:58 GMT 37.665462 29.225542 41,000 141 491 -64
2020-10-06 15:14:54 GMT 37.674728 29.216093 41,000 141 491 0
2020-10-06 15:14:51 GMT 37.683338 29.207453 41,000 141 491 0
2020-10-06 15:14:44 GMT 37.690414 29.200287 41,000 141 490 0
2020-10-06 15:14:41 GMT 37.697117 29.193480 41,000 141 491 -64
2020-10-06 15:14:33 GMT 37.712852 29.177479 41,000 141 490 0
2020-10-06 15:14:29 GMT 37.717461 29.172821 41,000 141 491 0
2020-10-06 15:14:24 GMT 37.726227 29.163967 41,000 141 491 0
2020-10-06 15:14:20 GMT 37.734375 29.155670 41,000 141 491 0
2020-10-06 15:14:14 GMT 37.744881 29.144997 41,000 141 492 0
2020-10-06 15:14:09 GMT 37.753586 29.136221 41,000 141 492 0
2020-10-06 15:14:05 GMT 37.762527 29.127092 41,000 141 492 0
2020-10-06 15:14:02 GMT 37.766052 29.123470 41,000 141 492 0
2020-10-06 15:13:59 GMT 37.770676 29.118795 41,000 141 492 0
2020-10-06 15:13:55 GMT 37.777653 29.111679 41,000 141 492 0
2020-10-06 15:13:52 GMT 37.784821 29.104361 41,000 141 492 0
2020-10-06 15:13:49 GMT 37.788574 29.100620 41,000 141 492 0
2020-10-06 15:13:46 GMT 37.794067 29.095011 41,000 141 492 0
2020-10-06 15:13:43 GMT 37.799114 29.089886 41,000 141 492 0
2020-10-06 15:13:40 GMT 37.813385 29.075377 41,000 141 492 0
2020-10-06 15:13:36 GMT 37.813385 29.075377 41,000 141 492 0
2020-10-06 15:13:32 GMT 37.818741 29.070000 41,000 141 492 0
2020-10-06 15:13:28 GMT 37.826069 29.062481 41,000 141 492 0
2020-10-06 15:13:22 GMT 37.835655 29.052748 41,000 141 492 0
2020-10-06 15:13:19 GMT 37.840851 29.047441 41,000 141 492 0
2020-10-06 15:13:16 GMT 37.849182 29.038969 41,000 141 492 0
2020-10-06 15:13:12 GMT 37.854420 29.033642 41,000 141 492 0
2020-10-06 15:13:09 GMT 37.858566 29.029444 41,000 141 492 0
2020-10-06 15:13:05 GMT 37.875366 29.012321 41,000 141 491 0
2020-10-06 15:13:00 GMT 37.881042 29.006536 41,000 141 491 0
2020-10-06 15:12:57 GMT 37.881042 29.006536 41,000 140 490 0
2020-10-06 15:12:51 GMT 37.890823 28.996561 41,000 141 489 0
2020-10-06 15:12:48 GMT 37.896454 28.990770 41,000 141 489 0
2020-10-06 15:12:45 GMT 37.901947 28.985218 41,000 141 489 0
2020-10-06 15:12:40 GMT 37.913132 28.973810 41,000 141 489 0
2020-10-06 15:12:37 GMT 37.916565 28.970289 41,000 141 489 0
2020-10-06 15:12:30 GMT 37.929554 28.956976 41,000 141 488 0
2020-10-06 15:12:26 GMT 37.934673 28.951780 41,000 141 488 0
2020-10-06 15:12:23 GMT 37.940918 28.945410 41,000 141 488 0
2020-10-06 15:12:18 GMT 37.948792 28.937346 41,000 140 487 0
2020-10-06 15:12:15 GMT 37.953873 28.932144 41,000 140 487 0
2020-10-06 15:12:11 GMT 37.961163 28.924673 41,000 140 487 0
2020-10-06 15:12:08 GMT 37.966236 28.919479 41,000 140 486 0
2020-10-06 15:12:05 GMT 37.971588 28.914028 41,000 140 486 0
2020-10-06 15:12:01 GMT 37.979179 28.906223 41,000 140 486 0
2020-10-06 15:11:58 GMT 37.983555 28.901745 41,000 140 486 0
2020-10-06 15:11:54 GMT 37.990814 28.894278 41,000 140 486 0
2020-10-06 15:11:48 GMT 38.002350 28.882471 41,000 141 486 0
2020-10-06 15:11:44 GMT 38.009251 28.875414 41,000 140 485 0
2020-10-06 15:11:39 GMT 38.018234 28.866226 41,000 141 484 0
2020-10-06 15:11:35 GMT 38.026661 28.857561 41,000 141 484 0
2020-10-06 15:11:28 GMT 38.037319 28.846695 41,000 141 484 0
2020-10-06 15:11:24 GMT 38.044258 28.839529 41,000 140 484 0
2020-10-06 15:11:20 GMT 38.050541 28.833139 41,000 140 484 0
2020-10-06 15:11:17 GMT 38.055058 28.828484 41,000 140 483 0
2020-10-06 15:11:14 GMT 38.061768 28.821638 41,000 140 483 0
2020-10-06 15:11:08 GMT 38.074192 28.808899 41,000 140 483 0
2020-10-06 15:11:03 GMT 38.082413 28.800425 41,000 140 483 0
2020-10-06 15:10:59 GMT 38.087505 28.795166 41,000 140 483 0
2020-10-06 15:10:55 GMT 38.093929 28.788538 41,000 140 483 0
2020-10-06 15:10:52 GMT 38.098160 28.784180 41,000 140 481 0
2020-10-06 15:10:49 GMT 38.103985 28.778210 41,000 140 481 0
2020-10-06 15:10:46 GMT 38.108917 28.773134 41,000 140 481 0
2020-10-06 15:10:43 GMT 38.125900 28.755720 41,000 140 481 0
2020-10-06 15:10:37 GMT 38.125900 28.755720 41,000 140 481 0
2020-10-06 15:10:31 GMT 38.136848 28.744413 41,000 140 481 0
2020-10-06 15:10:27 GMT 38.144028 28.737020 41,000 140 481 0
2020-10-06 15:10:24 GMT 38.146820 28.734158 41,000 140 481 0
2020-10-06 15:10:21 GMT 38.153046 28.727730 41,000 140 481 0
2020-10-06 15:10:18 GMT 38.158081 28.722586 41,000 140 481 0
2020-10-06 15:10:14 GMT 38.164223 28.716291 41,000 140 481 0
2020-10-06 15:10:11 GMT 38.171997 28.708231 41,000 140 481 0
2020-10-06 15:10:08 GMT 38.175255 28.704887 41,000 140 481 0
2020-10-06 15:10:04 GMT 38.183216 28.696648 41,000 140 481 0
2020-10-06 15:10:01 GMT 38.187607 28.692141 41,000 140 481 64
2020-10-06 15:09:57 GMT 38.194435 28.685064 41,000 140 481 64
2020-10-06 15:09:53 GMT 38.200348 28.679033 41,000 140 481 0
2020-10-06 15:09:50 GMT 38.206284 28.672915 41,000 140 481 -64
2020-10-06 15:09:47 GMT 38.217178 28.661634 41,000 140 481 0
2020-10-06 15:09:44 GMT 38.217178 28.661634 41,000 140 481 0
2020-10-06 15:09:41 GMT 38.224091 28.654507 41,000 140 481 0
2020-10-06 15:09:37 GMT 38.228210 28.650240 41,000 140 481 0
2020-10-06 15:09:33 GMT 38.235306 28.642935 41,000 140 481 0
2020-10-06 15:09:30 GMT 38.240570 28.637476 41,000 140 481 0
2020-10-06 15:09:27 GMT 38.245651 28.632240 41,000 140 481 0
2020-10-06 15:09:24 GMT 38.250504 28.627214 41,000 140 481 0
2020-10-06 15:09:21 GMT 38.256630 28.620876 41,000 140 481 0
2020-10-06 15:09:16 GMT 38.264648 28.612606 41,000 140 481 0
2020-10-06 15:09:13 GMT 38.270733 28.606310 41,000 140 481 0
2020-10-06 15:09:05 GMT 38.285397 28.591143 41,000 140 479 0
2020-10-06 15:09:02 GMT 38.295959 28.580231 41,000 140 479 0
2020-10-06 15:08:58 GMT 38.295959 28.580231 41,000 140 479 0
2020-10-06 15:08:54 GMT 38.303459 28.572454 41,000 140 479 0
2020-10-06 15:08:51 GMT 38.308441 28.567320 41,000 140 479 0
2020-10-06 15:08:48 GMT 38.314819 28.560751 41,000 140 479 0
2020-10-06 15:08:45 GMT 38.318161 28.557264 41,000 140 479 0
2020-10-06 15:08:42 GMT 38.331299 28.543615 41,000 140 479 0
2020-10-06 15:08:38 GMT 38.331299 28.543615 41,000 140 479 0
2020-10-06 15:08:34 GMT 38.338257 28.536404 41,000 140 479 0
2020-10-06 15:08:31 GMT 38.341911 28.532570 41,000 140 479 0
2020-10-06 15:08:28 GMT 38.349060 28.525242 41,000 140 479 0
2020-10-06 15:08:25 GMT 38.352814 28.521326 41,000 140 478 0
2020-10-06 15:08:22 GMT 38.358994 28.514898 41,000 140 478 0
2020-10-06 15:08:16 GMT 38.368927 28.504614 41,000 140 477 0
2020-10-06 15:08:13 GMT 38.373367 28.499996 41,000 140 477 0
2020-10-06 15:08:09 GMT 38.385178 28.487724 41,000 140 477 0
2020-10-06 15:08:03 GMT 38.391129 28.481529 41,000 140 477 0
2020-10-06 15:08:00 GMT 38.395168 28.477339 41,000 140 476 0
2020-10-06 15:07:57 GMT 38.404900 28.467249 41,000 140 476 0
2020-10-06 15:07:51 GMT 38.411636 28.460199 41,000 140 476 0
2020-10-06 15:07:46 GMT 38.420074 28.451416 41,000 140 476 0
2020-10-06 15:07:41 GMT 38.429398 28.441753 41,000 140 476 0
2020-10-06 15:07:36 GMT 38.439102 28.431662 41,000 140 476 0
2020-10-06 15:07:30 GMT 38.447399 28.423096 41,000 140 476 0
2020-10-06 15:07:27 GMT 38.450985 28.419373 41,000 140 476 0
2020-10-06 15:07:24 GMT 38.457085 28.412964 41,000 140 476 0
2020-10-06 15:07:19 GMT 38.464764 28.404968 41,000 140 475 0
2020-10-06 15:07:14 GMT 38.473846 28.395479 41,000 140 475 0
2020-10-06 15:07:09 GMT 38.483368 28.385567 41,000 140 475 0
2020-10-06 15:07:05 GMT 38.491299 28.377319 41,000 140 474 0
2020-10-06 15:07:02 GMT 38.496559 28.371826 41,000 140 474 0
2020-10-06 15:06:59 GMT 38.499847 28.368370 41,000 140 474 0
2020-10-06 15:06:56 GMT 38.504791 28.363235 41,000 140 474 0
2020-10-06 15:06:53 GMT 38.508942 28.358887 41,000 140 474 0
2020-10-06 15:06:49 GMT 38.516830 28.350637 41,000 140 474 0
2020-10-06 15:06:46 GMT 38.521698 28.345581 41,000 140 474 0
2020-10-06 15:06:43 GMT 38.526772 28.340271 41,000 140 474 0
2020-10-06 15:06:38 GMT 38.535431 28.331238 41,000 140 474 0
2020-10-06 15:06:35 GMT 38.539581 28.326933 41,000 140 474 0
2020-10-06 15:06:32 GMT 38.545067 28.321167 41,000 140 474 0
2020-10-06 15:06:29 GMT 38.551865 28.314087 41,000 140 474 0
2020-10-06 15:06:25 GMT 38.557892 28.307768 41,000 140 474 0
2020-10-06 15:06:21 GMT 38.565857 28.299408 41,000 140 474 0
2020-10-06 15:06:17 GMT 38.571369 28.293640 41,000 140 474 0
2020-10-06 15:06:13 GMT 38.579956 28.284719 41,000 140 474 0
2020-10-06 15:06:08 GMT 38.586411 28.277973 41,000 140 474 0
2020-10-06 15:06:05 GMT 38.591759 28.272339 41,000 140 474 0
2020-10-06 15:06:01 GMT 38.597443 28.266390 41,000 140 474 0
2020-10-06 15:05:58 GMT 38.604263 28.259283 41,000 140 474 0
2020-10-06 15:05:55 GMT 38.608425 28.254944 41,000 140 475 0
2020-10-06 15:05:49 GMT 38.617874 28.244995 41,000 140 475 0
2020-10-06 15:05:45 GMT 38.625507 28.237000 41,000 140 474 0
2020-10-06 15:05:40 GMT 38.635620 28.226385 41,000 140 474 0
2020-10-06 15:05:37 GMT 38.638916 28.222961 41,000 140 474 0
2020-10-06 15:05:34 GMT 38.643723 28.217846 41,000 140 474 0
2020-10-06 15:05:31 GMT 38.648300 28.213070 41,000 140 474 0
2020-10-06 15:05:28 GMT 38.654388 28.206680 41,000 140 473 0
2020-10-06 15:05:23 GMT 38.661484 28.199217 41,000 140 472 0
2020-10-06 15:05:19 GMT 38.669586 28.190680 41,000 140 473 0
2020-10-06 15:05:14 GMT 38.679138 28.180664 41,000 140 473 0
2020-10-06 15:05:10 GMT 38.684910 28.174622 41,000 140 473 0
2020-10-06 15:05:06 GMT 38.691521 28.167725 41,000 140 472 0
2020-10-06 15:05:02 GMT 38.699295 28.159607 41,000 140 472 0
2020-10-06 15:04:59 GMT 38.705109 28.153481 41,000 140 472 0
2020-10-06 15:04:55 GMT 38.708817 28.149599 41,000 140 472 0
2020-10-06 15:04:52 GMT 38.714035 28.144108 41,000 140 471 0
2020-10-06 15:04:49 GMT 38.720524 28.137268 41,000 140 472 0
2020-10-06 15:04:46 GMT 38.726349 28.131149 41,000 140 472 0
2020-10-06 15:04:38 GMT 38.738983 28.117834 41,000 140 471 0
2020-10-06 15:04:35 GMT 38.743099 28.113525 41,000 140 471 0
2020-10-06 15:04:31 GMT 38.757477 28.098370 41,000 140 471 0
2020-10-06 15:04:28 GMT 38.757477 28.098370 41,000 140 471 0
2020-10-06 15:04:25 GMT 38.760681 28.095026 41,000 140 471 0
2020-10-06 15:04:20 GMT 38.768921 28.086309 41,000 140 470 0
2020-10-06 15:04:17 GMT 38.773956 28.081055 41,000 140 470 0
2020-10-06 15:04:14 GMT 38.778305 28.076397 41,000 140 470 0
2020-10-06 15:04:10 GMT 38.790894 28.063143 41,000 140 470 0
2020-10-06 15:04:07 GMT 38.790894 28.063143 41,000 140 470 0
2020-10-06 15:04:04 GMT 38.795105 28.058723 41,000 140 470 64
2020-10-06 15:03:59 GMT 38.803986 28.049351 41,000 140 469 0
2020-10-06 15:03:54 GMT 38.812279 28.040588 41,000 140 469 0
2020-10-06 15:03:49 GMT 38.820656 28.031799 41,000 140 469 0
2020-10-06 15:03:43 GMT 38.830582 28.021227 41,000 140 469 0
2020-10-06 15:03:37 GMT 38.842537 28.008606 41,000 140 468 0
2020-10-06 15:03:34 GMT 38.846725 28.004211 41,000 140 468 0
2020-10-06 15:03:28 GMT 38.855667 27.994776 41,000 140 468 0
2020-10-06 15:03:23 GMT 38.864090 27.985840 41,000 140 468 0
2020-10-06 15:03:19 GMT 38.870094 27.979492 41,000 140 468 0
2020-10-06 15:03:15 GMT 38.877777 27.971375 41,000 140 468 0
2020-10-06 15:03:10 GMT 38.886761 27.961853 41,000 140 467 0
2020-10-06 15:03:06 GMT 38.898582 27.949402 41,000 140 467 0
2020-10-06 15:03:03 GMT 38.898582 27.949402 41,000 140 467 0
2020-10-06 15:02:59 GMT 38.904007 27.943666 41,000 140 467 0
2020-10-06 15:02:52 GMT 38.916000 27.930948 41,000 140 467 0
2020-10-06 15:02:49 GMT 38.920990 27.925634 41,000 140 467 0
2020-10-06 15:02:45 GMT 38.932892 27.913025 41,000 140 467 0
2020-10-06 15:02:42 GMT 38.932892 27.913025 41,000 140 467 0
2020-10-06 15:02:39 GMT 38.937790 27.907841 41,000 140 467 0
2020-10-06 15:02:34 GMT 38.946304 27.898825 41,000 140 467 0
2020-10-06 15:02:29 GMT 38.956032 27.888489 41,000 140 467 0
2020-10-06 15:02:25 GMT 38.961895 27.882324 41,000 140 467 0
2020-10-06 15:02:22 GMT 38.967773 27.876017 41,000 140 467 0
2020-10-06 15:02:18 GMT 38.971859 27.871704 41,000 140 467 0
2020-10-06 15:02:14 GMT 38.984070 27.858702 41,000 140 467 0
2020-10-06 15:02:11 GMT 38.989059 27.853388 41,000 140 467 0
2020-10-06 15:02:08 GMT 38.989059 27.853388 41,000 140 467 0
2020-10-06 15:02:03 GMT 39.002304 27.839294 41,000 140 467 0
2020-10-06 15:02:00 GMT 39.002304 27.839294 41,000 140 467 0
2020-10-06 15:01:57 GMT 39.006546 27.834818 41,000 140 467 0
2020-10-06 15:01:53 GMT 39.016129 27.824585 41,000 140 467 0
2020-10-06 15:01:48 GMT 39.023666 27.816547 41,000 140 467 0
2020-10-06 15:01:44 GMT 39.031071 27.808716 41,000 140 467 0
2020-10-06 15:01:40 GMT 39.035400 27.804138 41,000 140 467 0
2020-10-06 15:01:36 GMT 39.047878 27.790894 41,000 140 466 0
2020-10-06 15:01:33 GMT 39.047878 27.790894 41,000 140 466 0
2020-10-06 15:01:30 GMT 39.052021 27.786499 41,000 140 466 0
2020-10-06 15:01:26 GMT 39.057724 27.780363 41,000 140 465 -64
2020-10-06 15:01:23 GMT 39.064262 27.773376 41,000 140 465 -64
2020-10-06 15:01:19 GMT 39.069992 27.767288 41,000 140 465 -64
2020-10-06 15:01:16 GMT 39.075855 27.761047 41,000 140 465 0
2020-10-06 15:01:10 GMT 39.086143 27.750122 41,000 140 464 0
2020-10-06 15:01:07 GMT 39.091141 27.744719 41,000 140 464 0
2020-10-06 15:01:01 GMT 39.101898 27.733315 41,000 140 464 64
2020-10-06 15:00:58 GMT 39.110210 27.724365 41,000 140 464 64
2020-10-06 15:00:52 GMT 39.114944 27.719341 41,000 140 464 0
2020-10-06 15:00:48 GMT 39.121616 27.712219 41,000 140 464 0
2020-10-06 15:00:44 GMT 39.127388 27.706055 41,000 140 464 0
2020-10-06 15:00:41 GMT 39.133072 27.699997 41,000 140 463 0
2020-10-06 15:00:38 GMT 39.138420 27.694275 41,000 140 464 0
2020-10-06 15:00:35 GMT 39.144287 27.687996 41,000 140 464 64
2020-10-06 15:00:31 GMT 39.149826 27.682129 41,000 140 463 0
2020-10-06 15:00:26 GMT 39.166214 27.664589 41,000 140 463 0
2020-10-06 15:00:22 GMT 39.166214 27.664589 41,000 140 463 0
2020-10-06 15:00:17 GMT 39.171894 27.658508 41,000 140 463 0
2020-10-06 15:00:14 GMT 39.177990 27.651978 41,000 140 463 0
2020-10-06 15:00:11 GMT 39.182739 27.646851 41,000 140 463 0
2020-10-06 15:00:07 GMT 39.188919 27.640228 41,000 140 463 0
2020-10-06 15:00:03 GMT 39.195511 27.633183 41,000 140 463 0
2020-10-06 15:00:00 GMT 39.200455 27.627869 41,000 140 463 -128
2020-10-06 14:59:56 GMT 39.206543 27.621361 41,000 140 463 0
2020-10-06 14:59:53 GMT 39.216248 27.610971 41,000 140 463 0
2020-10-06 14:59:50 GMT 39.216248 27.610971 41,000 140 463 0
2020-10-06 14:59:46 GMT 39.222729 27.603943 41,000 140 462 0
2020-10-06 14:59:43 GMT 39.228058 27.598253 41,000 139 463 0
2020-10-06 14:59:40 GMT 39.233250 27.592651 41,000 139 463 0
2020-10-06 14:59:36 GMT 39.239674 27.585754 41,000 140 464 0
2020-10-06 14:59:32 GMT 39.246239 27.578674 41,000 140 464 0
2020-10-06 14:59:28 GMT 39.252914 27.571505 41,000 140 464 0
2020-10-06 14:59:25 GMT 39.258499 27.565474 41,000 140 463 0
2020-10-06 14:59:22 GMT 39.262802 27.560877 41,000 140 464 0
2020-10-06 14:59:17 GMT 39.272770 27.550171 41,000 140 463 0
2020-10-06 14:59:14 GMT 39.276810 27.545889 41,000 140 463 0
2020-10-06 14:59:10 GMT 39.283989 27.538208 41,000 140 464 64
2020-10-06 14:59:04 GMT 39.294113 27.527260 41,000 139 465 0
2020-10-06 14:58:56 GMT 39.307938 27.511497 41,000 137 464 0
2020-10-06 14:58:53 GMT 39.310318 27.508692 41,000 136 464 64
2020-10-06 14:58:50 GMT 39.314342 27.503906 41,000 136 464 64
2020-10-06 14:58:45 GMT 39.323547 27.492451 41,000 135 465 0
2020-10-06 14:58:41 GMT 39.329498 27.484808 41,000 132 464 0
2020-10-06 14:58:38 GMT 39.334221 27.478577 41,000 133 465 0
2020-10-06 14:58:33 GMT 39.341583 27.468628 41,000 132 465 0
2020-10-06 14:58:28 GMT 39.349163 27.457825 41,000 131 465 0
2020-10-06 14:58:23 GMT 39.356052 27.447571 41,000 129 465 0
2020-10-06 14:58:17 GMT 39.363144 27.436623 41,000 129 465 0
2020-10-06 14:58:13 GMT 39.368500 27.428265 41,000 129 465 0
2020-10-06 14:58:07 GMT 39.378025 27.413452 41,000 129 464 0
2020-10-06 14:58:02 GMT 39.384109 27.403902 41,000 129 464 0
2020-10-06 14:57:59 GMT 39.388546 27.396973 41,000 129 463 0
2020-10-06 14:57:52 GMT 39.398136 27.382080 41,000 129 463 0
2020-10-06 14:57:42 GMT 39.412567 27.359436 41,000 129 463 0
2020-10-06 14:57:37 GMT 39.418076 27.350822 41,000 129 463 0
2020-10-06 14:57:34 GMT 39.426682 27.337387 41,000 129 463 0
2020-10-06 14:57:27 GMT 39.432072 27.328979 41,000 129 463 0
2020-10-06 14:57:21 GMT 39.440266 27.316223 41,000 129 463 0
2020-10-06 14:57:17 GMT 39.447063 27.305603 41,000 129 463 0
2020-10-06 14:57:13 GMT 39.451263 27.299114 41,000 129 462 0
2020-10-06 14:57:10 GMT 39.454559 27.293884 41,000 129 463 0
2020-10-06 14:57:07 GMT 39.460564 27.284485 41,000 129 463 0
2020-10-06 14:57:03 GMT 39.465225 27.277142 41,000 129 463 0
2020-10-06 14:57:00 GMT 39.467873 27.272949 41,000 129 463 0
2020-10-06 14:56:55 GMT 39.474976 27.261679 41,000 129 463 0
2020-10-06 14:56:51 GMT 39.482162 27.250690 41,000 130 463 0
2020-10-06 14:56:46 GMT 39.490356 27.238464 41,000 131 463 0
2020-10-06 14:56:40 GMT 39.496967 27.229004 41,000 132 462 0
2020-10-06 14:56:37 GMT 39.500519 27.224060 41,000 133 462 0
2020-10-06 14:56:34 GMT 39.506836 27.215464 41,000 134 462 0
2020-10-06 14:56:29 GMT 39.513153 27.207224 41,000 135 462 0
2020-10-06 14:56:26 GMT 39.518566 27.200317 41,000 136 461 -64
2020-10-06 14:56:20 GMT 39.528030 27.188654 41,000 136 461 0
2020-10-06 14:56:17 GMT 39.531090 27.184937 41,000 136 460 0
2020-10-06 14:56:11 GMT 39.540298 27.173727 41,000 136 460 0
2020-10-06 14:56:08 GMT 39.546021 27.166740 41,000 136 460 0
2020-10-06 14:55:59 GMT 39.563629 27.145264 41,000 136 460 0
2020-10-06 14:55:50 GMT 39.573898 27.132708 41,000 136 460 0
2020-10-06 14:55:46 GMT 39.578617 27.126953 41,000 136 460 0
2020-10-06 14:55:39 GMT 39.591328 27.111450 41,000 136 460 0
2020-10-06 14:55:36 GMT 39.594818 27.107212 41,000 136 460 0
2020-10-06 14:55:33 GMT 39.599579 27.101301 41,000 136 459 0
2020-10-06 14:55:30 GMT 39.604248 27.095629 41,000 136 459 0
2020-10-06 14:55:26 GMT 39.610043 27.088562 41,000 136 459 0
2020-10-06 14:55:19 GMT 39.620178 27.076164 41,000 136 460 64
2020-10-06 14:55:15 GMT 39.627220 27.067566 41,000 136 459 64
2020-10-06 14:55:09 GMT 39.637089 27.055481 41,000 136 459 -64
2020-10-06 14:55:06 GMT 39.641884 27.049683 41,000 136 459 -64
2020-10-06 14:55:02 GMT 39.648010 27.042191 41,000 136 459 0
2020-10-06 14:54:59 GMT 39.651939 27.037415 41,000 136 459 64
2020-10-06 14:54:56 GMT 39.657200 27.031006 41,000 136 459 0
2020-10-06 14:54:53 GMT 39.661671 27.025513 41,000 136 459 0
2020-10-06 14:54:47 GMT 39.669678 27.015686 41,000 136 459 0
2020-10-06 14:54:43 GMT 39.677170 27.006544 41,000 136 459 0
2020-10-06 14:54:39 GMT 39.683735 26.998535 41,000 136 459 0
2020-10-06 14:54:36 GMT 39.689209 26.991856 41,000 136 459 64
2020-10-06 14:54:33 GMT 39.693832 26.986183 41,000 136 459 -64
2020-10-06 14:54:28 GMT 39.701385 26.976929 41,000 136 459 -64
2020-10-06 14:54:25 GMT 39.705009 26.972534 41,000 136 459 0
2020-10-06 14:54:22 GMT 39.709011 26.967590 41,000 136 459 0
2020-10-06 14:54:15 GMT 39.721756 26.952089 41,000 136 458 0
2020-10-06 14:54:12 GMT 39.724934 26.948242 41,000 136 458 0
2020-10-06 14:54:05 GMT 39.736267 26.934416 41,000 136 459 0
2020-10-06 14:54:01 GMT 39.741989 26.927431 41,000 136 459 0
2020-10-06 14:53:57 GMT 39.749359 26.918356 41,000 136 459 0
2020-10-06 14:53:54 GMT 39.752491 26.914429 41,000 135 458 0
2020-10-06 14:53:51 GMT 39.758636 26.906799 41,000 135 458 0
2020-10-06 14:53:47 GMT 39.763275 26.900980 41,000 135 459 0
2020-10-06 14:53:44 GMT 39.768227 26.894714 41,000 135 459 0
2020-10-06 14:53:41 GMT 39.771927 26.889994 41,000 135 459 0
2020-10-06 14:53:36 GMT 39.778839 26.881226 41,000 135 459 0
2020-10-06 14:53:31 GMT 39.787445 26.870350 41,000 135 459 0
2020-10-06 14:53:23 GMT 39.800217 26.854227 41,000 135 459 0
2020-10-06 14:53:20 GMT 39.804153 26.849213 41,000 135 459 0
2020-10-06 14:53:11 GMT 39.818893 26.830524 41,000 135 459 0
2020-10-06 14:53:03 GMT 39.829491 26.817139 41,000 135 459 0
2020-10-06 14:53:00 GMT 39.833954 26.811478 41,000 135 459 0
2020-10-06 14:52:53 GMT 39.844666 26.797913 41,000 135 459 0
2020-10-06 14:52:50 GMT 39.849884 26.791237 41,000 135 459 0
2020-10-06 14:52:44 GMT 39.859703 26.778809 41,000 135 459 0
2020-10-06 14:52:41 GMT 39.863659 26.773743 41,000 135 459 0
2020-10-06 14:52:33 GMT 39.874737 26.759705 41,000 135 459 0
2020-10-06 14:52:30 GMT 39.881256 26.751404 41,000 135 459 0
2020-10-06 14:52:23 GMT 39.889774 26.740601 41,000 135 459 0
2020-10-06 14:52:18 GMT 39.897903 26.730274 41,000 135 459 0
2020-10-06 14:52:12 GMT 39.907978 26.717468 41,000 135 459 0
2020-10-06 14:52:09 GMT 39.911934 26.712402 41,000 135 459 0
2020-10-06 14:52:04 GMT 39.919708 26.702576 41,000 135 458 0
2020-10-06 14:51:58 GMT 39.927795 26.692322 41,000 135 458 0
2020-10-06 14:51:53 GMT 39.935490 26.682545 41,000 135 458 0
2020-10-06 14:51:50 GMT 39.940937 26.675615 41,000 135 458 0
2020-10-06 14:51:47 GMT 39.945831 26.669373 41,000 135 458 0
2020-10-06 14:51:43 GMT 39.950294 26.663694 41,000 135 458 0
2020-10-06 14:51:39 GMT 39.958206 26.653645 41,000 135 458 0
2020-10-06 14:51:36 GMT 39.961044 26.649961 41,000 135 458 0
2020-10-06 14:51:33 GMT 39.974304 26.633118 41,000 135 458 0
2020-10-06 14:51:29 GMT 39.974304 26.633118 41,000 135 458 0
2020-10-06 14:51:26 GMT 39.977463 26.629028 41,000 135 458 0
2020-10-06 14:51:21 GMT 39.983826 26.620972 41,000 135 457 0
2020-10-06 14:51:18 GMT 39.989491 26.613756 41,000 135 457 0
2020-10-06 14:51:10 GMT 40.002941 26.596590 41,000 135 457 0
2020-10-06 14:51:07 GMT 40.005970 26.592781 41,000 135 457 0
2020-10-06 14:51:01 GMT 40.014862 26.581421 41,000 135 456 0
2020-10-06 14:50:56 GMT 40.023376 26.570557 41,000 135 456 0
2020-10-06 14:50:51 GMT 40.029152 26.563131 41,000 135 456 0
2020-10-06 14:50:46 GMT 40.038368 26.551395 41,000 135 456 0
2020-10-06 14:50:42 GMT 40.043518 26.544739 41,000 135 456 0
2020-10-06 14:50:35 GMT 40.054569 26.530609 41,000 135 456 0
2020-10-06 14:50:31 GMT 40.069382 26.511658 41,000 135 455 0
2020-10-06 14:50:25 GMT 40.069382 26.511658 41,000 135 455 64
2020-10-06 14:50:19 GMT 40.077484 26.501282 41,000 135 455 64
2020-10-06 14:50:16 GMT 40.082886 26.494324 41,000 135 455 0
2020-10-06 14:50:13 GMT 40.085999 26.490295 41,000 135 455 0
2020-10-06 14:50:09 GMT 40.092316 26.482239 41,000 135 455 64
2020-10-06 14:50:05 GMT 40.100143 26.472229 41,000 135 455 0
2020-10-06 14:49:58 GMT 40.109161 26.460754 41,000 135 455 0
2020-10-06 14:49:54 GMT 40.115414 26.452831 41,000 135 454 0
2020-10-06 14:49:51 GMT 40.121281 26.445339 41,000 135 454 0
2020-10-06 14:49:48 GMT 40.124119 26.441656 41,000 134 454 0
2020-10-06 14:49:45 GMT 40.128754 26.435547 41,000 134 454 0
2020-10-06 14:49:42 GMT 40.133244 26.429546 41,000 133 454 0
2020-10-06 14:49:38 GMT 40.138687 26.421932 41,000 132 455 0
2020-10-06 14:49:35 GMT 40.143585 26.414917 41,000 131 456 0
2020-10-06 14:49:29 GMT 40.150864 26.404175 41,000 131 457 0
2020-10-06 14:49:26 GMT 40.156174 26.396362 41,000 131 457 0
2020-10-06 14:49:23 GMT 40.160847 26.389410 41,000 131 457 0
2020-10-06 14:49:19 GMT 40.169506 26.376614 41,000 131 457 0
2020-10-06 14:49:16 GMT 40.174438 26.369263 41,000 131 457 0
2020-10-06 14:49:13 GMT 40.181236 26.359261 41,000 131 457 0
2020-10-06 14:49:08 GMT 40.181236 26.359261 41,000 131 457 0
2020-10-06 14:49:03 GMT 40.189198 26.347462 41,000 131 457 0
2020-10-06 14:48:58 GMT 40.195763 26.337725 41,000 131 457 0
2020-10-06 14:48:54 GMT 40.199814 26.331732 41,000 131 457 0
2020-10-06 14:48:51 GMT 40.203964 26.325562 41,000 131 458 0
2020-10-06 14:48:48 GMT 40.208267 26.319153 41,000 131 458 0
2020-10-06 14:48:44 GMT 40.213715 26.311035 41,000 131 458 0
2020-10-06 14:48:40 GMT 40.220947 26.300333 41,000 131 459 0
2020-10-06 14:48:36 GMT 40.233376 26.281794 41,000 131 459 0
2020-10-06 14:48:32 GMT 40.233376 26.281794 41,000 131 459 0
2020-10-06 14:48:26 GMT 40.238869 26.273680 41,000 131 459 0
2020-10-06 14:48:23 GMT 40.243896 26.266188 41,000 131 459 0
2020-10-06 14:48:16 GMT 40.253906 26.251282 41,000 131 459 0
2020-10-06 14:48:13 GMT 40.258118 26.245056 41,000 131 459 0
2020-10-06 14:48:08 GMT 40.264435 26.235657 41,000 131 459 0
2020-10-06 14:48:03 GMT 40.272171 26.224182 41,000 131 459 0
2020-10-06 14:47:58 GMT 40.278393 26.214876 41,000 131 459 0
2020-10-06 14:47:53 GMT 40.286213 26.203203 41,000 131 459 0
2020-10-06 14:47:50 GMT 40.292683 26.193653 41,000 131 459 0
2020-10-06 14:47:43 GMT 40.305813 26.174053 41,000 131 459 0
2020-10-06 14:47:40 GMT 40.305813 26.174053 41,000 131 458 0
2020-10-06 14:47:32 GMT 40.315727 26.159197 41,000 131 458 0
2020-10-06 14:47:29 GMT 40.319870 26.153076 41,000 131 457 0
2020-10-06 14:47:22 GMT 40.329693 26.138411 41,000 131 458 0
2020-10-06 14:47:19 GMT 40.334999 26.130482 41,000 131 457 0
2020-10-06 14:47:15 GMT 40.340332 26.122437 41,000 131 457 0
2020-10-06 14:47:12 GMT 40.343948 26.117065 41,000 131 457 0
2020-10-06 14:47:08 GMT 40.348984 26.109558 41,000 131 457 0
2020-10-06 14:47:04 GMT 40.354736 26.100956 41,000 131 457 0
2020-10-06 14:47:01 GMT 40.358509 26.095339 41,000 131 457 0
2020-10-06 14:46:56 GMT 40.364822 26.085876 41,000 131 457 0
2020-10-06 14:46:51 GMT 40.372330 26.074646 41,000 131 457 0
2020-10-06 14:46:43 GMT 40.383228 26.058323 41,000 131 455 0
2020-10-06 14:46:40 GMT 40.387558 26.051891 41,000 131 455 0
2020-10-06 14:46:33 GMT 40.397240 26.037411 41,000 131 455 0
2020-10-06 14:46:30 GMT 40.402130 26.030107 41,000 131 455 0
2020-10-06 14:46:23 GMT 40.411606 26.015930 41,000 131 454 0
2020-10-06 14:46:20 GMT 40.415115 26.010632 41,000 131 454 0
2020-10-06 14:46:15 GMT 40.422775 25.999146 41,000 131 454 0
2020-10-06 14:46:12 GMT 40.426430 25.993715 41,000 131 454 0
2020-10-06 14:46:09 GMT 40.430237 25.987976 41,000 131 453 0
2020-10-06 14:46:05 GMT 40.436111 25.979233 41,000 131 453 0
2020-10-06 14:45:59 GMT 40.444427 25.966736 41,000 131 452 0
2020-10-06 14:45:55 GMT 40.449829 25.958679 41,000 131 452 0
2020-10-06 14:45:52 GMT 40.459526 25.944151 41,000 130 453 0
2020-10-06 14:45:45 GMT 40.464432 25.936829 41,000 131 452 0
2020-10-06 14:45:41 GMT 40.468552 25.930603 41,000 131 452 0
2020-10-06 14:45:32 GMT 40.483017 25.908936 41,000 130 452 0
2020-10-06 14:45:29 GMT 40.485130 25.905699 41,000 130 452 0
2020-10-06 14:45:24 GMT 40.493454 25.893188 41,000 130 453 0
2020-10-06 14:45:20 GMT 40.497467 25.887035 41,000 130 453 64
2020-10-06 14:45:14 GMT 40.506359 25.873489 41,000 130 453 0
2020-10-06 14:45:11 GMT 40.510437 25.867371 41,000 130 454 0
2020-10-06 14:45:08 GMT 40.514145 25.861755 41,000 130 453 0
2020-10-06 14:45:04 GMT 40.521721 25.850206 41,000 130 453 0
2020-10-06 14:45:00 GMT 40.524609 25.845837 41,000 130 454 0
2020-10-06 14:44:54 GMT 40.534836 25.830322 41,000 130 454 64
2020-10-06 14:44:50 GMT 40.539093 25.823853 41,000 130 454 0
2020-10-06 14:44:46 GMT 40.545464 25.814188 41,000 130 454 0
2020-10-06 14:44:43 GMT 40.550537 25.806448 41,000 130 454 0
2020-10-06 14:44:36 GMT 40.562920 25.787659 41,000 130 454 0
2020-10-06 14:44:33 GMT 40.562920 25.787659 41,000 130 454 0
2020-10-06 14:44:30 GMT 40.566971 25.781494 41,000 130 454 0
2020-10-06 14:44:26 GMT 40.571640 25.774414 41,000 130 455 0
2020-10-06 14:44:23 GMT 40.576653 25.766809 41,000 130 455 0
2020-10-06 14:44:19 GMT 40.582031 25.758545 41,000 130 455 0
2020-10-06 14:44:15 GMT 40.588848 25.748207 41,000 130 453 0
2020-10-06 14:44:12 GMT 40.592743 25.742249 41,000 130 453 0
2020-10-06 14:44:09 GMT 40.595627 25.737854 41,000 130 453 0
2020-10-06 14:44:06 GMT 40.599884 25.731384 41,000 130 453 0
2020-10-06 14:44:02 GMT 40.605282 25.723114 41,000 130 453 0
2020-10-06 14:43:59 GMT 40.608902 25.717590 41,000 130 453 0
2020-10-06 14:43:55 GMT 40.615082 25.708191 41,000 130 453 0
2020-10-06 14:43:52 GMT 40.623486 25.695335 41,000 130 453 0
2020-10-06 14:43:48 GMT 40.628696 25.687408 41,000 130 453 0
2020-10-06 14:43:45 GMT 40.628696 25.687408 41,000 130 453 0
2020-10-06 14:43:42 GMT 40.632793 25.681166 41,000 130 453 0
2020-10-06 14:43:37 GMT 40.638939 25.671740 41,000 130 454 0
2020-10-06 14:43:32 GMT 40.646763 25.659880 41,000 130 453 0
2020-10-06 14:43:28 GMT 40.650997 25.653387 41,000 130 453 0
2020-10-06 14:43:21 GMT 40.661041 25.638062 41,000 130 453 0
2020-10-06 14:43:18 GMT 40.674599 25.617247 41,000 130 454 0
2020-10-06 14:43:11 GMT 40.674599 25.617247 41,000 130 453 0
2020-10-06 14:43:08 GMT 40.688843 25.595524 41,000 130 454 0
2020-10-06 14:43:01 GMT 40.688843 25.595524 41,000 130 453 0
2020-10-06 14:42:57 GMT 40.693405 25.588501 41,000 130 454 0
2020-10-06 14:42:51 GMT 40.703247 25.573425 41,000 130 453 0
2020-10-06 14:42:47 GMT 40.707558 25.566872 41,000 130 453 0
2020-10-06 14:42:40 GMT 40.716843 25.552734 41,000 130 454 0
2020-10-06 14:42:36 GMT 40.721943 25.544897 41,000 130 454 0
2020-10-06 14:42:30 GMT 40.731079 25.530945 41,000 130 454 0
2020-10-06 14:42:27 GMT 40.734924 25.525085 41,000 130 454 0
2020-10-06 14:42:22 GMT 40.741261 25.515310 41,000 130 455 0
2020-10-06 14:42:19 GMT 40.745220 25.509254 41,000 130 454 0
2020-10-06 14:42:15 GMT 40.751503 25.499580 41,000 130 455 0
2020-10-06 14:42:10 GMT 40.759094 25.487854 41,000 130 455 0
2020-10-06 14:42:05 GMT 40.765003 25.478668 41,000 131 455 0
2020-10-06 14:41:59 GMT 40.773376 25.466125 41,000 132 454 64
2020-10-06 14:41:55 GMT 40.779388 25.457382 41,000 133 454 0
2020-10-06 14:41:49 GMT 40.787796 25.445679 41,000 134 453 0
2020-10-06 14:41:44 GMT 40.794609 25.436533 41,000 136 451 0
2020-10-06 14:41:39 GMT 40.802765 25.426025 41,000 136 451 0
2020-10-06 14:41:35 GMT 40.808437 25.418991 41,000 138 450 0
2020-10-06 14:41:28 GMT 40.827663 25.396334 41,000 138 449 0
2020-10-06 14:41:23 GMT 40.827663 25.396334 41,000 138 449 0
2020-10-06 14:41:20 GMT 40.831604 25.391724 41,000 138 448 0
2020-10-06 14:41:16 GMT 40.837692 25.384705 41,000 138 448 0
2020-10-06 14:41:13 GMT 40.843781 25.377686 41,000 138 448 0
2020-10-06 14:41:08 GMT 40.850327 25.370117 41,000 138 448 0
2020-10-06 14:41:05 GMT 40.862503 25.356018 41,000 138 448 0
2020-10-06 14:40:58 GMT 40.871063 25.346130 41,000 138 447 0
2020-10-06 14:40:55 GMT 40.871063 25.346130 41,000 138 448 0
2020-10-06 14:40:49 GMT 40.879242 25.336657 41,000 138 447 0
2020-10-06 14:40:46 GMT 40.885433 25.329416 41,000 138 447 0
2020-10-06 14:40:43 GMT 40.889626 25.324549 41,000 138 448 0
2020-10-06 14:40:37 GMT 40.898575 25.314148 41,000 138 447 0
2020-10-06 14:40:33 GMT 40.905899 25.305664 41,000 138 447 0
2020-10-06 14:40:28 GMT 40.918167 25.291382 41,000 138 447 0
2020-10-06 14:40:25 GMT 40.918167 25.291382 41,000 138 447 0
2020-10-06 14:40:22 GMT 40.922722 25.286095 41,000 138 447 0
2020-10-06 14:40:16 GMT 40.930389 25.277161 41,000 138 447 0
2020-10-06 14:40:11 GMT 40.937946 25.268368 41,000 138 447 0
2020-10-06 14:40:06 GMT 40.945908 25.259094 41,000 138 447 0
2020-10-06 14:40:02 GMT 40.952049 25.251949 41,000 138 447 0
2020-10-06 14:39:56 GMT 40.962021 25.240356 41,000 138 446 0
2020-10-06 14:39:53 GMT 40.967285 25.234192 41,000 138 446 0
2020-10-06 14:39:49 GMT 40.972160 25.228542 41,000 138 447 0
2020-10-06 14:39:46 GMT 40.977814 25.221985 41,000 138 447 0
2020-10-06 14:39:41 GMT 40.986267 25.212126 41,000 138 447 0
2020-10-06 14:39:36 GMT 40.993469 25.203735 41,000 138 446 0
2020-10-06 14:39:31 GMT 41.001118 25.194834 41,000 138 446 0
2020-10-06 14:39:25 GMT 41.010239 25.184160 41,000 138 446 0
2020-10-06 14:39:20 GMT 41.018051 25.175049 41,000 138 446 0
2020-10-06 14:39:15 GMT 41.025230 25.166681 41,000 138 446 0
2020-10-06 14:39:10 GMT 41.033703 25.156755 41,000 138 446 0
2020-10-06 14:39:04 GMT 41.044601 25.143982 41,000 138 445 0
2020-10-06 14:39:01 GMT 41.049297 25.138529 41,000 138 445 0
2020-10-06 14:38:54 GMT 41.058197 25.128174 41,000 138 445 0
2020-10-06 14:38:51 GMT 41.063141 25.122375 41,000 138 445 0
2020-10-06 14:38:47 GMT 41.069828 25.114559 41,000 138 445 0
2020-10-06 14:38:44 GMT 41.079620 25.103149 41,000 138 444 -64
2020-10-06 14:38:40 GMT 41.079620 25.103149 41,000 138 444 64
2020-10-06 14:38:34 GMT 41.097107 25.082661 41,000 138 444 0
2020-10-06 14:38:29 GMT 41.097107 25.082661 41,000 138 444 0
2020-10-06 14:38:24 GMT 41.104324 25.074171 41,000 138 444 -64
2020-10-06 14:38:21 GMT 41.113400 25.063560 41,000 138 443 0
2020-10-06 14:38:18 GMT 41.120041 25.055786 41,000 138 442 0
2020-10-06 14:38:14 GMT 41.120041 25.055786 41,000 138 442 0
2020-10-06 14:38:10 GMT 41.127041 25.047581 41,000 138 442 0
2020-10-06 14:38:06 GMT 41.136814 25.036095 41,000 138 442 0
2020-10-06 14:38:03 GMT 41.136814 25.036095 41,000 138 442 0
2020-10-06 14:38:00 GMT 41.140774 25.031475 41,000 138 442 0
2020-10-06 14:37:57 GMT 41.145382 25.026106 41,000 138 440 0
2020-10-06 14:37:52 GMT 41.155159 25.014622 41,000 138 440 0
2020-10-06 14:37:48 GMT 41.159721 25.009253 41,000 138 440 0
2020-10-06 14:37:43 GMT 41.167419 25.000244 41,000 138 439 0
2020-10-06 14:37:38 GMT 41.175934 24.990234 41,000 138 439 0
2020-10-06 14:37:31 GMT 41.185822 24.978577 41,000 138 440 0
2020-10-06 14:37:27 GMT 41.191315 24.972168 41,000 138 440 0
2020-10-06 14:37:22 GMT 41.198135 24.964111 41,000 138 439 0
2020-10-06 14:37:19 GMT 41.207108 24.953552 41,000 138 439 0
2020-10-06 14:37:13 GMT 41.213974 24.945557 41,000 138 439 0
2020-10-06 14:37:09 GMT 41.218506 24.940186 41,000 138 439 0
2020-10-06 14:37:06 GMT 41.222626 24.935303 41,000 138 439 0
2020-10-06 14:37:02 GMT 41.229549 24.927168 41,000 138 439 0
2020-10-06 14:36:57 GMT 41.237686 24.917603 41,000 138 439 0
2020-10-06 14:36:52 GMT 41.244724 24.909252 41,000 138 439 0
2020-10-06 14:36:48 GMT 41.249889 24.903196 41,000 138 439 0
2020-10-06 14:36:45 GMT 41.254395 24.897888 41,000 138 439 0
2020-10-06 14:36:41 GMT 41.260620 24.890564 41,000 138 439 0
2020-10-06 14:36:38 GMT 41.265068 24.885283 41,000 138 439 0
2020-10-06 14:36:35 GMT 41.269409 24.880188 41,000 138 439 -64
2020-10-06 14:36:32 GMT 41.276093 24.872314 41,000 138 439 -64
2020-10-06 14:36:28 GMT 41.280624 24.866943 41,000 138 439 0
2020-10-06 14:36:25 GMT 41.284618 24.862185 41,000 138 439 0
2020-10-06 14:36:21 GMT 41.291927 24.853634 41,000 138 438 0
2020-10-06 14:36:16 GMT 41.300400 24.843584 41,000 138 438 0
2020-10-06 14:36:12 GMT 41.305241 24.837902 41,000 138 439 0
2020-10-06 14:36:08 GMT 41.310829 24.831285 41,000 138 439 0
2020-10-06 14:36:05 GMT 41.316135 24.824982 41,000 138 439 0
2020-10-06 14:36:00 GMT 41.323677 24.816055 41,000 138 438 0
2020-10-06 14:35:57 GMT 41.327408 24.811707 41,000 138 438 0
2020-10-06 14:35:54 GMT 41.331871 24.806379 41,000 138 438 0
2020-10-06 14:35:50 GMT 41.338852 24.798140 41,000 138 438 0
2020-10-06 14:35:47 GMT 41.342697 24.793579 41,000 138 439 0
2020-10-06 14:35:39 GMT 41.355194 24.778790 41,000 138 439 0
2020-10-06 14:35:35 GMT 41.362175 24.770550 41,000 138 439 0
2020-10-06 14:35:29 GMT 41.370045 24.761187 41,000 138 439 0
2020-10-06 14:35:26 GMT 41.379864 24.749514 41,000 138 439 -64
2020-10-06 14:35:18 GMT 41.387512 24.740398 41,000 138 439 0
2020-10-06 14:35:14 GMT 41.393505 24.733292 41,000 138 439 0
2020-10-06 14:35:09 GMT 41.400879 24.724607 41,000 138 439 0
2020-10-06 14:35:04 GMT 41.413193 24.710062 41,000 138 439 0
2020-10-06 14:34:57 GMT 41.418045 24.704319 41,000 138 440 0
2020-10-06 14:34:54 GMT 41.424789 24.696308 41,000 138 440 0
2020-10-06 14:34:47 GMT 41.436401 24.682533 41,000 138 440 0
2020-10-06 14:34:43 GMT 41.440105 24.678167 41,000 138 440 0
2020-10-06 14:34:38 GMT 41.448158 24.668587 41,000 138 440 0
2020-10-06 14:34:35 GMT 41.452858 24.663029 41,000 138 441 0
2020-10-06 14:34:27 GMT 41.463940 24.649807 41,000 138 440 0
2020-10-06 14:34:23 GMT 41.475266 24.636341 41,000 138 441 0
2020-10-06 14:34:17 GMT 41.479202 24.631660 41,000 138 441 0
2020-10-06 14:34:14 GMT 41.483963 24.626041 41,000 138 441 0
2020-10-06 14:34:10 GMT 41.490566 24.618191 41,000 138 441 0
2020-10-06 14:34:06 GMT 41.498295 24.608992 41,000 138 441 0
2020-10-06 14:34:03 GMT 41.500809 24.606005 41,000 138 441 0
2020-10-06 14:33:59 GMT 41.506393 24.599411 41,000 138 441 0
2020-10-06 14:33:56 GMT 41.511517 24.593279 41,000 138 441 0
2020-10-06 14:33:52 GMT 41.526627 24.575293 41,000 138 440 0
2020-10-06 14:33:47 GMT 41.526627 24.575293 41,000 138 440 0
2020-10-06 14:33:44 GMT 41.530506 24.570667 41,000 138 439 0
2020-10-06 14:33:41 GMT 41.534466 24.565941 41,000 138 439 0
2020-10-06 14:33:37 GMT 41.540333 24.558914 41,000 138 439 0
2020-10-06 14:33:33 GMT 41.546989 24.550995 41,000 138 439 0
2020-10-06 14:33:27 GMT 41.554504 24.542021 41,000 138 439 0
2020-10-06 14:33:24 GMT 41.561512 24.533684 41,000 138 439 0
2020-10-06 14:33:20 GMT 41.566727 24.527414 41,000 138 439 0
2020-10-06 14:33:14 GMT 41.574600 24.518051 41,000 138 438 0
2020-10-06 14:33:11 GMT 41.580002 24.511621 41,000 138 438 0
2020-10-06 14:33:07 GMT 41.586823 24.503508 41,000 138 437 0
2020-10-06 14:33:03 GMT 41.591766 24.497578 41,000 138 438 0
2020-10-06 14:33:00 GMT 41.595493 24.493124 41,000 138 438 0
2020-10-06 14:32:56 GMT 41.602478 24.484779 41,000 138 438 64
2020-10-06 14:32:53 GMT 41.607086 24.479263 41,000 138 438 0
2020-10-06 14:32:50 GMT 41.610996 24.474602 41,000 138 439 0
2020-10-06 14:32:47 GMT 41.615616 24.469112 41,000 138 439 0
2020-10-06 14:32:43 GMT 41.622311 24.461060 41,000 138 439 0
2020-10-06 14:32:40 GMT 41.625938 24.456717 41,000 138 439 0
2020-10-06 14:32:35 GMT 41.633102 24.448200 41,000 138 438 0
2020-10-06 14:32:32 GMT 41.643909 24.435253 41,000 138 439 -64
2020-10-06 14:32:28 GMT 41.643909 24.435253 41,000 138 437 0
2020-10-06 14:32:24 GMT 41.655361 24.421585 41,000 138 437 0
2020-10-06 14:32:21 GMT 41.655361 24.421585 41,000 138 437 0
2020-10-06 14:32:17 GMT 41.662537 24.413057 41,000 138 437 0
2020-10-06 14:32:14 GMT 41.664860 24.410215 41,000 138 437 0
2020-10-06 14:32:11 GMT 41.669373 24.404850 41,000 138 437 0
2020-10-06 14:32:08 GMT 41.674961 24.398144 41,000 137 437 0
2020-10-06 14:32:04 GMT 41.679756 24.392395 41,000 137 437 0
2020-10-06 14:32:01 GMT 41.685341 24.385689 41,000 137 437 64
2020-10-06 14:31:57 GMT 41.690601 24.379429 41,000 138 436 0
2020-10-06 14:31:54 GMT 41.695496 24.373543 41,000 138 436 0
2020-10-06 14:31:51 GMT 41.699387 24.368862 41,000 138 436 0
2020-10-06 14:31:48 GMT 41.706024 24.360933 41,000 138 436 0
2020-10-06 14:31:44 GMT 41.711288 24.354630 41,000 138 436 0
2020-10-06 14:31:41 GMT 41.714947 24.350174 41,000 138 436 0
2020-10-06 14:31:38 GMT 41.720207 24.343916 41,000 138 436 0
2020-10-06 14:31:35 GMT 41.725525 24.337526 41,000 138 436 0
2020-10-06 14:31:31 GMT 41.730927 24.331034 41,000 137 436 0
2020-10-06 14:31:28 GMT 41.733849 24.327499 41,000 137 436 0
2020-10-06 14:31:24 GMT 41.741272 24.318611 41,000 137 436 0
2020-10-06 14:31:21 GMT 41.745533 24.313511 41,000 137 436 0
2020-10-06 14:31:18 GMT 41.750244 24.307814 41,000 137 436 0
2020-10-06 14:31:13 GMT 41.756516 24.300261 41,000 137 436 64
2020-10-06 14:31:09 GMT 41.763176 24.292240 41,000 137 437 0
2020-10-06 14:31:04 GMT 41.772263 24.281282 41,000 138 436 0
2020-10-06 14:31:01 GMT 41.776817 24.275826 41,000 138 436 0
2020-10-06 14:30:58 GMT 41.779175 24.273045 41,000 137 436 0
2020-10-06 14:30:55 GMT 41.784851 24.266115 41,000 137 436 0
2020-10-06 14:30:51 GMT 41.790176 24.259729 41,000 137 437 0
2020-10-06 14:30:48 GMT 41.793900 24.255194 41,000 137 437 0
2020-10-06 14:30:43 GMT 41.802246 24.245140 41,000 137 437 0
2020-10-06 14:30:39 GMT 41.809296 24.236650 41,000 137 437 0
2020-10-06 14:30:34 GMT 41.815826 24.228813 41,000 137 437 0
2020-10-06 14:30:30 GMT 41.820969 24.222544 41,000 137 437 0
2020-10-06 14:30:27 GMT 41.833843 24.207033 41,000 137 441 0
2020-10-06 14:30:23 GMT 41.833843 24.207033 41,000 137 437 -64
2020-10-06 14:30:20 GMT 41.839005 24.200821 41,000 137 437 0
2020-10-06 14:30:10 GMT 41.855988 24.180346 41,000 137 438 0
2020-10-06 14:30:00 GMT 41.866756 24.167303 41,000 137 438 0
2020-10-06 14:29:51 GMT 41.879471 24.151943 41,000 137 439 0
2020-10-06 14:29:48 GMT 41.885750 24.144373 41,000 137 441 0
2020-10-06 14:29:42 GMT 41.895058 24.133066 41,000 137 439 0
2020-10-06 14:29:37 GMT 41.900894 24.126040 41,000 137 441 0
2020-10-06 14:29:30 GMT 41.912979 24.111370 41,000 137 441 -64
2020-10-06 14:29:25 GMT 41.919159 24.103880 41,000 137 441 0
2020-10-06 14:29:21 GMT 41.925877 24.095699 41,000 137 442 0
2020-10-06 14:29:18 GMT 41.930439 24.090206 41,000 137 442 0
2020-10-06 14:29:15 GMT 41.934208 24.085608 41,000 137 443 0
2020-10-06 14:29:09 GMT 41.944077 24.073601 41,000 137 443 64
2020-10-06 14:29:06 GMT 41.947952 24.068924 41,000 137 443 64
2020-10-06 14:29:01 GMT 41.957108 24.057875 41,000 137 444 0
2020-10-06 14:28:57 GMT 41.963333 24.050322 41,000 137 444 64
2020-10-06 14:28:49 GMT 41.974850 24.036362 41,000 137 444 64
2020-10-06 14:28:45 GMT 41.980591 24.029409 41,000 137 444 0
2020-10-06 14:28:38 GMT 41.990799 24.017050 41,000 137 445 0
2020-10-06 14:28:35 GMT 41.995377 24.011494 41,000 137 445 0
2020-10-06 14:28:29 GMT 42.005585 23.999071 41,000 137 444 -64
2020-10-06 14:28:25 GMT 42.010090 23.993629 41,000 137 444 0
2020-10-06 14:28:20 GMT 42.019352 23.982325 41,000 137 444 0
2020-10-06 14:28:14 GMT 42.027454 23.972486 41,000 137 444 0
2020-10-06 14:28:09 GMT 42.035248 23.962929 41,000 137 444 -64
2020-10-06 14:28:06 GMT 42.040489 23.956583 41,000 137 443 0
2020-10-06 14:27:58 GMT 42.052174 23.942339 41,000 137 443 0
2020-10-06 14:27:54 GMT 42.057541 23.935776 41,000 137 443 0
2020-10-06 14:27:47 GMT 42.068699 23.922155 41,000 137 441 0
2020-10-06 14:27:44 GMT 42.073471 23.916363 41,000 137 441 0
2020-10-06 14:27:38 GMT 42.082153 23.905804 41,000 137 441 64
2020-10-06 14:27:35 GMT 42.086929 23.900007 41,000 137 441 0
2020-10-06 14:27:28 GMT 42.098167 23.886257 41,000 137 440 0
2020-10-06 14:27:23 GMT 42.104233 23.878847 41,000 137 440 0
2020-10-06 14:27:17 GMT 42.113949 23.867031 41,000 137 440 -64
2020-10-06 14:27:13 GMT 42.119934 23.859745 41,000 137 439 0
2020-10-06 14:27:08 GMT 42.128906 23.848759 41,000 137 439 0
2020-10-06 14:27:05 GMT 42.133255 23.843391 41,000 137 439 0
2020-10-06 14:27:02 GMT 42.135456 23.840715 41,000 137 438 64
2020-10-06 14:26:57 GMT 42.144241 23.829969 41,000 137 439 0
2020-10-06 14:26:53 GMT 42.149643 23.823353 41,000 137 439 64
2020-10-06 14:26:46 GMT 42.160858 23.809559 41,000 137 439 -64
2020-10-06 14:26:43 GMT 42.164551 23.805075 41,000 137 439 0
2020-10-06 14:26:37 GMT 42.181732 23.784027 41,000 137 439 0
2020-10-06 14:26:32 GMT 42.181732 23.784027 41,000 137 439 0
2020-10-06 14:26:27 GMT 42.190018 23.773914 41,000 137 439 0
2020-10-06 14:26:23 GMT 42.198578 23.763428 41,000 137 441 0
2020-10-06 14:26:17 GMT 42.204956 23.755571 41,000 137 441 0
2020-10-06 14:26:14 GMT 42.209702 23.749758 41,000 137 441 0
2020-10-06 14:26:11 GMT 42.212906 23.745888 41,000 137 441 -64
2020-10-06 14:26:06 GMT 42.221718 23.735067 41,000 137 442 0
2020-10-06 14:26:03 GMT 42.226181 23.729595 41,000 137 443 0
2020-10-06 14:25:59 GMT 42.231537 23.722996 41,000 137 443 0
2020-10-06 14:25:56 GMT 42.236099 23.717375 41,000 137 445 0
2020-10-06 14:25:53 GMT 42.240196 23.712330 41,000 137 445 64
2020-10-06 14:25:50 GMT 42.244900 23.706579 41,000 137 446 0
2020-10-06 14:25:46 GMT 42.251816 23.698072 40,975 137 447 64
2020-10-06 14:25:42 GMT 42.257309 23.691269 41,000 137 448 128
2020-10-06 14:25:37 GMT 42.263901 23.683214 40,975 137 449 128
2020-10-06 14:25:34 GMT 42.270874 23.674643 40,975 137 450 0
2020-10-06 14:25:31 GMT 42.277626 23.666275 41,000 137 450 0
2020-10-06 14:25:24 GMT 42.283817 23.658737 41,000 137 451 0
2020-10-06 14:25:21 GMT 42.289719 23.651442 41,000 137 451 -64
2020-10-06 14:25:14 GMT 42.300575 23.638042 41,000 137 451 0
2020-10-06 14:25:09 GMT 42.307617 23.629408 41,000 137 450 0
2020-10-06 14:25:04 GMT 42.316914 23.617987 41,000 137 450 0
2020-10-06 14:25:01 GMT 42.320480 23.613489 41,000 137 450 0
2020-10-06 14:24:57 GMT 42.325104 23.607809 41,000 137 450 0
2020-10-06 14:24:54 GMT 42.331238 23.600256 41,000 137 450 0
2020-10-06 14:24:51 GMT 42.336842 23.593330 41,000 137 450 0
2020-10-06 14:24:47 GMT 42.340843 23.588413 41,000 137 450 0
2020-10-06 14:24:44 GMT 42.346115 23.581841 41,000 137 449 0
2020-10-06 14:24:41 GMT 42.350803 23.576084 41,000 137 449 0
2020-10-06 14:24:37 GMT 42.356297 23.569315 41,000 137 448 0
2020-10-06 14:24:33 GMT 42.362503 23.561680 41,000 137 448 0
2020-10-06 14:24:30 GMT 42.368263 23.554625 41,000 137 448 0
2020-10-06 14:24:27 GMT 42.371979 23.550007 41,000 137 448 -64
2020-10-06 14:24:23 GMT 42.378387 23.542078 41,000 137 448 0
2020-10-06 14:24:20 GMT 42.382370 23.537148 41,000 137 448 0
2020-10-06 14:24:17 GMT 42.387726 23.530531 41,000 137 448 0
2020-10-06 14:24:14 GMT 42.396660 23.519493 41,000 137 449 0
2020-10-06 14:24:11 GMT 42.396660 23.519493 41,000 137 449 0
2020-10-06 14:24:07 GMT 42.402760 23.511892 41,000 137 450 0
2020-10-06 14:24:04 GMT 42.412300 23.500139 41,000 137 451 -64
2020-10-06 14:24:01 GMT 42.412300 23.500139 41,000 137 451 -64
2020-10-06 14:23:57 GMT 42.418213 23.492826 41,025 137 452 -64
2020-10-06 14:23:54 GMT 42.422775 23.487173 41,000 137 452 0
2020-10-06 14:23:51 GMT 42.427570 23.481232 41,000 137 454 0
2020-10-06 14:23:48 GMT 42.435764 23.471075 41,000 137 454 0
2020-10-06 14:23:42 GMT 42.441025 23.464561 41,000 137 455 0
2020-10-06 14:23:39 GMT 42.447327 23.456808 41,000 137 457 64
2020-10-06 14:23:36 GMT 42.449799 23.453688 41,000 137 457 0
2020-10-06 14:23:33 GMT 42.454525 23.447826 41,000 137 459 64
2020-10-06 14:23:30 GMT 42.459553 23.441566 41,000 137 459 64
2020-10-06 14:23:26 GMT 42.465408 23.434338 41,000 137 460 0
2020-10-06 14:23:22 GMT 42.472595 23.425348 41,000 137 461 64
2020-10-06 14:23:19 GMT 42.476212 23.420855 40,975 137 462 0
2020-10-06 14:23:16 GMT 42.481567 23.414236 41,000 137 462 0
2020-10-06 14:23:13 GMT 42.486832 23.407713 41,000 137 462 64
2020-10-06 14:23:10 GMT 42.491776 23.401566 41,000 137 462 64
2020-10-06 14:23:05 GMT 42.499329 23.392202 41,000 137 462 -64
2020-10-06 14:23:02 GMT 42.508991 23.380119 41,000 137 462 0
2020-10-06 14:22:56 GMT 42.513611 23.374413 41,000 137 461 0
2020-10-06 14:22:53 GMT 42.518326 23.368544 41,025 137 461 -64
2020-10-06 14:22:49 GMT 42.524460 23.360929 41,000 137 460 0
2020-10-06 14:22:46 GMT 42.529053 23.355145 41,000 137 460 -64
2020-10-06 14:22:43 GMT 42.534081 23.348885 41,000 137 460 -64
2020-10-06 14:22:39 GMT 42.539154 23.342575 41,000 137 461 0
2020-10-06 14:22:36 GMT 42.543869 23.336708 41,000 137 461 64
2020-10-06 14:22:33 GMT 42.550003 23.329094 41,000 137 460 128
2020-10-06 14:22:29 GMT 42.555634 23.322102 41,000 137 460 64
2020-10-06 14:22:25 GMT 42.561222 23.315161 41,000 137 461 -64
2020-10-06 14:22:19 GMT 42.571743 23.302067 41,000 137 461 0
2020-10-06 14:22:15 GMT 42.576645 23.295885 41,000 137 461 0
2020-10-06 14:22:11 GMT 42.583008 23.288013 41,000 137 460 64
2020-10-06 14:22:08 GMT 42.587849 23.281946 41,000 137 460 64
2020-10-06 14:22:05 GMT 42.592621 23.275972 41,000 137 460 0
2020-10-06 14:22:02 GMT 42.597931 23.269356 41,000 137 460 0
2020-10-06 14:21:58 GMT 42.603241 23.262676 41,000 137 459 0
2020-10-06 14:21:55 GMT 42.619598 23.242344 41,000 137 459 0
2020-10-06 14:21:49 GMT 42.619598 23.242344 41,000 137 459 0
2020-10-06 14:21:45 GMT 42.624344 23.236334 41,000 137 459 0
2020-10-06 14:21:41 GMT 42.629929 23.229342 41,000 137 459 0
2020-10-06 14:21:38 GMT 42.635101 23.222914 41,000 137 459 -64
2020-10-06 14:21:34 GMT 42.641190 23.215298 41,000 137 458 0
2020-10-06 14:21:31 GMT 42.645996 23.209305 41,000 137 458 64
2020-10-06 14:21:27 GMT 42.654045 23.199228 41,000 137 458 -64
2020-10-06 14:21:21 GMT 42.662201 23.189018 41,000 137 458 0
2020-10-06 14:21:18 GMT 42.667130 23.182877 41,000 137 458 0
2020-10-06 14:21:14 GMT 42.671860 23.176908 41,000 137 458 0
2020-10-06 14:21:11 GMT 42.677696 23.169655 41,000 137 459 0
2020-10-06 14:21:08 GMT 42.682396 23.163778 41,000 137 459 0
2020-10-06 14:21:05 GMT 42.688385 23.156246 41,000 137 459 0
2020-10-06 14:21:01 GMT 42.693329 23.150003 41,000 137 459 0
2020-10-06 14:20:57 GMT 42.698502 23.143574 41,000 137 458 0
2020-10-06 14:20:54 GMT 42.704086 23.136520 41,000 137 459 0
2020-10-06 14:20:50 GMT 42.709534 23.129717 41,000 137 459 0
2020-10-06 14:20:47 GMT 42.714981 23.122850 41,000 137 459 0
2020-10-06 14:20:44 GMT 42.719513 23.117168 41,000 137 459 0
2020-10-06 14:20:41 GMT 42.730408 23.103437 41,000 137 459 0
2020-10-06 14:20:37 GMT 42.730408 23.103437 41,000 137 459 0
2020-10-06 14:20:34 GMT 42.736073 23.096264 41,000 137 460 0
2020-10-06 14:20:27 GMT 42.746155 23.083649 41,000 137 459 0
2020-10-06 14:20:23 GMT 42.752563 23.075659 41,000 137 460 0
2020-10-06 14:20:20 GMT 42.756554 23.070650 41,000 137 460 0
2020-10-06 14:20:16 GMT 42.762268 23.063423 41,000 137 461 0
2020-10-06 14:20:12 GMT 42.768749 23.055258 41,000 137 461 0
2020-10-06 14:20:09 GMT 42.779160 23.042200 41,000 137 461 -128
2020-10-06 14:20:06 GMT 42.779160 23.042200 41,000 137 461 -64
2020-10-06 14:20:03 GMT 42.783188 23.037083 41,000 137 461 0
2020-10-06 14:20:00 GMT 42.788040 23.030964 41,000 137 461 0
2020-10-06 14:19:56 GMT 42.794449 23.022848 41,000 137 461 -64
2020-10-06 14:19:53 GMT 42.801178 23.014360 41,025 137 462 64
2020-10-06 14:19:50 GMT 42.804222 23.010546 41,025 137 462 192
2020-10-06 14:19:46 GMT 42.809998 23.003214 41,000 137 462 0
2020-10-06 14:19:41 GMT 42.818329 22.992750 41,000 137 463 -64
2020-10-06 14:19:38 GMT 42.822144 22.987869 41,000 137 463 0
2020-10-06 14:19:35 GMT 42.826477 22.982418 41,000 136 464 0
2020-10-06 14:19:32 GMT 42.832573 22.974636 41,000 137 464 -64
2020-10-06 14:19:24 GMT 42.844864 22.959137 41,000 137 465 64
2020-10-06 14:19:21 GMT 42.848694 22.954271 41,000 137 465 0
2020-10-06 14:19:16 GMT 42.858627 22.941753 41,000 137 465 -128
2020-10-06 14:19:12 GMT 42.865349 22.933306 41,000 136 466 0
2020-10-06 14:19:06 GMT 42.874237 22.922016 41,000 136 465 64
2020-10-06 14:19:03 GMT 42.877853 22.917418 41,000 136 465 64
2020-10-06 14:18:57 GMT 42.887039 22.905708 41,000 136 465 64
2020-10-06 14:18:54 GMT 42.890854 22.900873 41,000 137 465 0
2020-10-06 14:18:50 GMT 42.898819 22.890799 41,000 137 464 0
2020-10-06 14:18:44 GMT 42.906784 22.880753 41,000 137 464 0
2020-10-06 14:18:40 GMT 42.915253 22.870022 41,000 136 464 64
2020-10-06 14:18:35 GMT 42.929672 22.850796 41,000 134 463 0
2020-10-06 14:18:30 GMT 42.929672 22.850796 41,000 134 463 0
2020-10-06 14:18:24 GMT 42.938248 22.838745 41,000 133 464 0
2020-10-06 14:18:20 GMT 42.943726 22.830740 41,000 132 463 0
2020-10-06 14:18:17 GMT 42.949951 22.821478 41,000 131 463 0
2020-10-06 14:18:12 GMT 42.955627 22.812727 41,000 130 463 0
2020-10-06 14:18:09 GMT 42.959244 22.806978 41,000 130 464 0
2020-10-06 14:18:06 GMT 42.963898 22.799507 41,000 129 463 -64
2020-10-06 14:18:03 GMT 42.967117 22.794268 41,000 129 464 0
2020-10-06 14:18:00 GMT 42.971970 22.786093 41,000 128 464 64
2020-10-06 14:17:56 GMT 42.977489 22.776554 41,000 125 465 0
2020-10-06 14:17:52 GMT 42.982891 22.767008 41,000 126 465 0
2020-10-06 14:17:48 GMT 42.988152 22.757395 41,000 125 465 0
2020-10-06 14:17:44 GMT 42.992981 22.748215 41,000 124 466 0
2020-10-06 14:17:41 GMT 42.995956 22.742466 41,000 124 466 64
2020-10-06 14:17:36 GMT 43.002869 22.728605 41,000 123 467 0
2020-10-06 14:17:31 GMT 43.007950 22.717937 41,000 122 468 -64
2020-10-06 14:17:27 GMT 43.013809 22.705227 41,000 121 468 -64
2020-10-06 14:17:24 GMT 43.017197 22.697689 41,000 121 468 0
2020-10-06 14:17:21 GMT 43.019855 22.691738 41,000 121 468 -64
2020-10-06 14:17:17 GMT 43.024200 22.682041 41,000 121 468 0
2020-10-06 14:17:14 GMT 43.028137 22.673225 41,000 121 468 0
2020-10-06 14:17:11 GMT 43.031204 22.666456 41,000 121 468 -64
2020-10-06 14:17:07 GMT 43.035172 22.657471 41,000 121 468 0
2020-10-06 14:17:03 GMT 43.040085 22.646526 41,000 121 468 -64
2020-10-06 14:17:00 GMT 43.042946 22.640141 41,000 121 468 0
2020-10-06 14:16:57 GMT 43.046391 22.632294 41,000 121 468 0
2020-10-06 14:16:53 GMT 43.051136 22.621700 41,000 121 468 0
2020-10-06 14:16:47 GMT 43.058865 22.604305 41,000 121 468 64
2020-10-06 14:16:43 GMT 43.062775 22.595543 41,000 121 467 64
2020-10-06 14:16:36 GMT 43.070175 22.578865 41,000 121 467 0
2020-10-06 14:16:33 GMT 43.074692 22.568665 41,000 121 467 0
2020-10-06 14:16:26 GMT 43.081741 22.552824 41,000 121 467 0
2020-10-06 14:16:23 GMT 43.085075 22.545383 41,000 121 465 -64
2020-10-06 14:16:20 GMT 43.087921 22.538963 41,000 121 465 0
2020-10-06 14:16:17 GMT 43.093185 22.527145 41,000 121 465 64
2020-10-06 14:16:12 GMT 43.097363 22.517721 41,000 121 465 -64
2020-10-06 14:16:09 GMT 43.099777 22.512327 41,000 121 465 -64
2020-10-06 14:16:06 GMT 43.104355 22.502045 41,000 121 464 0
2020-10-06 14:16:02 GMT 43.108337 22.493038 41,000 121 464 0
2020-10-06 14:15:59 GMT 43.111191 22.486658 41,000 121 464 0
2020-10-06 14:15:56 GMT 43.115341 22.477261 41,025 121 463 -64
2020-10-06 14:15:50 GMT 43.121616 22.463118 41,000 121 463 0
2020-10-06 14:15:45 GMT 43.127155 22.450626 41,025 121 463 -128
2020-10-06 14:15:40 GMT 43.132965 22.437468 41,025 121 463 -64
2020-10-06 14:15:36 GMT 43.138275 22.425394 41,025 121 463 0
2020-10-06 14:15:29 GMT 43.144520 22.411259 41,000 121 463 64
2020-10-06 14:15:24 GMT 43.150387 22.397984 41,000 121 463 0
2020-10-06 14:15:20 GMT 43.155460 22.386475 41,000 120 464 64
2020-10-06 14:15:14 GMT 43.161484 22.372763 41,000 121 462 64
2020-10-06 14:15:09 GMT 43.166725 22.360840 41,000 121 463 64
2020-10-06 14:15:05 GMT 43.172333 22.348171 41,000 121 463 0
2020-10-06 14:14:59 GMT 43.178101 22.335140 41,000 121 463 0
2020-10-06 14:14:54 GMT 43.183960 22.321856 41,000 121 463 -64
2020-10-06 14:14:51 GMT 43.187954 22.312710 41,000 121 462 64
2020-10-06 14:14:48 GMT 43.189682 22.308825 41,000 121 462 64
2020-10-06 14:14:43 GMT 43.195354 22.295967 41,000 121 462 0
2020-10-06 14:14:39 GMT 43.200756 22.283674 41,000 121 462 0
2020-10-06 14:14:33 GMT 43.206482 22.270725 41,000 121 462 -64
2020-10-06 14:14:28 GMT 43.212433 22.257088 41,000 121 462 0
2020-10-06 14:14:24 GMT 43.217888 22.244699 41,000 121 461 0
2020-10-06 14:14:18 GMT 43.223328 22.232304 41,000 121 461 0
2020-10-06 14:14:13 GMT 43.229279 22.218826 41,000 121 461 0
2020-10-06 14:14:10 GMT 43.232178 22.212196 41,000 121 462 64
2020-10-06 14:14:07 GMT 43.235065 22.205723 41,000 121 462 64
2020-10-06 14:14:04 GMT 43.238205 22.198580 41,000 120 461 64
2020-10-06 14:14:00 GMT 43.243881 22.185549 41,000 120 462 -64
2020-10-06 14:13:57 GMT 43.246052 22.180677 41,000 121 462 0
2020-10-06 14:13:50 GMT 43.254246 22.161842 41,000 120 461 -128
2020-10-06 14:13:47 GMT 43.257385 22.154760 41,000 120 461 0
2020-10-06 14:13:43 GMT 43.262512 22.142944 41,000 120 461 64
2020-10-06 14:13:40 GMT 43.265182 22.136797 41,000 120 461 -64
2020-10-06 14:13:37 GMT 43.268509 22.129148 41,000 120 461 0
2020-10-06 14:13:32 GMT 43.274261 22.116001 41,000 120 461 0
2020-10-06 14:13:27 GMT 43.279522 22.103970 41,000 121 462 -64
2020-10-06 14:13:22 GMT 43.285172 22.091143 41,000 120 461 0
2020-10-06 14:13:19 GMT 43.287918 22.084883 41,000 120 461 64
2020-10-06 14:13:16 GMT 43.290985 22.077856 41,000 120 461 64
2020-10-06 14:13:12 GMT 43.296570 22.065083 41,000 120 461 0
2020-10-06 14:13:08 GMT 43.299271 22.058823 41,000 120 461 0
2020-10-06 14:13:05 GMT 43.302937 22.050411 41,000 120 461 0
2020-10-06 14:12:59 GMT 43.310028 22.034294 41,000 120 460 64
2020-10-06 14:12:55 GMT 43.313873 22.025543 41,000 120 460 0
2020-10-06 14:12:49 GMT 43.320190 22.011045 41,000 120 460 0
2020-10-06 14:12:46 GMT 43.324726 22.000645 41,000 120 460 0
2020-10-06 14:12:41 GMT 43.330402 21.987633 41,000 120 460 0
2020-10-06 14:12:38 GMT 43.332268 21.983381 41,000 120 460 64
2020-10-06 14:12:35 GMT 43.336029 21.974701 41,000 120 460 64
2020-10-06 14:12:28 GMT 43.343124 21.958412 41,000 120 461 0
2020-10-06 14:12:24 GMT 43.347473 21.948383 41,000 120 460 0
2020-10-06 14:12:18 GMT 43.358414 21.923218 41,000 120 464 64
2020-10-06 14:12:14 GMT 43.358414 21.923218 41,000 120 461 -64
2020-10-06 14:12:09 GMT 43.363781 21.910793 41,000 120 461 0
2020-10-06 14:12:05 GMT 43.369694 21.897190 41,000 120 462 -64
2020-10-06 14:11:57 GMT 43.377094 21.880056 41,000 120 462 0
2020-10-06 14:11:54 GMT 43.380432 21.872374 41,000 120 464 0
2020-10-06 14:11:48 GMT 43.387573 21.855894 41,000 120 465 0
2020-10-06 14:11:44 GMT 43.392059 21.845547 41,000 120 466 64
2020-10-06 14:11:39 GMT 43.397278 21.833603 41,000 120 467 64
2020-10-06 14:11:36 GMT 43.400745 21.825583 41,000 120 469 -64
2020-10-06 14:11:27 GMT 43.410290 21.803612 41,000 120 470 -64
2020-10-06 14:11:23 GMT 43.415405 21.791637 41,000 120 470 0
2020-10-06 14:11:19 GMT 43.420624 21.779629 41,000 120 470 -64
2020-10-06 14:11:16 GMT 43.422997 21.774052 41,000 120 470 -64
2020-10-06 14:11:10 GMT 43.429733 21.758551 41,000 120 470 0
2020-10-06 14:11:07 GMT 43.437428 21.740702 41,000 120 470 0
2020-10-06 14:11:03 GMT 43.437428 21.740702 41,000 120 470 0
2020-10-06 14:10:58 GMT 43.443924 21.725655 41,000 120 471 64
2020-10-06 14:10:55 GMT 43.446030 21.720800 41,000 120 472 64
2020-10-06 14:10:52 GMT 43.448738 21.714478 41,000 120 472 64
2020-10-06 14:10:48 GMT 43.454979 21.700090 41,000 120 471 0
2020-10-06 14:10:45 GMT 43.457306 21.694662 41,000 120 472 0
2020-10-06 14:10:41 GMT 43.462101 21.683546 41,000 120 472 0
2020-10-06 14:10:36 GMT 43.466675 21.672895 41,000 120 471 0
2020-10-06 14:10:32 GMT 43.471802 21.661015 41,000 120 470 -192
2020-10-06 14:10:24 GMT 43.480255 21.641365 41,000 120 471 192
2020-10-06 14:10:21 GMT 43.483521 21.633741 41,000 120 471 64
2020-10-06 14:10:14 GMT 43.491257 21.615728 41,000 120 470 0
2020-10-06 14:10:11 GMT 43.495197 21.606642 41,000 120 470 -64
2020-10-06 14:10:07 GMT 43.500687 21.593884 41,000 120 469 0
2020-10-06 14:10:01 GMT 43.505630 21.582386 41,000 120 469 0
2020-10-06 14:09:56 GMT 43.514519 21.561714 41,000 120 469 0
2020-10-06 14:09:50 GMT 43.517990 21.553579 41,000 120 469 64
2020-10-06 14:09:45 GMT 43.522896 21.542162 41,000 120 470 -64
2020-10-06 14:09:40 GMT 43.528439 21.529345 41,000 120 469 0
2020-10-06 14:09:34 GMT 43.535202 21.513531 41,000 120 469 0
2020-10-06 14:09:29 GMT 43.541519 21.498739 41,000 120 470 0
2020-10-06 14:09:23 GMT 43.547150 21.485596 41,000 120 470 0
2020-10-06 14:09:16 GMT 43.555115 21.466902 41,000 120 470 0
2020-10-06 14:09:13 GMT 43.558369 21.459307 41,000 120 470 0
2020-10-06 14:09:07 GMT 43.565445 21.442827 41,000 120 470 0
2020-10-06 14:09:03 GMT 43.569443 21.433369 41,000 120 470 0
2020-10-06 14:08:59 GMT 43.573654 21.423595 41,000 120 471 0
2020-10-06 14:08:55 GMT 43.579926 21.408840 41,000 120 471 64
2020-10-06 14:08:44 GMT 43.591049 21.382715 41,000 120 471 0
2020-10-06 14:08:36 GMT 43.599663 21.362654 41,000 120 473 0
2020-10-06 14:08:33 GMT 43.602501 21.355919 41,000 120 473 -64
2020-10-06 14:08:26 GMT 43.610550 21.337111 41,000 120 473 0
2020-10-06 14:08:22 GMT 43.615349 21.325771 41,000 120 473 0
2020-10-06 14:08:15 GMT 43.622498 21.309006 41,000 120 473 -64
2020-10-06 14:08:11 GMT 43.627579 21.297062 41,000 120 473 64
2020-10-06 14:08:06 GMT 43.632946 21.284441 41,000 120 475 -64
2020-10-06 14:08:02 GMT 43.636871 21.275152 41,000 120 475 0
2020-10-06 14:07:56 GMT 43.647858 21.249348 41,000 120 475 64
2020-10-06 14:07:45 GMT 43.655712 21.230947 41,000 120 475 -64
2020-10-06 14:07:42 GMT 43.660927 21.218655 41,000 120 475 64
2020-10-06 14:07:36 GMT 43.666885 21.204529 41,000 120 475 0
2020-10-06 14:07:32 GMT 43.670887 21.195112 41,000 120 475 64
2020-10-06 14:07:25 GMT 43.678619 21.176914 41,000 120 477 0
2020-10-06 14:07:21 GMT 43.682899 21.166861 41,000 120 476 0
2020-10-06 14:07:15 GMT 43.689697 21.150726 41,000 120 476 -64
2020-10-06 14:07:11 GMT 43.695465 21.137056 41,000 120 477 0
2020-10-06 14:07:05 GMT 43.700455 21.125240 41,000 120 477 -64
2020-10-06 14:07:01 GMT 43.705288 21.113762 41,000 120 477 -64
2020-10-06 14:06:57 GMT 43.709946 21.102709 41,000 120 478 0
2020-10-06 14:06:54 GMT 43.712219 21.097326 41,025 120 478 0
2020-10-06 14:06:50 GMT 43.717487 21.084856 41,000 120 477 0
2020-10-06 14:06:47 GMT 43.721489 21.075375 41,000 120 477 -64
2020-10-06 14:06:44 GMT 43.723206 21.071266 41,000 120 478 -64
2020-10-06 14:06:40 GMT 43.728012 21.059961 41,025 120 478 0
2020-10-06 14:06:35 GMT 43.734558 21.044439 41,000 120 478 0
2020-10-06 14:06:31 GMT 43.739040 21.033783 41,000 120 478 0
2020-10-06 14:06:22 GMT 43.748566 21.011225 41,000 120 479 0
2020-10-06 14:06:19 GMT 43.751862 21.003304 41,000 120 479 64
2020-10-06 14:06:14 GMT 43.757149 20.990753 41,000 120 479 64
2020-10-06 14:06:09 GMT 43.762829 20.977282 41,000 120 479 0
2020-10-06 14:06:04 GMT 43.768341 20.964214 41,000 120 479 0
2020-10-06 14:05:59 GMT 43.773331 20.952269 41,000 120 480 0
2020-10-06 14:05:53 GMT 43.785599 20.923143 41,000 120 480 0
2020-10-06 14:05:49 GMT 43.785599 20.923143 41,000 120 480 0
2020-10-06 14:05:43 GMT 43.796631 20.896891 41,000 120 480 0
2020-10-06 14:05:39 GMT 43.796631 20.896891 41,000 120 480 -64
2020-10-06 14:05:34 GMT 43.801792 20.884552 41,000 120 481 0
2020-10-06 14:05:28 GMT 43.807892 20.869999 41,000 120 481 0
2020-10-06 14:05:23 GMT 43.814175 20.854994 41,000 120 481 -64
2020-10-06 14:05:19 GMT 43.819298 20.842766 41,000 119 482 0
2020-10-06 14:05:13 GMT 43.825058 20.828993 41,000 120 482 -64
2020-10-06 14:05:10 GMT 43.828560 20.820597 41,000 120 483 0
2020-10-06 14:05:07 GMT 43.831421 20.813789 41,000 120 482 0
2020-10-06 14:05:03 GMT 43.836472 20.801632 41,000 120 483 0
2020-10-06 14:05:00 GMT 43.839500 20.794437 41,000 120 483 0
2020-10-06 14:04:52 GMT 43.853466 20.760956 41,000 119 484 0
2020-10-06 14:04:48 GMT 43.853466 20.760956 41,000 119 484 0
2020-10-06 14:04:42 GMT 43.860031 20.745317 41,000 119 484 0
2020-10-06 14:04:38 GMT 43.872131 20.716160 41,000 119 487 0
2020-10-06 14:04:31 GMT 43.872131 20.716160 41,000 119 485 0
2020-10-06 14:04:28 GMT 43.875320 20.708527 41,000 119 485 0
2020-10-06 14:04:22 GMT 43.882141 20.692110 41,000 119 486 0
2020-10-06 14:04:19 GMT 43.885120 20.685032 41,000 119 485 0
2020-10-06 14:04:09 GMT 43.896149 20.658512 41,000 119 486 -64
2020-10-06 14:04:03 GMT 43.907684 20.630728 41,000 119 487 0
2020-10-06 14:03:59 GMT 43.907684 20.630728 41,000 119 487 0
2020-10-06 14:03:53 GMT 43.913937 20.615713 41,000 119 487 -64
2020-10-06 14:03:49 GMT 43.918873 20.603811 41,000 119 487 0
2020-10-06 14:03:46 GMT 43.921757 20.596815 41,000 119 487 0
2020-10-06 14:03:39 GMT 43.930252 20.576370 41,000 119 487 0
2020-10-06 14:03:34 GMT 43.942520 20.546787 41,000 119 488 64
2020-10-06 14:03:28 GMT 43.942520 20.546787 41,000 119 488 64
2020-10-06 14:03:24 GMT 43.947647 20.534470 41,000 119 488 64
2020-10-06 14:03:21 GMT 43.951504 20.525078 41,000 119 488 0
2020-10-06 14:03:16 GMT 43.959465 20.505852 41,000 119 488 0
2020-10-06 14:03:13 GMT 43.959465 20.505852 41,000 119 489 0
2020-10-06 14:03:09 GMT 43.964073 20.494734 41,000 119 489 0
2020-10-06 14:03:05 GMT 43.968216 20.484663 41,000 119 489 0
2020-10-06 14:02:57 GMT 43.976967 20.463409 41,000 119 489 0
2020-10-06 14:02:52 GMT 43.983307 20.448048 41,000 119 489 -64
2020-10-06 14:02:47 GMT 43.988159 20.436359 41,000 119 489 0
2020-10-06 14:02:43 GMT 43.993820 20.422604 41,000 119 490 64
2020-10-06 14:02:38 GMT 43.997963 20.412533 41,000 119 490 0
2020-10-06 14:02:35 GMT 44.002247 20.402201 41,000 119 490 0
2020-10-06 14:02:30 GMT 44.009136 20.385590 41,000 119 490 0
2020-10-06 14:02:25 GMT 44.013512 20.374929 41,000 119 490 0
2020-10-06 14:02:21 GMT 44.017136 20.366096 41,000 119 490 0
2020-10-06 14:02:18 GMT 44.021145 20.356424 41,000 119 490 64
2020-10-06 14:02:14 GMT 44.025009 20.346998 41,000 119 490 64
2020-10-06 14:02:11 GMT 44.028549 20.338375 41,000 119 490 -64
2020-10-06 14:02:07 GMT 44.033390 20.326670 41,000 119 491 0
2020-10-06 14:02:04 GMT 44.036911 20.318064 41,000 119 491 0
2020-10-06 14:01:58 GMT 44.043259 20.302605 41,000 119 491 -64
2020-10-06 14:01:54 GMT 44.048035 20.290981 41,000 119 491 0
2020-10-06 14:01:51 GMT 44.051777 20.281809 41,000 119 492 0
2020-10-06 14:01:47 GMT 44.056293 20.270823 41,000 119 492 0
2020-10-06 14:01:44 GMT 44.059753 20.262430 41,000 119 493 -64
2020-10-06 14:01:39 GMT 44.064697 20.250359 41,025 119 494 -64
2020-10-06 14:01:36 GMT 44.071564 20.233559 41,025 119 495 0
2020-10-06 14:01:27 GMT 44.078175 20.217394 41,000 119 497 0
2020-10-06 14:01:22 GMT 44.084473 20.202005 41,000 119 498 64
2020-10-06 14:01:19 GMT 44.089142 20.190573 41,000 119 499 64
2020-10-06 14:01:16 GMT 44.091160 20.185743 41,000 119 500 0
2020-10-06 14:01:13 GMT 44.094559 20.177374 41,000 119 500 0
2020-10-06 14:01:06 GMT 44.102474 20.158081 41,000 119 502 -64
2020-10-06 14:01:02 GMT 44.106537 20.148159 41,000 119 502 64
2020-10-06 14:00:58 GMT 44.112576 20.133427 41,000 119 503 0
2020-10-06 14:00:52 GMT 44.118534 20.118843 41,000 119 503 -64
2020-10-06 14:00:49 GMT 44.122009 20.110218 41,000 119 504 -64
2020-10-06 14:00:45 GMT 44.126076 20.100271 41,000 119 504 128
2020-10-06 14:00:42 GMT 44.129658 20.091509 41,000 119 504 128
2020-10-06 14:00:39 GMT 44.134048 20.080708 41,000 119 504 64
2020-10-06 14:00:35 GMT 44.138039 20.070974 41,000 119 505 -64
2020-10-06 14:00:32 GMT 44.141739 20.061802 41,000 119 505 -64
2020-10-06 14:00:28 GMT 44.146225 20.050816 41,000 119 505 0
2020-10-06 14:00:25 GMT 44.148933 20.044163 41,000 119 505 0
2020-10-06 14:00:19 GMT 44.156521 20.025526 41,000 119 505 64
2020-10-06 14:00:14 GMT 44.163574 20.008146 41,000 119 505 -128
2020-10-06 14:00:09 GMT 44.168343 19.996426 41,000 119 505 0
2020-10-06 14:00:05 GMT 44.173004 19.984961 41,000 119 505 64
2020-10-06 14:00:02 GMT 44.175385 19.979021 41,000 119 505 64
2020-10-06 13:59:59 GMT 44.180866 19.965559 41,000 119 505 -64
2020-10-06 13:59:54 GMT 44.185043 19.955259 41,000 119 506 0
2020-10-06 13:59:51 GMT 44.188549 19.946659 41,000 119 506 -64
2020-10-06 13:59:48 GMT 44.191681 19.938845 41,000 119 506 0
2020-10-06 13:59:45 GMT 44.196854 19.926126 41,000 119 506 64
2020-10-06 13:59:40 GMT 44.200699 19.916605 41,000 119 505 64
2020-10-06 13:59:36 GMT 44.212292 19.888000 41,000 119 505 0
2020-10-06 13:59:30 GMT 44.212292 19.888000 41,000 119 506 64
2020-10-06 13:59:24 GMT 44.219696 19.869755 41,000 119 506 0
2020-10-06 13:59:20 GMT 44.223648 19.859932 41,000 119 506 64
2020-10-06 13:59:16 GMT 44.229839 19.844591 41,000 119 506 0
2020-10-06 13:59:10 GMT 44.235855 19.829735 41,000 119 506 -64
2020-10-06 13:59:03 GMT 44.247391 19.801182 41,000 119 506 0
2020-10-06 13:59:00 GMT 44.247391 19.801182 41,000 119 506 0
2020-10-06 13:58:57 GMT 44.250412 19.793636 41,000 119 506 0
2020-10-06 13:58:53 GMT 44.256096 19.779612 41,000 119 506 0
2020-10-06 13:58:49 GMT 44.259384 19.771467 41,000 119 506 64
2020-10-06 13:58:45 GMT 44.264511 19.758715 41,000 119 506 0
2020-10-06 13:58:39 GMT 44.270992 19.742634 41,000 119 506 64
2020-10-06 13:58:34 GMT 44.276321 19.729418 41,000 119 507 64
2020-10-06 13:58:31 GMT 44.283096 19.712677 41,000 119 506 0
2020-10-06 13:58:28 GMT 44.289009 19.698017 41,000 119 506 0
2020-10-06 13:58:24 GMT 44.289009 19.698017 41,000 119 506 -64
2020-10-06 13:58:18 GMT 44.294502 19.684351 41,000 119 507 -64
2020-10-06 13:58:14 GMT 44.299526 19.671824 41,000 119 506 0
2020-10-06 13:58:11 GMT 44.303101 19.662912 41,000 119 506 -64
2020-10-06 13:58:08 GMT 44.305984 19.655785 41,000 119 506 0
2020-10-06 13:58:04 GMT 44.311340 19.642443 41,000 119 505 0
2020-10-06 13:58:01 GMT 44.314796 19.633774 41,025 119 505 -64
2020-10-06 13:57:58 GMT 44.317612 19.626814 41,000 119 505 64
2020-10-06 13:57:54 GMT 44.323036 19.613342 41,000 119 505 0
2020-10-06 13:57:49 GMT 44.328415 19.599806 41,000 119 504 0
2020-10-06 13:57:46 GMT 44.332581 19.589428 41,000 119 506 -64
2020-10-06 13:57:43 GMT 44.337933 19.576096 41,000 119 506 0
2020-10-06 13:57:40 GMT 44.337933 19.576096 41,000 119 506 0
2020-10-06 13:57:36 GMT 44.346592 19.554459 41,000 119 505 64
2020-10-06 13:57:33 GMT 44.346592 19.554459 41,000 119 505 64
2020-10-06 13:57:30 GMT 44.350552 19.544477 41,000 119 505 0
2020-10-06 13:57:27 GMT 44.354507 19.534672 41,000 119 505 64
2020-10-06 13:57:23 GMT 44.357857 19.526323 41,000 119 504 0
2020-10-06 13:57:20 GMT 44.361397 19.517481 41,000 119 504 64
2020-10-06 13:57:16 GMT 44.365860 19.506290 41,000 119 504 64
2020-10-06 13:57:12 GMT 44.369778 19.496445 41,000 119 504 0
2020-10-06 13:57:09 GMT 44.373222 19.487938 41,000 119 504 0
2020-10-06 13:57:05 GMT 44.378265 19.475294 41,000 119 504 0
2020-10-06 13:57:02 GMT 44.381832 19.466368 41,000 119 504 0
2020-10-06 13:56:58 GMT 44.386276 19.455153 41,000 119 503 0
2020-10-06 13:56:53 GMT 44.392632 19.439102 41,000 119 502 0
2020-10-06 13:56:49 GMT 44.396118 19.430498 41,000 119 502 0
2020-10-06 13:56:45 GMT 44.404541 19.409309 41,000 119 500 0
2020-10-06 13:56:42 GMT 44.404541 19.409309 41,000 119 500 0
2020-10-06 13:56:39 GMT 44.407623 19.401522 41,000 119 500 0
2020-10-06 13:56:35 GMT 44.411865 19.390936 41,000 119 498 0
2020-10-06 13:56:31 GMT 44.420334 19.369551 41,000 119 498 0
2020-10-06 13:56:28 GMT 44.425407 19.356771 41,000 119 497 -64
2020-10-06 13:56:24 GMT 44.427547 19.351479 41,000 118 497 64
2020-10-06 13:56:18 GMT 44.430817 19.343197 41,000 118 496 64
2020-10-06 13:56:15 GMT 44.434902 19.332924 41,000 118 495 64
2020-10-06 13:56:11 GMT 44.438736 19.323252 41,000 118 495 64
2020-10-06 13:56:08 GMT 44.446400 19.303782 40,975 118 495 64
2020-10-06 13:56:04 GMT 44.446400 19.303782 40,975 118 495 -64
2020-10-06 13:56:01 GMT 44.450363 19.293888 40,975 118 495 -64
2020-10-06 13:55:55 GMT 44.458271 19.273838 41,000 118 495 128
2020-10-06 13:55:51 GMT 44.461159 19.266603 41,000 118 495 128
2020-10-06 13:55:47 GMT 44.465652 19.255306 41,000 118 493 192
2020-10-06 13:55:43 GMT 44.471027 19.241817 40,975 118 493 256
2020-10-06 13:55:39 GMT 44.474945 19.231894 40,975 118 493 256
2020-10-06 13:55:34 GMT 44.480152 19.218637 40,950 118 493 256
2020-10-06 13:55:30 GMT 44.483688 19.209728 40,925 118 493 256
2020-10-06 13:55:27 GMT 44.487972 19.198875 40,900 118 495 192
2020-10-06 13:55:22 GMT 44.492981 19.186184 40,875 118 494 64
2020-10-06 13:55:18 GMT 44.497421 19.174828 40,850 118 495 256
2020-10-06 13:55:14 GMT 44.501659 19.164108 40,850 118 495 256
2020-10-06 13:55:11 GMT 44.505707 19.153858 40,850 118 495 256
2020-10-06 13:55:08 GMT 44.508919 19.145685 40,825 118 495 128
2020-10-06 13:55:03 GMT 44.513855 19.133093 40,800 118 496 128
2020-10-06 13:55:00 GMT 44.517067 19.124987 40,800 118 496 192
2020-10-06 13:54:57 GMT 44.521545 19.113594 40,800 118 496 192
2020-10-06 13:54:53 GMT 44.524979 19.104898 40,775 118 496 192
2020-10-06 13:54:50 GMT 44.528332 19.096315 40,775 118 496 192
2020-10-06 13:54:47 GMT 44.531219 19.089012 40,750 118 496 192
2020-10-06 13:54:43 GMT 44.536060 19.076687 40,750 118 495 192
2020-10-06 13:54:39 GMT 44.540577 19.065165 40,750 118 495 192
2020-10-06 13:54:36 GMT 44.543976 19.056637 40,725 118 494 192
2020-10-06 13:54:29 GMT 44.550957 19.038771 40,700 118 494 192
2020-10-06 13:54:26 GMT 44.555893 19.026176 40,700 118 495 128
2020-10-06 13:54:22 GMT 44.559196 19.017803 40,700 118 494 256
2020-10-06 13:54:19 GMT 44.562790 19.008701 40,675 118 494 256
2020-10-06 13:54:16 GMT 44.565575 19.001591 40,675 118 493 256
2020-10-06 13:54:12 GMT 44.570343 18.989410 40,650 118 493 192
2020-10-06 13:54:09 GMT 44.573639 18.980974 40,650 118 493 192
2020-10-06 13:54:04 GMT 44.579262 18.966557 40,625 118 493 192
2020-10-06 13:54:01 GMT 44.582291 18.958872 40,600 118 493 192
2020-10-06 13:53:58 GMT 44.585499 18.950680 40,600 118 493 256
2020-10-06 13:53:55 GMT 44.590107 18.938889 40,575 118 492 320
2020-10-06 13:53:52 GMT 44.592773 18.932058 40,575 118 493 128
2020-10-06 13:53:48 GMT 44.595928 18.924084 40,550 118 493 128
2020-10-06 13:53:44 GMT 44.600719 18.911758 40,525 118 493 192
2020-10-06 13:53:41 GMT 44.603981 18.903383 40,525 118 493 256
2020-10-06 13:53:38 GMT 44.607422 18.894588 40,525 118 493 256
2020-10-06 13:53:34 GMT 44.612137 18.882490 40,500 118 493 192
2020-10-06 13:53:31 GMT 44.614502 18.876453 40,500 118 493 128
2020-10-06 13:53:28 GMT 44.618271 18.866795 40,500 118 493 128
2020-10-06 13:53:25 GMT 44.621246 18.859276 40,475 118 493 256
2020-10-06 13:53:21 GMT 44.626419 18.845974 40,475 118 492 256
2020-10-06 13:53:17 GMT 44.630630 18.835209 40,450 118 492 192
2020-10-06 13:53:14 GMT 44.634476 18.825399 40,425 118 491 192
2020-10-06 13:53:09 GMT 44.639313 18.813015 40,425 118 491 256
2020-10-06 13:53:06 GMT 44.643269 18.802967 40,400 118 491 256
2020-10-06 13:53:03 GMT 44.645458 18.797405 40,400 118 491 192
2020-10-06 13:52:58 GMT 44.650906 18.783405 40,375 118 490 128
2020-10-06 13:52:55 GMT 44.654617 18.773804 40,375 118 490 192
2020-10-06 13:52:50 GMT 44.659836 18.760399 40,350 118 490 192
2020-10-06 13:52:47 GMT 44.662766 18.752876 40,350 118 490 192
2020-10-06 13:52:43 GMT 44.668808 18.737247 40,325 118 488 192
2020-10-06 13:52:38 GMT 44.673111 18.726263 40,325 118 488 192
2020-10-06 13:52:35 GMT 44.676460 18.717690 40,300 118 488 192
2020-10-06 13:52:30 GMT 44.681351 18.705008 40,300 118 488 256
2020-10-06 13:52:27 GMT 44.684654 18.696587 40,275 118 487 256
2020-10-06 13:52:23 GMT 44.689171 18.684931 40,275 118 487 320
2020-10-06 13:52:20 GMT 44.695827 18.667713 40,250 118 486 448
2020-10-06 13:52:17 GMT 44.695827 18.667713 40,225 118 487 320
2020-10-06 13:52:14 GMT 44.699085 18.659407 40,225 118 486 192
2020-10-06 13:52:11 GMT 44.701412 18.653311 40,200 118 486 256
2020-10-06 13:52:08 GMT 44.709412 18.632683 40,175 118 486 512
2020-10-06 13:52:04 GMT 44.709412 18.632683 40,075 118 485 320
2020-10-06 13:52:00 GMT 44.713623 18.621958 40,150 118 485 192
2020-10-06 13:51:57 GMT 44.720127 18.605213 40,125 118 485 320
2020-10-06 13:51:54 GMT 44.720127 18.605213 40,050 118 484 320
2020-10-06 13:51:51 GMT 44.723202 18.597240 40,100 118 484 320
2020-10-06 13:51:47 GMT 44.727715 18.585585 40,075 118 484 320
2020-10-06 13:51:44 GMT 44.731384 18.576050 40,025 118 484 256
2020-10-06 13:51:39 GMT 44.739578 18.554861 40,025 118 483 320
2020-10-06 13:51:33 GMT 44.742195 18.548071 40,000 118 483 320
2020-10-06 13:51:30 GMT 44.745071 18.540541 40,000 118 483 320
2020-10-06 13:51:27 GMT 44.749420 18.529226 39,950 118 482 320
2020-10-06 13:51:24 GMT 44.752899 18.520138 39,950 118 482 320
2020-10-06 13:51:19 GMT 44.757614 18.507711 39,925 118 481 128
2020-10-06 13:51:16 GMT 44.760498 18.500257 39,925 118 481 128
2020-10-06 13:51:13 GMT 44.763794 18.491665 39,925 118 480 192
2020-10-06 13:51:10 GMT 44.766953 18.483582 39,925 118 479 192
2020-10-06 13:51:06 GMT 44.771667 18.471222 39,900 118 479 256
2020-10-06 13:51:01 GMT 44.775944 18.460180 39,875 118 478 256
2020-10-06 13:50:58 GMT 44.780640 18.448008 39,850 118 478 384
2020-10-06 13:50:55 GMT 44.782745 18.442579 39,850 118 478 384
2020-10-06 13:50:52 GMT 44.789631 18.424675 39,775 118 476 512
2020-10-06 13:50:48 GMT 44.789631 18.424675 39,775 118 478 512
2020-10-06 13:50:45 GMT 44.793167 18.415430 39,750 118 477 512
2020-10-06 13:50:42 GMT 44.796192 18.407526 39,750 118 477 448
2020-10-06 13:50:38 GMT 44.799965 18.397678 39,700 118 476 448
2020-10-06 13:50:35 GMT 44.806778 18.380127 39,650 118 476 384
2020-10-06 13:50:27 GMT 44.815514 18.357485 39,625 118 476 384
2020-10-06 13:50:24 GMT 44.815514 18.357485 39,625 118 475 384
2020-10-06 13:50:20 GMT 44.819229 18.347822 39,600 118 475 448
2020-10-06 13:50:17 GMT 44.822727 18.338728 39,550 118 475 704
2020-10-06 13:50:14 GMT 44.825615 18.331158 39,525 118 475 768
2020-10-06 13:50:11 GMT 44.828316 18.324057 39,500 118 475 896
2020-10-06 13:50:08 GMT 44.831497 18.315779 39,450 118 476 1152
2020-10-06 13:50:05 GMT 44.838509 18.297329 39,350 118 477 1344
2020-10-06 13:50:02 GMT 44.838509 18.297329 39,300 118 477 1408
2020-10-06 13:49:56 GMT 44.844086 18.282755 39,150 118 479 1344
2020-10-06 13:49:53 GMT 44.851078 18.264437 39,075 118 484 0
2020-10-06 13:49:49 GMT 44.851078 18.264437 39,050 118 480 832
2020-10-06 13:49:45 GMT 44.856171 18.251102 39,000 118 482 64
2020-10-06 13:49:41 GMT 44.860291 18.240313 39,000 118 482 -64
2020-10-06 13:49:38 GMT 44.863602 18.231678 39,000 118 482 -64
2020-10-06 13:49:34 GMT 44.868164 18.219648 39,000 118 482 0
2020-10-06 13:49:30 GMT 44.871189 18.211782 39,000 118 483 0
2020-10-06 13:49:27 GMT 44.874390 18.203365 39,000 118 482 0
2020-10-06 13:49:23 GMT 44.878639 18.192154 39,000 117 483 0
2020-10-06 13:49:20 GMT 44.882446 18.181980 39,000 117 483 64
2020-10-06 13:49:17 GMT 44.885342 18.174400 39,000 118 484 0
2020-10-06 13:49:14 GMT 44.888599 18.165760 39,000 118 484 64
2020-10-06 13:49:11 GMT 44.891766 18.157454 38,975 118 484 0
2020-10-06 13:49:08 GMT 44.894531 18.150068 39,000 118 484 0
2020-10-06 13:49:04 GMT 44.899029 18.138294 39,000 118 484 0
2020-10-06 13:49:01 GMT 44.903172 18.127508 39,000 118 483 0
2020-10-06 13:48:57 GMT 44.906895 18.117796 39,000 118 484 0
2020-10-06 13:48:54 GMT 44.910061 18.109421 39,000 118 484 0
2020-10-06 13:48:50 GMT 44.913738 18.099775 39,000 118 484 0
2020-10-06 13:48:46 GMT 44.918015 18.088467 39,000 118 484 0
2020-10-06 13:48:42 GMT 44.922676 18.076126 39,000 118 484 0
2020-10-06 13:48:38 GMT 44.925751 18.068022 39,000 118 484 0
2020-10-06 13:48:35 GMT 44.930008 18.056814 39,000 118 484 0
2020-10-06 13:48:32 GMT 44.933105 18.048594 39,000 118 484 0
2020-10-06 13:48:29 GMT 44.936462 18.039879 39,000 118 484 64
2020-10-06 13:48:26 GMT 44.940182 18.029970 39,000 118 484 64
2020-10-06 13:48:23 GMT 44.942047 18.025164 39,000 118 484 64
2020-10-06 13:48:20 GMT 44.946030 18.014570 39,000 118 484 0
2020-10-06 13:48:16 GMT 44.949188 18.006199 39,000 118 484 0
2020-10-06 13:48:12 GMT 44.954098 17.993328 39,000 118 484 0
2020-10-06 13:48:07 GMT 44.958572 17.981480 39,000 118 484 -64
2020-10-06 13:48:04 GMT 44.962372 17.971476 39,000 118 484 0
2020-10-06 13:48:01 GMT 44.964981 17.964542 39,000 118 484 0
2020-10-06 13:47:58 GMT 44.968716 17.954676 39,000 118 484 0
2020-10-06 13:47:54 GMT 44.973045 17.943287 39,000 118 484 -64
2020-10-06 13:47:51 GMT 44.975792 17.936052 39,025 118 484 0
2020-10-06 13:47:47 GMT 44.979813 17.925306 39,025 118 484 0
2020-10-06 13:47:43 GMT 44.984573 17.912815 39,000 118 484 0
2020-10-06 13:47:39 GMT 44.988876 17.901373 39,000 117 485 0
2020-10-06 13:47:31 GMT 44.997162 17.879333 39,000 117 485 0
2020-10-06 13:47:28 GMT 44.999817 17.872335 39,000 117 485 0
2020-10-06 13:47:24 GMT 45.007919 17.850821 39,000 117 485 0
2020-10-06 13:47:18 GMT 45.011169 17.842190 39,000 117 486 0
2020-10-06 13:47:11 GMT 45.018715 17.822168 39,000 118 487 0
2020-10-06 13:47:07 GMT 45.022156 17.813089 39,000 117 488 0
2020-10-06 13:47:03 GMT 45.029793 17.792761 39,025 117 487 0
2020-10-06 13:46:55 GMT 45.035248 17.778299 39,000 117 487 0
2020-10-06 13:46:51 GMT 45.038910 17.768490 39,000 117 487 0
2020-10-06 13:46:47 GMT 45.043259 17.756981 39,000 117 488 0
2020-10-06 13:46:40 GMT 45.051041 17.736183 39,000 117 488 0
2020-10-06 13:46:37 GMT 45.054790 17.726171 39,000 117 488 0
2020-10-06 13:46:33 GMT 45.058548 17.716173 39,000 117 488 0
2020-10-06 13:46:30 GMT 45.062054 17.706745 39,000 117 488 0
2020-10-06 13:46:26 GMT 45.065220 17.698305 39,000 117 489 0
2020-10-06 13:46:22 GMT 45.069454 17.687050 39,000 117 489 0
2020-10-06 13:46:19 GMT 45.072647 17.678440 39,000 117 489 0
2020-10-06 13:46:16 GMT 45.076298 17.668695 39,000 117 489 0
2020-10-06 13:46:13 GMT 45.080017 17.658627 39,000 117 489 0
2020-10-06 13:46:08 GMT 45.083817 17.648491 39,000 117 488 0
2020-10-06 13:46:05 GMT 45.087067 17.639727 39,000 117 488 -64
2020-10-06 13:46:02 GMT 45.090775 17.629852 39,000 117 488 0
2020-10-06 13:45:59 GMT 45.094208 17.620565 39,000 117 488 0
2020-10-06 13:45:56 GMT 45.096954 17.613241 39,000 117 488 0
2020-10-06 13:45:52 GMT 45.101166 17.601994 39,000 117 487 0
2020-10-06 13:45:49 GMT 45.104874 17.592119 39,000 117 487 0
2020-10-06 13:45:46 GMT 45.107712 17.584534 39,000 117 487 0
2020-10-06 13:45:42 GMT 45.112015 17.572960 39,000 117 487 0
2020-10-06 13:45:39 GMT 45.116043 17.562300 39,000 117 487 0
2020-10-06 13:45:35 GMT 45.118710 17.555147 39,000 117 487 0
2020-10-06 13:45:32 GMT 45.122620 17.544697 39,000 117 488 0
2020-10-06 13:45:28 GMT 45.126575 17.533979 39,000 117 488 0
2020-10-06 13:45:25 GMT 45.129601 17.525806 39,000 117 487 0
2020-10-06 13:45:21 GMT 45.137005 17.505775 39,000 117 488 0
2020-10-06 13:45:18 GMT 45.137005 17.505775 39,000 117 487 -64
2020-10-06 13:45:15 GMT 45.139481 17.499128 39,000 117 487 0
2020-10-06 13:45:12 GMT 45.144058 17.486769 39,000 117 488 -64
2020-10-06 13:45:08 GMT 45.147720 17.476894 39,000 117 487 0
2020-10-06 13:45:05 GMT 45.151611 17.466431 39,000 117 487 64
2020-10-06 13:44:59 GMT 45.156555 17.453054 39,000 117 487 0
2020-10-06 13:44:56 GMT 45.160904 17.441383 39,000 117 487 0
2020-10-06 13:44:51 GMT 45.165298 17.429548 39,000 117 487 0
2020-10-06 13:44:48 GMT 45.169125 17.419226 39,000 117 487 64
2020-10-06 13:44:45 GMT 45.171158 17.413721 39,000 117 487 0
2020-10-06 13:44:42 GMT 45.175735 17.401297 39,000 117 488 -64
2020-10-06 13:44:38 GMT 45.179398 17.391422 39,000 117 488 0
2020-10-06 13:44:35 GMT 45.182007 17.384359 39,000 117 487 0
2020-10-06 13:44:32 GMT 45.185184 17.375750 39,000 117 487 0
2020-10-06 13:44:29 GMT 45.188919 17.365658 39,000 117 488 0
2020-10-06 13:44:25 GMT 45.192493 17.355921 39,000 117 488 0
2020-10-06 13:44:21 GMT 45.196655 17.344795 39,000 117 488 0
2020-10-06 13:44:18 GMT 45.199768 17.336294 39,000 117 488 0
2020-10-06 13:44:15 GMT 45.202873 17.327986 39,000 117 488 0
2020-10-06 13:44:10 GMT 45.207764 17.314653 39,000 117 488 0
2020-10-06 13:44:07 GMT 45.211670 17.304054 39,000 117 488 0
2020-10-06 13:44:04 GMT 45.214466 17.296568 39,000 117 488 0
2020-10-06 13:44:01 GMT 45.218765 17.284763 39,000 117 488 0
2020-10-06 13:43:57 GMT 45.221962 17.276134 39,000 117 487 0
2020-10-06 13:43:53 GMT 45.226009 17.265081 39,000 117 488 0
2020-10-06 13:43:50 GMT 45.228973 17.257036 39,000 117 488 0
2020-10-06 13:43:46 GMT 45.233322 17.245134 39,000 117 488 0
2020-10-06 13:43:43 GMT 45.235882 17.238152 39,000 117 487 0
2020-10-06 13:43:40 GMT 45.239594 17.228132 39,000 117 488 0
2020-10-06 13:43:36 GMT 45.244492 17.214790 39,000 117 487 0
2020-10-06 13:43:33 GMT 45.248016 17.205177 39,000 117 487 0
2020-10-06 13:43:30 GMT 45.253151 17.191126 39,000 117 488 0
2020-10-06 13:43:27 GMT 45.253151 17.191126 39,000 117 488 0
2020-10-06 13:43:24 GMT 45.255936 17.183664 39,000 117 488 0
2020-10-06 13:43:20 GMT 45.260513 17.171173 39,000 117 488 0
2020-10-06 13:43:16 GMT 45.265675 17.157093 39,000 117 488 0
2020-10-06 13:43:13 GMT 45.267380 17.152470 39,000 117 488 0
2020-10-06 13:43:10 GMT 45.270950 17.142792 39,000 117 488 0
2020-10-06 13:43:07 GMT 45.276901 17.126638 39,000 117 488 64
2020-10-06 13:43:04 GMT 45.276901 17.126638 39,000 117 488 0
2020-10-06 13:42:59 GMT 45.282715 17.110813 39,000 117 488 -64
2020-10-06 13:42:55 GMT 45.287041 17.099014 39,000 117 487 0
2020-10-06 13:42:52 GMT 45.292603 17.083872 39,000 117 487 0
2020-10-06 13:42:46 GMT 45.295715 17.075371 39,000 117 487 0
2020-10-06 13:42:43 GMT 45.297935 17.069269 39,000 117 487 0
2020-10-06 13:42:38 GMT 45.304916 17.050312 39,000 117 487 0
2020-10-06 13:42:35 GMT 45.306931 17.044830 39,000 117 487 0
2020-10-06 13:42:31 GMT 45.311108 17.033297 39,000 117 487 0
2020-10-06 13:42:28 GMT 45.318230 17.013803 39,000 117 486 0
2020-10-06 13:42:25 GMT 45.318230 17.013803 39,000 117 486 0
2020-10-06 13:42:22 GMT 45.320343 17.008013 39,000 117 486 0
2020-10-06 13:42:19 GMT 45.322979 17.000740 39,000 117 486 0
2020-10-06 13:42:16 GMT 45.326065 16.992449 39,000 117 486 0
2020-10-06 13:42:13 GMT 45.329681 16.982510 39,000 117 486 64
2020-10-06 13:42:09 GMT 45.333641 16.971600 39,000 117 486 0
2020-10-06 13:42:06 GMT 45.336273 16.964396 39,000 117 486 0
2020-10-06 13:42:02 GMT 45.340530 16.952753 39,000 117 486 0
2020-10-06 13:41:59 GMT 45.344067 16.943062 39,000 117 486 0
2020-10-06 13:41:56 GMT 45.347260 16.934378 39,000 117 486 0
2020-10-06 13:41:53 GMT 45.350464 16.925615 39,000 117 486 0
2020-10-06 13:41:50 GMT 45.353191 16.918140 39,000 117 486 0
2020-10-06 13:41:47 GMT 45.357845 16.905413 39,000 117 486 0
2020-10-06 13:41:43 GMT 45.361244 16.896034 39,000 117 485 0
2020-10-06 13:41:39 GMT 45.364922 16.885853 39,000 117 486 0
2020-10-06 13:41:36 GMT 45.368088 16.877222 39,000 117 486 0
2020-10-06 13:41:33 GMT 45.371658 16.867283 39,000 117 486 0
2020-10-06 13:41:29 GMT 45.375957 16.855371 39,000 117 486 0
2020-10-06 13:41:26 GMT 45.378525 16.848253 39,000 117 486 0
2020-10-06 13:41:22 GMT 45.382473 16.837353 39,000 117 486 0
2020-10-06 13:41:18 GMT 45.386570 16.825962 39,000 117 486 0
2020-10-06 13:41:15 GMT 45.389782 16.817188 39,000 117 486 0
2020-10-06 13:41:11 GMT 45.393227 16.807541 39,000 117 486 0
2020-10-06 13:41:08 GMT 45.396698 16.798031 39,000 117 486 0
2020-10-06 13:41:05 GMT 45.401001 16.786062 39,000 117 487 0
2020-10-06 13:41:02 GMT 45.403515 16.779139 39,000 117 487 0
2020-10-06 13:40:58 GMT 45.406860 16.769911 39,000 117 487 0
2020-10-06 13:40:55 GMT 45.409893 16.761518 39,000 117 487 0
2020-10-06 13:40:51 GMT 45.414093 16.750031 39,000 117 487 0
2020-10-06 13:40:48 GMT 45.418396 16.738064 39,000 117 487 0
2020-10-06 13:40:44 GMT 45.421112 16.730503 39,000 116 487 0
2020-10-06 13:40:41 GMT 45.424370 16.721392 39,000 116 487 0
2020-10-06 13:40:38 GMT 45.428467 16.710005 39,000 117 487 64
2020-10-06 13:40:35 GMT 45.431305 16.702162 39,000 117 487 64
2020-10-06 13:40:31 GMT 45.437496 16.684883 39,000 117 487 0
2020-10-06 13:40:28 GMT 45.437496 16.684883 39,000 117 487 0
2020-10-06 13:40:25 GMT 45.441605 16.673649 39,000 117 487 0
2020-10-06 13:40:21 GMT 45.445786 16.662106 39,000 117 488 0
2020-10-06 13:40:17 GMT 45.449368 16.652124 39,000 117 488 0
2020-10-06 13:40:14 GMT 45.451996 16.644876 39,000 117 488 0
2020-10-06 13:40:10 GMT 45.456165 16.633301 39,000 117 488 -64
2020-10-06 13:40:07 GMT 45.459751 16.623453 39,000 117 487 0
2020-10-06 13:40:03 GMT 45.463211 16.613749 39,000 116 489 0
2020-10-06 13:40:00 GMT 45.466640 16.604160 39,000 116 489 0
2020-10-06 13:39:57 GMT 45.469894 16.595177 39,000 116 489 0
2020-10-06 13:39:54 GMT 45.473110 16.586140 39,000 116 489 0
2020-10-06 13:39:51 GMT 45.476509 16.576694 39,000 116 490 0
2020-10-06 13:39:48 GMT 45.483398 16.557468 39,000 116 490 -64
2020-10-06 13:39:44 GMT 45.483398 16.557468 39,000 117 490 0
2020-10-06 13:39:40 GMT 45.487637 16.545746 39,000 117 490 -64
2020-10-06 13:39:37 GMT 45.491127 16.535965 39,000 117 490 0
2020-10-06 13:39:34 GMT 45.494522 16.526520 39,000 116 491 0
2020-10-06 13:39:29 GMT 45.498367 16.515720 39,000 116 491 0
2020-10-06 13:39:26 GMT 45.501415 16.507227 39,000 116 492 0
2020-10-06 13:39:22 GMT 45.505692 16.495253 39,000 116 493 0
2020-10-06 13:39:16 GMT 45.511826 16.477922 39,000 116 493 0
2020-10-06 13:39:11 GMT 45.516907 16.463797 39,000 116 493 0
2020-10-06 13:39:08 GMT 45.519711 16.455845 39,000 117 494 0
2020-10-06 13:39:05 GMT 45.523808 16.444590 39,000 116 492 0
2020-10-06 13:39:02 GMT 45.525696 16.439209 39,000 117 494 64
2020-10-06 13:38:59 GMT 45.529861 16.427633 39,000 116 493 0
2020-10-06 13:38:53 GMT 45.537071 16.407545 39,000 116 493 64
2020-10-06 13:38:50 GMT 45.539028 16.402052 39,000 116 493 64
2020-10-06 13:38:47 GMT 45.543171 16.390463 39,000 116 493 0
2020-10-06 13:38:43 GMT 45.549545 16.372709 39,000 116 493 -64
2020-10-06 13:38:40 GMT 45.549545 16.372709 39,000 116 493 0
2020-10-06 13:38:34 GMT 45.556137 16.354155 39,000 116 493 -64
2020-10-06 13:38:31 GMT 45.558254 16.348274 39,000 116 493 0
2020-10-06 13:38:27 GMT 45.562492 16.336395 39,000 116 493 0
2020-10-06 13:38:24 GMT 45.565750 16.327126 39,000 116 493 0
2020-10-06 13:38:21 GMT 45.568867 16.318474 39,000 116 492 0
2020-10-06 13:38:18 GMT 45.571381 16.311348 39,000 116 492 0
2020-10-06 13:38:15 GMT 45.576084 16.298080 39,000 116 492 0
2020-10-06 13:38:12 GMT 45.578659 16.290850 39,000 116 492 0
2020-10-06 13:38:09 GMT 45.581066 16.284073 39,000 116 492 -64
2020-10-06 13:38:06 GMT 45.584278 16.275078 39,000 116 492 -64
2020-10-06 13:38:03 GMT 45.587349 16.266426 39,000 116 492 0
2020-10-06 13:38:00 GMT 45.589817 16.259491 39,000 116 492 0
2020-10-06 13:37:57 GMT 45.593353 16.249516 39,000 116 492 0
2020-10-06 13:37:54 GMT 45.596428 16.240814 39,000 116 492 0
2020-10-06 13:37:51 GMT 45.599964 16.230858 39,000 116 492 0
2020-10-06 13:37:47 GMT 45.603737 16.220146 39,000 116 492 0
2020-10-06 13:37:44 GMT 45.610062 16.202354 39,000 116 492 0
2020-10-06 13:37:41 GMT 45.610062 16.202354 39,000 116 492 0
2020-10-06 13:37:38 GMT 45.613605 16.192337 39,000 116 492 0
2020-10-06 13:37:35 GMT 45.615601 16.186680 39,000 116 492 0
2020-10-06 13:37:32 GMT 45.618759 16.177704 39,000 116 492 64
2020-10-06 13:37:28 GMT 45.623291 16.164974 39,000 116 492 0
2020-10-06 13:37:25 GMT 45.627197 16.153816 39,000 116 492 0
2020-10-06 13:37:22 GMT 45.628967 16.148872 39,000 116 492 0
2020-10-06 13:37:19 GMT 45.632996 16.137442 39,000 116 492 0
2020-10-06 13:37:16 GMT 45.635651 16.129938 39,000 116 492 0
2020-10-06 13:37:13 GMT 45.638790 16.120995 39,000 116 492 0
2020-10-06 13:37:10 GMT 45.641396 16.113579 39,000 116 492 0
2020-10-06 13:37:07 GMT 45.647278 16.096912 39,000 116 491 0
2020-10-06 13:37:04 GMT 45.651672 16.084520 39,000 116 491 0
2020-10-06 13:37:01 GMT 45.651672 16.084520 39,000 116 491 0
2020-10-06 13:36:57 GMT 45.655174 16.074509 39,000 116 491 0
2020-10-06 13:36:54 GMT 45.658630 16.064825 39,000 116 491 -64
2020-10-06 13:36:50 GMT 45.662766 16.053085 39,025 116 491 0
2020-10-06 13:36:46 GMT 45.666862 16.041550 39,025 116 491 -64
2020-10-06 13:36:43 GMT 45.668381 16.037359 39,000 116 491 -64
2020-10-06 13:36:40 GMT 45.675381 16.017448 39,000 116 492 0
2020-10-06 13:36:37 GMT 45.675381 16.017448 39,000 116 492 0
2020-10-06 13:36:34 GMT 45.677856 16.010363 39,000 116 493 64
2020-10-06 13:36:31 GMT 45.681061 16.001244 39,000 116 493 0
2020-10-06 13:36:28 GMT 45.685482 15.988747 39,000 116 493 0
2020-10-06 13:36:24 GMT 45.689072 15.978408 39,000 116 493 0
2020-10-06 13:36:21 GMT 45.691673 15.970963 39,000 116 493 0
2020-10-06 13:36:18 GMT 45.697166 15.955307 39,000 116 493 64
2020-10-06 13:36:15 GMT 45.697166 15.955307 39,000 116 494 64
2020-10-06 13:36:12 GMT 45.700237 15.946518 39,000 116 494 64
2020-10-06 13:36:09 GMT 45.703674 15.936808 39,000 116 494 64
2020-10-06 13:36:06 GMT 45.707409 15.926193 39,000 116 495 -64
2020-10-06 13:36:02 GMT 45.710815 15.916376 39,000 116 494 -64
2020-10-06 13:35:59 GMT 45.714436 15.906075 39,000 116 494 0
2020-10-06 13:35:56 GMT 45.717041 15.898624 39,000 116 494 0
2020-10-06 13:35:52 GMT 45.725143 15.875450 39,000 116 494 0
2020-10-06 13:35:49 GMT 45.725143 15.875450 39,000 116 494 0
2020-10-06 13:35:43 GMT 45.730637 15.859726 39,000 116 494 0
2020-10-06 13:35:40 GMT 45.733292 15.852104 39,000 116 494 0
2020-10-06 13:35:37 GMT 45.735851 15.844826 39,000 116 494 -64
2020-10-06 13:35:34 GMT 45.740788 15.830818 39,000 116 494 -64
2020-10-06 13:35:31 GMT 45.743019 15.824364 39,000 116 495 -64
2020-10-06 13:35:28 GMT 45.745674 15.816811 39,025 116 495 -64
2020-10-06 13:35:25 GMT 45.749313 15.806446 39,025 116 495 -64
2020-10-06 13:35:22 GMT 45.752007 15.798683 39,025 116 495 64
2020-10-06 13:35:18 GMT 45.756317 15.786282 39,000 116 495 64
2020-10-06 13:35:15 GMT 45.758846 15.779114 39,000 116 495 64
2020-10-06 13:35:12 GMT 45.762543 15.768462 39,000 116 495 64
2020-10-06 13:35:08 GMT 45.766716 15.756592 39,000 116 494 0
2020-10-06 13:35:05 GMT 45.769367 15.748901 39,000 116 497 0
2020-10-06 13:35:01 GMT 45.774536 15.734070 39,000 116 496 0
2020-10-06 13:34:55 GMT 45.779472 15.719788 39,000 116 497 -64
2020-10-06 13:34:51 GMT 45.783188 15.709109 39,000 116 496 0
2020-10-06 13:34:48 GMT 45.791668 15.684837 39,000 116 496 0
2020-10-06 13:34:44 GMT 45.791668 15.684837 39,000 116 495 0
2020-10-06 13:34:41 GMT 45.793903 15.678383 39,000 116 495 0
2020-10-06 13:34:38 GMT 45.795952 15.672546 39,000 116 495 64
2020-10-06 13:34:35 GMT 45.800262 15.660073 39,000 116 495 0
2020-10-06 13:34:32 GMT 45.803741 15.650091 39,000 116 495 64
2020-10-06 13:34:29 GMT 45.806843 15.641167 39,000 116 494 0
2020-10-06 13:34:24 GMT 45.810520 15.630592 39,000 116 495 64
2020-10-06 13:34:20 GMT 45.815922 15.615074 39,000 116 493 0
2020-10-06 13:34:17 GMT 45.818062 15.608963 39,000 116 494 0
2020-10-06 13:34:14 GMT 45.825394 15.587724 39,000 116 494 0
2020-10-06 13:34:11 GMT 45.825394 15.587724 39,000 116 494 0
2020-10-06 13:34:08 GMT 45.830154 15.573924 39,000 116 494 0
2020-10-06 13:34:05 GMT 45.830154 15.573924 39,000 116 494 0
2020-10-06 13:34:02 GMT 45.836079 15.556847 39,000 116 494 0
2020-10-06 13:33:56 GMT 45.840221 15.544830 39,000 116 494 0
2020-10-06 13:33:53 GMT 45.842194 15.539089 39,000 116 494 0
2020-10-06 13:33:50 GMT 45.845295 15.530136 39,000 116 494 64
2020-10-06 13:33:47 GMT 45.849346 15.518463 39,000 116 494 0
2020-10-06 13:33:44 GMT 45.852371 15.509674 39,000 116 494 0
2020-10-06 13:33:39 GMT 45.856747 15.496902 39,000 116 494 0
2020-10-06 13:33:35 GMT 45.860687 15.485497 39,000 116 493 -64
2020-10-06 13:33:32 GMT 45.864441 15.474645 39,000 116 493 -64
2020-10-06 13:33:29 GMT 45.866013 15.470123 39,000 116 493 0
2020-10-06 13:33:26 GMT 45.869476 15.460041 39,000 116 493 0
2020-10-06 13:33:23 GMT 45.872528 15.451103 39,000 115 495 0
2020-10-06 13:33:20 GMT 45.876114 15.440681 39,000 116 492 0
2020-10-06 13:33:16 GMT 45.879700 15.430298 39,000 116 492 0
2020-10-06 13:33:13 GMT 45.883327 15.419792 39,000 116 492 0
2020-10-06 13:33:08 GMT 45.888077 15.406059 39,000 116 493 0
2020-10-06 13:33:05 GMT 45.890682 15.398438 39,000 116 493 0
2020-10-06 13:33:01 GMT 45.895981 15.383070 39,025 116 492 0
2020-10-06 13:32:57 GMT 45.898972 15.374474 39,000 116 493 0
2020-10-06 13:32:53 GMT 45.904129 15.359356 39,000 116 493 0
2020-10-06 13:32:49 GMT 45.907059 15.350848 39,000 116 493 0
2020-10-06 13:32:46 GMT 45.909439 15.343814 39,000 116 493 0
2020-10-06 13:32:43 GMT 45.912704 15.334305 39,000 116 494 0
2020-10-06 13:32:40 GMT 45.915665 15.325660 39,000 116 494 0
2020-10-06 13:32:37 GMT 45.919006 15.315946 39,000 116 494 0
2020-10-06 13:32:34 GMT 45.922531 15.305697 39,000 116 494 64
2020-10-06 13:32:31 GMT 45.925644 15.296586 39,000 116 494 64
2020-10-06 13:32:28 GMT 45.927601 15.290840 39,000 116 494 64
2020-10-06 13:32:25 GMT 45.934349 15.271133 39,000 115 495 0
2020-10-06 13:32:22 GMT 45.937328 15.262276 39,000 115 495 64
2020-10-06 13:32:15 GMT 45.940540 15.252869 39,000 115 495 64
2020-10-06 13:32:12 GMT 45.944138 15.242391 39,000 116 493 64
2020-10-06 13:32:09 GMT 45.947433 15.232678 39,000 116 494 0
2020-10-06 13:32:06 GMT 45.954227 15.212906 39,000 116 493 64
2020-10-06 13:32:02 GMT 45.954227 15.212906 39,000 116 493 64
2020-10-06 13:31:58 GMT 45.959442 15.197594 39,000 116 493 0
2020-10-06 13:31:55 GMT 45.962376 15.189079 39,000 116 493 0
2020-10-06 13:31:51 GMT 45.964748 15.182076 39,000 115 492 0
2020-10-06 13:31:48 GMT 45.968811 15.170176 39,000 115 492 0
2020-10-06 13:31:45 GMT 45.971359 15.162643 39,000 115 492 0
2020-10-06 13:31:42 GMT 45.974899 15.152290 39,000 116 491 -64
2020-10-06 13:31:37 GMT 45.979412 15.138954 39,000 115 491 -64
2020-10-06 13:31:34 GMT 45.981926 15.131607 39,000 115 491 -64
2020-10-06 13:31:30 GMT 45.987213 15.115982 39,000 116 491 -64
2020-10-06 13:31:27 GMT 45.993240 15.098305 39,000 116 489 0
2020-10-06 13:31:24 GMT 45.993240 15.098305 39,000 115 490 0
2020-10-06 13:31:21 GMT 45.994812 15.093741 39,000 116 489 0
2020-10-06 13:31:17 GMT 46.002224 15.072006 39,000 115 489 0
2020-10-06 13:31:14 GMT 46.005760 15.061501 39,000 116 489 0
2020-10-06 13:31:11 GMT 46.005760 15.061501 39,000 116 489 0
2020-10-06 13:31:08 GMT 46.010929 15.046326 39,000 115 490 0
2020-10-06 13:31:05 GMT 46.010929 15.046326 39,000 115 490 64
2020-10-06 13:31:01 GMT 46.015163 15.033760 39,000 115 490 64
2020-10-06 13:30:58 GMT 46.018143 15.024971 39,000 115 489 0
2020-10-06 13:30:55 GMT 46.021122 15.016113 39,000 115 489 0
2020-10-06 13:30:52 GMT 46.023636 15.008629 39,000 115 489 -64
2020-10-06 13:30:49 GMT 46.027176 14.998281 39,000 115 489 0
2020-10-06 13:30:45 GMT 46.030293 14.989059 39,000 115 488 0
2020-10-06 13:30:42 GMT 46.034088 14.977849 39,000 115 488 0
2020-10-06 13:30:39 GMT 46.036999 14.969284 39,000 115 487 0
2020-10-06 13:30:36 GMT 46.042557 14.952795 39,000 115 487 0
2020-10-06 13:30:30 GMT 46.046310 14.941741 39,000 115 487 0
2020-10-06 13:30:26 GMT 46.049194 14.933167 39,000 115 488 0
2020-10-06 13:30:23 GMT 46.052399 14.923654 39,000 115 488 0
2020-10-06 13:30:19 GMT 46.056175 14.912430 39,000 115 488 -64
2020-10-06 13:30:16 GMT 46.059341 14.903091 39,000 115 488 0
2020-10-06 13:30:13 GMT 46.062469 14.893910 39,000 115 488 0
2020-10-06 13:30:10 GMT 46.068970 14.874617 39,000 115 488 0
2020-10-06 13:30:07 GMT 46.068970 14.874617 39,000 115 488 0
2020-10-06 13:30:02 GMT 46.072659 14.863678 39,000 115 489 0
2020-10-06 13:29:59 GMT 46.079178 14.844204 39,000 115 489 64
2020-10-06 13:29:56 GMT 46.079178 14.844204 39,000 115 490 64
2020-10-06 13:29:53 GMT 46.082386 14.834633 39,000 115 490 0
2020-10-06 13:29:49 GMT 46.086018 14.823784 39,000 115 490 0
2020-10-06 13:29:46 GMT 46.089294 14.813992 39,000 115 490 0
2020-10-06 13:29:42 GMT 46.092766 14.803596 39,000 115 490 0
2020-10-06 13:29:39 GMT 46.099640 14.783176 39,000 115 490 0
2020-10-06 13:29:36 GMT 46.099640 14.783176 39,000 115 490 -64
2020-10-06 13:29:33 GMT 46.101658 14.777161 39,000 115 490 0
2020-10-06 13:29:29 GMT 46.105568 14.765488 39,000 115 490 0
2020-10-06 13:29:25 GMT 46.109573 14.753567 39,000 115 491 0
2020-10-06 13:29:22 GMT 46.112366 14.745394 39,000 115 491 0
2020-10-06 13:29:18 GMT 46.119370 14.724560 39,000 115 491 0
2020-10-06 13:29:15 GMT 46.119370 14.724560 39,000 115 491 0
2020-10-06 13:29:12 GMT 46.122437 14.715450 39,000 115 491 0
2020-10-06 13:29:09 GMT 46.125214 14.707054 39,000 115 491 -64
2020-10-06 13:29:06 GMT 46.128799 14.696480 39,000 115 492 -64
2020-10-06 13:29:03 GMT 46.134384 14.679811 39,000 115 492 0
2020-10-06 13:29:00 GMT 46.134384 14.679811 39,000 115 492 0
2020-10-06 13:28:57 GMT 46.137459 14.670525 39,000 115 493 0
2020-10-06 13:28:54 GMT 46.141228 14.659264 39,000 115 493 0
2020-10-06 13:28:51 GMT 46.142998 14.653976 39,000 115 494 0
2020-10-06 13:28:48 GMT 46.149609 14.634132 39,000 115 494 64
2020-10-06 13:28:45 GMT 46.149609 14.634132 39,000 115 494 64
2020-10-06 13:28:42 GMT 46.152077 14.626717 39,000 115 494 0
2020-10-06 13:28:38 GMT 46.155807 14.615568 39,000 115 495 0
2020-10-06 13:28:35 GMT 46.160065 14.602840 39,000 115 496 64
2020-10-06 13:28:32 GMT 46.165062 14.587784 39,000 115 496 0
2020-10-06 13:28:29 GMT 46.169174 14.575508 39,000 115 496 0
2020-10-06 13:28:25 GMT 46.171555 14.568407 39,000 115 496 0
2020-10-06 13:28:18 GMT 46.178562 14.547478 39,000 115 494 0
2020-10-06 13:28:12 GMT 46.181961 14.537178 39,000 115 494 0
2020-10-06 13:28:09 GMT 46.184753 14.528732 39,000 115 494 64
2020-10-06 13:28:05 GMT 46.188583 14.517361 39,000 115 494 -64
2020-10-06 13:28:02 GMT 46.191513 14.508451 39,000 115 494 -64
2020-10-06 13:27:59 GMT 46.198162 14.488426 39,000 115 493 -64
2020-10-06 13:27:56 GMT 46.198162 14.488426 39,000 115 493 0
2020-10-06 13:27:52 GMT 46.201950 14.477033 39,000 115 493 0
2020-10-06 13:27:46 GMT 46.207443 14.460419 39,000 115 492 0
2020-10-06 13:27:43 GMT 46.210171 14.452309 39,000 115 492 0
2020-10-06 13:27:40 GMT 46.213104 14.443451 39,000 115 492 0
2020-10-06 13:27:37 GMT 46.216461 14.433222 39,000 115 492 0
2020-10-06 13:27:34 GMT 46.221905 14.416809 39,000 115 492 0
2020-10-06 13:27:31 GMT 46.224743 14.408226 39,000 115 492 -64
2020-10-06 13:27:28 GMT 46.227768 14.399258 39,000 115 492 -64
2020-10-06 13:27:25 GMT 46.227768 14.399258 39,025 115 492 -64
2020-10-06 13:27:22 GMT 46.230236 14.391678 39,025 115 492 -64
2020-10-06 13:27:19 GMT 46.234657 14.378357 39,025 115 492 0
2020-10-06 13:27:16 GMT 46.236191 14.373735 39,025 115 494 0
2020-10-06 13:27:13 GMT 46.240860 14.359533 39,000 115 494 0
2020-10-06 13:27:09 GMT 46.244339 14.349149 39,000 115 495 0
2020-10-06 13:27:05 GMT 46.247925 14.338257 39,000 115 496 64
2020-10-06 13:27:02 GMT 46.250069 14.331734 39,000 115 496 0
2020-10-06 13:26:59 GMT 46.253494 14.321416 39,000 115 496 64
2020-10-06 13:26:56 GMT 46.256863 14.311134 39,000 115 497 64
2020-10-06 13:26:53 GMT 46.259903 14.301989 39,000 115 497 0
2020-10-06 13:26:47 GMT 46.268131 14.277008 39,000 115 498 -64
2020-10-06 13:26:44 GMT 46.268131 14.277008 39,000 115 498 -64
2020-10-06 13:26:41 GMT 46.271667 14.266228 39,000 115 497 0
2020-10-06 13:26:38 GMT 46.274136 14.258743 39,000 115 497 0
2020-10-06 13:26:35 GMT 46.276657 14.251143 39,000 115 496 0
2020-10-06 13:26:32 GMT 46.280140 14.240479 39,000 115 499 0
2020-10-06 13:26:28 GMT 46.283676 14.229698 39,000 115 497 64
2020-10-06 13:26:25 GMT 46.287495 14.218025 39,000 115 497 0
2020-10-06 13:26:22 GMT 46.290436 14.209208 39,000 115 497 0
2020-10-06 13:26:19 GMT 46.293034 14.201202 39,000 115 497 0
2020-10-06 13:26:16 GMT 46.296524 14.190585 39,000 115 498 -64
2020-10-06 13:26:12 GMT 46.300343 14.179024 39,000 115 498 0
2020-10-06 13:26:09 GMT 46.303230 14.170166 39,000 115 498 0
2020-10-06 13:26:06 GMT 46.305817 14.162382 39,000 115 499 0
2020-10-06 13:26:03 GMT 46.309158 14.152132 39,000 115 498 0
2020-10-06 13:26:00 GMT 46.311539 14.144964 39,000 115 498 0
2020-10-06 13:25:57 GMT 46.314358 14.136383 39,000 115 499 0
2020-10-06 13:25:54 GMT 46.317802 14.125809 39,000 115 499 0
2020-10-06 13:25:50 GMT 46.324997 14.103699 39,000 115 499 0
2020-10-06 13:25:47 GMT 46.324997 14.103699 39,000 115 499 -64
2020-10-06 13:25:43 GMT 46.327652 14.095526 39,000 115 499 -128
2020-10-06 13:25:40 GMT 46.331627 14.083374 39,025 115 499 -128
2020-10-06 13:25:36 GMT 46.334793 14.073692 39,025 115 499 0
2020-10-06 13:25:32 GMT 46.339005 14.060892 39,025 115 499 64
2020-10-06 13:25:29 GMT 46.342800 14.049316 39,000 115 499 128
2020-10-06 13:25:26 GMT 46.344662 14.043617 39,000 115 499 64
2020-10-06 13:25:23 GMT 46.348251 14.032556 39,000 115 500 64
2020-10-06 13:25:20 GMT 46.351131 14.023705 39,000 115 500 64
2020-10-06 13:25:17 GMT 46.354614 14.012928 38,975 115 500 64
2020-10-06 13:25:14 GMT 46.357590 14.003884 38,975 115 500 64
2020-10-06 13:25:10 GMT 46.361023 13.993300 38,975 115 499 0
2020-10-06 13:25:06 GMT 46.365891 13.978386 38,975 115 499 64
2020-10-06 13:25:03 GMT 46.368713 13.969786 38,975 115 498 64
2020-10-06 13:25:00 GMT 46.370773 13.963489 38,975 115 498 64
2020-10-06 13:24:57 GMT 46.372780 13.957306 38,975 115 498 64
2020-10-06 13:24:54 GMT 46.375942 13.947693 39,000 115 498 0
2020-10-06 13:24:51 GMT 46.379063 13.938011 39,000 115 498 0
2020-10-06 13:24:48 GMT 46.382183 13.928398 39,000 115 497 0
2020-10-06 13:24:45 GMT 46.386185 13.916039 39,000 115 497 0
2020-10-06 13:24:42 GMT 46.391602 13.899380 39,025 115 497 -64
2020-10-06 13:24:39 GMT 46.391602 13.899380 39,025 115 496 -64
2020-10-06 13:24:36 GMT 46.393936 13.892145 39,025 115 496 -64
2020-10-06 13:24:33 GMT 46.396729 13.883436 39,025 115 496 -64
2020-10-06 13:24:30 GMT 46.399826 13.874016 39,000 115 496 -64
2020-10-06 13:24:27 GMT 46.402771 13.864813 39,025 115 496 -64
2020-10-06 13:24:24 GMT 46.406754 13.852487 39,000 115 495 0
2020-10-06 13:24:20 GMT 46.409695 13.843391 39,000 115 496 -64
2020-10-06 13:24:17 GMT 46.412441 13.835014 39,000 115 496 -64
2020-10-06 13:24:13 GMT 46.416817 13.821487 39,000 115 496 0
2020-10-06 13:24:10 GMT 46.419479 13.813231 39,000 115 495 0
2020-10-06 13:24:07 GMT 46.422356 13.804390 39,000 115 495 0
2020-10-06 13:24:04 GMT 46.424606 13.797354 39,000 115 495 0
2020-10-06 13:24:01 GMT 46.427849 13.787292 39,000 115 496 0
2020-10-06 13:23:58 GMT 46.431015 13.777525 39,000 115 496 0
2020-10-06 13:23:55 GMT 46.434311 13.767276 39,000 115 496 0
2020-10-06 13:23:52 GMT 46.436646 13.760108 39,000 115 496 0
2020-10-06 13:23:49 GMT 46.440372 13.748566 39,000 115 497 0
2020-10-06 13:23:46 GMT 46.442886 13.740738 39,000 115 497 0
2020-10-06 13:23:43 GMT 46.445354 13.733185 39,000 115 497 0
2020-10-06 13:23:40 GMT 46.448845 13.722404 39,000 115 496 0
2020-10-06 13:23:37 GMT 46.451523 13.714086 39,000 114 497 64
2020-10-06 13:23:34 GMT 46.455002 13.703234 39,000 114 497 0
2020-10-06 13:23:31 GMT 46.457970 13.694046 39,000 114 497 0
2020-10-06 13:23:28 GMT 46.460575 13.685944 39,000 114 497 0
2020-10-06 13:23:25 GMT 46.462646 13.679452 39,000 114 498 0
2020-10-06 13:23:22 GMT 46.466080 13.668868 39,000 114 498 64
2020-10-06 13:23:19 GMT 46.468815 13.660263 39,000 114 498 0
2020-10-06 13:23:16 GMT 46.471889 13.650719 39,000 114 498 0
2020-10-06 13:23:13 GMT 46.478035 13.631561 39,000 114 498 0
2020-10-06 13:23:10 GMT 46.478035 13.631561 39,000 114 498 0
2020-10-06 13:23:07 GMT 46.480549 13.623734 39,000 114 498 0
2020-10-06 13:23:03 GMT 46.484459 13.611649 39,000 114 497 0
2020-10-06 13:23:00 GMT 46.490707 13.592165 39,000 114 497 -64
2020-10-06 13:22:57 GMT 46.490707 13.592165 39,000 114 497 -64
2020-10-06 13:22:54 GMT 46.492630 13.586135 39,000 114 497 0
2020-10-06 13:22:51 GMT 46.498993 13.566173 39,000 114 497 64
2020-10-06 13:22:45 GMT 46.501495 13.558365 39,000 114 497 0
2020-10-06 13:22:42 GMT 46.504848 13.547928 39,000 114 497 0
2020-10-06 13:22:39 GMT 46.507778 13.538864 39,000 114 497 0
2020-10-06 13:22:36 GMT 46.510712 13.529663 39,000 114 497 0
2020-10-06 13:22:33 GMT 46.513645 13.520462 39,000 114 497 0
2020-10-06 13:22:30 GMT 46.516068 13.512978 39,000 114 497 0
2020-10-06 13:22:27 GMT 46.518814 13.504341 39,000 114 497 0
2020-10-06 13:22:24 GMT 46.522259 13.493614 39,000 114 497 0
2020-10-06 13:22:21 GMT 46.525658 13.483040 39,000 114 497 0
2020-10-06 13:22:18 GMT 46.530624 13.467497 39,000 114 497 0
2020-10-06 13:22:12 GMT 46.533600 13.458118 39,000 114 497 0
2020-10-06 13:22:08 GMT 46.537807 13.445000 39,000 114 497 -64
2020-10-06 13:22:05 GMT 46.540649 13.436078 39,000 114 497 64
2020-10-06 13:22:02 GMT 46.543259 13.427906 39,000 114 497 0
2020-10-06 13:21:59 GMT 46.546600 13.417321 39,000 114 497 64
2020-10-06 13:21:56 GMT 46.548885 13.410255 39,000 114 497 64
2020-10-06 13:21:53 GMT 46.551224 13.402851 39,000 114 497 64
2020-10-06 13:21:50 GMT 46.555264 13.390343 39,000 114 497 64
2020-10-06 13:21:47 GMT 46.557587 13.382955 39,000 114 497 0
2020-10-06 13:21:44 GMT 46.560848 13.372833 39,000 114 497 64
2020-10-06 13:21:40 GMT 46.567924 13.350792 39,000 114 497 0
2020-10-06 13:21:37 GMT 46.567924 13.350792 39,000 114 497 0
2020-10-06 13:21:34 GMT 46.570580 13.342484 39,000 115 496 -64
2020-10-06 13:21:30 GMT 46.574024 13.331772 39,000 115 496 0
2020-10-06 13:21:27 GMT 46.577728 13.320186 39,000 115 497 -64
2020-10-06 13:21:24 GMT 46.580727 13.310966 39,000 115 497 -64
2020-10-06 13:21:18 GMT 46.586872 13.292015 39,000 115 496 0
2020-10-06 13:21:15 GMT 46.589806 13.282951 39,000 115 496 0
2020-10-06 13:21:09 GMT 46.594601 13.268188 39,000 115 496 0
2020-10-06 13:21:06 GMT 46.597595 13.259024 39,000 115 496 0
2020-10-06 13:21:02 GMT 46.601955 13.245667 39,000 115 496 0
2020-10-06 13:20:58 GMT 46.605423 13.234975 39,000 114 496 0
2020-10-06 13:20:55 GMT 46.608334 13.225685 39,000 114 497 0
2020-10-06 13:20:52 GMT 46.614758 13.204605 39,000 113 497 0
2020-10-06 13:20:49 GMT 46.614758 13.204605 39,000 112 497 0
2020-10-06 13:20:46 GMT 46.617363 13.195747 39,000 112 497 -64
2020-10-06 13:20:42 GMT 46.619614 13.187881 39,000 113 496 -64
2020-10-06 13:20:39 GMT 46.622864 13.176828 39,000 112 497 -64
2020-10-06 13:20:36 GMT 46.628677 13.156883 39,000 112 497 0
2020-10-06 13:20:33 GMT 46.628677 13.156883 39,000 112 497 64
2020-10-06 13:20:30 GMT 46.631424 13.147352 39,000 112 497 64
2020-10-06 13:20:27 GMT 46.634171 13.138000 39,000 112 497 -64
2020-10-06 13:20:23 GMT 46.639942 13.118019 39,000 112 497 0
2020-10-06 13:20:20 GMT 46.639942 13.118019 39,000 112 497 -64
2020-10-06 13:20:17 GMT 46.642960 13.107694 39,000 112 497 0
2020-10-06 13:20:14 GMT 46.646229 13.096527 39,000 112 497 0
2020-10-06 13:20:11 GMT 46.648499 13.088669 39,000 112 497 64
2020-10-06 13:20:08 GMT 46.650192 13.082841 39,000 112 497 0
2020-10-06 13:20:05 GMT 46.653954 13.069817 39,000 112 496 0
2020-10-06 13:20:02 GMT 46.659214 13.051689 39,000 112 497 0
2020-10-06 13:19:59 GMT 46.659214 13.051689 39,000 112 497 0
2020-10-06 13:19:56 GMT 46.661819 13.042580 39,000 112 497 0
2020-10-06 13:19:53 GMT 46.664616 13.032875 39,000 112 497 64
2020-10-06 13:19:50 GMT 46.667267 13.023823 39,000 112 497 0
2020-10-06 13:19:47 GMT 46.668869 13.018330 39,000 112 497 0
2020-10-06 13:19:43 GMT 46.672436 13.005890 39,000 112 496 0
2020-10-06 13:19:40 GMT 46.675598 12.994950 39,000 112 496 64
2020-10-06 13:19:37 GMT 46.678253 12.985909 39,000 112 495 64
2020-10-06 13:19:34 GMT 46.680302 12.978836 39,000 112 494 64
2020-10-06 13:19:31 GMT 46.682957 12.969635 39,000 112 494 -64
2020-10-06 13:19:28 GMT 46.686493 12.957413 39,000 112 494 0
2020-10-06 13:19:25 GMT 46.689285 12.947723 39,000 112 494 0
2020-10-06 13:19:22 GMT 46.692081 12.938118 39,000 112 494 64
2020-10-06 13:19:18 GMT 46.695850 12.924934 39,000 112 494 0
2020-10-06 13:19:14 GMT 46.698486 12.915902 39,000 112 494 -64
2020-10-06 13:19:10 GMT 46.701828 12.904313 39,000 112 494 64
2020-10-06 13:19:07 GMT 46.704117 12.896341 39,000 112 494 64
2020-10-06 13:19:04 GMT 46.707550 12.884417 39,000 112 494 0
2020-10-06 13:19:01 GMT 46.710144 12.875221 39,000 112 492 0
2020-10-06 13:18:57 GMT 46.713272 12.864521 39,000 112 493 0
2020-10-06 13:18:54 GMT 46.717171 12.850914 39,000 112 494 0
2020-10-06 13:18:51 GMT 46.719452 12.842949 39,000 112 494 0
2020-10-06 13:18:48 GMT 46.721642 12.835327 39,000 112 494 0
2020-10-06 13:18:44 GMT 46.724762 12.824461 39,000 112 494 0
2020-10-06 13:18:41 GMT 46.730759 12.803628 39,000 112 494 0
2020-10-06 13:18:38 GMT 46.730759 12.803628 39,000 112 494 0
2020-10-06 13:18:35 GMT 46.733002 12.795845 39,000 112 494 -64
2020-10-06 13:18:31 GMT 46.736584 12.783279 39,000 112 494 0
2020-10-06 13:18:28 GMT 46.738815 12.775492 39,000 112 494 0
2020-10-06 13:18:25 GMT 46.742310 12.763367 39,000 112 494 0
2020-10-06 13:18:21 GMT 46.745895 12.750870 39,000 112 494 0
2020-10-06 13:18:17 GMT 46.748566 12.741461 39,000 112 494 -64
2020-10-06 13:18:14 GMT 46.751247 12.732124 39,000 112 494 0
2020-10-06 13:18:11 GMT 46.754562 12.720627 39,000 112 495 0
2020-10-06 13:18:08 GMT 46.757301 12.710976 39,000 112 495 0
2020-10-06 13:18:05 GMT 46.759140 12.704684 39,000 112 497 64
2020-10-06 13:18:02 GMT 46.763912 12.687904 39,000 112 494 -64
2020-10-06 13:17:56 GMT 46.767197 12.676347 39,000 112 496 0
2020-10-06 13:17:53 GMT 46.769032 12.670052 39,000 112 496 0
2020-10-06 13:17:49 GMT 46.773174 12.655632 39,000 112 497 64
2020-10-06 13:17:46 GMT 46.775940 12.645867 39,000 112 497 64
2020-10-06 13:17:40 GMT 46.781601 12.625969 39,000 112 498 0
2020-10-06 13:17:37 GMT 46.787418 12.605507 39,000 112 499 0
2020-10-06 13:17:33 GMT 46.787418 12.605507 39,000 112 499 64
2020-10-06 13:17:29 GMT 46.791656 12.590675 39,000 112 499 0
2020-10-06 13:17:23 GMT 46.796406 12.573921 39,000 112 498 0
2020-10-06 13:17:19 GMT 46.799942 12.561562 39,000 112 499 64
2020-10-06 13:17:16 GMT 46.802223 12.553528 39,000 112 498 64
2020-10-06 13:17:13 GMT 46.804962 12.543707 39,000 112 498 0
2020-10-06 13:17:09 GMT 46.809631 12.527295 39,000 112 499 0
2020-10-06 13:17:06 GMT 46.811829 12.519591 39,000 112 498 0
2020-10-06 13:17:03 GMT 46.813721 12.512878 39,000 112 498 0
2020-10-06 13:16:59 GMT 46.817863 12.498322 39,000 112 498 0
2020-10-06 13:16:56 GMT 46.820892 12.487637 39,000 112 498 0
2020-10-06 13:16:53 GMT 46.822521 12.481911 39,000 112 498 64
2020-10-06 13:16:50 GMT 46.825287 12.472162 39,000 112 498 64
2020-10-06 13:16:47 GMT 46.827484 12.464391 39,000 112 498 0
2020-10-06 13:16:44 GMT 46.830460 12.453874 39,000 112 498 -64
2020-10-06 13:16:41 GMT 46.832748 12.445768 39,000 112 499 0
2020-10-06 13:16:38 GMT 46.835815 12.434916 39,000 112 499 64
2020-10-06 13:16:35 GMT 46.838070 12.426979 39,000 112 499 64
2020-10-06 13:16:32 GMT 46.840954 12.416748 39,000 112 499 0
2020-10-06 13:16:28 GMT 46.847672 12.392913 39,000 112 500 0
2020-10-06 13:16:25 GMT 46.847672 12.392913 39,000 112 500 0
2020-10-06 13:16:22 GMT 46.849411 12.386750 39,000 112 500 0
2020-10-06 13:16:19 GMT 46.852386 12.376099 39,000 112 500 -64
2020-10-06 13:16:16 GMT 46.855526 12.365044 39,000 112 500 0
2020-10-06 13:16:13 GMT 46.857342 12.358521 39,000 112 500 0
2020-10-06 13:16:10 GMT 46.862778 12.339321 39,000 112 501 0
2020-10-06 13:16:04 GMT 46.868225 12.319931 39,000 112 502 -64
2020-10-06 13:16:01 GMT 46.868225 12.319931 39,000 112 503 0
2020-10-06 13:15:57 GMT 46.871960 12.306659 39,000 112 502 0
2020-10-06 13:15:53 GMT 46.875126 12.295391 39,000 112 503 0
2020-10-06 13:15:50 GMT 46.877220 12.287856 39,000 112 504 0
2020-10-06 13:15:47 GMT 46.880478 12.276236 39,000 112 504 0
2020-10-06 13:15:44 GMT 46.882645 12.268501 39,000 112 504 0
2020-10-06 13:15:41 GMT 46.885986 12.256554 39,000 112 505 0
2020-10-06 13:15:37 GMT 46.889786 12.242958 39,000 112 505 -64
2020-10-06 13:15:34 GMT 46.891930 12.235248 39,000 112 506 0
2020-10-06 13:15:31 GMT 46.895782 12.221535 39,025 112 506 -64
2020-10-06 13:15:28 GMT 46.897423 12.215670 39,000 112 507 0
2020-10-06 13:15:25 GMT 46.900726 12.203979 39,000 112 508 0
2020-10-06 13:15:22 GMT 46.902916 12.196021 39,000 112 509 0
2020-10-06 13:15:19 GMT 46.904572 12.190155 39,000 112 509 0
2020-10-06 13:15:16 GMT 46.907959 12.178139 39,000 112 509 0
2020-10-06 13:15:13 GMT 46.910690 12.168415 39,000 112 510 64
2020-10-06 13:15:10 GMT 46.916183 12.148696 38,975 112 511 64
2020-10-06 13:15:07 GMT 46.916183 12.148696 39,000 112 511 64
2020-10-06 13:15:04 GMT 46.918606 12.140033 39,000 112 511 64
2020-10-06 13:15:01 GMT 46.921444 12.129822 39,000 112 512 -64
2020-10-06 13:14:58 GMT 46.924530 12.118813 39,000 112 512 -64
2020-10-06 13:14:52 GMT 46.928940 12.102919 39,000 112 512 -64
2020-10-06 13:14:49 GMT 46.931488 12.093819 39,000 112 512 0
2020-10-06 13:14:46 GMT 46.934990 12.081158 39,000 112 514 0
2020-10-06 13:14:42 GMT 46.939087 12.066439 39,000 112 513 0
2020-10-06 13:14:35 GMT 46.943939 12.048912 39,000 112 514 64
2020-10-06 13:14:32 GMT 46.946732 12.038956 39,000 112 514 0
2020-10-06 13:14:29 GMT 46.949795 12.027917 39,000 112 514 -64
2020-10-06 13:14:26 GMT 46.952496 12.018268 39,000 111 515 -64
2020-10-06 13:14:23 GMT 46.955986 12.005733 39,000 112 514 -64
2020-10-06 13:14:20 GMT 46.957718 11.999474 39,000 112 514 -64
2020-10-06 13:14:17 GMT 46.960922 11.987869 39,025 112 514 -64
2020-10-06 13:14:14 GMT 46.963200 11.979675 39,000 112 514 -64
2020-10-06 13:14:11 GMT 46.965900 11.970027 39,025 112 514 -64
2020-10-06 13:14:08 GMT 46.968601 11.960379 39,000 112 514 128
2020-10-06 13:14:04 GMT 46.972233 11.947209 39,025 111 515 128
2020-10-06 13:14:01 GMT 46.974934 11.937491 39,000 111 516 64
2020-10-06 13:13:55 GMT 46.980331 11.917969 38,975 111 517 0
2020-10-06 13:13:52 GMT 46.983311 11.907137 38,975 112 517 64
2020-10-06 13:13:48 GMT 46.986145 11.896889 39,000 112 517 0
2020-10-06 13:13:45 GMT 46.990200 11.882136 39,000 112 517 0
2020-10-06 13:13:42 GMT 46.992050 11.875534 39,000 112 517 -64
2020-10-06 13:13:39 GMT 46.995255 11.863861 39,000 112 517 0
2020-10-06 13:13:36 GMT 46.997772 11.854797 39,000 112 517 0
2020-10-06 13:13:33 GMT 46.999649 11.848000 39,000 112 517 64
2020-10-06 13:13:30 GMT 47.003220 11.835022 39,000 112 517 64
2020-10-06 13:13:27 GMT 47.005096 11.828224 39,000 111 517 64
2020-10-06 13:13:24 GMT 47.008171 11.817134 39,000 111 517 0
2020-10-06 13:13:21 GMT 47.011185 11.806183 39,000 111 517 0
2020-10-06 13:13:18 GMT 47.013931 11.796158 39,000 111 517 0
2020-10-06 13:13:15 GMT 47.017109 11.784598 39,000 111 517 -128
2020-10-06 13:13:12 GMT 47.021206 11.769738 39,000 111 516 0
2020-10-06 13:13:09 GMT 47.021206 11.769738 39,000 111 516 -64
2020-10-06 13:13:05 GMT 47.024918 11.756264 39,000 111 511 64
2020-10-06 13:13:02 GMT 47.029861 11.738136 39,000 111 516 0
2020-10-06 13:12:56 GMT 47.032658 11.727976 39,000 111 516 0
2020-10-06 13:12:53 GMT 47.036453 11.714172 39,000 111 516 0
2020-10-06 13:12:50 GMT 47.038242 11.707552 39,000 111 516 0
2020-10-06 13:12:47 GMT 47.040527 11.699341 39,000 111 516 0
2020-10-06 13:12:44 GMT 47.043831 11.687200 39,000 111 515 -64
2020-10-06 13:12:40 GMT 47.046482 11.677481 39,000 111 515 0
2020-10-06 13:12:37 GMT 47.049911 11.665077 39,000 111 514 128
2020-10-06 13:12:34 GMT 47.051743 11.658279 39,000 111 514 64
2020-10-06 13:12:31 GMT 47.054947 11.646675 39,000 111 514 64
2020-10-06 13:12:28 GMT 47.057465 11.637268 39,000 111 514 0
2020-10-06 13:12:25 GMT 47.060120 11.627586 39,000 111 513 -64
2020-10-06 13:12:22 GMT 47.062359 11.619380 39,000 111 513 -64
2020-10-06 13:12:19 GMT 47.065933 11.606300 39,000 111 512 0
2020-10-06 13:12:16 GMT 47.067490 11.600533 39,000 111 512 0
2020-10-06 13:12:13 GMT 47.071064 11.587548 39,000 111 511 64
2020-10-06 13:12:10 GMT 47.073204 11.579801 39,000 111 511 64
2020-10-06 13:12:07 GMT 47.075500 11.571281 39,000 111 511 0
2020-10-06 13:12:04 GMT 47.078789 11.559237 39,000 111 511 0
2020-10-06 13:12:01 GMT 47.082138 11.546906 39,000 111 509 0
2020-10-06 13:11:58 GMT 47.084377 11.538743 39,000 111 510 0
2020-10-06 13:11:55 GMT 47.086983 11.529095 39,000 111 509 -64
2020-10-06 13:11:52 GMT 47.089188 11.520950 39,000 111 509 0
2020-10-06 13:11:49 GMT 47.094757 11.500643 39,000 111 509 0
2020-10-06 13:11:46 GMT 47.094757 11.500643 39,000 111 509 0
2020-10-06 13:11:43 GMT 47.097878 11.489093 39,000 111 508 -64
2020-10-06 13:11:40 GMT 47.099648 11.482755 39,000 111 508 0
2020-10-06 13:11:37 GMT 47.102783 11.471031 39,000 111 508 0
2020-10-06 13:11:33 GMT 47.105850 11.459839 39,000 111 508 64
2020-10-06 13:11:30 GMT 47.108490 11.450148 39,000 111 508 64
2020-10-06 13:11:27 GMT 47.110912 11.441204 39,000 111 508 64
2020-10-06 13:11:24 GMT 47.116730 11.419725 39,000 111 508 0
2020-10-06 13:11:18 GMT 47.118919 11.411767 39,000 111 508 -64
2020-10-06 13:11:14 GMT 47.123108 11.396255 39,000 111 509 -64
2020-10-06 13:11:11 GMT 47.124756 11.390144 39,000 111 508 0
2020-10-06 13:11:08 GMT 47.130554 11.368878 39,000 111 508 0
2020-10-06 13:11:05 GMT 47.130554 11.368878 39,025 111 508 0
2020-10-06 13:11:02 GMT 47.132584 11.361374 39,000 111 508 64
2020-10-06 13:10:59 GMT 47.134964 11.352379 39,000 111 509 0
2020-10-06 13:10:56 GMT 47.137665 11.342422 39,000 111 509 0
2020-10-06 13:10:53 GMT 47.143021 11.322578 39,000 111 509 0
2020-10-06 13:10:47 GMT 47.145313 11.314087 39,000 111 509 64
2020-10-06 13:10:44 GMT 47.148106 11.303805 39,000 111 509 0
2020-10-06 13:10:41 GMT 47.151131 11.292537 39,000 111 510 -64
2020-10-06 13:10:38 GMT 47.153961 11.282135 39,000 111 510 -64
2020-10-06 13:10:35 GMT 47.156158 11.273874 39,000 111 510 0
2020-10-06 13:10:31 GMT 47.160023 11.259437 39,000 111 510 0
2020-10-06 13:10:28 GMT 47.162071 11.251690 39,000 111 510 64
2020-10-06 13:10:25 GMT 47.164810 11.241554 39,000 111 510 0
2020-10-06 13:10:22 GMT 47.167328 11.232216 39,000 111 510 0
2020-10-06 13:10:19 GMT 47.169891 11.222603 39,000 111 511 0
2020-10-06 13:10:16 GMT 47.172592 11.212578 39,000 111 511 0
2020-10-06 13:10:13 GMT 47.174782 11.204364 39,000 111 511 0
2020-10-06 13:10:10 GMT 47.178181 11.191829 39,000 111 511 0
2020-10-06 13:10:07 GMT 47.180275 11.184082 39,000 111 511 0
2020-10-06 13:10:04 GMT 47.182880 11.174363 39,000 111 511 0
2020-10-06 13:10:01 GMT 47.185089 11.166161 39,000 111 511 0
2020-10-06 13:09:58 GMT 47.187790 11.156204 39,000 111 511 0
2020-10-06 13:09:55 GMT 47.191589 11.141991 39,000 111 512 0
2020-10-06 13:09:52 GMT 47.196472 11.123728 39,000 111 512 0
2020-10-06 13:09:48 GMT 47.196472 11.123728 39,000 111 510 64
2020-10-06 13:09:45 GMT 47.198708 11.115347 39,000 111 511 64
2020-10-06 13:09:42 GMT 47.201752 11.103882 39,000 111 511 64
2020-10-06 13:09:39 GMT 47.204247 11.094642 39,000 111 511 0
2020-10-06 13:09:36 GMT 47.206696 11.085480 39,000 111 510 64
2020-10-06 13:09:33 GMT 47.209351 11.075455 39,000 111 511 -64
2020-10-06 13:09:30 GMT 47.212463 11.063782 39,000 111 511 -64
2020-10-06 13:09:27 GMT 47.215485 11.052521 39,000 111 511 0
2020-10-06 13:09:23 GMT 47.218681 11.040415 39,000 111 510 0
2020-10-06 13:09:20 GMT 47.220867 11.032316 39,000 111 511 64
2020-10-06 13:09:17 GMT 47.223335 11.023020 39,000 111 511 64
2020-10-06 13:09:14 GMT 47.225849 11.013653 39,000 111 511 64
2020-10-06 13:09:11 GMT 47.228531 11.003494 39,000 111 510 0
2020-10-06 13:09:08 GMT 47.231552 10.992165 39,000 111 510 0
2020-10-06 13:09:05 GMT 47.233528 10.984567 39,000 111 511 -64
2020-10-06 13:09:02 GMT 47.236507 10.973299 39,000 111 511 64
2020-10-06 13:08:59 GMT 47.239162 10.963229 39,000 111 510 0
2020-10-06 13:08:56 GMT 47.241631 10.953862 39,000 111 510 0
2020-10-06 13:08:53 GMT 47.243679 10.946115 39,000 111 511 -64
2020-10-06 13:08:50 GMT 47.246613 10.935129 39,000 111 511 64
2020-10-06 13:08:47 GMT 47.250057 10.922241 39,000 111 511 64
2020-10-06 13:08:44 GMT 47.251965 10.915128 39,000 111 511 0
2020-10-06 13:08:41 GMT 47.254578 10.905304 39,000 111 511 64
2020-10-06 13:08:38 GMT 47.256851 10.896747 39,000 111 511 0
2020-10-06 13:08:35 GMT 47.259567 10.886559 39,000 111 511 0
2020-10-06 13:08:32 GMT 47.262634 10.874954 39,000 111 511 0
2020-10-06 13:08:29 GMT 47.264488 10.867943 39,000 111 512 0
2020-10-06 13:08:26 GMT 47.266674 10.859563 39,000 111 512 0
2020-10-06 13:08:23 GMT 47.273071 10.835403 39,000 111 512 0
2020-10-06 13:08:20 GMT 47.273071 10.835403 39,000 111 512 0
2020-10-06 13:08:17 GMT 47.274868 10.828435 39,000 111 512 0
2020-10-06 13:08:14 GMT 47.277382 10.818998 39,000 111 512 0
2020-10-06 13:08:11 GMT 47.280270 10.808012 39,000 111 512 0
2020-10-06 13:08:08 GMT 47.282455 10.799561 39,000 111 512 64
2020-10-06 13:08:05 GMT 47.285110 10.789490 39,000 111 512 64
2020-10-06 13:08:02 GMT 47.287670 10.779771 39,000 111 512 64
2020-10-06 13:07:59 GMT 47.293030 10.759529 39,000 111 512 0
2020-10-06 13:07:56 GMT 47.296143 10.747787 39,000 111 513 0
2020-10-06 13:07:52 GMT 47.296143 10.747787 39,000 111 513 -64
2020-10-06 13:07:49 GMT 47.298752 10.737939 39,000 111 513 -64
2020-10-06 13:07:46 GMT 47.301357 10.728220 39,000 111 513 -64
2020-10-06 13:07:43 GMT 47.303917 10.718431 39,000 111 513 -64
2020-10-06 13:07:40 GMT 47.306618 10.708430 39,000 110 512 0
2020-10-06 13:07:36 GMT 47.310574 10.693500 39,000 110 512 0
2020-10-06 13:07:33 GMT 47.312344 10.686599 39,000 110 513 0
2020-10-06 13:07:30 GMT 47.315094 10.675621 39,000 109 514 0
2020-10-06 13:07:27 GMT 47.317337 10.666420 39,000 109 514 0
2020-10-06 13:07:24 GMT 47.319790 10.656034 39,000 108 515 0
2020-10-06 13:07:20 GMT 47.322491 10.644062 39,000 107 515 0
2020-10-06 13:07:17 GMT 47.325470 10.630399 39,000 106 516 -64
2020-10-06 13:07:14 GMT 47.326904 10.623505 39,000 106 516 -64
2020-10-06 13:07:11 GMT 47.328682 10.614906 39,000 105 516 -64
2020-10-06 13:07:08 GMT 47.331429 10.600750 39,000 105 519 64
2020-10-06 13:07:05 GMT 47.333496 10.590065 39,000 105 518 0
2020-10-06 13:07:02 GMT 47.335236 10.580933 39,000 105 518 64
2020-10-06 13:06:59 GMT 47.336784 10.572932 39,000 105 519 64
2020-10-06 13:06:56 GMT 47.338646 10.563143 39,000 105 519 64
2020-10-06 13:06:53 GMT 47.340912 10.551407 39,000 105 519 64
2020-10-06 13:06:50 GMT 47.342880 10.541030 39,000 105 520 0
2020-10-06 13:06:47 GMT 47.346954 10.519753 39,000 105 520 0
2020-10-06 13:06:44 GMT 47.346954 10.519753 39,000 105 521 0
2020-10-06 13:06:41 GMT 47.349289 10.507462 39,000 105 521 0
2020-10-06 13:06:38 GMT 47.350887 10.499127 39,000 105 521 -64
2020-10-06 13:06:35 GMT 47.352566 10.490253 39,000 105 521 -64
2020-10-06 13:06:32 GMT 47.354240 10.481380 39,000 105 521 0
2020-10-06 13:06:29 GMT 47.357071 10.466537 39,000 105 521 0
2020-10-06 13:06:26 GMT 47.358383 10.459548 39,000 105 521 0
2020-10-06 13:06:23 GMT 47.360687 10.447449 39,000 105 521 0
2020-10-06 13:06:20 GMT 47.362106 10.440110 39,000 105 521 -64
2020-10-06 13:06:17 GMT 47.364120 10.429321 39,000 105 521 0
2020-10-06 13:06:14 GMT 47.365677 10.421150 39,000 105 522 0
2020-10-06 13:06:11 GMT 47.368607 10.405769 39,000 105 522 0
2020-10-06 13:06:08 GMT 47.369926 10.398771 39,000 105 522 0
2020-10-06 13:06:05 GMT 47.372116 10.387151 39,000 105 522 0
2020-10-06 13:06:02 GMT 47.373745 10.378629 39,000 105 522 -64
2020-10-06 13:05:59 GMT 47.375748 10.367995 39,000 105 522 0
2020-10-06 13:05:56 GMT 47.377991 10.356194 39,000 105 521 64
2020-10-06 13:05:53 GMT 47.379913 10.345894 39,000 105 522 64
2020-10-06 13:05:50 GMT 47.381424 10.337723 39,000 105 522 64
2020-10-06 13:05:47 GMT 47.383896 10.324333 39,000 105 522 64
2020-10-06 13:05:44 GMT 47.385269 10.317123 39,000 105 522 0
2020-10-06 13:05:41 GMT 47.387291 10.306303 39,000 105 522 0
2020-10-06 13:05:38 GMT 47.389202 10.296021 39,000 105 523 0
2020-10-06 13:05:35 GMT 47.391174 10.285538 39,000 105 523 0
2020-10-06 13:05:32 GMT 47.393738 10.271873 39,000 105 523 0
2020-10-06 13:05:29 GMT 47.395718 10.261371 39,000 105 523 0
2020-10-06 13:05:26 GMT 47.397034 10.254364 39,000 105 521 -64
2020-10-06 13:05:23 GMT 47.398975 10.244258 39,000 105 521 -64
2020-10-06 13:05:20 GMT 47.400745 10.234680 39,000 105 521 -64
2020-10-06 13:05:17 GMT 47.402802 10.223877 39,000 105 521 -64
2020-10-06 13:05:14 GMT 47.406693 10.203003 39,000 105 521 -64
2020-10-06 13:05:11 GMT 47.406693 10.203003 39,000 105 521 -64
2020-10-06 13:05:08 GMT 47.408661 10.192429 39,000 105 520 0
2020-10-06 13:05:05 GMT 47.411316 10.178352 39,000 105 520 0
2020-10-06 13:05:02 GMT 47.412430 10.172424 39,000 105 520 0
2020-10-06 13:04:59 GMT 47.414291 10.162285 39,000 105 520 0
2020-10-06 13:04:56 GMT 47.416714 10.149536 39,000 105 520 0
2020-10-06 13:04:53 GMT 47.418297 10.140944 39,000 105 520 64
2020-10-06 13:04:50 GMT 47.421974 10.121155 39,000 105 520 0
2020-10-06 13:04:47 GMT 47.421974 10.121155 39,000 105 520 0
2020-10-06 13:04:44 GMT 47.424316 10.108727 39,000 105 520 0
2020-10-06 13:04:41 GMT 47.427658 10.090599 39,000 105 520 0
2020-10-06 13:04:38 GMT 47.429466 10.080872 39,000 105 520 0
2020-10-06 13:04:32 GMT 47.431412 10.070412 39,000 105 520 0
2020-10-06 13:04:29 GMT 47.433655 10.058464 39,000 105 520 0
2020-10-06 13:04:26 GMT 47.435303 10.049606 39,000 105 519 -64
2020-10-06 13:04:23 GMT 47.437363 10.038689 39,000 105 519 -64
2020-10-06 13:04:20 GMT 47.439056 10.029672 39,000 105 516 0
2020-10-06 13:04:17 GMT 47.441071 10.018913 39,000 105 516 0
2020-10-06 13:04:14 GMT 47.442966 10.008545 39,000 105 519 0
2020-10-06 13:04:11 GMT 47.444733 9.999138 39,000 105 518 64
2020-10-06 13:04:08 GMT 47.446880 9.987417 39,000 105 518 64
2020-10-06 13:04:02 GMT 47.450317 9.968857 39,000 105 518 0
2020-10-06 13:03:59 GMT 47.452286 9.958282 39,000 105 518 0
2020-10-06 13:03:56 GMT 47.454712 9.945030 39,000 105 518 -64
2020-10-06 13:03:53 GMT 47.456680 9.934525 39,000 105 516 0
2020-10-06 13:03:50 GMT 47.458557 9.924294 39,000 105 516 0
2020-10-06 13:03:47 GMT 47.460381 9.914246 39,000 105 516 -64
2020-10-06 13:03:44 GMT 47.461636 9.907485 39,000 105 516 0
2020-10-06 13:03:41 GMT 47.463776 9.895729 39,000 105 516 0
2020-10-06 13:03:38 GMT 47.467163 9.877052 39,000 105 516 0
2020-10-06 13:03:35 GMT 47.467163 9.877052 39,000 105 516 0
2020-10-06 13:03:32 GMT 47.469456 9.864666 39,000 105 516 0
2020-10-06 13:03:28 GMT 47.471832 9.851778 39,000 105 516 0
2020-10-06 13:03:25 GMT 47.473461 9.842905 39,000 105 516 0
2020-10-06 13:03:22 GMT 47.475742 9.830721 39,000 105 516 0
2020-10-06 13:03:19 GMT 47.477325 9.822052 39,000 105 517 0
2020-10-06 13:03:16 GMT 47.479000 9.813045 39,000 105 517 0
2020-10-06 13:03:13 GMT 47.480759 9.803375 39,000 105 516 0
2020-10-06 13:03:10 GMT 47.482864 9.791987 39,000 105 515 0
2020-10-06 13:03:07 GMT 47.485474 9.777901 39,000 105 516 0
2020-10-06 13:03:04 GMT 47.487053 9.769240 39,000 105 516 0
2020-10-06 13:03:01 GMT 47.488914 9.759029 39,000 105 516 64
2020-10-06 13:02:58 GMT 47.490234 9.751740 39,000 105 516 64
2020-10-06 13:02:55 GMT 47.492706 9.738144 39,000 105 516 0
2020-10-06 13:02:52 GMT 47.494221 9.729802 39,000 105 517 -64
2020-10-06 13:02:49 GMT 47.496037 9.719943 39,000 105 517 -64
2020-10-06 13:02:46 GMT 47.498016 9.709236 39,000 105 517 -64
2020-10-06 13:02:43 GMT 47.499577 9.700576 39,000 105 517 0
2020-10-06 13:02:40 GMT 47.501625 9.689308 39,000 105 516 0
2020-10-06 13:02:37 GMT 47.503441 9.679448 39,000 105 516 0
2020-10-06 13:02:34 GMT 47.505722 9.666842 39,000 105 516 0
2020-10-06 13:02:31 GMT 47.507217 9.658493 39,000 105 516 0
2020-10-06 13:02:28 GMT 47.509026 9.648813 39,000 105 516 0
2020-10-06 13:02:25 GMT 47.511063 9.637413 39,000 105 516 0
2020-10-06 13:02:22 GMT 47.512329 9.630432 39,000 104 516 0
2020-10-06 13:02:19 GMT 47.514565 9.618249 39,000 104 516 0
2020-10-06 13:02:16 GMT 47.516830 9.605827 39,000 104 516 0
2020-10-06 13:02:13 GMT 47.518803 9.594797 39,000 104 515 0
2020-10-06 13:02:07 GMT 47.521912 9.577606 39,000 104 515 0
2020-10-06 13:02:04 GMT 47.524612 9.562706 39,000 104 515 0
2020-10-06 13:02:01 GMT 47.525505 9.557753 39,000 104 515 0
2020-10-06 13:01:58 GMT 47.527359 9.547394 39,000 104 515 0
2020-10-06 13:01:55 GMT 47.531021 9.527069 39,000 104 515 0
2020-10-06 13:01:49 GMT 47.533722 9.512100 39,000 104 514 -64
2020-10-06 13:01:46 GMT 47.534958 9.505498 39,000 104 514 0
2020-10-06 13:01:43 GMT 47.537476 9.491432 39,000 104 514 -64
2020-10-06 13:01:40 GMT 47.538399 9.486553 39,000 104 515 0
2020-10-06 13:01:37 GMT 47.540543 9.474472 39,000 104 514 0
2020-10-06 13:01:34 GMT 47.542328 9.464653 39,000 104 514 0
2020-10-06 13:01:31 GMT 47.543793 9.456482 39,000 104 515 0
2020-10-06 13:01:28 GMT 47.548187 9.432037 39,000 104 515 0
2020-10-06 13:01:25 GMT 47.548187 9.432037 39,000 104 514 -64
2020-10-06 13:01:22 GMT 47.549744 9.423248 39,000 104 515 64
2020-10-06 13:01:19 GMT 47.551575 9.412889 39,000 104 515 64
2020-10-06 13:01:16 GMT 47.553669 9.401339 39,000 104 515 0
2020-10-06 13:01:13 GMT 47.554878 9.394578 39,000 104 515 0
2020-10-06 13:01:10 GMT 47.556747 9.384178 39,000 104 514 64
2020-10-06 13:01:07 GMT 47.558884 9.372113 39,000 104 514 64
2020-10-06 13:01:04 GMT 47.560593 9.362480 39,000 104 514 64
2020-10-06 13:01:01 GMT 47.562096 9.354154 38,975 104 514 64
2020-10-06 13:00:58 GMT 47.564301 9.341743 39,000 104 514 64
2020-10-06 13:00:55 GMT 47.566177 9.331238 39,000 104 515 0
2020-10-06 13:00:52 GMT 47.568333 9.319153 39,000 104 514 0
2020-10-06 13:00:49 GMT 47.569885 9.310501 39,000 104 515 0
2020-10-06 13:00:46 GMT 47.571407 9.302180 39,000 104 515 0
2020-10-06 13:00:43 GMT 47.575241 9.280632 39,000 104 514 0
2020-10-06 13:00:40 GMT 47.575241 9.280632 39,000 104 514 0
2020-10-06 13:00:37 GMT 47.576889 9.271431 39,000 104 514 0
2020-10-06 13:00:34 GMT 47.578667 9.261404 39,000 104 514 0
2020-10-06 13:00:31 GMT 47.580437 9.251615 39,000 104 517 0
2020-10-06 13:00:28 GMT 47.582520 9.239845 39,000 104 514 0
2020-10-06 13:00:25 GMT 47.584076 9.231056 39,000 104 514 0
2020-10-06 13:00:22 GMT 47.587738 9.210251 39,000 104 514 -64
2020-10-06 13:00:16 GMT 47.590260 9.196190 39,000 104 514 -64
2020-10-06 13:00:13 GMT 47.591377 9.189711 39,000 104 514 0
2020-10-06 13:00:10 GMT 47.593048 9.180382 39,000 104 517 0
2020-10-06 13:00:07 GMT 47.594913 9.169992 39,000 104 514 0
2020-10-06 13:00:04 GMT 47.598724 9.148384 39,000 104 515 0
2020-10-06 13:00:01 GMT 47.598724 9.148384 39,000 104 515 128
2020-10-06 12:59:58 GMT 47.600594 9.137949 39,000 104 516 128
2020-10-06 12:59:55 GMT 47.602596 9.126751 39,000 104 516 64
2020-10-06 12:59:52 GMT 47.604126 9.118034 39,000 104 516 0
2020-10-06 12:59:49 GMT 47.605900 9.107948 39,000 104 517 0
2020-10-06 12:59:46 GMT 47.609253 9.088989 39,000 104 517 -64
2020-10-06 12:59:43 GMT 47.609253 9.088989 39,000 104 517 -64
2020-10-06 12:59:40 GMT 47.611221 9.077660 39,000 104 517 -64
2020-10-06 12:59:37 GMT 47.613373 9.065369 39,000 104 517 0
2020-10-06 12:59:34 GMT 47.615211 9.054918 39,000 104 517 0
2020-10-06 12:59:31 GMT 47.616982 9.044988 39,000 104 517 64
2020-10-06 12:59:28 GMT 47.618820 9.034538 39,000 104 518 64
2020-10-06 12:59:25 GMT 47.620239 9.026536 39,000 104 518 0
2020-10-06 12:59:22 GMT 47.623581 9.007484 39,000 104 518 -64
2020-10-06 12:59:16 GMT 47.626339 8.991535 39,000 104 518 0
2020-10-06 12:59:13 GMT 47.627548 8.984633 39,000 104 518 0
2020-10-06 12:59:10 GMT 47.629395 8.974182 39,000 104 518 0
2020-10-06 12:59:07 GMT 47.630901 8.965478 39,000 104 519 64
2020-10-06 12:59:04 GMT 47.634529 8.944843 39,000 104 519 0
2020-10-06 12:59:01 GMT 47.636627 8.932800 39,000 104 519 64
2020-10-06 12:58:58 GMT 47.636627 8.932800 39,000 104 520 64
2020-10-06 12:58:55 GMT 47.638069 8.924561 39,025 104 520 64
2020-10-06 12:58:52 GMT 47.640198 8.912315 39,000 104 520 0
2020-10-06 12:58:49 GMT 47.642303 8.900299 39,000 104 521 -64
2020-10-06 12:58:46 GMT 47.643860 8.891304 39,000 104 521 -64
2020-10-06 12:58:43 GMT 47.646011 8.878876 39,000 104 521 -64
2020-10-06 12:58:40 GMT 47.647564 8.870051 39,000 104 521 -64
2020-10-06 12:58:37 GMT 47.649242 8.860403 39,000 104 521 -64
2020-10-06 12:58:34 GMT 47.651337 8.848361 39,025 104 521 -64
2020-10-06 12:58:31 GMT 47.653244 8.837304 39,025 104 521 0
2020-10-06 12:58:28 GMT 47.655060 8.826951 39,025 104 521 0
2020-10-06 12:58:24 GMT 47.658829 8.805336 39,025 104 522 0
2020-10-06 12:58:18 GMT 47.660786 8.794063 39,025 104 523 -64
2020-10-06 12:58:15 GMT 47.662216 8.785629 39,000 104 523 -64
2020-10-06 12:58:12 GMT 47.664463 8.772583 39,000 104 523 -64
2020-10-06 12:58:09 GMT 47.666233 8.762512 39,000 104 524 0
2020-10-06 12:58:06 GMT 47.667755 8.753700 39,000 104 524 0
2020-10-06 12:58:03 GMT 47.669586 8.743075 39,000 104 524 0
2020-10-06 12:58:00 GMT 47.671783 8.730423 39,000 104 524 0
2020-10-06 12:57:57 GMT 47.673401 8.720821 39,000 104 525 64
2020-10-06 12:57:53 GMT 47.675903 8.706390 39,000 104 525 64
2020-10-06 12:57:50 GMT 47.677731 8.695820 39,000 104 525 64
2020-10-06 12:57:47 GMT 47.679016 8.688332 38,975 104 526 64
2020-10-06 12:57:44 GMT 47.680847 8.677483 39,000 104 526 0
2020-10-06 12:57:41 GMT 47.682617 8.667227 39,000 104 526 0
2020-10-06 12:57:38 GMT 47.684620 8.655325 39,000 104 526 0
2020-10-06 12:57:35 GMT 47.686844 8.642670 39,000 104 526 0
2020-10-06 12:57:32 GMT 47.688583 8.632507 39,000 104 526 0
2020-10-06 12:57:29 GMT 47.689774 8.625572 39,000 104 526 0
2020-10-06 12:57:26 GMT 47.693977 8.600957 39,000 104 525 -64
2020-10-06 12:57:23 GMT 47.693977 8.600957 39,000 104 525 0
2020-10-06 12:57:20 GMT 47.695793 8.590534 39,000 104 525 0
2020-10-06 12:57:17 GMT 47.696960 8.583687 39,025 104 525 0
2020-10-06 12:57:14 GMT 47.700497 8.562998 39,000 104 525 0
2020-10-06 12:57:08 GMT 47.702965 8.548701 39,000 104 526 64
2020-10-06 12:57:05 GMT 47.704010 8.542557 39,000 104 526 64
2020-10-06 12:57:02 GMT 47.706299 8.528961 39,000 104 526 0
2020-10-06 12:56:59 GMT 47.709595 8.509804 39,000 104 526 -64
2020-10-06 12:56:56 GMT 47.709595 8.509804 39,000 104 526 -64
2020-10-06 12:56:53 GMT 47.711433 8.499122 39,000 104 526 -64
2020-10-06 12:56:50 GMT 47.713482 8.486938 39,000 104 526 -64
2020-10-06 12:56:47 GMT 47.714645 8.480319 39,000 104 526 0
2020-10-06 12:56:44 GMT 47.717056 8.466133 39,000 104 525 0
2020-10-06 12:56:41 GMT 47.718521 8.457413 39,000 104 525 64
2020-10-06 12:56:38 GMT 47.720371 8.446444 39,000 104 526 0
2020-10-06 12:56:35 GMT 47.721817 8.438063 39,000 104 525 0
2020-10-06 12:56:32 GMT 47.723969 8.425278 39,000 104 526 0
2020-10-06 12:56:29 GMT 47.725662 8.415184 39,000 104 527 0
2020-10-06 12:56:26 GMT 47.727676 8.403305 39,000 104 526 0
2020-10-06 12:56:23 GMT 47.729218 8.394329 39,000 104 525 -64
2020-10-06 12:56:20 GMT 47.732803 8.373230 39,000 104 525 -64
2020-10-06 12:56:17 GMT 47.732803 8.373230 39,000 104 525 -64
2020-10-06 12:56:14 GMT 47.734818 8.361351 39,000 104 525 -64
2020-10-06 12:56:11 GMT 47.736649 8.350502 39,000 104 525 -64
2020-10-06 12:56:08 GMT 47.737831 8.343342 39,000 104 525 0
2020-10-06 12:56:05 GMT 47.739552 8.333271 39,025 104 525 0
2020-10-06 12:56:02 GMT 47.742020 8.318552 39,025 104 525 0
2020-10-06 12:55:59 GMT 47.743279 8.311228 39,000 103 525 64
2020-10-06 12:55:56 GMT 47.745323 8.299044 39,000 103 526 128
2020-10-06 12:55:53 GMT 47.747177 8.288017 38,975 104 527 128
2020-10-06 12:55:50 GMT 47.748413 8.280670 39,000 103 527 64
2020-10-06 12:55:47 GMT 47.750633 8.267494 38,975 104 528 64
2020-10-06 12:55:44 GMT 47.752167 8.258338 38,975 103 529 0
2020-10-06 12:55:41 GMT 47.754265 8.245732 38,975 103 529 0
2020-10-06 12:55:38 GMT 47.756516 8.232536 38,975 104 528 0
2020-10-06 12:55:35 GMT 47.757385 8.227249 39,000 103 529 192
2020-10-06 12:55:32 GMT 47.759399 8.215302 39,000 104 527 64
2020-10-06 12:55:29 GMT 47.761154 8.204956 39,000 103 527 64
2020-10-06 12:55:26 GMT 47.762966 8.194040 39,000 103 527 64
2020-10-06 12:55:23 GMT 47.764923 8.182490 39,000 103 527 0
2020-10-06 12:55:20 GMT 47.766449 8.173210 39,000 103 526 64
2020-10-06 12:55:17 GMT 47.770229 8.150588 39,000 103 526 64
2020-10-06 12:55:13 GMT 47.770229 8.150588 39,000 103 526 64
2020-10-06 12:55:10 GMT 47.772278 8.138334 39,000 103 525 0
2020-10-06 12:55:07 GMT 47.774605 8.124390 39,000 103 525 0
2020-10-06 12:55:04 GMT 47.777847 8.105026 39,000 104 524 -64
2020-10-06 12:55:01 GMT 47.777847 8.105026 39,000 103 524 -64
2020-10-06 12:54:58 GMT 47.779400 8.095797 39,000 103 523 -64
2020-10-06 12:54:55 GMT 47.781006 8.086212 39,000 103 523 -64
2020-10-06 12:54:52 GMT 47.783157 8.073303 39,000 103 523 -64
2020-10-06 12:54:49 GMT 47.784302 8.066368 39,000 103 530 192
2020-10-06 12:54:46 GMT 47.787872 8.044807 39,000 103 521 0
2020-10-06 12:54:43 GMT 47.787872 8.044807 39,000 103 521 0
2020-10-06 12:54:40 GMT 47.789841 8.032997 39,000 103 521 -64
2020-10-06 12:54:37 GMT 47.791412 8.023470 39,000 103 522 -64
2020-10-06 12:54:34 GMT 47.793549 8.010406 39,025 103 522 -64
2020-10-06 12:54:31 GMT 47.794949 8.001920 39,025 103 522 -128
2020-10-06 12:54:28 GMT 47.796673 7.991427 39,025 103 522 -128
2020-10-06 12:54:25 GMT 47.798218 7.982254 39,025 103 522 -256
2020-10-06 12:54:22 GMT 47.800003 7.971474 39,050 103 522 -256
2020-10-06 12:54:19 GMT 47.801605 7.961567 39,050 103 522 -192
2020-10-06 12:54:16 GMT 47.805378 7.938538 39,050 103 522 -64
2020-10-06 12:54:13 GMT 47.805378 7.938538 39,050 103 523 -64
2020-10-06 12:54:10 GMT 47.806824 7.929657 39,025 103 523 0
2020-10-06 12:54:07 GMT 47.810120 7.909744 39,000 103 526 128
2020-10-06 12:54:04 GMT 47.810120 7.909744 39,000 103 527 192
2020-10-06 12:54:01 GMT 47.812546 7.895050 38,975 103 528 192
2020-10-06 12:53:58 GMT 47.813942 7.886423 38,950 103 530 192
2020-10-06 12:53:55 GMT 47.815292 7.878090 38,950 103 530 192
2020-10-06 12:53:52 GMT 47.817204 7.866281 38,950 103 533 320
2020-10-06 12:53:49 GMT 47.818726 7.857216 38,950 103 533 384
2020-10-06 12:53:46 GMT 47.822617 7.833389 38,900 103 533 832
2020-10-06 12:53:43 GMT 47.822617 7.833389 38,875 103 534 1024
2020-10-06 12:53:40 GMT 47.824230 7.823604 38,825 103 534 1088
2020-10-06 12:53:37 GMT 47.826046 7.812617 38,775 103 535 1024
2020-10-06 12:53:34 GMT 47.827469 7.803864 38,750 103 535 1024
2020-10-06 12:53:31 GMT 47.831165 7.781208 38,650 103 536 960
2020-10-06 12:53:28 GMT 47.831165 7.781208 38,600 103 536 896
2020-10-06 12:53:25 GMT 47.833218 7.768742 38,575 103 536 832
2020-10-06 12:53:22 GMT 47.834427 7.761429 38,525 103 536 768
2020-10-06 12:53:19 GMT 47.837036 7.745293 38,500 103 536 704
2020-10-06 12:53:16 GMT 47.840195 7.725998 38,450 103 536 640
2020-10-06 12:53:13 GMT 47.840195 7.725998 38,450 103 536 640
2020-10-06 12:53:10 GMT 47.841980 7.714943 38,400 103 536 640
2020-10-06 12:53:07 GMT 47.843445 7.705948 38,375 103 536 640
2020-10-06 12:53:04 GMT 47.845551 7.693317 38,350 103 536 640
2020-10-06 12:53:00 GMT 47.847462 7.681556 38,300 103 535 512
2020-10-06 12:52:57 GMT 47.849182 7.670851 38,275 103 535 512
2020-10-06 12:52:54 GMT 47.851273 7.658157 38,275 103 534 512
2020-10-06 12:52:51 GMT 47.852737 7.648819 38,225 103 535 512
2020-10-06 12:52:48 GMT 47.854771 7.636554 38,125 103 536 576
2020-10-06 12:52:45 GMT 47.856026 7.628667 38,200 103 536 576
2020-10-06 12:52:42 GMT 47.858307 7.614793 38,125 103 536 768
2020-10-06 12:52:39 GMT 47.860107 7.603500 38,100 103 535 768
2020-10-06 12:52:36 GMT 47.861847 7.592789 38,075 103 536 768
2020-10-06 12:52:33 GMT 47.863289 7.584017 38,025 103 536 768
2020-10-06 12:52:30 GMT 47.865463 7.570541 38,000 103 536 704
2020-10-06 12:52:27 GMT 47.866974 7.561272 37,975 103 536 704
2020-10-06 12:52:24 GMT 47.868504 7.551763 37,925 103 536 960
2020-10-06 12:52:21 GMT 47.870041 7.542466 37,875 103 536 768
2020-10-06 12:52:18 GMT 47.872040 7.529931 37,825 103 536 832
2020-10-06 12:52:15 GMT 47.873520 7.520760 37,800 103 536 896
2020-10-06 12:52:12 GMT 47.875809 7.506821 37,725 103 536 832
2020-10-06 12:52:09 GMT 47.877487 7.496197 37,675 103 536 960
2020-10-06 12:52:06 GMT 47.878651 7.489084 37,650 103 538 1216
2020-10-06 12:52:03 GMT 47.882721 7.463768 37,575 103 536 896
2020-10-06 12:52:00 GMT 47.882721 7.463768 37,525 103 536 832
2020-10-06 12:51:57 GMT 47.883820 7.456970 37,500 103 536 832
2020-10-06 12:51:54 GMT 47.885880 7.444061 37,375 103 538 1152
2020-10-06 12:51:51 GMT 47.888168 7.429710 37,400 103 537 960
2020-10-06 12:51:47 GMT 47.890289 7.416264 37,325 103 538 1216
2020-10-06 12:51:44 GMT 47.891373 7.409248 37,300 103 539 1344
2020-10-06 12:51:41 GMT 47.893433 7.396271 37,225 103 540 1280
2020-10-06 12:51:38 GMT 47.894852 7.387276 37,175 104 541 960
2020-10-06 12:51:35 GMT 47.896481 7.377742 37,150 104 541 896
2020-10-06 12:51:32 GMT 47.898109 7.368375 37,125 105 540 768
2020-10-06 12:51:29 GMT 47.900623 7.354783 37,075 105 539 512
2020-10-06 12:51:26 GMT 47.902954 7.342506 37,050 105 539 512
2020-10-06 12:51:23 GMT 47.904419 7.334679 37,050 105 538 384
2020-10-06 12:51:20 GMT 47.908630 7.312569 37,025 105 537 256
2020-10-06 12:51:17 GMT 47.908630 7.312569 37,025 105 536 192
2020-10-06 12:51:14 GMT 47.910866 7.300697 37,025 105 535 128
2020-10-06 12:51:11 GMT 47.912567 7.291695 37,000 105 535 0
2020-10-06 12:51:08 GMT 47.914219 7.282950 37,000 105 535 0
2020-10-06 12:51:05 GMT 47.916546 7.270555 37,000 105 535 -64
2020-10-06 12:51:02 GMT 47.921310 7.245209 37,000 105 535 0
2020-10-06 12:50:59 GMT 47.921310 7.245209 37,000 105 535 0
2020-10-06 12:50:56 GMT 47.922642 7.238300 37,000 105 535 0
2020-10-06 12:50:53 GMT 47.924549 7.228018 37,000 105 535 -64
2020-10-06 12:50:50 GMT 47.926552 7.217384 37,000 105 535 -64
2020-10-06 12:50:47 GMT 47.928543 7.206894 37,000 105 535 0
2020-10-06 12:50:44 GMT 47.930603 7.195908 37,000 105 535 0
2020-10-06 12:50:41 GMT 47.932709 7.184578 37,000 105 535 -64
2020-10-06 12:50:38 GMT 47.934494 7.174965 37,000 105 535 -64
2020-10-06 12:50:35 GMT 47.936966 7.161850 37,000 105 535 0
2020-10-06 12:50:32 GMT 47.938656 7.152804 37,000 105 535 0
2020-10-06 12:50:29 GMT 47.940659 7.142170 37,000 105 535 -64
2020-10-06 12:50:26 GMT 47.943031 7.129423 37,000 105 535 0
2020-10-06 12:50:23 GMT 47.944290 7.122662 37,025 105 535 0
2020-10-06 12:50:20 GMT 47.946533 7.110764 37,000 105 535 -64
2020-10-06 12:50:17 GMT 47.948620 7.099562 37,025 105 535 0
2020-10-06 12:50:14 GMT 47.950573 7.088928 37,000 105 535 0
2020-10-06 12:50:11 GMT 47.952942 7.076363 37,000 105 535 64
2020-10-06 12:50:08 GMT 47.954391 7.068787 37,000 105 535 0
2020-10-06 12:50:05 GMT 47.956741 7.056175 37,000 105 535 0
2020-10-06 12:50:02 GMT 47.958302 7.047800 37,000 105 535 -64
2020-10-06 12:49:59 GMT 47.961227 7.032074 37,000 105 535 0
2020-10-06 12:49:56 GMT 47.962399 7.025827 37,000 105 535 0
2020-10-06 12:49:53 GMT 47.964680 7.013785 37,000 105 535 0
2020-10-06 12:49:50 GMT 47.966537 7.003647 37,000 105 535 0
2020-10-06 12:49:47 GMT 47.968460 6.993347 37,000 105 535 0
2020-10-06 12:49:44 GMT 47.970264 6.983643 37,000 105 535 0
2020-10-06 12:49:41 GMT 47.974411 6.961418 37,000 105 535 64
2020-10-06 12:49:38 GMT 47.974411 6.961418 37,000 105 535 64
2020-10-06 12:49:32 GMT 47.977936 6.942261 37,000 105 536 0
2020-10-06 12:49:29 GMT 47.980694 6.927514 37,000 105 536 0
2020-10-06 12:49:26 GMT 47.982376 6.918434 37,000 105 536 0
2020-10-06 12:49:23 GMT 47.986267 6.897423 37,000 105 536 0
2020-10-06 12:49:20 GMT 47.986267 6.897423 37,000 105 536 0
2020-10-06 12:49:16 GMT 47.989288 6.881149 37,000 105 536 0
2020-10-06 12:49:13 GMT 47.992767 6.862267 37,000 105 536 0
2020-10-06 12:49:10 GMT 47.994705 6.851807 37,000 105 536 0
2020-10-06 12:49:07 GMT 47.994705 6.851807 37,000 105 536 0
2020-10-06 12:49:04 GMT 47.996567 6.841806 37,000 105 536 0
2020-10-06 12:49:01 GMT 47.998947 6.828827 37,000 105 536 0
2020-10-06 12:48:58 GMT 48.000896 6.818355 37,000 105 536 0
2020-10-06 12:48:55 GMT 48.002472 6.809669 37,000 105 536 -64
2020-10-06 12:48:52 GMT 48.005173 6.795044 37,000 105 536 -64
2020-10-06 12:48:49 GMT 48.006157 6.789551 37,000 105 536 -64
2020-10-06 12:48:45 GMT 48.011604 6.760043 37,000 105 535 0
2020-10-06 12:48:42 GMT 48.011604 6.760043 37,000 105 535 0
2020-10-06 12:48:39 GMT 48.013233 6.751169 37,025 105 535 0
2020-10-06 12:48:35 GMT 48.015560 6.738352 37,000 105 535 0
2020-10-06 12:48:32 GMT 48.017670 6.726791 37,000 105 535 0
2020-10-06 12:48:29 GMT 48.019657 6.715956 37,000 105 535 0
2020-10-06 12:48:26 GMT 48.022156 6.702278 37,000 105 535 0
2020-10-06 12:48:23 GMT 48.024174 6.691449 37,000 105 535 0
2020-10-06 12:48:20 GMT 48.025475 6.684336 37,000 105 535 64
2020-10-06 12:48:17 GMT 48.028084 6.670110 37,000 105 535 64
2020-10-06 12:48:14 GMT 48.031574 6.650884 37,000 105 535 64
2020-10-06 12:48:11 GMT 48.031574 6.650884 37,000 105 535 64
2020-10-06 12:48:05 GMT 48.035252 6.630953 37,000 105 536 0
2020-10-06 12:48:02 GMT 48.037209 6.620249 37,000 105 536 0
2020-10-06 12:47:59 GMT 48.039230 6.608963 37,000 105 536 0
2020-10-06 12:47:55 GMT 48.042114 6.593307 37,000 105 536 0
2020-10-06 12:47:52 GMT 48.044331 6.580951 37,000 104 537 0
2020-10-06 12:47:49 GMT 48.046051 6.571541 37,000 105 537 -64
2020-10-06 12:47:45 GMT 48.048382 6.558838 37,000 105 537 -64
2020-10-06 12:47:42 GMT 48.050171 6.549019 37,000 105 537 0
2020-10-06 12:47:39 GMT 48.052059 6.538485 37,000 105 537 -64
2020-10-06 12:47:36 GMT 48.054806 6.523484 37,000 105 537 0
2020-10-06 12:47:32 GMT 48.057312 6.509743 37,025 104 537 0
2020-10-06 12:47:29 GMT 48.059135 6.499540 37,000 104 537 0
2020-10-06 12:47:26 GMT 48.060436 6.492357 37,000 104 537 0
2020-10-06 12:47:23 GMT 48.062347 6.481652 37,000 105 537 0
2020-10-06 12:47:20 GMT 48.064396 6.470173 37,000 105 537 0
2020-10-06 12:47:17 GMT 48.066376 6.459274 37,000 105 537 0
2020-10-06 12:47:14 GMT 48.068493 6.447637 37,000 105 537 0
2020-10-06 12:47:11 GMT 48.070492 6.436580 37,000 105 538 0
2020-10-06 12:47:08 GMT 48.075520 6.408621 37,000 105 538 0
2020-10-06 12:47:04 GMT 48.075520 6.408621 37,000 105 538 0
2020-10-06 12:47:01 GMT 48.076538 6.403107 37,000 105 538 0
2020-10-06 12:46:58 GMT 48.078732 6.390733 37,000 105 538 0
2020-10-06 12:46:55 GMT 48.080978 6.378387 37,000 104 538 0
2020-10-06 12:46:52 GMT 48.082924 6.367422 37,000 104 537 0
2020-10-06 12:46:49 GMT 48.084183 6.360466 37,000 104 538 0
2020-10-06 12:46:46 GMT 48.086784 6.345943 37,000 104 537 0
2020-10-06 12:46:43 GMT 48.088367 6.336999 37,000 104 537 0
2020-10-06 12:46:40 GMT 48.090603 6.324463 37,000 104 537 0
2020-10-06 12:46:36 GMT 48.093155 6.310341 37,000 104 537 0
2020-10-06 12:46:33 GMT 48.094711 6.301758 37,000 104 537 0
2020-10-06 12:46:30 GMT 48.096981 6.289039 37,000 104 537 0
2020-10-06 12:46:27 GMT 48.098331 6.281574 37,000 104 537 0
2020-10-06 12:46:23 GMT 48.101257 6.265297 37,000 104 537 0
2020-10-06 12:46:19 GMT 48.103451 6.252911 37,000 104 537 0
2020-10-06 12:46:16 GMT 48.105732 6.240094 37,000 104 536 0
2020-10-06 12:46:13 GMT 48.107712 6.229179 37,000 104 536 0
2020-10-06 12:46:10 GMT 48.109318 6.220093 37,000 104 536 0
2020-10-06 12:46:07 GMT 48.111145 6.209885 37,000 104 536 64
2020-10-06 12:46:04 GMT 48.113274 6.197909 37,000 104 536 64
2020-10-06 12:46:01 GMT 48.115265 6.186676 37,000 104 537 0
2020-10-06 12:45:58 GMT 48.116905 6.177556 37,000 104 537 0
2020-10-06 12:45:55 GMT 48.119141 6.165020 37,000 104 537 0
2020-10-06 12:45:52 GMT 48.121189 6.153541 37,000 104 537 0
2020-10-06 12:45:49 GMT 48.122818 6.144245 37,000 104 537 0
2020-10-06 12:45:46 GMT 48.124237 6.136208 37,000 104 537 0
2020-10-06 12:45:43 GMT 48.126801 6.121857 37,000 104 536 -64
2020-10-06 12:45:40 GMT 48.128494 6.112175 37,000 104 536 0
2020-10-06 12:45:37 GMT 48.130417 6.101463 37,000 104 536 0
2020-10-06 12:45:34 GMT 48.131882 6.093224 37,000 104 536 0
2020-10-06 12:45:31 GMT 48.134354 6.079216 37,000 104 536 0
2020-10-06 12:45:28 GMT 48.136086 6.069383 37,000 104 537 0
2020-10-06 12:45:25 GMT 48.138245 6.056969 37,000 104 537 0
2020-10-06 12:45:22 GMT 48.140087 6.046776 37,000 104 537 0
2020-10-06 12:45:19 GMT 48.142502 6.032936 37,000 104 537 0
2020-10-06 12:45:16 GMT 48.143509 6.027237 37,000 104 537 0
2020-10-06 12:45:13 GMT 48.145752 6.014671 37,000 104 537 0
2020-10-06 12:45:10 GMT 48.147022 6.007338 37,000 104 537 0
2020-10-06 12:45:07 GMT 48.149723 5.991915 37,000 104 537 0
2020-10-06 12:45:04 GMT 48.151108 5.984184 37,000 104 537 0
2020-10-06 12:45:01 GMT 48.153030 5.973253 37,000 104 537 0
2020-10-06 12:44:58 GMT 48.154984 5.962125 37,000 104 537 -64
2020-10-06 12:44:55 GMT 48.156986 5.950646 37,000 104 537 -64
2020-10-06 12:44:52 GMT 48.159439 5.936462 37,000 104 537 -64
2020-10-06 12:44:49 GMT 48.160950 5.927899 37,000 104 537 -64
2020-10-06 12:44:46 GMT 48.164474 5.907828 37,025 104 536 -64
2020-10-06 12:44:43 GMT 48.164474 5.907828 37,025 104 536 0
2020-10-06 12:44:40 GMT 48.166622 5.895466 37,025 104 536 0
2020-10-06 12:44:37 GMT 48.168228 5.886277 37,025 104 536 -64
2020-10-06 12:44:34 GMT 48.172714 5.860854 37,025 104 537 -64
2020-10-06 12:44:31 GMT 48.172714 5.860854 37,025 104 538 -64
2020-10-06 12:44:28 GMT 48.173859 5.854375 37,025 104 538 0
2020-10-06 12:44:25 GMT 48.175735 5.843600 37,025 104 539 0
2020-10-06 12:44:22 GMT 48.177563 5.833017 36,975 104 539 -64
2020-10-06 12:44:19 GMT 48.179192 5.823621 37,000 104 539 -64
2020-10-06 12:44:16 GMT 48.182171 5.806636 36,975 104 541 0
2020-10-06 12:44:13 GMT 48.183243 5.800288 37,000 104 542 192
2020-10-06 12:44:10 GMT 48.184891 5.790922 37,000 104 541 128
2020-10-06 12:44:07 GMT 48.187851 5.774038 36,975 104 542 192
2020-10-06 12:44:04 GMT 48.191116 5.755357 36,950 104 544 384
2020-10-06 12:44:01 GMT 48.191116 5.755357 36,950 104 544 384
2020-10-06 12:43:57 GMT 48.193485 5.741657 36,900 104 544 576
2020-10-06 12:43:54 GMT 48.195419 5.730567 36,875 104 545 1024
2020-10-06 12:43:51 GMT 48.197346 5.719468 36,675 104 546 704
2020-10-06 12:43:48 GMT 48.200840 5.699375 36,775 104 545 704
2020-10-06 12:43:42 GMT 48.203167 5.685858 36,725 104 546 768
2020-10-06 12:43:39 GMT 48.204712 5.676903 36,675 104 546 704
2020-10-06 12:43:36 GMT 48.206566 5.666126 36,650 104 545 640
2020-10-06 12:43:33 GMT 48.210430 5.643865 36,600 104 544 512
2020-10-06 12:43:30 GMT 48.212860 5.629859 36,575 104 544 576
2020-10-06 12:43:26 GMT 48.212860 5.629859 36,575 104 544 512
2020-10-06 12:43:23 GMT 48.216667 5.607870 36,250 104 543 448
2020-10-06 12:43:20 GMT 48.216667 5.607870 36,500 104 543 512
2020-10-06 12:43:17 GMT 48.219181 5.593270 36,475 104 543 512
2020-10-06 12:43:14 GMT 48.221283 5.581125 36,425 104 542 576
2020-10-06 12:43:11 GMT 48.222115 5.576212 36,425 104 542 768
2020-10-06 12:43:08 GMT 48.224030 5.565139 36,375 104 542 0
2020-10-06 12:43:05 GMT 48.227886 5.542819 36,200 104 543 1600
2020-10-06 12:43:02 GMT 48.227886 5.542819 36,125 104 545 2240
2020-10-06 12:42:59 GMT 48.230167 5.529303 36,075 104 550 3200
2020-10-06 12:42:56 GMT 48.231888 5.519473 35,600 104 553 3520
2020-10-06 12:42:53 GMT 48.233459 5.510137 35,600 104 550 3200
2020-10-06 12:42:50 GMT 48.236069 5.494995 35,575 104 554 3520
2020-10-06 12:42:47 GMT 48.237534 5.486474 35,350 104 556 3520
2020-10-06 12:42:44 GMT 48.241852 5.461362 35,250 104 561 3072
2020-10-06 12:42:41 GMT 48.241852 5.461362 35,100 104 562 2816
2020-10-06 12:42:35 GMT 48.245483 5.440184 34,850 104 565 2432
2020-10-06 12:42:31 GMT 48.247765 5.426957 34,725 104 567 2176
2020-10-06 12:42:27 GMT 48.250397 5.411541 34,550 104 569 1664
2020-10-06 12:42:24 GMT 48.252327 5.400359 34,525 104 569 1600
2020-10-06 12:42:21 GMT 48.255890 5.379498 34,375 107 564 1152
2020-10-06 12:42:15 GMT 48.258087 5.366540 34,325 104 569 960
2020-10-06 12:42:12 GMT 48.260422 5.352736 34,300 104 569 704
2020-10-06 12:42:09 GMT 48.262115 5.342877 34,225 104 569 704
2020-10-06 12:42:05 GMT 48.264633 5.327947 34,200 104 568 448
2020-10-06 12:42:02 GMT 48.266327 5.318017 34,175 104 567 384
2020-10-06 12:41:59 GMT 48.268574 5.304590 34,175 104 566 384
2020-10-06 12:41:56 GMT 48.272530 5.281027 34,125 104 565 640
2020-10-06 12:41:50 GMT 48.274063 5.272353 34,075 105 564 768
2020-10-06 12:41:47 GMT 48.278503 5.248084 33,900 105 564 960
2020-10-06 12:41:44 GMT 48.278503 5.248084 34,000 105 564 1024
2020-10-06 12:41:38 GMT 48.283356 5.223365 33,875 107 564 1152
2020-10-06 12:41:35 GMT 48.285423 5.213446 33,800 108 564 1088
2020-10-06 12:41:32 GMT 48.287472 5.203833 33,775 108 564 960
2020-10-06 12:41:29 GMT 48.290173 5.191618 33,700 108 564 960
2020-10-06 12:41:26 GMT 48.293060 5.178927 33,675 109 563 704
2020-10-06 12:41:23 GMT 48.298050 5.158011 33,600 111 558 384
2020-10-06 12:41:17 GMT 48.300568 5.147869 33,575 111 559 384
2020-10-06 12:41:14 GMT 48.302902 5.138785 33,600 111 559 384
2020-10-06 12:41:11 GMT 48.306793 5.124066 33,550 112 557 384
2020-10-06 12:41:08 GMT 48.309174 5.115192 33,550 112 556 448
2020-10-06 12:41:05 GMT 48.312939 5.101848 33,500 113 555 704
2020-10-06 12:41:02 GMT 48.314846 5.095127 33,425 116 553 1344
2020-10-06 12:40:58 GMT 48.319016 5.080895 33,325 115 555 1344
2020-10-06 12:40:55 GMT 48.322357 5.069697 33,350 114 555 1280
2020-10-06 12:40:52 GMT 48.325691 5.059132 33,250 116 554 1408
2020-10-06 12:40:46 GMT 48.332211 5.039183 33,125 116 553 1408
2020-10-06 12:40:43 GMT 48.335678 5.028710 33,075 116 553 1408
2020-10-06 12:40:40 GMT 48.338821 5.019306 33,025 116 553 1472
2020-10-06 12:40:37 GMT 48.343475 5.005212 32,875 116 553 1664
2020-10-06 12:40:34 GMT 48.346390 4.996526 32,825 116 553 1792
2020-10-06 12:40:31 GMT 48.350224 4.984974 32,700 116 553 1984
2020-10-06 12:40:28 GMT 48.354229 4.972976 32,650 116 554 1984
2020-10-06 12:40:25 GMT 48.356003 4.967651 32,550 116 554 2112
2020-10-06 12:40:22 GMT 48.360626 4.953918 32,125 116 567 1664
2020-10-06 12:40:19 GMT 48.362980 4.946811 32,300 116 557 2304
2020-10-06 12:40:16 GMT 48.366943 4.934904 32,125 116 559 2304
2020-10-06 12:40:13 GMT 48.374943 4.910816 30,650 116 567 1664
2020-10-06 12:40:07 GMT 48.377132 4.904167 31,750 116 563 2240
2020-10-06 12:40:03 GMT 48.381321 4.891663 31,675 116 562 2240
2020-10-06 12:40:00 GMT 48.384842 4.881028 31,625 116 563 2240
2020-10-06 12:39:57 GMT 48.388321 4.870535 31,400 116 565 2176
2020-10-06 12:39:54 GMT 48.391888 4.859860 31,250 116 566 2112
2020-10-06 12:39:50 GMT 48.396011 4.847365 31,150 116 566 2112
2020-10-06 12:39:47 GMT 48.400772 4.832998 31,000 116 567 1792
2020-10-06 12:39:43 GMT 48.404846 4.820674 31,000 116 567 1920
2020-10-06 12:39:40 GMT 48.407639 4.812223 30,925 116 567 1728
2020-10-06 12:39:37 GMT 48.411026 4.802011 30,825 116 567 1664
2020-10-06 12:39:34 GMT 48.415306 4.789099 30,700 116 567 1664
2020-10-06 12:39:31 GMT 48.418259 4.780109 30,175 116 568 1920
2020-10-06 12:39:27 GMT 48.424244 4.761995 30,500 116 568 1792
2020-10-06 12:39:24 GMT 48.430573 4.742913 29,775 116 569 1856
2020-10-06 12:39:17 GMT 48.434601 4.730671 30,000 116 569 1664
2020-10-06 12:39:14 GMT 48.439499 4.715811 30,000 116 569 1664
2020-10-06 12:39:11 GMT 48.442352 4.707136 30,075 116 568 1600
2020-10-06 12:39:07 GMT 48.446308 4.695137 29,925 116 568 1664
2020-10-06 12:39:04 GMT 48.449753 4.684683 29,825 116 568 1600
2020-10-06 12:39:01 GMT 48.453896 4.672153 29,775 116 568 1664
2020-10-06 12:38:56 GMT 48.460007 4.653555 29,675 116 567 1600
2020-10-06 12:38:53 GMT 48.466465 4.633918 29,500 116 567 1728
2020-10-06 12:38:50 GMT 48.466465 4.633918 29,450 116 567 1728
2020-10-06 12:38:47 GMT 48.469986 4.623131 29,350 116 567 1664
2020-10-06 12:38:44 GMT 48.473602 4.612145 29,275 116 560 1216
2020-10-06 12:38:41 GMT 48.476799 4.602404 29,175 116 567 1536
2020-10-06 12:38:37 GMT 48.480991 4.589683 29,125 116 567 1600
2020-10-06 12:38:34 GMT 48.485134 4.576962 27,850 116 557 1920
2020-10-06 12:38:30 GMT 48.493607 4.551159 28,875 116 566 1472
2020-10-06 12:38:27 GMT 48.493607 4.551159 28,850 116 566 1472
2020-10-06 12:38:24 GMT 48.497040 4.540734 28,775 116 566 1408
2020-10-06 12:38:21 GMT 48.500401 4.530270 28,750 116 566 1408
2020-10-06 12:38:18 GMT 48.503952 4.519536 28,625 116 564 1344
2020-10-06 12:38:15 GMT 48.507294 4.509324 28,575 116 564 1344
2020-10-06 12:38:12 GMT 48.510864 4.498408 28,500 116 563 1280
2020-10-06 12:38:09 GMT 48.514893 4.486084 28,425 116 562 1280
2020-10-06 12:38:06 GMT 48.518372 4.475411 28,400 116 562 1280
2020-10-06 12:38:03 GMT 48.521675 4.465220 28,300 116 561 1216
2020-10-06 12:37:57 GMT 48.529083 4.442632 28,175 116 559 1344
2020-10-06 12:37:54 GMT 48.531406 4.435441 28,050 116 559 1472
2020-10-06 12:37:51 GMT 48.534386 4.426406 28,050 116 559 1536
2020-10-06 12:37:48 GMT 48.538109 4.414914 28,000 116 558 1600
2020-10-06 12:37:45 GMT 48.541649 4.404072 27,775 116 557 1856
2020-10-06 12:37:42 GMT 48.545746 4.391496 27,400 116 557 1536
2020-10-06 12:37:39 GMT 48.548119 4.384195 27,700 116 557 1984
2020-10-06 12:37:35 GMT 48.553192 4.368439 27,550 116 559 2048
2020-10-06 12:37:31 GMT 48.557465 4.355375 27,425 116 559 1792
2020-10-06 12:37:28 GMT 48.565018 4.332155 27,250 116 557 1408
2020-10-06 12:37:24 GMT 48.565018 4.332155 27,250 116 557 1344
2020-10-06 12:37:20 GMT 48.569626 4.317844 26,900 116 548 1088
2020-10-06 12:37:17 GMT 48.577072 4.294932 27,075 116 554 1152
2020-10-06 12:37:14 GMT 48.577072 4.294932 27,000 116 554 1088
2020-10-06 12:37:11 GMT 48.579353 4.287993 26,975 116 552 1024
2020-10-06 12:37:08 GMT 48.583237 4.276076 26,950 116 552 1024
2020-10-06 12:37:04 GMT 48.587814 4.261921 26,800 116 548 1088
2020-10-06 12:36:59 GMT 48.595882 4.236964 26,750 116 547 1216
2020-10-06 12:36:56 GMT 48.601654 4.219184 26,575 115 546 1280
2020-10-06 12:36:52 GMT 48.601654 4.219184 26,600 116 545 1280
2020-10-06 12:36:46 GMT 48.607380 4.201403 26,500 116 544 1280
2020-10-06 12:36:43 GMT 48.611801 4.187815 26,400 115 542 1280
2020-10-06 12:36:40 GMT 48.613991 4.181021 26,375 116 542 1280
2020-10-06 12:36:36 GMT 48.625069 4.146761 26,250 115 539 1280
2020-10-06 12:36:32 GMT 48.625069 4.146761 26,225 115 539 1280
2020-10-06 12:36:29 GMT 48.627258 4.140039 26,100 115 532 1408
2020-10-06 12:36:25 GMT 48.631760 4.126070 26,075 115 537 1344
2020-10-06 12:36:21 GMT 48.635170 4.115464 25,975 115 534 1344
2020-10-06 12:36:18 GMT 48.637894 4.106844 25,900 115 534 1344
2020-10-06 12:36:15 GMT 48.642059 4.093997 25,800 115 533 1344
2020-10-06 12:36:12 GMT 48.648624 4.073543 25,725 115 532 1408
2020-10-06 12:36:09 GMT 48.648624 4.073543 25,650 115 531 1408
2020-10-06 12:36:04 GMT 48.653465 4.058581 25,550 115 530 1408
2020-10-06 12:36:01 GMT 48.656158 4.050082 25,475 115 529 1344
2020-10-06 12:35:58 GMT 48.659821 4.038814 25,325 115 526 1280
2020-10-06 12:35:54 GMT 48.664078 4.025574 24,600 115 507 1344
2020-10-06 12:35:51 GMT 48.668198 4.012686 25,250 115 525 1344
2020-10-06 12:35:48 GMT 48.670273 4.006251 25,225 115 524 1344
2020-10-06 12:35:44 GMT 48.674183 3.994036 25,125 115 523 1344
2020-10-06 12:35:41 GMT 48.677902 3.982333 25,075 115 521 1344
2020-10-06 12:35:38 GMT 48.685822 3.957680 24,925 115 519 1344
2020-10-06 12:35:34 GMT 48.685822 3.957680 24,875 115 518 1344
2020-10-06 12:35:30 GMT 48.688938 3.947850 24,825 115 517 1280
2020-10-06 12:35:27 GMT 48.692711 3.936141 24,725 115 515 1280
2020-10-06 12:35:24 GMT 48.695663 3.926908 24,625 115 515 1344
2020-10-06 12:35:20 GMT 48.699280 3.915640 24,600 115 513 1408
2020-10-06 12:35:17 GMT 48.703465 3.902532 24,500 115 512 1472
2020-10-06 12:35:13 GMT 48.707016 3.891414 24,425 115 510 1408
2020-10-06 12:35:09 GMT 48.710354 3.880993 24,350 115 509 1344
2020-10-06 12:35:06 GMT 48.713974 3.869652 24,275 115 504 1472
2020-10-06 12:35:02 GMT 48.720455 3.849335 24,150 115 506 1408
2020-10-06 12:34:59 GMT 48.720455 3.849335 23,950 115 501 1600
2020-10-06 12:34:56 GMT 48.724178 3.837626 23,375 115 498 1664
2020-10-06 12:34:52 GMT 48.728416 3.824326 23,925 115 501 1536
2020-10-06 12:34:49 GMT 48.731415 3.815002 23,850 115 500 1600
2020-10-06 12:34:44 GMT 48.736633 3.798593 23,725 115 499 1664
2020-10-06 12:34:41 GMT 48.739059 3.791058 23,675 115 498 1664
2020-10-06 12:34:38 GMT 48.741714 3.782607 23,575 115 497 1536
2020-10-06 12:34:35 GMT 48.744896 3.772720 23,500 115 496 1472
2020-10-06 12:34:32 GMT 48.748306 3.761972 23,150 115 492 1280
2020-10-06 12:34:29 GMT 48.751411 3.752120 23,325 115 493 1280
2020-10-06 12:34:26 GMT 48.755127 3.740422 23,250 115 493 1280
2020-10-06 12:34:23 GMT 48.756683 3.735492 23,225 115 493 1280
2020-10-06 12:34:19 GMT 48.761189 3.721330 23,125 115 491 1216
2020-10-06 12:34:16 GMT 48.763844 3.712945 22,675 115 483 1152
2020-10-06 12:34:13 GMT 48.766525 3.704435 23,050 115 490 1152
2020-10-06 12:34:09 GMT 48.770824 3.691045 22,900 115 488 1088
2020-10-06 12:34:06 GMT 48.773712 3.681899 22,675 115 483 1152
2020-10-06 12:34:03 GMT 48.776783 3.672252 22,425 113 479 1344
2020-10-06 12:34:00 GMT 48.779663 3.663166 22,800 115 486 1152
2020-10-06 12:33:56 GMT 48.783554 3.650912 22,700 115 484 1152
2020-10-06 12:33:53 GMT 48.786510 3.641606 22,625 115 484 1152
2020-10-06 12:33:50 GMT 48.793076 3.620699 22,525 115 481 1152
2020-10-06 12:33:46 GMT 48.793076 3.620699 22,500 114 481 1280
2020-10-06 12:33:42 GMT 48.797264 3.607057 22,425 113 479 1344
2020-10-06 12:33:39 GMT 48.799576 3.599220 22,350 112 479 1280
2020-10-06 12:33:36 GMT 48.802231 3.589571 22,225 107 479 1280
2020-10-06 12:33:32 GMT 48.804947 3.578290 22,225 108 479 1280
2020-10-06 12:33:29 GMT 48.807632 3.565556 22,150 104 479 1216
2020-10-06 12:33:25 GMT 48.809372 3.555486 22,075 102 479 1152
2020-10-06 12:33:21 GMT 48.811462 3.540417 21,975 98 482 960
2020-10-06 12:33:18 GMT 48.812393 3.531964 21,825 95 480 832
2020-10-06 12:33:15 GMT 48.813263 3.522245 21,925 96 480 832
2020-10-06 12:33:11 GMT 48.814224 3.508864 21,875 95 479 896
2020-10-06 12:33:08 GMT 48.814957 3.497244 21,775 95 477 1088
2020-10-06 12:33:05 GMT 48.815514 3.488737 21,775 95 477 1088
2020-10-06 12:33:02 GMT 48.816193 3.478300 21,675 95 475 1408
2020-10-06 12:32:58 GMT 48.817188 3.463223 21,650 95 475 1408
2020-10-06 12:32:55 GMT 48.817795 3.453610 21,550 95 474 1472
2020-10-06 12:32:52 GMT 48.819077 3.433650 21,400 95 473 1536
2020-10-06 12:32:49 GMT 48.819077 3.433650 21,375 95 473 1536
2020-10-06 12:32:45 GMT 48.819901 3.420762 21,225 95 472 1600
2020-10-06 12:32:41 GMT 48.820637 3.409448 21,175 95 472 1600
2020-10-06 12:32:38 GMT 48.821503 3.395832 21,125 95 471 1664
2020-10-06 12:32:35 GMT 48.822033 3.387764 21,025 95 471 1664
2020-10-06 12:32:30 GMT 48.823151 3.370707 20,800 95 470 1664
2020-10-06 12:32:27 GMT 48.823700 3.362380 20,750 95 469 1664
2020-10-06 12:32:24 GMT 48.824173 3.354299 20,650 95 469 1664
2020-10-06 12:32:21 GMT 48.824871 3.343891 20,650 95 469 1664
2020-10-06 12:32:18 GMT 48.825756 3.330520 20,400 95 466 1600
2020-10-06 12:32:15 GMT 48.826408 3.319750 20,425 95 467 1600
2020-10-06 12:32:12 GMT 48.826828 3.313245 20,325 95 466 1536
2020-10-06 12:32:09 GMT 48.827499 3.303293 20,300 95 466 1536
2020-10-06 12:32:05 GMT 48.828270 3.290839 20,225 95 465 1536
2020-10-06 12:32:02 GMT 48.829010 3.279630 20,050 95 463 1536
2020-10-06 12:31:59 GMT 48.829529 3.271757 20,025 95 463 1536
2020-10-06 12:31:55 GMT 48.830460 3.256868 19,600 95 462 1472
2020-10-06 12:31:52 GMT 48.831062 3.247544 19,850 95 462 1472
2020-10-06 12:31:49 GMT 48.831623 3.238148 19,775 95 461 1408
2020-10-06 12:31:46 GMT 48.832272 3.228246 19,600 95 459 1344
2020-10-06 12:31:43 GMT 48.832901 3.218431 19,625 95 460 1408
2020-10-06 12:31:40 GMT 48.833588 3.207233 19,525 95 458 1344
2020-10-06 12:31:36 GMT 48.834461 3.193335 19,475 95 458 1408
2020-10-06 12:31:33 GMT 48.834732 3.188711 19,325 95 457 1408
2020-10-06 12:31:30 GMT 48.835346 3.179024 19,325 95 456 1472
2020-10-06 12:31:27 GMT 48.836044 3.167532 19,225 95 455 1536
2020-10-06 12:31:24 GMT 48.836742 3.156762 19,175 95 455 1536
2020-10-06 12:31:21 GMT 48.837116 3.151052 19,075 95 454 1600
2020-10-06 12:31:18 GMT 48.837662 3.141738 19,050 95 453 1600
2020-10-06 12:31:14 GMT 48.838486 3.128779 18,925 95 451 1664
2020-10-06 12:31:11 GMT 48.839172 3.117723 18,850 95 450 1600
2020-10-06 12:31:07 GMT 48.840088 3.102933 18,625 95 448 1536
2020-10-06 12:31:04 GMT 48.840466 3.096482 18,650 95 449 1536
2020-10-06 12:31:01 GMT 48.841095 3.086665 18,575 95 447 1472
2020-10-06 12:30:58 GMT 48.841679 3.077111 18,500 95 447 1408
2020-10-06 12:30:54 GMT 48.842422 3.064318 18,400 95 445 1408
2020-10-06 12:30:51 GMT 48.842926 3.056382 18,350 95 444 1472
2020-10-06 12:30:48 GMT 48.843567 3.046171 18,250 95 443 1600
2020-10-06 12:30:44 GMT 48.844345 3.033776 18,100 95 442 1920
2020-10-06 12:30:41 GMT 48.844849 3.025395 17,775 95 442 2048
2020-10-06 12:30:38 GMT 48.845535 3.014620 17,950 95 442 2112
2020-10-06 12:30:35 GMT 48.846817 2.993634 17,750 95 441 2176
2020-10-06 12:30:31 GMT 48.846817 2.993634 17,700 95 441 2176
2020-10-06 12:30:28 GMT 48.847412 2.984126 17,600 95 441 2112
2020-10-06 12:30:24 GMT 48.848286 2.969127 17,425 95 441 2048
2020-10-06 12:30:21 GMT 48.848705 2.962044 17,375 95 440 1984
2020-10-06 12:30:18 GMT 48.849312 2.952503 17,250 95 440 1984
2020-10-06 12:30:15 GMT 48.849869 2.943324 17,150 95 440 1984
2020-10-06 12:30:12 GMT 48.851128 2.922146 17,025 95 439 1920
2020-10-06 12:30:09 GMT 48.851128 2.922146 16,900 95 438 1920
2020-10-06 12:30:06 GMT 48.851532 2.915532 16,850 95 438 1920
2020-10-06 12:30:03 GMT 48.852150 2.905016 16,775 95 437 1984
2020-10-06 12:30:00 GMT 48.852757 2.895259 16,625 95 437 2112
2020-10-06 12:29:57 GMT 48.853035 2.890055 16,575 95 437 2240
2020-10-06 12:29:53 GMT 48.853874 2.876322 16,375 95 437 2496
2020-10-06 12:29:50 GMT 48.854324 2.868840 16,300 95 437 2560
2020-10-06 12:29:47 GMT 48.855549 2.848784 16,025 95 438 2432
2020-10-06 12:29:44 GMT 48.855549 2.848784 15,900 95 438 2240
2020-10-06 12:29:41 GMT 48.856064 2.839966 15,800 95 429 1792
2020-10-06 12:29:38 GMT 48.856613 2.830599 15,750 95 437 1984
2020-10-06 12:29:35 GMT 48.857738 2.812139 15,600 95 436 1920
2020-10-06 12:29:32 GMT 48.857738 2.812139 15,550 95 436 1920
2020-10-06 12:29:29 GMT 48.858261 2.803133 15,500 95 436 1920
2020-10-06 12:29:26 GMT 48.858673 2.795809 15,425 95 435 1920
2020-10-06 12:29:23 GMT 48.859226 2.786841 15,375 95 435 1920
2020-10-06 12:29:20 GMT 48.859863 2.775808 15,225 95 434 1856
2020-10-06 12:29:17 GMT 48.860435 2.765953 15,125 95 432 1856
2020-10-06 12:29:14 GMT 48.860950 2.756846 15,025 95 432 1792
2020-10-06 12:29:11 GMT 48.861462 2.748389 14,975 95 431 1792
2020-10-06 12:29:08 GMT 48.862427 2.731722 14,800 95 429 1792
2020-10-06 12:29:05 GMT 48.863022 2.722144 14,675 95 428 1792
2020-10-06 12:29:02 GMT 48.863022 2.722144 14,675 95 428 1792
2020-10-06 12:28:59 GMT 48.863571 2.712285 14,575 95 427 1792
2020-10-06 12:28:55 GMT 48.864304 2.700313 14,425 95 425 1728
2020-10-06 12:28:52 GMT 48.864807 2.691157 14,375 95 424 1728
2020-10-06 12:28:49 GMT 48.865448 2.680734 14,325 95 423 1728
2020-10-06 12:28:46 GMT 48.866348 2.665558 14,125 95 421 1792
2020-10-06 12:28:40 GMT 48.866909 2.655800 14,025 95 420 1920
2020-10-06 12:28:36 GMT 48.867512 2.645537 13,925 95 420 1984
2020-10-06 12:28:33 GMT 48.868073 2.636213 13,725 95 419 2112
2020-10-06 12:28:30 GMT 48.868584 2.627395 13,675 95 419 2112
2020-10-06 12:28:27 GMT 48.869110 2.617845 13,550 94 418 2048
2020-10-06 12:28:23 GMT 48.869793 2.606073 13,400 94 417 1984
2020-10-06 12:28:20 GMT 48.870213 2.598483 13,325 94 416 1984
2020-10-06 12:28:17 GMT 48.870850 2.586999 13,275 94 416 1984
2020-10-06 12:28:14 GMT 48.871239 2.580414 13,150 94 416 1984
2020-10-06 12:28:11 GMT 48.871658 2.573186 13,075 94 414 1920
2020-10-06 12:28:08 GMT 48.872215 2.563067 12,950 94 413 1792
2020-10-06 12:28:05 GMT 48.872726 2.553815 12,825 94 412 1792
2020-10-06 12:28:02 GMT 48.873230 2.545025 12,775 94 411 1792
2020-10-06 12:27:59 GMT 48.873657 2.537408 12,700 94 410 1792
2020-10-06 12:27:56 GMT 48.874123 2.529674 12,650 94 410 1856
2020-10-06 12:27:53 GMT 48.874683 2.519628 12,525 94 408 1856
2020-10-06 12:27:50 GMT 48.875198 2.510376 12,400 94 406 1920
2020-10-06 12:27:47 GMT 48.875660 2.501413 12,300 94 405 1856
2020-10-06 12:27:44 GMT 48.876160 2.493051 12,200 94 404 1728
2020-10-06 12:27:41 GMT 48.876499 2.486380 12,150 94 403 1600
2020-10-06 12:27:38 GMT 48.877670 2.463825 12,025 94 400 1280
2020-10-06 12:27:34 GMT 48.877670 2.463825 11,975 94 398 1408
2020-10-06 12:27:31 GMT 48.877941 2.458119 11,925 94 397 1472
2020-10-06 12:27:28 GMT 48.879013 2.435712 11,700 93 393 2048
2020-10-06 12:27:24 GMT 48.879013 2.435712 11,650 93 393 2048
2020-10-06 12:27:21 GMT 48.879246 2.430725 11,550 93 392 1984
2020-10-06 12:27:18 GMT 48.879570 2.422485 11,525 93 392 1856
2020-10-06 12:27:15 GMT 48.879990 2.411499 11,400 92 389 1280
2020-10-06 12:27:11 GMT 48.880325 2.401569 11,325 92 385 832
2020-10-06 12:27:08 GMT 48.880508 2.394456 11,300 92 383 768
2020-10-06 12:27:05 GMT 48.880733 2.386274 11,250 92 380 832
2020-10-06 12:27:02 GMT 48.880966 2.378399 11,200 92 377 832
2020-10-06 12:26:59 GMT 48.881195 2.370512 11,175 92 374 896
2020-10-06 12:26:56 GMT 48.881424 2.362624 11,125 93 370 832
2020-10-06 12:26:52 GMT 48.881851 2.352375 11,050 95 366 832
2020-10-06 12:26:49 GMT 48.882271 2.343919 11,025 96 364 768
2020-10-06 12:26:46 GMT 48.882797 2.337200 11,025 97 361 768
2020-10-06 12:26:43 GMT 48.883480 2.329608 10,975 98 358 832
2020-10-06 12:26:40 GMT 48.884411 2.320934 10,900 102 352 960
2020-10-06 12:26:37 GMT 48.885159 2.315658 10,850 108 348 768
2020-10-06 12:26:34 GMT 48.886414 2.308397 10,800 113 344 640
2020-10-06 12:26:31 GMT 48.888245 2.300579 10,800 117 341 640
2020-10-06 12:26:27 GMT 48.890991 2.292269 10,750 124 334 576
2020-10-06 12:26:24 GMT 48.893394 2.286891 10,725 130 328 512
2020-10-06 12:26:21 GMT 48.896622 2.280649 10,700 135 322 576
2020-10-06 12:26:18 GMT 48.899506 2.276071 10,675 138 318 704
2020-10-06 12:26:15 GMT 48.902802 2.271857 10,650 141 315 960
2020-10-06 12:26:11 GMT 48.908203 2.265860 10,500 149 307 1984
2020-10-06 12:26:08 GMT 48.912231 2.262338 10,425 174 294 2304
2020-10-06 12:26:05 GMT 48.914532 2.260509 10,300 155 303 2880
2020-10-06 12:26:02 GMT 48.918488 2.257980 10,075 163 300 2880
2020-10-06 12:25:59 GMT 48.922394 2.256071 9,900 170 296 2560
2020-10-06 12:25:56 GMT 48.926636 2.254655 9,825 174 294 2368
2020-10-06 12:25:53 GMT 48.934525 2.253676 9,700 181 289 2048
2020-10-06 12:25:47 GMT 48.937901 2.253932 9,500 191 280 1792
2020-10-06 12:25:44 GMT 48.943268 2.255085 9,425 196 275 1728
2020-10-06 12:25:41 GMT 48.945953 2.256028 9,375 197 274 1728
2020-10-06 12:25:38 GMT 48.949814 2.257761 9,300 200 271 1856
2020-10-06 12:25:35 GMT 48.953751 2.260085 9,125 208 264 2368
2020-10-06 12:25:32 GMT 48.957642 2.262972 9,025 211 263 2496
2020-10-06 12:25:28 GMT 48.960339 2.265280 8,900 215 260 2624
2020-10-06 12:25:25 GMT 48.964203 2.269327 8,725 221 257 2688
2020-10-06 12:25:20 GMT 48.968346 2.274820 8,550 226 254 2688
2020-10-06 12:25:17 GMT 48.971146 2.279241 8,375 232 251 2624
2020-10-06 12:25:14 GMT 48.974030 2.284663 8,200 236 250 2496
2020-10-06 12:25:11 GMT 48.975376 2.287614 8,125 240 248 2496
2020-10-06 12:25:08 GMT 48.977097 2.291950 8,000 243 246 2496
2020-10-06 12:25:05 GMT 48.978912 2.297588 7,850 249 245 2624
2020-10-06 12:25:01 GMT 48.980263 2.302575 7,650 254 244 2624
2020-10-06 12:24:58 GMT 48.981445 2.308044 7,575 258 242 2624
2020-10-06 12:24:55 GMT 48.982357 2.314140 7,525 259 242 2624
2020-10-06 12:24:52 GMT 48.982727 2.317552 7,325 263 241 2688
2020-10-06 12:24:48 GMT 48.983276 2.324454 7,125 265 242 2688
2020-10-06 12:24:45 GMT 48.983597 2.329524 7,050 266 241 2688
2020-10-06 12:24:42 GMT 48.984238 2.341215 6,775 265 240 2688
2020-10-06 12:24:39 GMT 48.984238 2.341215 6,650 265 240 2688
2020-10-06 12:24:36 GMT 48.984451 2.344641 6,600 266 239 2688
2020-10-06 12:24:33 GMT 48.984787 2.350793 6,500 266 239 2688
2020-10-06 12:24:30 GMT 48.985012 2.354688 6,425 266 239 2624
2020-10-06 12:24:27 GMT 48.985291 2.360109 6,125 266 237 2432
2020-10-06 12:24:24 GMT 48.985565 2.365018 6,075 266 237 2304
2020-10-06 12:24:21 GMT 48.985886 2.370652 6,000 266 236 2176
2020-10-06 12:24:18 GMT 48.986115 2.374808 5,925 266 235 2048
2020-10-06 12:24:15 GMT 48.986362 2.379191 5,775 266 232 1920
2020-10-06 12:24:12 GMT 48.986664 2.384808 5,675 266 230 2048
2020-10-06 12:24:08 GMT 48.987015 2.391044 5,450 266 226 2176
2020-10-06 12:24:05 GMT 48.987247 2.395020 5,450 266 226 2176
2020-10-06 12:24:02 GMT 48.987572 2.400730 5,300 266 224 2176
2020-10-06 12:23:59 GMT 48.987808 2.405231 5,175 266 222 2048
2020-10-06 12:23:56 GMT 48.988083 2.409692 5,100 266 221 1920
2020-10-06 12:23:53 GMT 48.988312 2.414457 5,025 266 219 1664
2020-10-06 12:23:49 GMT 48.988689 2.420678 4,950 266 214 1152
2020-10-06 12:23:45 GMT 48.988998 2.426852 4,850 266 206 896
2020-10-06 12:23:41 GMT 48.989292 2.432315 4,825 266 201 768
2020-10-06 12:23:38 GMT 48.989548 2.436852 4,775 266 198 832
2020-10-06 12:23:35 GMT 48.989712 2.440410 4,750 266 197 896
2020-10-06 12:23:32 GMT 48.990005 2.445655 4,675 266 187 960
2020-10-06 12:23:28 GMT 48.990505 2.455011 4,575 266 179 1024
2020-10-06 12:23:25 GMT 48.990505 2.455011 4,525 266 176 1024
2020-10-06 12:23:22 GMT 48.990692 2.459058 4,500 266 174 1024
2020-10-06 12:23:19 GMT 48.990875 2.462064 4,450 265 169 1024
2020-10-06 12:23:16 GMT 48.991058 2.464881 4,425 266 166 896
2020-10-06 12:23:13 GMT 48.991249 2.468454 4,325 266 165 832
2020-10-06 12:23:10 GMT 48.991528 2.473080 4,325 266 153 576
2020-10-06 12:23:07 GMT 48.991653 2.475797 4,300 266 150 512
2020-10-06 12:23:04 GMT 48.991810 2.478935 4,300 266 148 640
2020-10-06 12:23:01 GMT 48.991947 2.481392 4,225 265 143 1024
2020-10-06 12:22:58 GMT 48.992134 2.484789 4,225 265 143 1024
2020-10-06 12:22:55 GMT 48.992340 2.488544 4,100 265 138 1408
2020-10-06 12:22:52 GMT 48.992569 2.491572 4,025 265 137 1280
2020-10-06 12:22:49 GMT 48.992706 2.493685 3,925 265 135 1536
2020-10-06 12:22:46 GMT 48.992889 2.496713 3,875 265 134 1600
2020-10-06 12:22:43 GMT 48.993065 2.499606 3,825 265 134 1536
2020-10-06 12:22:39 GMT 48.993298 2.503437 3,750 266 132 1600
2020-10-06 12:22:36 GMT 48.993484 2.507051 3,675 266 131 1920
2020-10-06 12:22:33 GMT 48.993576 2.508756 3,525 266 130 2048
2020-10-06 12:22:29 GMT 48.993805 2.512489 3,400 266 129 1600
2020-10-06 12:22:26 GMT 48.993950 2.515291 3,350 266 129 1728
2020-10-06 12:22:23 GMT 48.994087 2.517965 3,300 266 128 1792
2020-10-06 12:22:20 GMT 48.994228 2.520856 3,075 266 128 2304
2020-10-06 12:22:17 GMT 48.994583 2.527067 2,975 266 129 2432
2020-10-06 12:22:13 GMT 48.994583 2.527067 2,850 267 131 2560
2020-10-06 12:22:09 GMT 48.994740 2.530253 2,600 267 135 3008
2020-10-06 12:22:06 GMT 48.994858 2.533335 2,525 267 136 2816
2020-10-06 12:22:02 GMT 48.995022 2.537264 2,325 268 138 2880
2020-10-06 12:21:58 GMT 48.995113 2.540661 2,175 268 139 2816
2020-10-06 12:21:55 GMT 48.995224 2.543758 2,125 268 140 2624
2020-10-06 12:21:50 GMT 48.995438 2.549045 1,800 266 140 2496
2020-10-06 12:21:46 GMT 48.995590 2.552842 1,625 265 146 3008
2020-10-06 12:21:42 GMT 48.995811 2.556851 1,450 266 142 2816
2020-10-06 12:21:38 GMT 48.996044 2.560537 1,250 265 146 2944
2020-10-06 12:21:35 GMT 48.996185 2.563139 1,125 265 146 2944
2020-10-06 12:21:31 GMT 48.996460 2.567561 875 266 151 2304
2020-10-06 12:21:28 GMT 48.996643 2.571223 775 266 151 2304
2020-10-06 12:21:21 GMT 48.997009 2.577984 550 266 149 1024
2020-10-06 12:21:01 GMT 48.997963 2.595520 0 264 78
2020-10-06 12:20:55 GMT 48.998119 2.598267 0 264 56
2020-10-06 12:20:45 GMT 48.998280 2.601122 0 264 16
2020-10-06 12:20:33 GMT 48.998337 2.602170 0 264 11
2020-10-06 12:20:25 GMT 48.998337 2.602766 0 244 12
2020-10-06 12:20:14 GMT 48.998657 2.603513 0 208 14
2020-10-06 12:20:05 GMT 48.999241 2.603918 0 191 13
2020-10-06 12:19:46 GMT 49.000107 2.603995 0 118 10
2020-10-06 12:19:43 GMT 49.000202 2.603848 0 101 9
2020-10-06 12:19:33 GMT 49.000282 2.603232 0 84 10
2020-10-06 12:19:22 GMT 49.000225 2.602281 0 84 18
2020-10-06 12:19:13 GMT 49.000179 2.601207 0 84 18
2020-10-06 12:18:58 GMT 49.000084 2.599423 0 84 16
2020-10-06 12:18:51 GMT 49.000042 2.598584 0 84 16
2020-10-06 12:18:40 GMT 48.999973 2.597404 0 84 16
2020-10-06 12:18:32 GMT 48.999920 2.596496 0 84 16
2020-10-06 12:18:20 GMT 48.999851 2.595177 0 84 17
2020-10-06 12:18:11 GMT 48.999802 2.594023 0 84 20
2020-10-06 12:18:02 GMT 48.999733 2.592861 0 84 24
2020-10-06 12:17:50 GMT 48.999619 2.590678 0 84 23
2020-10-06 12:17:41 GMT 48.999557 2.589521 0 84 23
2020-10-06 12:17:25 GMT 48.999409 2.586738 0 84 21
2020-10-06 12:17:22 GMT 48.999397 2.586431 0 84 20
2020-10-06 12:16:55 GMT 48.999241 2.583689 0 84 9
2020-10-06 12:16:48 GMT 48.999218 2.583354 0 84 8
2020-10-06 12:16:39 GMT 48.999058 2.580323 0 84 17
2020-10-06 12:16:11 GMT 48.999058 2.580323 0 84 17
2020-10-06 12:15:59 GMT 48.998978 2.578842 0 84 21
2020-10-06 12:15:49 GMT 48.998909 2.577509 0 84 21
2020-10-06 12:15:40 GMT 48.998840 2.576171 0 84 19
2020-10-06 12:15:33 GMT 48.998783 2.575308 0 84 18
2020-10-06 12:15:29 GMT 48.998756 2.574830 0 84 17
2020-10-06 12:15:25 GMT 48.998737 2.574322 0 87 17
2020-10-06 12:15:19 GMT 48.998699 2.573638 0 84 16
2020-10-06 12:15:13 GMT 48.998669 2.573072 0 84 15
2020-10-06 12:15:09 GMT 48.998638 2.572499 0 84 14
2020-10-06 12:15:05 GMT 48.998604 2.571921 0 87 14
2020-10-06 12:14:58 GMT 48.998592 2.571596 0 87 13
2020-10-06 12:14:55 GMT 48.998566 2.571294 0 92 13
2020-10-06 12:14:49 GMT 48.998543 2.570713 0 123 13
2020-10-06 12:14:44 GMT 48.998623 2.570396 0 149 12
2020-10-06 12:14:41 GMT 48.998791 2.570186 0 165 11
2020-10-06 12:14:35 GMT 48.999046 2.570078 0 174 11
2020-10-06 12:14:30 GMT 48.999302 2.570042 0 174 10
2020-10-06 12:14:24 GMT 48.999535 2.570006 0 174 10
2020-10-06 12:14:20 GMT 48.999710 2.569991 0 174 9
2020-10-06 12:14:14 GMT 48.999939 2.569956 0 174 9
2020-10-06 12:14:09 GMT 49.000156 2.569938 0 174 8
2020-10-06 12:14:03 GMT 49.000340 2.569915 0 174 8
2020-10-06 12:13:57 GMT 49.000580 2.569885 0 168 8
2020-10-06 12:13:53 GMT 49.000683 2.569868 0 163 8
2020-10-06 12:13:47 GMT 49.001049 2.569780 0 129 10
2020-10-06 12:13:40 GMT 49.001202 2.569626 0 106 10
2020-10-06 12:13:34 GMT 49.001282 2.569283 0 87 10
2020-10-06 12:13:24 GMT 49.001259 2.568524 0 84 13
2020-10-06 12:13:18 GMT 49.001232 2.567949 0 84 13
2020-10-06 12:13:05 GMT 49.001163 2.566771 0 84 13
2020-10-06 12:13:01 GMT 49.001152 2.566452 0 84 13
2020-10-06 12:12:58 GMT 49.001129 2.566085 0 84 13
2020-10-06 12:12:52 GMT 49.001106 2.565677 0 84 11
2020-10-06 12:12:48 GMT 49.001083 2.565344 0 87 10
2020-10-06 12:12:43 GMT 49.001072 2.564991 0 87 9
2020-10-06 12:12:39 GMT 49.001060 2.564779 0 87 8
2020-10-06 12:12:33 GMT 49.001049 2.564458 0 87 7
2020-10-06 12:12:28 GMT 49.001038 2.564242 0 84 6
2020-10-06 12:12:22 GMT 49.001026 2.564040 0 84 4
2020-10-06 12:12:18 GMT 49.001015 2.563934 0 87 3
2020-10-06 12:12:13 GMT 49.001015 2.563846 0 87 2
2020-10-06 12:10:14 GMT 49.001003 2.563776 0 87 0
2020-10-06 12:10:04 GMT 49.001003 2.563772 0 87 0
2020-10-06 12:09:20 GMT 49.001003 2.563776 0 87 2
2020-10-06 12:09:16 GMT 49.001003 2.563790 0 87 2
2020-10-06 12:09:12 GMT 49.001003 2.563829 0 87 2
2020-10-06 12:09:07 GMT 49.001003 2.563917 0 90 3
2020-10-06 12:09:02 GMT 49.000992 2.563970 0 92 2
2020-10-06 12:08:58 GMT 49.000954 2.564025 0 115 3
2020-10-06 12:08:47 GMT 49.000889 2.564128 0 115 3
2020-10-06 12:08:42 GMT 49.000839 2.564169 0 118 3
2020-10-06 12:08:36 GMT 49.000793 2.564205 0 123 2
2020-10-06 12:08:32 GMT 49.000763 2.564251 0 126 3
2020-10-06 12:08:24 GMT 49.000694 2.564304 0 132 2
2020-10-06 12:08:21 GMT 49.000671 2.564304 0 137 2
2020-10-06 12:08:17 GMT 49.000626 2.564304 0 143 3
2020-10-06 12:08:11 GMT 49.000568 2.564304 0 151 3
2020-10-06 12:08:06 GMT 49.000534 2.564322 0 154 2
2020-10-06 12:07:59 GMT 49.000465 2.564314 0 160 3
2020-10-06 12:07:54 GMT 49.000420 2.564304 0 165 3
2020-10-06 12:07:51 GMT 49.000385 2.564304 0 165 3
2020-10-06 12:07:44 GMT 49.000317 2.564314 0 168 2
2020-10-06 12:07:41 GMT 49.000294 2.564304 0 171 3
2020-10-06 12:07:36 GMT 49.000233 2.564278 0 177 2
2020-10-06 12:07:31 GMT 49.000187 2.564278 0 177 2
2020-10-06 12:07:26 GMT 49.000141 2.564296 0 177 2
2020-10-06 12:07:07 GMT 49.000031 2.564304 0 177 0
2020-10-06 12:07:02 GMT 49.000019 2.564304 0 177 0
2020-10-06 12:06:41 GMT 49.000023 2.564314 0 177 0
2020-10-06 12:05:57 GMT 49.000019 2.564304 0 177 0
2020-10-06 12:05:42 GMT 49.000023 2.564314 0 177 0
We lost coverage of the aircraft here for a total of 113 minutes
2020-10-06 10:13:05 GMT 49.000023 2.564314 0 177 0 0
2020-10-06 10:12:54 GMT 49.000031 2.564304 0 177 0 0
2020-10-06 10:12:51 GMT 49.000023 2.564314 0 177 0 0
2020-10-06 10:12:46 GMT 49.000031 2.564304 0 177 0 0
2020-10-06 10:12:41 GMT 49.000023 2.564314 0 177 0 0
2020-10-06 10:12:35 GMT 49.000034 2.564314 0 177 2 0
2020-10-06 10:12:31 GMT 49.000072 2.564296 0 177 2 0
2020-10-06 10:12:22 GMT 49.000153 2.564296 0 177 0 0
2020-10-06 10:12:13 GMT 49.000156 2.564286 0 177 0 0
2020-10-06 10:12:07 GMT 49.000164 2.564296 0 177 0 0
2020-10-06 10:11:50 GMT 49.000156 2.564286 0 177 0 0
2020-10-06 10:11:40 GMT 49.000164 2.564296 0 177 0 0
2020-10-06 10:11:30 GMT 49.000156 2.564286 0 177 0 0
2020-10-06 10:11:25 GMT 49.000175 2.564296 0 177 2 0
2020-10-06 10:11:19 GMT 49.000221 2.564278 0 177 3 0
2020-10-06 10:11:08 GMT 49.000420 2.564260 0 180 7 0
2020-10-06 10:10:59 GMT 49.000648 2.564181 0 205 5 0
2020-10-06 10:10:53 GMT 49.000751 2.564146 0 213 5 0
2020-10-06 10:10:39 GMT 49.001038 2.564368 0 267 8 0
2020-10-06 10:10:20 GMT 49.000992 2.565484 0 334 10 0
2020-10-06 10:10:14 GMT 49.000797 2.565660 0 351 10 0
2020-10-06 10:10:09 GMT 49.000557 2.565713 0 354 12 0
2020-10-06 10:10:02 GMT 49.000221 2.565759 0 354 12 0
2020-10-06 10:09:59 GMT 49.000050 2.565777 0 354 14 0
2020-10-06 10:09:52 GMT 48.999619 2.565832 0 354 15 0
2020-10-06 10:09:49 GMT 48.999374 2.565868 0 354 14 0
2020-10-06 10:09:42 GMT 48.998966 2.565904 0 354 12 0
2020-10-06 10:09:38 GMT 48.998795 2.565941 0 354 10 0
2020-10-06 10:09:32 GMT 48.998508 2.565977 0 354 8 0
2020-10-06 10:09:29 GMT 48.998417 2.565977 0 354 7 0
2020-10-06 10:09:24 GMT 48.998280 2.565994 0 354 5 0
2020-10-06 10:09:19 GMT 48.998184 2.566012 0 354 4 0
2020-10-06 10:09:11 GMT 48.998035 2.566030 0 354 7 0
2020-10-06 10:09:08 GMT 48.997776 2.566065 0 354 9 0
2020-10-06 10:09:04 GMT 48.997776 2.566065 0 354 11 0
2020-10-06 10:09:01 GMT 48.997650 2.566082 0 354 13 0
2020-10-06 10:08:58 GMT 48.997452 2.566103 0 354 15 0
2020-10-06 10:08:51 GMT 48.996986 2.566153 0 354 15 0
2020-10-06 10:08:47 GMT 48.996712 2.566188 0 354 15 0
2020-10-06 10:08:41 GMT 48.996323 2.566229 0 354 15 0
2020-10-06 10:08:38 GMT 48.996071 2.566258 0 354 15 0
2020-10-06 10:08:27 GMT 48.995476 2.566329 0 345 13 0
2020-10-06 10:08:21 GMT 48.995125 2.566410 0 320 14 0
2020-10-06 10:08:17 GMT 48.994915 2.566572 0 284 14 0
2020-10-06 10:08:08 GMT 48.994743 2.567438 0 272 16 0
2020-10-06 10:08:03 GMT 48.994740 2.567874 0 281 16 0
2020-10-06 10:07:57 GMT 48.994648 2.568578 0 284 22 0
2020-10-06 10:07:53 GMT 48.994549 2.569111 0 284 22 0
2020-10-06 10:07:47 GMT 48.994366 2.570132 0 284 25 0
2020-10-06 10:07:44 GMT 48.994263 2.570674 0 284 27 0
2020-10-06 10:07:37 GMT 48.994057 2.571787 0 284 29 0
2020-10-06 10:07:33 GMT 48.993927 2.572517 0 284 30 0
2020-10-06 10:07:27 GMT 48.993683 2.573818 0 284 32 0
2020-10-06 10:07:22 GMT 48.993519 2.574794 0 275 39 0
2020-10-06 10:07:17 GMT 48.993496 2.576153 0 264 49 0
2020-10-06 10:07:13 GMT 48.993576 2.577738 0 264 55 0
2020-10-06 10:07:08 GMT 48.993690 2.579886 0 264 61 0
2020-10-06 10:07:01 GMT 48.993839 2.582826 0 264 76 0
2020-10-06 10:06:56 GMT 48.993984 2.585329 525 264 88 0
2020-10-06 10:06:52 GMT 48.994171 2.587985 525 266 102 -128
2020-10-06 10:06:46 GMT 48.994354 2.592492 525 267 117 -128
2020-10-06 10:06:37 GMT 48.994720 2.600309 525 265 125 -512
2020-10-06 10:06:33 GMT 48.994904 2.603689 600 266 125 -640
2020-10-06 10:06:27 GMT 48.995159 2.608747 650 266 127 -704
2020-10-06 10:06:22 GMT 48.995682 2.618056 775 266 128 -576
2020-10-06 10:06:17 GMT 48.995682 2.618056 775 266 128 -576
2020-10-06 10:06:13 GMT 48.995865 2.621718 900 266 125 -768
2020-10-06 10:06:06 GMT 48.996185 2.627178 900 265 125 -704
2020-10-06 10:06:01 GMT 48.996460 2.631719 950 266 126 -832
2020-10-06 10:05:56 GMT 48.996689 2.636085 1,000 266 127 -640
2020-10-06 10:05:52 GMT 48.996929 2.640622 1,050 266 128 -640
2020-10-06 10:05:46 GMT 48.997116 2.644958 1,125 266 129 -768
2020-10-06 10:05:41 GMT 48.997375 2.649466 1,175 265 129 -704
2020-10-06 10:05:35 GMT 48.997879 2.658410 1,300 266 130 -704
2020-10-06 10:05:32 GMT 48.997879 2.658410 1,325 266 130 -704
2020-10-06 10:05:26 GMT 48.998138 2.663895 1,350 266 128 -640
2020-10-06 10:05:21 GMT 48.998371 2.668160 1,400 266 129 -832
2020-10-06 10:05:17 GMT 48.998558 2.672063 1,500 266 127 -704
2020-10-06 10:05:14 GMT 48.998699 2.674376 1,525 266 127 -640
2020-10-06 10:05:11 GMT 48.998840 2.677072 1,525 266 127 -640
2020-10-06 10:05:04 GMT 48.999161 2.683622 1,600 266 130 -704
2020-10-06 10:05:01 GMT 48.999348 2.686302 1,650 266 131 -768
2020-10-06 10:04:57 GMT 48.999535 2.690060 1,700 267 131 -768
2020-10-06 10:04:54 GMT 48.999630 2.692735 1,725 267 132 -640
2020-10-06 10:04:51 GMT 48.999767 2.695409 1,750 266 134 -704
2020-10-06 10:04:45 GMT 49.000122 2.702073 1,850 265 135 -896
2020-10-06 10:04:41 GMT 49.000328 2.704950 1,900 266 136 -704
2020-10-06 10:04:34 GMT 49.000671 2.711510 1,950 266 138 -768
2020-10-06 10:04:31 GMT 49.000839 2.714563 2,000 266 139 -640
2020-10-06 10:04:24 GMT 49.001175 2.721159 2,075 266 140 -768
2020-10-06 10:04:21 GMT 49.001312 2.724539 2,125 266 139 -768
2020-10-06 10:04:16 GMT 49.001583 2.729380 2,200 266 139 -704
2020-10-06 10:04:13 GMT 49.001678 2.731934 2,225 266 138 -640
2020-10-06 10:04:10 GMT 49.001816 2.734728 2,275 266 138 -640
2020-10-06 10:04:04 GMT 49.002182 2.741582 2,350 266 141 -704
2020-10-06 10:04:01 GMT 49.002331 2.744631 2,375 266 143 -640
2020-10-06 10:03:54 GMT 49.002686 2.750808 2,475 266 143 -1024
2020-10-06 10:03:50 GMT 49.002914 2.754611 2,525 266 144 -704
2020-10-06 10:03:46 GMT 49.003143 2.759188 2,575 266 147 -832
2020-10-06 10:03:43 GMT 49.003307 2.761977 2,625 267 150 -768
2020-10-06 10:03:40 GMT 49.003418 2.765104 2,650 267 151 -768
2020-10-06 10:03:37 GMT 49.003586 2.769205 2,675 267 156 -960
2020-10-06 10:03:34 GMT 49.003876 2.775808 2,725 265 159 -960
2020-10-06 10:03:30 GMT 49.003876 2.775808 2,775 265 158 -960
2020-10-06 10:03:26 GMT 49.004238 2.781203 2,850 265 159 -960
2020-10-06 10:03:23 GMT 49.004379 2.783274 2,875 265 159 -960
2020-10-06 10:03:20 GMT 49.004654 2.787288 2,925 265 160 -896
2020-10-06 10:03:16 GMT 49.004929 2.792429 3,000 267 161 -832
2020-10-06 10:03:13 GMT 49.005020 2.795246 3,025 267 161 -896
2020-10-06 10:03:10 GMT 49.005169 2.798406 3,050 267 160 -704
2020-10-06 10:03:07 GMT 49.005295 2.801373 3,100 267 159 -640
2020-10-06 10:03:03 GMT 49.005524 2.806443 3,150 266 158 -768
2020-10-06 10:03:00 GMT 49.005775 2.810693 3,225 267 159 -960
2020-10-06 10:02:53 GMT 49.006027 2.817289 3,300 267 162 -832
2020-10-06 10:02:50 GMT 49.006145 2.820740 3,325 267 162 -768
2020-10-06 10:02:47 GMT 49.006287 2.823559 3,375 266 164 -1024
2020-10-06 10:02:44 GMT 49.006474 2.827389 3,450 265 164 -1216
2020-10-06 10:02:41 GMT 49.006714 2.831022 3,525 265 162 -1280
2020-10-06 10:02:37 GMT 49.006985 2.835051 3,550 265 162 -832
2020-10-06 10:02:33 GMT 49.007355 2.840177 3,625 264 160 -704
2020-10-06 10:02:30 GMT 49.007584 2.843980 3,700 266 158 -896
2020-10-06 10:02:22 GMT 49.007950 2.851797 3,750 268 160 -704
2020-10-06 10:02:19 GMT 49.008102 2.856012 3,825 266 163 -1024
2020-10-06 10:02:15 GMT 49.008362 2.861446 3,900 266 164 -1024
2020-10-06 10:02:12 GMT 49.008518 2.863890 3,950 266 163 -832
2020-10-06 10:02:09 GMT 49.008682 2.867432 3,975 266 162 -1024
2020-10-06 10:02:02 GMT 49.009079 2.875310 4,100 266 160 -1280
2020-10-06 10:01:59 GMT 49.009266 2.878490 4,250 266 157 -960
2020-10-06 10:01:52 GMT 49.009644 2.886517 4,300 267 154 -320
2020-10-06 10:01:49 GMT 49.009731 2.889187 4,300 267 154 320
2020-10-06 10:01:46 GMT 49.009869 2.893163 4,275 267 154 320
2020-10-06 10:01:43 GMT 49.010010 2.896415 4,250 267 159 128
2020-10-06 10:01:40 GMT 49.010197 2.900607 4,250 268 160 128
2020-10-06 10:01:37 GMT 49.010239 2.902363 4,250 268 161 64
2020-10-06 10:01:32 GMT 49.010330 2.912926 4,250 271 170 -128
2020-10-06 10:01:29 GMT 49.010330 2.912926 4,250 271 173 -256
2020-10-06 10:01:21 GMT 49.010193 2.922222 4,275 277 182 320
2020-10-06 10:01:17 GMT 49.009918 2.926339 4,250 280 185 448
2020-10-06 10:01:14 GMT 49.009033 2.931976 4,225 294 194 -128
2020-10-06 10:01:11 GMT 49.008148 2.935301 4,225 302 198 -128
2020-10-06 10:01:07 GMT 49.006714 2.938913 4,250 306 202 -64
2020-10-06 10:01:02 GMT 49.003490 2.945709 4,250 307 206 0
2020-10-06 10:00:58 GMT 49.001129 2.950533 4,250 307 206 -64
2020-10-06 10:00:53 GMT 48.998466 2.956045 4,250 307 206 -64
2020-10-06 10:00:50 GMT 48.996975 2.959153 4,250 307 206 0
2020-10-06 10:00:47 GMT 48.995255 2.962695 4,250 307 206 -64
2020-10-06 10:00:43 GMT 48.992832 2.967754 4,250 307 204 64
2020-10-06 10:00:40 GMT 48.991333 2.970886 4,250 307 204 128
2020-10-06 10:00:37 GMT 48.989456 2.974760 4,250 307 204 -64
2020-10-06 10:00:32 GMT 48.986847 2.980042 4,250 308 205 64
2020-10-06 10:00:29 GMT 48.985428 2.982929 4,250 309 205 0
2020-10-06 10:00:26 GMT 48.983707 2.986330 4,250 309 205 -64
2020-10-06 10:00:23 GMT 48.981308 2.990887 4,250 311 205 -192
2020-10-06 10:00:20 GMT 48.979843 2.993493 4,275 314 206 0
2020-10-06 10:00:17 GMT 48.977657 2.997244 4,275 315 206 64
2020-10-06 10:00:13 GMT 48.975048 3.000930 4,250 327 210 64
2020-10-06 10:00:10 GMT 48.973000 3.003387 4,250 329 211 128
2020-10-06 10:00:07 GMT 48.970093 3.006028 4,250 338 216 128
2020-10-06 10:00:02 GMT 48.965508 3.008881 4,250 350 222 0
2020-10-06 09:59:59 GMT 48.962479 3.009893 4,250 354 225 -64
2020-10-06 09:59:56 GMT 48.959702 3.010395 4,250 0 230 -128
2020-10-06 09:59:52 GMT 48.955124 3.010254 4,250 8 234 -64
2020-10-06 09:59:49 GMT 48.951874 3.009620 4,250 12 237 0
2020-10-06 09:59:46 GMT 48.948563 3.008302 4,250 22 244 64
2020-10-06 09:59:42 GMT 48.944275 3.005817 4,250 29 252 64
2020-10-06 09:59:38 GMT 48.940556 3.002809 4,250 33 256 64
2020-10-06 09:59:35 GMT 48.937042 2.999056 4,250 39 262 0
2020-10-06 09:59:32 GMT 48.934387 2.995535 4,250 48 272 0
2020-10-06 09:59:29 GMT 48.932327 2.992155 4,250 53 277 0
2020-10-06 09:59:26 GMT 48.929428 2.986691 4,250 58 282 0
2020-10-06 09:59:21 GMT 48.926514 2.979267 4,250 65 289 64
2020-10-06 09:59:18 GMT 48.924633 2.972958 4,225 76 296 64
2020-10-06 09:59:15 GMT 48.923237 2.966742 4,225 76 296 64
2020-10-06 09:59:12 GMT 48.922302 2.960745 4,225 82 298 -128
2020-10-06 09:59:09 GMT 48.921795 2.955105 4,250 87 299 -192
2020-10-06 09:59:06 GMT 48.921421 2.946938 4,250 88 299 -192
2020-10-06 09:59:01 GMT 48.921280 2.938554 4,275 89 299 -128
2020-10-06 09:58:58 GMT 48.921204 2.931941 4,275 89 298 -64
2020-10-06 09:58:55 GMT 48.921158 2.925462 4,275 89 299 -64
2020-10-06 09:58:52 GMT 48.921112 2.919617 4,275 89 301 -192
2020-10-06 09:58:49 GMT 48.921047 2.914268 4,275 89 302 -256
2020-10-06 09:58:45 GMT 48.920956 2.904294 4,325 89 304 -704
2020-10-06 09:58:40 GMT 48.920860 2.893163 4,400 89 305 -1216
2020-10-06 09:58:37 GMT 48.920815 2.887814 4,500 89 305 -1344
2020-10-06 09:58:34 GMT 48.920769 2.880514 4,575 89 306 -1280
2020-10-06 09:58:30 GMT 48.920654 2.871868 4,625 89 308 -768
2020-10-06 09:58:27 GMT 48.920609 2.865601 4,650 89 308 -832
2020-10-06 09:58:24 GMT 48.920563 2.859967 4,675 89 309 -832
2020-10-06 09:58:21 GMT 48.920444 2.844736 4,800 89 309 -1280
2020-10-06 09:58:18 GMT 48.920444 2.844736 4,825 89 309 -1408
2020-10-06 09:58:14 GMT 48.920380 2.838276 4,875 89 308 -1600
2020-10-06 09:58:10 GMT 48.920303 2.829991 4,975 89 307 -1792
2020-10-06 09:58:07 GMT 48.920242 2.823416 5,100 89 306 -1536
2020-10-06 09:58:04 GMT 48.920212 2.816692 5,150 89 306 -1408
2020-10-06 09:58:00 GMT 48.920105 2.808415 5,250 89 306 -1088
2020-10-06 09:57:57 GMT 48.920059 2.801725 5,300 89 307 -768
2020-10-06 09:57:54 GMT 48.919968 2.795105 5,325 89 308 -1088
2020-10-06 09:57:50 GMT 48.919792 2.777662 5,475 89 308 -1472
2020-10-06 09:57:46 GMT 48.919792 2.777662 5,500 89 308 -1664
2020-10-06 09:57:43 GMT 48.919746 2.772458 5,575 89 308 -1792
2020-10-06 09:57:40 GMT 48.919693 2.764822 5,775 88 307 -2304
2020-10-06 09:57:37 GMT 48.919601 2.758132 5,900 89 306 -2560
2020-10-06 09:57:33 GMT 48.919510 2.750596 5,975 89 306 -2752
2020-10-06 09:57:30 GMT 48.919418 2.742920 6,175 89 306 -2752
2020-10-06 09:57:27 GMT 48.919373 2.736230 6,275 89 306 -2688
2020-10-06 09:57:23 GMT 48.919277 2.729018 6,900 89 307 -2752
2020-10-06 09:57:20 GMT 48.919235 2.721652 6,625 89 307 -2688
2020-10-06 09:57:17 GMT 48.919140 2.714852 6,675 89 307 -2752
2020-10-06 09:57:14 GMT 48.919098 2.706581 6,900 89 308 -2624
2020-10-06 09:57:10 GMT 48.918999 2.693530 7,125 89 309 -2240
2020-10-06 09:57:07 GMT 48.918961 2.685805 7,225 89 309 -2304
2020-10-06 09:57:03 GMT 48.918961 2.685805 7,275 88 309 -2368
2020-10-06 09:57:00 GMT 48.918861 2.677628 7,375 88 309 -2560
2020-10-06 09:56:57 GMT 48.918720 2.671340 7,575 87 308 -2816
2020-10-06 09:56:53 GMT 48.918488 2.663823 7,725 86 308 -2752
2020-10-06 09:56:49 GMT 48.917999 2.653550 7,950 84 308 -2688
2020-10-06 09:56:46 GMT 48.917770 2.649254 8,025 84 308 -2688
2020-10-06 09:56:43 GMT 48.917324 2.642284 8,525 84 309 -2368
2020-10-06 09:56:38 GMT 48.916626 2.631298 8,375 84 311 -2176
2020-10-06 09:56:34 GMT 48.916122 2.622915 8,650 84 313 -2176
2020-10-06 09:56:31 GMT 48.915573 2.614183 8,650 84 315 -2240
2020-10-06 09:56:28 GMT 48.915276 2.609903 8,725 84 315 -2240
2020-10-06 09:56:25 GMT 48.914810 2.602170 8,850 84 317 -2176
2020-10-06 09:56:22 GMT 48.913971 2.589182 9,025 84 319 -2048
2020-10-06 09:56:19 GMT 48.913971 2.589182 9,100 84 321 -1984
2020-10-06 09:56:16 GMT 48.913601 2.583233 9,150 84 322 -1984
2020-10-06 09:56:13 GMT 48.912483 2.564946 9,325 84 325 -2432
2020-10-06 09:56:09 GMT 48.912483 2.564946 9,475 84 325 -2816
2020-10-06 09:56:06 GMT 48.912251 2.560826 9,550 84 325 -2944
2020-10-06 09:56:02 GMT 48.911591 2.549603 9,825 84 324 -3136
2020-10-06 09:55:59 GMT 48.911270 2.544925 9,875 84 324 -3136
2020-10-06 09:55:56 GMT 48.910812 2.537842 10,000 84 324 -3136
2020-10-06 09:55:52 GMT 48.910156 2.526855 10,300 84 324 -2432
2020-10-06 09:55:48 GMT 48.909595 2.518471 10,450 84 324 -2176
2020-10-06 09:55:44 GMT 48.909119 2.510446 10,500 84 324 -2112
2020-10-06 09:55:41 GMT 48.908619 2.502353 10,725 84 325 -2048
2020-10-06 09:55:38 GMT 48.908154 2.495559 10,850 84 326 -1920
2020-10-06 09:55:35 GMT 48.907242 2.481079 10,925 84 326 -1920
2020-10-06 09:55:32 GMT 48.907242 2.481079 11,000 84 327 -1920
2020-10-06 09:55:29 GMT 48.906784 2.474037 11,100 84 329 -1856
2020-10-06 09:55:26 GMT 48.906429 2.468165 11,175 84 330 -1792
2020-10-06 09:55:22 GMT 48.905918 2.459853 11,250 84 331 -1728
2020-10-06 09:55:19 GMT 48.905453 2.452698 11,400 84 334 -1408
2020-10-06 09:55:16 GMT 48.904953 2.444881 11,450 84 335 -1344
2020-10-06 09:55:13 GMT 48.904522 2.437953 11,475 84 337 -1152
2020-10-06 09:55:10 GMT 48.904083 2.431711 11,550 84 341 -1024
2020-10-06 09:55:06 GMT 48.903397 2.421006 11,600 84 343 -1152
2020-10-06 09:55:02 GMT 48.902710 2.410654 11,725 84 347 -1344
2020-10-06 09:54:59 GMT 48.902382 2.405644 11,775 84 348 -1344
2020-10-06 09:54:56 GMT 48.901821 2.396899 11,850 84 352 -1088
2020-10-06 09:54:53 GMT 48.901356 2.390032 11,875 84 353 -1024
2020-10-06 09:54:50 GMT 48.900890 2.382877 11,975 84 362 -896
2020-10-06 09:54:47 GMT 48.899914 2.367843 12,025 84 362 -896
2020-10-06 09:54:44 GMT 48.899914 2.367843 12,050 84 364 -960
2020-10-06 09:54:41 GMT 48.899368 2.359877 12,075 84 366 -1088
2020-10-06 09:54:38 GMT 48.898956 2.353187 12,125 84 368 -1216
2020-10-06 09:54:35 GMT 48.898472 2.346087 12,250 84 376 -1344
2020-10-06 09:54:32 GMT 48.897858 2.336567 12,350 84 382 -1344
2020-10-06 09:54:29 GMT 48.897354 2.328523 12,425 84 385 -1408
2020-10-06 09:54:26 GMT 48.896793 2.319705 12,450 84 387 -1536
2020-10-06 09:54:22 GMT 48.896164 2.310368 12,525 84 392 -1664
2020-10-06 09:54:19 GMT 48.895771 2.303660 12,575 84 395 -1664
2020-10-06 09:54:16 GMT 48.895119 2.293974 12,700 84 399 -1536
2020-10-06 09:54:13 GMT 48.894608 2.285590 12,800 84 402 -1408
2020-10-06 09:54:10 GMT 48.893581 2.270122 12,950 84 406 -512
2020-10-06 09:54:04 GMT 48.892868 2.258676 12,950 84 406 -704
2020-10-06 09:54:01 GMT 48.892319 2.250155 13,000 84 408 64
2020-10-06 09:53:58 GMT 48.891861 2.243452 13,000 84 408 0
2020-10-06 09:53:55 GMT 48.891300 2.234923 13,000 84 408 -128
2020-10-06 09:53:51 GMT 48.890556 2.223575 13,000 84 408 0
2020-10-06 09:53:48 GMT 48.889938 2.214590 13,000 84 408 0
2020-10-06 09:53:45 GMT 48.889435 2.206914 13,000 84 408 0
2020-10-06 09:53:41 GMT 48.888603 2.194880 13,000 84 408 0
2020-10-06 09:53:38 GMT 48.888042 2.186062 13,000 84 408 64
2020-10-06 09:53:35 GMT 48.887421 2.177054 13,000 84 408 0
2020-10-06 09:53:32 GMT 48.886971 2.170089 13,000 84 408 0
2020-10-06 09:53:29 GMT 48.886318 2.160476 13,000 84 409 0
2020-10-06 09:53:26 GMT 48.885773 2.152334 13,000 84 409 0
2020-10-06 09:53:23 GMT 48.885178 2.143461 13,000 84 409 0
2020-10-06 09:53:20 GMT 48.884506 2.133371 13,000 84 409 0
2020-10-06 09:53:17 GMT 48.883945 2.124770 13,000 84 409 0
2020-10-06 09:53:14 GMT 48.883434 2.117109 13,000 84 409 0
2020-10-06 09:53:11 GMT 48.882935 2.109798 13,000 84 408 -64
2020-10-06 09:53:08 GMT 48.882294 2.100149 13,000 84 408 -64
2020-10-06 09:53:05 GMT 48.881287 2.084515 13,000 84 407 0
2020-10-06 09:53:02 GMT 48.880508 2.072824 13,000 84 407 0
2020-10-06 09:52:59 GMT 48.880508 2.072824 13,000 84 407 -64
2020-10-06 09:52:56 GMT 48.879990 2.065068 13,000 84 407 0
2020-10-06 09:52:53 GMT 48.879501 2.057824 13,000 84 407 0
2020-10-06 09:52:50 GMT 48.878586 2.044725 13,000 84 407 0
2020-10-06 09:52:47 GMT 48.878403 2.041908 13,000 84 407 0
2020-10-06 09:52:44 GMT 48.877850 2.033844 13,000 84 407 64
2020-10-06 09:52:41 GMT 48.877304 2.025710 13,000 84 407 0
2020-10-06 09:52:38 GMT 48.876480 2.014371 13,000 84 408 0
2020-10-06 09:52:35 GMT 48.875984 2.007101 13,000 84 408 0
2020-10-06 09:52:32 GMT 48.875381 1.997994 13,000 84 407 64
2020-10-06 09:52:28 GMT 48.874603 1.986201 13,000 84 408 0
2020-10-06 09:52:23 GMT 48.873753 1.974142 13,000 84 408 0
2020-10-06 09:52:20 GMT 48.873055 1.963878 13,000 84 408 -64
2020-10-06 09:52:17 GMT 48.872261 1.951952 13,000 84 408 -64
2020-10-06 09:52:14 GMT 48.871994 1.947820 13,000 84 407 0
2020-10-06 09:52:11 GMT 48.871490 1.940707 13,000 84 407 0
2020-10-06 09:52:08 GMT 48.870804 1.930777 13,000 84 407 0
2020-10-06 09:52:05 GMT 48.870117 1.920847 13,000 83 411 -1600
2020-10-06 09:52:02 GMT 48.869469 1.911115 13,000 84 407 0
2020-10-06 09:51:58 GMT 48.868881 1.902466 13,000 84 407 0
2020-10-06 09:51:54 GMT 48.868011 1.889648 13,000 84 407 0
2020-10-06 09:51:51 GMT 48.866676 1.869989 13,000 84 407 0
2020-10-06 09:51:47 GMT 48.866676 1.869989 13,000 84 407 0
2020-10-06 09:51:44 GMT 48.866089 1.861619 13,000 84 406 0
2020-10-06 09:51:41 GMT 48.865585 1.854225 13,000 84 406 64
2020-10-06 09:51:37 GMT 48.864861 1.843896 13,000 84 406 0
2020-10-06 09:51:34 GMT 48.864166 1.833590 13,000 84 405 -128
2020-10-06 09:51:31 GMT 48.863617 1.825702 13,000 84 405 -128
2020-10-06 09:51:27 GMT 48.862717 1.812527 13,025 83 404 -192
2020-10-06 09:51:24 GMT 48.862244 1.805631 13,025 83 404 -192
2020-10-06 09:51:21 GMT 48.861649 1.797180 13,050 83 403 -256
2020-10-06 09:51:17 GMT 48.860809 1.785278 13,075 83 403 -512
2020-10-06 09:51:14 GMT 48.860298 1.777978 13,100 83 403 -704
2020-10-06 09:51:11 GMT 48.859680 1.769433 13,150 83 403 -1152
2020-10-06 09:51:07 GMT 48.858856 1.757883 13,275 83 404 -1536
2020-10-06 09:51:04 GMT 48.858109 1.747621 13,350 83 405 -1600
2020-10-06 09:51:01 GMT 48.857597 1.740538 13,400 83 405 -1600
2020-10-06 09:50:57 GMT 48.856934 1.731121 13,525 83 406 -1664
2020-10-06 09:50:54 GMT 48.856201 1.720910 13,575 83 406 -1600
2020-10-06 09:50:51 GMT 48.855595 1.712277 13,675 83 407 -1600
2020-10-06 09:50:47 GMT 48.854942 1.702664 13,750 83 407 -1600
2020-10-06 09:50:44 GMT 48.854279 1.693162 13,875 83 408 -1600
2020-10-06 09:50:41 GMT 48.853642 1.683872 13,950 83 408 -1600
2020-10-06 09:50:37 GMT 48.852859 1.672950 14,050 83 408 -1600
2020-10-06 09:50:34 GMT 48.852310 1.664992 14,150 83 409 -1600
2020-10-06 09:50:31 GMT 48.851578 1.654992 14,200 83 409 -1600
2020-10-06 09:50:26 GMT 48.850430 1.638914 14,350 83 410 -1600
2020-10-06 09:50:23 GMT 48.850021 1.633019 14,425 83 410 -1600
2020-10-06 09:50:20 GMT 48.849472 1.625343 14,550 83 411 -1600
2020-10-06 09:50:17 GMT 48.848831 1.616187 14,575 83 411 -1600
2020-10-06 09:50:13 GMT 48.848007 1.604708 14,675 83 411 -1600
2020-10-06 09:50:10 GMT 48.847218 1.593668 14,750 83 412 -1600
2020-10-06 09:50:06 GMT 48.846519 1.583910 14,900 83 413 -1600
2020-10-06 09:50:03 GMT 48.845901 1.575130 14,950 83 413 -1600
2020-10-06 09:50:00 GMT 48.845402 1.568082 15,075 83 413 -1600
2020-10-06 09:49:57 GMT 48.844658 1.557963 15,125 83 414 -1664
2020-10-06 09:49:54 GMT 48.843933 1.548086 15,275 83 415 -1664
2020-10-06 09:49:50 GMT 48.843292 1.539072 15,375 83 416 -1664
2020-10-06 09:49:47 GMT 48.842468 1.527389 15,400 83 416 -1664
2020-10-06 09:49:43 GMT 48.841118 1.509102 15,500 83 416 -1664
2020-10-06 09:49:40 GMT 48.841118 1.509102 15,625 83 417 -1664
2020-10-06 09:49:37 GMT 48.840374 1.498983 15,675 83 418 -1664
2020-10-06 09:49:34 GMT 48.839951 1.493014 15,725 83 418 -1664
2020-10-06 09:49:31 GMT 48.839256 1.483805 15,875 83 419 -1664
2020-10-06 09:49:28 GMT 48.838604 1.474770 15,900 83 419 -1664
2020-10-06 09:49:25 GMT 48.837254 1.455761 16,075 83 420 -1664
2020-10-06 09:49:22 GMT 48.836414 1.444052 16,150 83 421 -1600
2020-10-06 09:49:19 GMT 48.836414 1.444052 16,175 83 422 -1600
2020-10-06 09:49:16 GMT 48.836090 1.439643 16,225 83 422 -1600
2020-10-06 09:49:12 GMT 48.835144 1.426532 16,350 83 423 -1728
2020-10-06 09:49:08 GMT 48.834045 1.411814 16,425 83 424 -1728
2020-10-06 09:49:04 GMT 48.833530 1.404226 16,575 83 425 -1728
2020-10-06 09:49:01 GMT 48.832809 1.394912 16,650 83 426 -1664
2020-10-06 09:48:57 GMT 48.831715 1.379941 16,825 83 427 -1728
2020-10-06 09:48:54 GMT 48.831390 1.375459 16,975 83 429 -1664
2020-10-06 09:48:51 GMT 48.830643 1.365340 16,925 83 429 -1664
2020-10-06 09:48:44 GMT 48.828503 1.336574 17,575 83 432 -1664
2020-10-06 09:48:41 GMT 48.827545 1.323782 17,675 83 438 -1728
2020-10-06 09:48:38 GMT 48.827545 1.323782 17,325 83 434 -1728
2020-10-06 09:48:33 GMT 48.826500 1.309397 17,575 83 436 -1728
2020-10-06 09:48:30 GMT 48.826080 1.303615 17,525 83 436 -1728
2020-10-06 09:48:27 GMT 48.825439 1.294978 17,600 83 437 -1792
2020-10-06 09:48:24 GMT 48.824360 1.280196 17,750 83 439 -1728
2020-10-06 09:48:21 GMT 48.823753 1.272246 17,825 83 440 -1792
2020-10-06 09:48:18 GMT 48.823196 1.264584 17,900 83 441 -1728
2020-10-06 09:48:14 GMT 48.822144 1.250258 18,025 83 443 -1792
2020-10-06 09:48:11 GMT 48.821659 1.243623 18,075 83 445 -1792
2020-10-06 09:48:08 GMT 48.820679 1.230469 18,200 83 446 -1792
2020-10-06 09:48:05 GMT 48.820358 1.226173 18,300 83 447 -1728
2020-10-06 09:48:01 GMT 48.819305 1.212440 18,375 83 448 -1792
2020-10-06 09:47:58 GMT 48.818726 1.204521 18,450 83 449 -1792
2020-10-06 09:47:55 GMT 48.817936 1.193896 18,550 83 451 -1856
2020-10-06 09:47:52 GMT 48.817245 1.184622 18,625 83 452 -1856
2020-10-06 09:47:49 GMT 48.816513 1.174833 18,725 83 453 -1792
2020-10-06 09:47:45 GMT 48.815598 1.162579 18,900 83 456 -1728
2020-10-06 09:47:42 GMT 48.815002 1.154432 18,950 83 457 -1728
2020-10-06 09:47:39 GMT 48.814224 1.143142 19,175 83 461 -1856
2020-10-06 09:47:36 GMT 48.813515 1.133760 19,125 83 461 -1856
2020-10-06 09:47:33 GMT 48.812862 1.124509 19,275 84 462 -1792
2020-10-06 09:47:30 GMT 48.812210 1.114823 19,275 84 462 -1792
2020-10-06 09:47:27 GMT 48.811325 1.101958 19,400 84 464 -1600
2020-10-06 09:47:21 GMT 48.810013 1.083069 19,550 83 465 -1792
2020-10-06 09:47:18 GMT 48.809647 1.077576 19,575 83 465 -1792
2020-10-06 09:47:15 GMT 48.807926 1.054398 19,925 83 466 -2752
2020-10-06 09:47:12 GMT 48.807926 1.054398 19,975 83 464 -3264
2020-10-06 09:47:09 GMT 48.805969 1.030185 20,225 82 463 -2944
2020-10-06 09:47:04 GMT 48.805969 1.030185 20,325 82 464 -2624
2020-10-06 09:47:01 GMT 48.805161 1.021024 20,475 82 465 -2048
2020-10-06 09:46:58 GMT 48.804382 1.012362 20,650 82 467 -1920
2020-10-06 09:46:54 GMT 48.803040 0.997949 21,400 82 467 -1856
2020-10-06 09:46:51 GMT 48.802139 0.988136 20,775 82 467 -1856
2020-10-06 09:46:48 GMT 48.801365 0.979518 20,875 82 468 -1856
2020-10-06 09:46:44 GMT 48.800152 0.966580 21,275 81 470 -1728
2020-10-06 09:46:41 GMT 48.799129 0.955521 21,075 81 471 -1728
2020-10-06 09:46:38 GMT 48.797562 0.938697 21,200 81 472 -1728
2020-10-06 09:46:35 GMT 48.797562 0.938697 21,225 81 472 -1728
2020-10-06 09:46:32 GMT 48.796196 0.924442 21,375 81 474 -1728
2020-10-06 09:46:29 GMT 48.795589 0.917864 21,375 81 474 -1728
2020-10-06 09:46:26 GMT 48.794357 0.904541 21,575 81 476 -1792
2020-10-06 09:46:23 GMT 48.793728 0.897771 21,600 81 477 -1728
2020-10-06 09:46:20 GMT 48.792519 0.885194 21,675 81 478 -1728
2020-10-06 09:46:17 GMT 48.791656 0.875737 21,775 81 479 -1664
2020-10-06 09:46:13 GMT 48.790512 0.863835 21,900 81 480 -1728
2020-10-06 09:46:10 GMT 48.789585 0.853970 21,950 81 481 -1728
2020-10-06 09:46:07 GMT 48.788773 0.845173 22,050 81 483 -1728
2020-10-06 09:46:03 GMT 48.787445 0.830735 22,300 81 485 -1728
2020-10-06 09:46:00 GMT 48.786438 0.820312 22,225 81 485 -1856
2020-10-06 09:45:57 GMT 48.785522 0.810242 22,300 81 486 -1920
2020-10-06 09:45:54 GMT 48.784836 0.802847 22,425 81 487 -1856
2020-10-06 09:45:51 GMT 48.783485 0.788847 22,550 81 489 -1664
2020-10-06 09:45:48 GMT 48.782867 0.781860 22,600 81 490 -1600
2020-10-06 09:45:45 GMT 48.781448 0.767282 22,725 81 492 -1664
2020-10-06 09:45:42 GMT 48.780945 0.761860 22,750 81 494 -1920
2020-10-06 09:45:39 GMT 48.779530 0.746637 22,900 81 493 -1920
2020-10-06 09:45:36 GMT 48.779018 0.741505 22,950 81 494 -1920
2020-10-06 09:45:33 GMT 48.777668 0.727483 23,100 81 496 -1856
2020-10-06 09:45:30 GMT 48.776550 0.715485 23,175 81 497 -1856
2020-10-06 09:45:26 GMT 48.775681 0.706717 23,225 81 497 -1792
2020-10-06 09:45:23 GMT 48.774399 0.693265 23,400 81 500 -1728
2020-10-06 09:45:20 GMT 48.773430 0.683393 23,450 81 500 -1792
2020-10-06 09:45:15 GMT 48.772064 0.669039 23,550 81 501 -1600
2020-10-06 09:45:12 GMT 48.770683 0.654626 23,700 81 502 -1984
2020-10-06 09:45:09 GMT 48.769821 0.645447 24,575 81 503 -2112
2020-10-06 09:45:06 GMT 48.768860 0.635728 23,950 81 503 -1920
2020-10-06 09:45:03 GMT 48.768032 0.626799 24,000 81 504 -1792
2020-10-06 09:45:00 GMT 48.766846 0.614460 24,075 81 504 -1536
2020-10-06 09:44:57 GMT 48.765472 0.600516 24,200 81 505 -1728
2020-10-06 09:44:53 GMT 48.764214 0.587407 24,225 81 507 -1984
2020-10-06 09:44:50 GMT 48.763470 0.579673 24,375 81 508 -1664
2020-10-06 09:44:47 GMT 48.761581 0.559880 24,825 81 509 -1536
2020-10-06 09:44:44 GMT 48.761581 0.559880 24,575 81 509 -1536
2020-10-06 09:44:41 GMT 48.760391 0.547485 24,675 81 511 -2112
2020-10-06 09:44:38 GMT 48.759373 0.536740 24,675 81 511 -2112
2020-10-06 09:44:35 GMT 48.758377 0.526710 24,775 81 511 -2112
2020-10-06 09:44:32 GMT 48.757370 0.516213 25,025 81 513 -2048
2020-10-06 09:44:29 GMT 48.756500 0.507202 24,975 81 512 -1664
2020-10-06 09:44:26 GMT 48.755230 0.494312 25,100 81 513 -2112
2020-10-06 09:44:22 GMT 48.753925 0.480796 25,275 81 514 -1728
2020-10-06 09:44:19 GMT 48.753090 0.471906 25,425 81 514 -1536
2020-10-06 09:44:16 GMT 48.751972 0.460558 25,450 81 515 -1792
2020-10-06 09:44:12 GMT 48.750458 0.445087 25,500 81 516 -1920
2020-10-06 09:44:09 GMT 48.748478 0.424564 25,625 81 516 -1856
2020-10-06 09:44:06 GMT 48.748478 0.424564 26,000 81 517 -1728
2020-10-06 09:44:03 GMT 48.747456 0.413867 25,800 81 517 -1920
2020-10-06 09:43:59 GMT 48.745605 0.395015 25,975 81 518 -2048
2020-10-06 09:43:56 GMT 48.744873 0.387479 26,025 81 519 -1856
2020-10-06 09:43:52 GMT 48.743217 0.370499 26,200 81 520 -1920
2020-10-06 09:43:49 GMT 48.742519 0.363272 26,250 81 521 -1984
2020-10-06 09:43:45 GMT 48.741165 0.349802 26,625 81 523 -1984
2020-10-06 09:43:42 GMT 48.739838 0.336421 26,475 81 522 -1792
2020-10-06 09:43:39 GMT 48.739170 0.329373 26,675 81 522 -1920
2020-10-06 09:43:36 GMT 48.737961 0.317265 26,725 81 523 -1984
2020-10-06 09:43:33 GMT 48.735306 0.290343 27,700 81 531 -1920
2020-10-06 09:43:29 GMT 48.735306 0.290343 26,950 81 525 -1920
2020-10-06 09:43:26 GMT 48.733212 0.269671 27,000 81 525 -1920
2020-10-06 09:43:23 GMT 48.733212 0.269671 27,125 81 526 -1856
2020-10-06 09:43:19 GMT 48.730728 0.244728 27,275 81 527 -1856
2020-10-06 09:43:16 GMT 48.730728 0.244728 27,325 81 527 -1856
2020-10-06 09:43:13 GMT 48.729485 0.232158 27,375 81 528 -1856
2020-10-06 09:43:10 GMT 48.728439 0.221417 27,475 81 528 -1856
2020-10-06 09:43:07 GMT 48.727249 0.209726 27,575 81 529 -1920
2020-10-06 09:43:04 GMT 48.726273 0.199995 27,800 81 530 -1856
2020-10-06 09:43:01 GMT 48.725109 0.188285 27,750 81 530 -1856
2020-10-06 09:42:58 GMT 48.724178 0.178745 27,925 81 535 -1920
2020-10-06 09:42:55 GMT 48.723038 0.167189 27,975 81 532 -1920
2020-10-06 09:42:52 GMT 48.721939 0.156203 28,000 81 532 -1920
2020-10-06 09:42:49 GMT 48.720749 0.144372 28,200 81 534 -1920
2020-10-06 09:42:46 GMT 48.719711 0.133932 28,275 81 534 -1920
2020-10-06 09:42:43 GMT 48.718872 0.125568 28,275 81 534 -1920
2020-10-06 09:42:40 GMT 48.717289 0.109936 28,475 81 536 -1984
2020-10-06 09:42:37 GMT 48.716400 0.100849 28,525 81 536 -1920
2020-10-06 09:42:34 GMT 48.715256 0.089792 28,625 81 536 -1920
2020-10-06 09:42:31 GMT 48.713890 0.075892 28,750 81 537 -1920
2020-10-06 09:42:28 GMT 48.713104 0.068312 28,850 81 538 -1984
2020-10-06 09:42:25 GMT 48.712051 0.057889 28,950 81 538 -1984
2020-10-06 09:42:22 GMT 48.710957 0.046981 29,000 81 538 -1920
2020-10-06 09:42:19 GMT 48.708298 0.020353 29,225 81 540 -1920
2020-10-06 09:42:16 GMT 48.708298 0.020353 29,275 81 540 -1920
2020-10-06 09:42:13 GMT 48.707420 0.011637 29,300 81 540 -1984
2020-10-06 09:42:09 GMT 48.704533 -0.016769 29,575 81 541 -1984
2020-10-06 09:42:06 GMT 48.704533 -0.016769 29,625 81 542 -1984
2020-10-06 09:42:03 GMT 48.703629 -0.025846 29,650 81 542 -1984
2020-10-06 09:42:00 GMT 48.700996 -0.051535 29,800 81 543 -1984
2020-10-06 09:41:57 GMT 48.700996 -0.051535 29,850 81 543 -1920
2020-10-06 09:41:54 GMT 48.699875 -0.062538 29,925 81 544 -1984
2020-10-06 09:41:51 GMT 48.699272 -0.068737 30,050 81 545 -1984
2020-10-06 09:41:48 GMT 48.697906 -0.082116 30,325 81 545 -1984
2020-10-06 09:41:45 GMT 48.696854 -0.092444 30,250 81 546 -1920
2020-10-06 09:41:42 GMT 48.695663 -0.104300 30,450 81 547 -2048
2020-10-06 09:41:39 GMT 48.694481 -0.115790 30,425 81 547 -1984
2020-10-06 09:41:36 GMT 48.693466 -0.125779 30,475 81 547 -2112
2020-10-06 09:41:33 GMT 48.691872 -0.141088 30,650 81 548 -2368
2020-10-06 09:41:29 GMT 48.690521 -0.154315 30,775 81 548 -2368
2020-10-06 09:41:26 GMT 48.689358 -0.165662 30,850 81 548 -2368
2020-10-06 09:41:23 GMT 48.688431 -0.174866 31,275 81 548 -2432
2020-10-06 09:41:20 GMT 48.687057 -0.188106 31,150 81 548 -2432
2020-10-06 09:41:17 GMT 48.684723 -0.211205 31,400 81 548 -2368
2020-10-06 09:41:11 GMT 48.683586 -0.222329 31,550 81 548 -2368
2020-10-06 09:41:08 GMT 48.682468 -0.233315 31,625 81 548 -2368
2020-10-06 09:41:05 GMT 48.681244 -0.244868 31,700 81 548 -2368
2020-10-06 09:41:02 GMT 48.680096 -0.256010 31,825 81 548 -2368
2020-10-06 09:40:59 GMT 48.679070 -0.265840 32,025 80 548 -2368
2020-10-06 09:40:56 GMT 48.677860 -0.277549 32,100 80 548 -2432
2020-10-06 09:40:53 GMT 48.676556 -0.289981 32,200 80 548 -2432
2020-10-06 09:40:49 GMT 48.675068 -0.304003 32,425 80 548 -2368
2020-10-06 09:40:46 GMT 48.673435 -0.319543 32,525 80 548 -2368
2020-10-06 09:40:42 GMT 48.672226 -0.330891 32,575 80 548 -2368
2020-10-06 09:40:39 GMT 48.670670 -0.345788 32,850 80 548 -2432
2020-10-06 09:40:36 GMT 48.669525 -0.356422 33,150 80 548 -2432
2020-10-06 09:40:33 GMT 48.668655 -0.364732 32,975 80 548 -2368
2020-10-06 09:40:29 GMT 48.666870 -0.381704 33,125 80 548 -2432
2020-10-06 09:40:26 GMT 48.665897 -0.390954 33,225 80 548 -2432
2020-10-06 09:40:22 GMT 48.663803 -0.410790 33,500 80 548 -2432
2020-10-06 09:40:19 GMT 48.663025 -0.418326 33,525 81 548 -2432
2020-10-06 09:40:16 GMT 48.661705 -0.430997 33,700 80 548 -2368
2020-10-06 09:40:13 GMT 48.660915 -0.438586 34,600 80 548 -2304
2020-10-06 09:40:09 GMT 48.658867 -0.458246 34,000 80 548 -2304
2020-10-06 09:40:06 GMT 48.657936 -0.466919 34,175 80 548 -2304
2020-10-06 09:40:02 GMT 48.656166 -0.483543 34,225 80 548 -2304
2020-10-06 09:39:58 GMT 48.654678 -0.497493 34,400 80 549 -2304
2020-10-06 09:39:55 GMT 48.653515 -0.508479 34,575 80 549 -2304
2020-10-06 09:39:52 GMT 48.652534 -0.517586 34,675 80 549 -2240
2020-10-06 09:39:49 GMT 48.650940 -0.532485 34,750 80 547 -2240
2020-10-06 09:39:46 GMT 48.649750 -0.543401 34,850 80 547 -2048
2020-10-06 09:39:43 GMT 48.648285 -0.557345 35,100 80 546 -1408
2020-10-06 09:39:38 GMT 48.645508 -0.583504 35,100 80 545 -1280
2020-10-06 09:39:35 GMT 48.645508 -0.583504 35,175 80 545 -1088
2020-10-06 09:39:32 GMT 48.644348 -0.594529 35,225 80 544 -1088
2020-10-06 09:39:29 GMT 48.642853 -0.608657 35,275 80 544 -1792
2020-10-06 09:39:26 GMT 48.641602 -0.620446 35,350 80 544 -2048
2020-10-06 09:39:23 GMT 48.640594 -0.629812 35,425 80 544 -2048
2020-10-06 09:39:20 GMT 48.639595 -0.638942 35,575 80 543 -1856
2020-10-06 09:39:17 GMT 48.637825 -0.655710 35,600 80 542 -1664
2020-10-06 09:39:14 GMT 48.637218 -0.661348 35,675 80 542 -1600
2020-10-06 09:39:11 GMT 48.635788 -0.674180 35,825 80 542 -1152
2020-10-06 09:39:08 GMT 48.634567 -0.685561 35,850 80 542 -1024
2020-10-06 09:39:05 GMT 48.633133 -0.698829 35,875 80 542 -960
2020-10-06 09:39:02 GMT 48.632378 -0.706088 35,925 80 545 -1024
2020-10-06 09:38:58 GMT 48.630569 -0.722281 35,975 80 543 -1024
2020-10-06 09:38:55 GMT 48.629379 -0.733478 36,025 80 544 -960
2020-10-06 09:38:52 GMT 48.628326 -0.743023 36,125 80 544 -960
2020-10-06 09:38:49 GMT 48.626698 -0.758418 36,150 80 544 -960
2020-10-06 09:38:46 GMT 48.625809 -0.766437 36,225 80 545 -960
2020-10-06 09:38:43 GMT 48.624416 -0.779379 36,275 80 544 -960
2020-10-06 09:38:40 GMT 48.623207 -0.790582 36,300 80 544 -960
2020-10-06 09:38:37 GMT 48.621964 -0.802002 36,350 80 544 -960
2020-10-06 09:38:34 GMT 48.620739 -0.813422 36,375 80 544 -960
2020-10-06 09:38:31 GMT 48.619904 -0.820939 36,575 80 546 -960
2020-10-06 09:38:28 GMT 48.618393 -0.834961 36,500 80 546 0
2020-10-06 09:38:25 GMT 48.616924 -0.848260 36,550 80 546 -1024
2020-10-06 09:38:22 GMT 48.615875 -0.858201 36,575 80 546 -1024
2020-10-06 09:38:19 GMT 48.614777 -0.867920 36,700 80 546 -1024
2020-10-06 09:38:16 GMT 48.613541 -0.879188 36,700 80 546 -896
2020-10-06 09:38:13 GMT 48.612076 -0.892710 36,725 80 546 -960
2020-10-06 09:38:10 GMT 48.611115 -0.901724 36,775 80 546 -960
2020-10-06 09:38:07 GMT 48.609707 -0.914323 36,825 80 546 -960
2020-10-06 09:38:04 GMT 48.608185 -0.928345 36,875 80 546 -960
2020-10-06 09:38:01 GMT 48.606949 -0.939613 36,900 80 545 -960
2020-10-06 09:37:57 GMT 48.605347 -0.953839 36,975 80 546 -512
2020-10-06 09:37:53 GMT 48.603882 -0.967008 37,000 80 546 64
2020-10-06 09:37:50 GMT 48.602829 -0.976727 37,000 80 546 0
2020-10-06 09:37:46 GMT 48.601002 -0.993034 37,000 80 546 0
2020-10-06 09:37:43 GMT 48.599808 -1.003700 37,000 80 546 0
2020-10-06 09:37:40 GMT 48.596649 -1.032222 37,000 80 546 0
2020-10-06 09:37:36 GMT 48.596649 -1.032222 37,000 80 546 0
2020-10-06 09:37:32 GMT 48.595135 -1.045942 37,000 80 547 0
2020-10-06 09:37:26 GMT 48.592716 -1.067698 37,000 80 547 0
2020-10-06 09:37:23 GMT 48.590332 -1.089337 37,000 80 547 0
2020-10-06 09:37:20 GMT 48.590332 -1.089337 37,000 80 547 64
2020-10-06 09:37:17 GMT 48.588989 -1.101163 37,000 80 547 0
2020-10-06 09:37:14 GMT 48.587769 -1.112225 37,000 80 547 0
2020-10-06 09:37:11 GMT 48.585205 -1.135183 37,000 80 547 0
2020-10-06 09:37:08 GMT 48.585205 -1.135183 37,000 80 548 0
2020-10-06 09:37:05 GMT 48.584015 -1.146099 37,000 80 548 0
2020-10-06 09:37:02 GMT 48.582321 -1.161170 37,000 80 547 -128
2020-10-06 09:36:59 GMT 48.580193 -1.180163 37,000 80 547 -64
2020-10-06 09:36:53 GMT 48.579121 -1.189559 37,000 80 547 0
2020-10-06 09:36:50 GMT 48.577492 -1.203798 37,025 80 547 -64
2020-10-06 09:36:46 GMT 48.575409 -1.222440 37,025 80 547 -64
2020-10-06 09:36:42 GMT 48.574265 -1.232582 37,025 80 547 -64
2020-10-06 09:36:38 GMT 48.572514 -1.248177 37,025 80 547 -64
2020-10-06 09:36:35 GMT 48.571060 -1.261104 37,000 80 547 0
2020-10-06 09:36:32 GMT 48.569778 -1.272442 37,025 80 547 -64
2020-10-06 09:36:29 GMT 48.568909 -1.279907 37,000 80 548 -64
2020-10-06 09:36:26 GMT 48.567436 -1.293279 37,000 80 548 -64
2020-10-06 09:36:23 GMT 48.566116 -1.304767 37,000 80 548 64
2020-10-06 09:36:20 GMT 48.564739 -1.316986 37,000 80 549 64
2020-10-06 09:36:17 GMT 48.563599 -1.326951 37,000 80 550 64
2020-10-06 09:36:14 GMT 48.562271 -1.338525 37,000 80 550 64
2020-10-06 09:36:11 GMT 48.560966 -1.350162 37,000 80 550 0
2020-10-06 09:36:08 GMT 48.559895 -1.359197 37,000 80 550 0
2020-10-06 09:36:05 GMT 48.558311 -1.373219 37,000 80 550 0
2020-10-06 09:36:02 GMT 48.556915 -1.385651 37,000 80 551 0
2020-10-06 09:35:59 GMT 48.555984 -1.393601 37,000 80 551 64
2020-10-06 09:35:56 GMT 48.554718 -1.404771 37,000 80 552 64
2020-10-06 09:35:53 GMT 48.553379 -1.416658 37,000 80 552 0
2020-10-06 09:35:50 GMT 48.551697 -1.431251 37,000 80 552 0
2020-10-06 09:35:47 GMT 48.550632 -1.440510 37,000 80 552 0
2020-10-06 09:35:44 GMT 48.549316 -1.452026 37,000 80 552 0
2020-10-06 09:35:41 GMT 48.547977 -1.463567 37,000 80 552 0
2020-10-06 09:35:38 GMT 48.546955 -1.472602 37,000 80 551 0
2020-10-06 09:35:35 GMT 48.543961 -1.498507 37,000 80 551 64
2020-10-06 09:35:32 GMT 48.543961 -1.498507 37,000 80 551 64
2020-10-06 09:35:29 GMT 48.542858 -1.507729 37,000 80 551 0
2020-10-06 09:35:26 GMT 48.541695 -1.517993 37,000 80 551 0
2020-10-06 09:35:23 GMT 48.540161 -1.531396 37,000 80 551 0
2020-10-06 09:35:20 GMT 48.539227 -1.539459 37,000 80 551 64
2020-10-06 09:35:17 GMT 48.537369 -1.555551 37,000 80 550 64
2020-10-06 09:35:14 GMT 48.536247 -1.565118 37,000 80 550 -64
2020-10-06 09:35:11 GMT 48.534576 -1.579637 37,000 80 550 0
2020-10-06 09:35:06 GMT 48.532837 -1.594356 37,000 80 550 64
2020-10-06 09:35:03 GMT 48.531406 -1.606967 37,000 80 550 64
2020-10-06 09:34:59 GMT 48.530010 -1.619038 37,000 80 550 0
2020-10-06 09:34:56 GMT 48.528534 -1.631681 37,000 80 550 0
2020-10-06 09:34:52 GMT 48.526985 -1.645058 37,000 80 550 0
2020-10-06 09:34:49 GMT 48.525585 -1.656767 37,000 80 551 0
2020-10-06 09:34:46 GMT 48.524097 -1.669560 37,000 80 551 0
2020-10-06 09:34:43 GMT 48.521072 -1.695581 37,000 80 551 0
2020-10-06 09:34:40 GMT 48.521072 -1.695581 37,000 79 551 -64
2020-10-06 09:34:37 GMT 48.519955 -1.705049 37,000 79 554 0
2020-10-06 09:34:34 GMT 48.518372 -1.718565 37,000 80 551 -64
2020-10-06 09:34:31 GMT 48.517208 -1.728757 37,000 80 551 -64
2020-10-06 09:34:25 GMT 48.515030 -1.747108 37,000 80 551 0
2020-10-06 09:34:22 GMT 48.513065 -1.764245 37,000 79 552 0
2020-10-06 09:34:19 GMT 48.512135 -1.772196 37,000 79 552 0
2020-10-06 09:34:16 GMT 48.510738 -1.783905 37,000 79 552 0
2020-10-06 09:34:13 GMT 48.509491 -1.794645 37,000 79 557 0
2020-10-06 09:34:10 GMT 48.507992 -1.807396 37,000 79 553 0
2020-10-06 09:34:07 GMT 48.506828 -1.817225 37,000 79 553 0
2020-10-06 09:34:04 GMT 48.505234 -1.830632 37,000 79 554 0
2020-10-06 09:34:01 GMT 48.504128 -1.839921 37,000 79 555 0
2020-10-06 09:33:58 GMT 48.502670 -1.852323 37,000 79 555 0
2020-10-06 09:33:55 GMT 48.501518 -1.861966 37,000 79 556 0
2020-10-06 09:33:52 GMT 48.500015 -1.874718 37,000 79 556 0
2020-10-06 09:33:49 GMT 48.498680 -1.885962 37,000 79 556 0
2020-10-06 09:33:46 GMT 48.496773 -1.901936 37,000 79 557 0
2020-10-06 09:33:43 GMT 48.495667 -1.911269 37,000 79 557 0
2020-10-06 09:33:40 GMT 48.494396 -1.922174 37,000 79 557 0
2020-10-06 09:33:37 GMT 48.493279 -1.931353 37,000 79 557 0
2020-10-06 09:33:34 GMT 48.491417 -1.947327 37,000 79 557 0
2020-10-06 09:33:31 GMT 48.490265 -1.956693 37,000 79 557 0
2020-10-06 09:33:28 GMT 48.488953 -1.967565 37,000 79 557 -64
2020-10-06 09:33:24 GMT 48.487415 -1.980575 37,000 79 560 -64
2020-10-06 09:33:21 GMT 48.486065 -1.991995 37,000 79 558 0
2020-10-06 09:33:18 GMT 48.484573 -2.004210 37,000 79 558 0
2020-10-06 09:33:15 GMT 48.483215 -2.015850 37,000 79 558 0
2020-10-06 09:33:12 GMT 48.481735 -2.028279 37,000 79 558 0
2020-10-06 09:33:09 GMT 48.479416 -2.047542 37,000 79 558 64
2020-10-06 09:33:03 GMT 48.477722 -2.062049 37,000 79 558 0
2020-10-06 09:33:00 GMT 48.476242 -2.074103 37,000 79 558 -64
2020-10-06 09:32:57 GMT 48.475170 -2.083282 37,000 79 558 0
2020-10-06 09:32:54 GMT 48.472378 -2.106628 37,000 79 560 64
2020-10-06 09:32:51 GMT 48.472378 -2.106628 37,000 79 560 0
2020-10-06 09:32:48 GMT 48.471027 -2.117687 37,000 79 560 -64
2020-10-06 09:32:45 GMT 48.468018 -2.142757 37,000 79 560 64
2020-10-06 09:32:42 GMT 48.468018 -2.142757 37,000 79 560 256
2020-10-06 09:32:39 GMT 48.466419 -2.155995 37,000 79 560 64
2020-10-06 09:32:35 GMT 48.464859 -2.169236 37,000 79 560 64
2020-10-06 09:32:32 GMT 48.463486 -2.180716 37,000 79 560 64
2020-10-06 09:32:28 GMT 48.460228 -2.207746 37,000 79 560 192
2020-10-06 09:32:25 GMT 48.460228 -2.207746 37,000 79 560 192
2020-10-06 09:32:22 GMT 48.458679 -2.220154 37,000 79 560 64
2020-10-06 09:32:18 GMT 48.457062 -2.233333 37,000 79 561 64
2020-10-06 09:32:15 GMT 48.455898 -2.242512 37,000 84 567 -64
2020-10-06 09:32:12 GMT 48.454193 -2.256071 37,000 79 561 64
2020-10-06 09:32:09 GMT 48.452778 -2.267737 37,000 79 560 -64
2020-10-06 09:32:06 GMT 48.451584 -2.277550 37,000 81 562 -64
2020-10-06 09:32:03 GMT 48.449940 -2.291950 37,000 80 562 -64
2020-10-06 09:32:00 GMT 48.448608 -2.304101 37,000 81 564 0
2020-10-06 09:31:57 GMT 48.447601 -2.313749 37,000 81 564 0
2020-10-06 09:31:54 GMT 48.446404 -2.325994 37,000 81 564 0
2020-10-06 09:31:51 GMT 48.445358 -2.337412 37,000 82 565 0
2020-10-06 09:31:47 GMT 48.444168 -2.351652 37,000 83 566 0
2020-10-06 09:31:44 GMT 48.443115 -2.364737 37,000 84 567 -64
2020-10-06 09:31:41 GMT 48.442165 -2.378251 37,000 84 567 -64
2020-10-06 09:31:38 GMT 48.441608 -2.386491 37,000 85 569 64
2020-10-06 09:31:35 GMT 48.440598 -2.404386 37,000 85 569 -64
2020-10-06 09:31:31 GMT 48.439980 -2.415619 37,000 85 569 -64
2020-10-06 09:31:28 GMT 48.438675 -2.443402 37,000 85 569 0
2020-10-06 09:31:24 GMT 48.438675 -2.443402 37,000 85 569 0
2020-10-06 09:31:21 GMT 48.438068 -2.455011 37,000 85 569 0
2020-10-06 09:31:18 GMT 48.437557 -2.465708 37,000 85 569 64
2020-10-06 09:31:15 GMT 48.436981 -2.478051 37,000 85 569 0
2020-10-06 09:31:12 GMT 48.436203 -2.493826 37,000 85 569 64
2020-10-06 09:31:09 GMT 48.434998 -2.518905 37,000 85 569 -64
2020-10-06 09:31:05 GMT 48.434998 -2.518905 37,000 85 569 0
2020-10-06 09:31:02 GMT 48.434437 -2.529530 37,000 85 569 0
2020-10-06 09:30:59 GMT 48.433777 -2.543194 37,000 85 569 0
2020-10-06 09:30:53 GMT 48.432632 -2.566434 37,000 85 569 0
2020-10-06 09:30:50 GMT 48.431946 -2.580238 37,000 85 569 0
2020-10-06 09:30:44 GMT 48.430855 -2.601736 37,000 85 569 0
2020-10-06 09:30:41 GMT 48.430294 -2.613517 37,000 85 569 0
2020-10-06 09:30:38 GMT 48.429703 -2.625169 37,000 85 569 0
2020-10-06 09:30:34 GMT 48.428898 -2.641128 37,000 85 569 -64
2020-10-06 09:30:31 GMT 48.428291 -2.653415 37,000 85 569 0
2020-10-06 09:30:28 GMT 48.427689 -2.665196 37,000 85 569 0
2020-10-06 09:30:25 GMT 48.427139 -2.676439 37,000 85 569 -64
2020-10-06 09:30:22 GMT 48.426544 -2.688270 37,000 85 568 64
2020-10-06 09:30:19 GMT 48.425873 -2.701842 37,000 85 568 0
2020-10-06 09:30:15 GMT 48.425125 -2.716008 37,000 85 568 0
2020-10-06 09:30:12 GMT 48.424614 -2.726272 37,000 85 568 0
2020-10-06 09:30:09 GMT 48.423935 -2.739821 37,000 85 568 0
2020-10-06 09:30:06 GMT 48.422195 -2.773831 37,000 85 568 0
2020-10-06 09:30:01 GMT 48.422195 -2.773831 37,000 85 568 0
2020-10-06 09:29:58 GMT 48.421783 -2.781865 37,000 85 568 0
2020-10-06 09:29:53 GMT 48.420731 -2.802288 37,000 85 568 64
2020-10-06 09:29:50 GMT 48.420090 -2.814894 37,000 85 568 0
2020-10-06 09:29:47 GMT 48.419586 -2.824498 37,000 85 568 0
2020-10-06 09:29:43 GMT 48.418671 -2.842853 37,000 85 568 0
2020-10-06 09:29:40 GMT 48.418121 -2.852994 37,000 85 568 0
2020-10-06 09:29:37 GMT 48.416424 -2.885863 37,000 85 567 0
2020-10-06 09:29:33 GMT 48.416424 -2.885863 37,000 85 567 0
2020-10-06 09:29:30 GMT 48.416096 -2.892151 37,000 85 567 0
2020-10-06 09:29:27 GMT 48.415466 -2.904123 37,000 85 567 -64
2020-10-06 09:29:24 GMT 48.414886 -2.915280 37,000 85 566 0
2020-10-06 09:29:21 GMT 48.414097 -2.930603 37,000 85 567 0
2020-10-06 09:29:18 GMT 48.413628 -2.939204 37,000 85 566 0
2020-10-06 09:29:15 GMT 48.412884 -2.952937 37,000 85 566 -64
2020-10-06 09:29:12 GMT 48.412327 -2.963923 37,000 85 566 0
2020-10-06 09:29:09 GMT 48.411621 -2.977084 37,000 85 566 0
2020-10-06 09:29:06 GMT 48.411209 -2.985101 37,000 85 566 0
2020-10-06 09:29:03 GMT 48.410477 -2.999056 37,000 85 566 64
2020-10-06 09:29:00 GMT 48.409813 -3.011410 37,000 85 567 64
2020-10-06 09:28:57 GMT 48.409378 -3.019409 37,000 85 567 -64
2020-10-06 09:28:54 GMT 48.408554 -3.034539 37,000 85 567 0
2020-10-06 09:28:51 GMT 48.408051 -3.044551 37,000 85 567 0
2020-10-06 09:28:48 GMT 48.407391 -3.056512 37,000 85 567 0
2020-10-06 09:28:45 GMT 48.406677 -3.069693 37,000 85 567 0
2020-10-06 09:28:42 GMT 48.405991 -3.083003 37,000 85 567 0
2020-10-06 09:28:36 GMT 48.404297 -3.114413 37,000 85 567 64
2020-10-06 09:28:33 GMT 48.404297 -3.114413 37,000 85 567 0
2020-10-06 09:28:30 GMT 48.403336 -3.131667 37,000 85 567 64
2020-10-06 09:28:26 GMT 48.402782 -3.141728 37,000 85 567 -64
2020-10-06 09:28:23 GMT 48.402145 -3.153640 37,000 85 567 -64
2020-10-06 09:28:20 GMT 48.401245 -3.169556 37,000 85 567 -64
2020-10-06 09:28:17 GMT 48.400734 -3.178952 37,000 85 566 -64
2020-10-06 09:28:14 GMT 48.400223 -3.188348 37,000 85 565 64
2020-10-06 09:28:11 GMT 48.399475 -3.201647 37,000 85 566 0
2020-10-06 09:28:08 GMT 48.398827 -3.214224 37,000 85 566 -64
2020-10-06 09:28:04 GMT 48.398026 -3.228502 37,000 85 565 64
2020-10-06 09:28:01 GMT 48.397289 -3.241979 37,000 85 565 64
2020-10-06 09:27:58 GMT 48.396652 -3.253925 37,000 85 565 64
2020-10-06 09:27:55 GMT 48.395985 -3.265831 37,000 85 565 -64
2020-10-06 09:27:52 GMT 48.395332 -3.277612 37,000 85 564 0
2020-10-06 09:27:49 GMT 48.394730 -3.289138 37,000 85 564 64
2020-10-06 09:27:46 GMT 48.394089 -3.300054 37,000 85 565 0
2020-10-06 09:27:42 GMT 48.392944 -3.320336 37,000 85 565 0
2020-10-06 09:27:39 GMT 48.392540 -3.327918 37,000 85 565 0
2020-10-06 09:27:36 GMT 48.391888 -3.339627 37,000 85 564 -128
2020-10-06 09:27:33 GMT 48.391144 -3.352131 37,000 85 564 64
2020-10-06 09:27:29 GMT 48.389603 -3.379211 37,000 85 564 -128
2020-10-06 09:27:26 GMT 48.389603 -3.379211 37,000 85 564 -128
2020-10-06 09:27:23 GMT 48.388962 -3.390902 37,000 85 564 64
2020-10-06 09:27:20 GMT 48.388493 -3.399329 37,000 85 564 64
2020-10-06 09:27:17 GMT 48.387001 -3.425855 37,000 85 564 -64
2020-10-06 09:27:14 GMT 48.387001 -3.425855 37,000 85 564 64
2020-10-06 09:27:10 GMT 48.386078 -3.441608 37,000 85 564 0
2020-10-06 09:27:07 GMT 48.385437 -3.453299 37,000 85 564 64
2020-10-06 09:27:04 GMT 48.384705 -3.466116 37,000 85 564 0
2020-10-06 09:27:01 GMT 48.384155 -3.475483 37,000 85 564 0
2020-10-06 09:26:58 GMT 48.382858 -3.499001 37,000 85 563 64
2020-10-06 09:26:55 GMT 48.382858 -3.499001 37,000 85 563 0
2020-10-06 09:26:52 GMT 48.381927 -3.515336 37,000 85 563 0
2020-10-06 09:26:49 GMT 48.381416 -3.523503 37,000 84 562 0
2020-10-06 09:26:45 GMT 48.380676 -3.536119 37,000 84 562 64
2020-10-06 09:26:42 GMT 48.380016 -3.548006 37,000 84 562 0
2020-10-06 09:26:39 GMT 48.379181 -3.561956 37,000 84 562 -64
2020-10-06 09:26:36 GMT 48.378574 -3.572436 37,000 84 562 0
2020-10-06 09:26:33 GMT 48.377922 -3.584073 37,000 84 561 128
2020-10-06 09:26:30 GMT 48.377243 -3.595487 37,000 84 561 128
2020-10-06 09:26:27 GMT 48.376556 -3.607178 37,000 84 561 -64
2020-10-06 09:26:24 GMT 48.376015 -3.616670 37,000 84 561 -128
2020-10-06 09:26:20 GMT 48.374943 -3.634089 37,000 84 561 -128
2020-10-06 09:26:17 GMT 48.374245 -3.646088 37,000 84 561 -64
2020-10-06 09:26:14 GMT 48.373688 -3.655845 37,000 84 561 0
2020-10-06 09:26:11 GMT 48.372665 -3.673025 37,000 84 561 -64
2020-10-06 09:26:08 GMT 48.372246 -3.680564 37,000 84 561 0
2020-10-06 09:26:05 GMT 48.371658 -3.690068 37,000 84 561 -64
2020-10-06 09:26:02 GMT 48.370850 -3.703838 37,000 84 561 64
2020-10-06 09:25:59 GMT 48.369450 -3.727835 37,000 84 561 0
2020-10-06 09:25:56 GMT 48.369450 -3.727835 37,000 84 560 0
2020-10-06 09:25:53 GMT 48.368614 -3.741423 37,000 84 560 0
2020-10-06 09:25:50 GMT 48.368042 -3.751268 37,000 84 560 0
2020-10-06 09:25:47 GMT 48.366760 -3.772536 37,000 84 560 0
2020-10-06 09:25:44 GMT 48.366760 -3.772536 37,000 84 561 0
2020-10-06 09:25:41 GMT 48.365845 -3.788030 37,000 84 560 0
2020-10-06 09:25:38 GMT 48.365353 -3.795560 37,000 84 560 0
2020-10-06 09:25:35 GMT 48.364563 -3.809076 37,000 84 560 0
2020-10-06 09:25:32 GMT 48.363831 -3.820848 37,000 84 560 0
2020-10-06 09:25:28 GMT 48.362793 -3.838059 37,000 84 560 0
2020-10-06 09:25:24 GMT 48.362049 -3.850419 37,000 84 560 0
2020-10-06 09:25:20 GMT 48.360992 -3.867680 37,000 84 560 0
2020-10-06 09:25:17 GMT 48.360279 -3.879041 37,000 84 560 0
2020-10-06 09:25:14 GMT 48.359581 -3.890606 37,000 84 560 0
2020-10-06 09:25:10 GMT 48.358704 -3.904724 37,000 84 560 0
2020-10-06 09:25:07 GMT 48.357815 -3.919228 37,000 84 560 0
2020-10-06 09:25:04 GMT 48.357239 -3.929091 37,000 84 560 0
2020-10-06 09:25:00 GMT 48.356232 -3.945007 37,000 84 560 0
2020-10-06 09:24:56 GMT 48.355206 -3.961800 37,000 84 560 0
2020-10-06 09:24:53 GMT 48.354767 -3.968952 37,000 84 560 0
2020-10-06 09:24:50 GMT 48.353210 -3.994094 37,000 84 561 0
2020-10-06 09:24:47 GMT 48.353210 -3.994094 37,000 84 561 0
2020-10-06 09:24:44 GMT 48.352570 -4.004517 37,000 84 561 0
2020-10-06 09:24:41 GMT 48.351852 -4.016370 37,000 84 561 0
2020-10-06 09:24:37 GMT 48.350830 -4.033180 37,000 84 561 0
2020-10-06 09:24:34 GMT 48.350224 -4.043113 37,000 84 561 0
2020-10-06 09:24:30 GMT 48.348827 -4.065520 37,000 84 561 64
2020-10-06 09:24:27 GMT 48.348362 -4.073253 37,000 84 561 0
2020-10-06 09:24:24 GMT 48.347488 -4.086984 37,000 84 561 -64
2020-10-06 09:24:19 GMT 48.346596 -4.102309 37,000 84 561 64
2020-10-06 09:24:16 GMT 48.345898 -4.113513 37,000 84 561 0
2020-10-06 09:24:13 GMT 48.344193 -4.140789 37,000 84 561 0
2020-10-06 09:24:09 GMT 48.344193 -4.140789 37,000 84 561 0
2020-10-06 09:24:06 GMT 48.343185 -4.156283 37,000 84 561 0
2020-10-06 09:24:03 GMT 48.342682 -4.164382 37,000 84 561 0
2020-10-06 09:23:59 GMT 48.341007 -4.190489 37,000 84 560 64
2020-10-06 09:23:56 GMT 48.341007 -4.190489 37,000 84 561 0
2020-10-06 09:23:53 GMT 48.340122 -4.204439 37,000 84 561 0
2020-10-06 09:23:50 GMT 48.339611 -4.212606 37,000 84 561 0
2020-10-06 09:23:47 GMT 48.338608 -4.227905 37,000 84 562 64
2020-10-06 09:23:44 GMT 48.337967 -4.237906 37,000 84 562 64
2020-10-06 09:23:41 GMT 48.337006 -4.253470 37,000 84 562 0
2020-10-06 09:23:38 GMT 48.336586 -4.259443 37,000 84 562 0
2020-10-06 09:23:34 GMT 48.335449 -4.277485 37,000 84 562 0
2020-10-06 09:23:31 GMT 48.334763 -4.288330 37,000 84 560 64
2020-10-06 09:23:28 GMT 48.334030 -4.299176 37,000 84 561 0
2020-10-06 09:23:25 GMT 48.333233 -4.311411 37,000 84 561 0
2020-10-06 09:23:22 GMT 48.332581 -4.321458 37,000 84 561 0
2020-10-06 09:23:19 GMT 48.331833 -4.333261 37,000 84 561 0
2020-10-06 09:23:16 GMT 48.330002 -4.361079 37,000 84 560 0
2020-10-06 09:23:12 GMT 48.330002 -4.361079 37,000 84 559 0
2020-10-06 09:23:09 GMT 48.329136 -4.374076 37,000 84 560 0
2020-10-06 09:23:06 GMT 48.328392 -4.385641 37,000 84 559 0
2020-10-06 09:23:02 GMT 48.327370 -4.401470 37,000 84 559 0
2020-10-06 09:22:58 GMT 48.326389 -4.416070 37,000 84 558 64
2020-10-06 09:22:55 GMT 48.325653 -4.427490 37,000 84 558 0
2020-10-06 09:22:52 GMT 48.324947 -4.438043 37,000 84 558 64
2020-10-06 09:22:48 GMT 48.323971 -4.453077 37,000 84 558 0
2020-10-06 09:22:44 GMT 48.322525 -4.474977 37,000 84 557 0
2020-10-06 09:22:38 GMT 48.321396 -4.492493 37,000 84 557 0
2020-10-06 09:22:35 GMT 48.320709 -4.502493 37,000 84 557 0
2020-10-06 09:22:32 GMT 48.319794 -4.516649 37,000 84 556 -64
2020-10-06 09:22:29 GMT 48.319061 -4.527071 37,000 84 557 -64
2020-10-06 09:22:26 GMT 48.318146 -4.540875 37,000 84 556 0
2020-10-06 09:22:22 GMT 48.317360 -4.552966 37,000 84 556 0
2020-10-06 09:22:19 GMT 48.316521 -4.565253 37,000 84 556 0
2020-10-06 09:22:16 GMT 48.314758 -4.591510 37,000 84 556 0
2020-10-06 09:22:12 GMT 48.314758 -4.591510 37,000 84 556 64
2020-10-06 09:22:08 GMT 48.313705 -4.607215 37,000 84 555 64
2020-10-06 09:22:04 GMT 48.312424 -4.626019 37,000 84 555 0
2020-10-06 09:22:01 GMT 48.311874 -4.634047 37,000 84 556 0
2020-10-06 09:21:58 GMT 48.310318 -4.657076 37,000 84 555 64
2020-10-06 09:21:55 GMT 48.310318 -4.657076 37,000 84 554 64
2020-10-06 09:21:51 GMT 48.309212 -4.673671 37,000 84 555 64
2020-10-06 09:21:48 GMT 48.308422 -4.685163 37,000 84 555 0
2020-10-06 09:21:45 GMT 48.307617 -4.696867 37,000 84 555 -64
2020-10-06 09:21:41 GMT 48.306702 -4.710599 37,000 84 554 64
2020-10-06 09:21:36 GMT 48.305115 -4.733734 37,000 84 554 0
2020-10-06 09:21:32 GMT 48.304047 -4.749419 37,000 84 554 0
2020-10-06 09:21:29 GMT 48.303268 -4.760672 37,000 84 554 0
2020-10-06 09:21:25 GMT 48.302582 -4.771024 37,000 84 554 0
2020-10-06 09:21:21 GMT 48.301575 -4.785532 37,000 84 554 0
2020-10-06 09:21:18 GMT 48.300461 -4.800953 37,000 84 554 0
2020-10-06 09:21:15 GMT 48.299809 -4.810494 37,000 84 554 0
2020-10-06 09:21:11 GMT 48.298874 -4.824054 37,000 84 554 0
2020-10-06 09:21:08 GMT 48.297913 -4.837787 37,000 84 554 0
2020-10-06 09:21:05 GMT 48.297134 -4.849689 37,000 84 554 0
2020-10-06 09:21:01 GMT 48.296219 -4.862295 37,000 84 554 0
2020-10-06 09:20:57 GMT 48.295155 -4.877785 37,000 84 555 0
2020-10-06 09:20:54 GMT 48.294315 -4.889639 37,000 84 556 -64
2020-10-06 09:20:50 GMT 48.293152 -4.906407 37,000 84 556 0
2020-10-06 09:20:47 GMT 48.292282 -4.919269 37,000 84 556 0
2020-10-06 09:20:44 GMT 48.291660 -4.927513 37,000 84 556 0
2020-10-06 09:20:40 GMT 48.290592 -4.942836 37,000 84 556 0
2020-10-06 09:20:36 GMT 48.289352 -4.960961 37,000 84 556 0
2020-10-06 09:20:33 GMT 48.288528 -4.972511 37,000 84 556 0
2020-10-06 09:20:30 GMT 48.287891 -4.981866 37,000 84 557 64
2020-10-06 09:20:27 GMT 48.287148 -4.992202 37,000 84 557 0
2020-10-06 09:20:24 GMT 48.286194 -5.005822 37,000 83 557 -64
2020-10-06 09:20:21 GMT 48.285324 -5.018428 37,000 83 556 0
2020-10-06 09:20:17 GMT 48.284306 -5.032389 37,000 83 556 64
2020-10-06 09:20:13 GMT 48.282864 -5.052699 37,000 83 556 0
2020-10-06 09:20:10 GMT 48.282307 -5.060361 37,000 83 556 0
2020-10-06 09:20:07 GMT 48.281525 -5.071669 37,000 83 556 -64
2020-10-06 09:20:02 GMT 48.279980 -5.092886 37,000 83 556 -64
2020-10-06 09:19:59 GMT 48.279465 -5.100186 37,000 83 556 64
2020-10-06 09:19:56 GMT 48.278488 -5.113558 37,000 83 556 0
2020-10-06 09:19:50 GMT 48.276859 -5.136903 37,000 83 557 0
2020-10-06 09:19:47 GMT 48.276031 -5.148222 37,000 83 557 0
2020-10-06 09:19:44 GMT 48.275368 -5.157575 37,000 83 557 0
2020-10-06 09:19:41 GMT 48.274384 -5.170758 37,000 83 557 0
2020-10-06 09:19:37 GMT 48.273285 -5.186110 37,000 83 557 64
2020-10-06 09:19:34 GMT 48.272552 -5.196111 37,000 83 557 0
2020-10-06 09:19:30 GMT 48.271317 -5.213294 37,000 83 557 -64
2020-10-06 09:19:27 GMT 48.269737 -5.234985 37,000 83 557 64
2020-10-06 09:19:24 GMT 48.269737 -5.234985 37,000 83 557 0
2020-10-06 09:19:21 GMT 48.268711 -5.248791 37,000 83 557 0
2020-10-06 09:19:17 GMT 48.267456 -5.265993 37,000 83 557 0
2020-10-06 09:19:13 GMT 48.266647 -5.276959 37,000 83 557 0
2020-10-06 09:19:10 GMT 48.265686 -5.290340 37,000 83 557 64
2020-10-06 09:19:06 GMT 48.264679 -5.304143 37,000 83 557 0
2020-10-06 09:19:03 GMT 48.263901 -5.314143 37,000 83 558 0
2020-10-06 09:18:59 GMT 48.262665 -5.331397 37,000 83 558 0
2020-10-06 09:18:56 GMT 48.261795 -5.343299 37,000 83 558 0
2020-10-06 09:18:53 GMT 48.261124 -5.352293 37,000 83 558 0
2020-10-06 09:18:49 GMT 48.260010 -5.367455 37,000 83 558 0
2020-10-06 09:18:46 GMT 48.258133 -5.392808 37,000 83 558 0
2020-10-06 09:18:43 GMT 48.258133 -5.392808 37,000 83 558 0
2020-10-06 09:18:39 GMT 48.257027 -5.407586 37,000 83 558 0
2020-10-06 09:18:36 GMT 48.256142 -5.419512 37,000 83 558 0
2020-10-06 09:18:33 GMT 48.255295 -5.431190 37,000 83 559 0
2020-10-06 09:18:29 GMT 48.254196 -5.445768 37,000 83 559 0
2020-10-06 09:18:26 GMT 48.253395 -5.456736 37,000 83 559 0
2020-10-06 09:18:23 GMT 48.252502 -5.468445 37,000 83 558 0
2020-10-06 09:18:19 GMT 48.251301 -5.484418 37,000 83 559 -64
2020-10-06 09:18:15 GMT 48.250122 -5.500347 37,000 83 559 0
2020-10-06 09:18:12 GMT 48.249161 -5.512824 37,000 83 559 0
2020-10-06 09:18:09 GMT 48.248291 -5.524574 37,000 83 559 0
2020-10-06 09:18:05 GMT 48.246918 -5.542603 37,000 83 559 0
2020-10-06 09:18:02 GMT 48.246319 -5.550481 37,000 83 559 0
2020-10-06 09:17:58 GMT 48.245296 -5.563925 37,000 83 558 0
2020-10-06 09:17:55 GMT 48.244320 -5.576935 37,000 83 558 0
2020-10-06 09:17:51 GMT 48.243256 -5.590985 37,000 83 558 0
2020-10-06 09:17:48 GMT 48.242386 -5.602112 37,000 83 558 0
2020-10-06 09:17:45 GMT 48.241386 -5.615748 37,000 83 558 0
2020-10-06 09:17:42 GMT 48.240593 -5.625723 37,000 83 558 0
2020-10-06 09:17:39 GMT 48.239292 -5.642997 37,000 83 558 0
2020-10-06 09:17:35 GMT 48.238586 -5.651973 37,000 83 558 0
2020-10-06 09:17:32 GMT 48.237568 -5.665187 37,000 83 558 0
2020-10-06 09:17:27 GMT 48.236080 -5.684774 37,000 83 558 0
2020-10-06 09:17:23 GMT 48.234833 -5.701059 37,000 83 557 0
2020-10-06 09:17:19 GMT 48.233688 -5.715989 37,000 83 557 0
2020-10-06 09:17:16 GMT 48.232773 -5.727469 37,000 83 557 0
2020-10-06 09:17:12 GMT 48.231720 -5.741272 37,000 83 557 0
2020-10-06 09:17:09 GMT 48.230679 -5.754884 37,000 83 557 0
2020-10-06 09:17:06 GMT 48.228836 -5.778456 37,000 83 557 64
2020-10-06 09:17:02 GMT 48.228836 -5.778456 37,000 83 557 0
2020-10-06 09:16:59 GMT 48.227699 -5.792831 37,000 83 557 -64
2020-10-06 09:16:56 GMT 48.226814 -5.804251 37,000 83 557 0
2020-10-06 09:16:52 GMT 48.225605 -5.820007 37,000 83 557 0
2020-10-06 09:16:49 GMT 48.224854 -5.829726 37,000 83 557 0
2020-10-06 09:16:46 GMT 48.223835 -5.842558 37,000 83 557 64
2020-10-06 09:16:42 GMT 48.222813 -5.855930 37,000 83 557 0
2020-10-06 09:16:38 GMT 48.221695 -5.870096 37,000 83 557 0
2020-10-06 09:16:35 GMT 48.220764 -5.881589 37,000 83 557 0
2020-10-06 09:16:32 GMT 48.219635 -5.896348 37,000 83 557 0
2020-10-06 09:16:26 GMT 48.216667 -5.934063 37,000 83 557 0
2020-10-06 09:16:22 GMT 48.216667 -5.934063 37,000 83 557 0
2020-10-06 09:16:18 GMT 48.215515 -5.948745 37,000 83 557 0
2020-10-06 09:16:15 GMT 48.214573 -5.960444 37,000 83 557 0
2020-10-06 09:16:12 GMT 48.213638 -5.972126 37,000 83 557 0
2020-10-06 09:16:08 GMT 48.212357 -5.988183 37,000 83 557 0
2020-10-06 09:16:05 GMT 48.211548 -5.998246 37,000 83 557 0
2020-10-06 09:16:01 GMT 48.210430 -6.012413 37,000 83 557 0
2020-10-06 09:15:57 GMT 48.209152 -6.028325 37,000 83 557 0
2020-10-06 09:15:54 GMT 48.207867 -6.044143 37,000 83 557 -64
2020-10-06 09:15:49 GMT 48.206333 -6.063297 37,000 83 557 0
2020-10-06 09:15:45 GMT 48.205444 -6.074594 37,000 83 557 0
2020-10-06 09:15:41 GMT 48.204208 -6.089877 37,000 83 557 0
2020-10-06 09:15:38 GMT 48.203167 -6.103050 37,000 83 556 0
2020-10-06 09:15:35 GMT 48.202374 -6.113024 37,000 83 557 0
2020-10-06 09:15:31 GMT 48.201187 -6.128117 37,000 83 557 0
2020-10-06 09:15:28 GMT 48.199310 -6.151006 37,000 82 557 0
2020-10-06 09:15:25 GMT 48.199310 -6.151006 37,000 82 557 0
2020-10-06 09:15:21 GMT 48.197952 -6.167667 37,000 82 557 0
2020-10-06 09:15:15 GMT 48.196106 -6.189951 37,000 82 557 0
2020-10-06 09:15:11 GMT 48.194870 -6.205233 37,000 82 556 64
2020-10-06 09:15:07 GMT 48.193810 -6.218406 37,000 82 556 0
2020-10-06 09:15:04 GMT 48.192856 -6.230023 37,000 82 556 0
2020-10-06 09:15:01 GMT 48.191715 -6.243559 37,000 82 556 64
2020-10-06 09:14:55 GMT 48.189808 -6.267194 37,000 82 555 -64
2020-10-06 09:14:50 GMT 48.188461 -6.283405 37,000 82 555 0
2020-10-06 09:14:47 GMT 48.187527 -6.295021 37,000 82 555 64
2020-10-06 09:14:44 GMT 48.186584 -6.306223 37,000 82 555 0
2020-10-06 09:14:41 GMT 48.185440 -6.320308 37,000 82 554 0
2020-10-06 09:14:35 GMT 48.183746 -6.340802 37,000 82 554 0
2020-10-06 09:14:31 GMT 48.182510 -6.356013 37,000 82 554 0
2020-10-06 09:14:28 GMT 48.181229 -6.371507 37,000 82 553 0
2020-10-06 09:14:24 GMT 48.180355 -6.381972 37,000 82 553 0
2020-10-06 09:14:21 GMT 48.179283 -6.395199 37,000 82 553 0
2020-10-06 09:14:18 GMT 48.178391 -6.405663 37,000 82 553 0
2020-10-06 09:14:15 GMT 48.177475 -6.416649 37,000 82 553 -64
2020-10-06 09:14:12 GMT 48.176285 -6.430664 37,000 82 552 0
2020-10-06 09:14:07 GMT 48.174866 -6.448059 37,000 82 552 0
2020-10-06 09:14:03 GMT 48.173721 -6.461299 37,000 82 552 0
2020-10-06 09:13:59 GMT 48.172443 -6.477019 37,000 82 552 -64
2020-10-06 09:13:55 GMT 48.171021 -6.493483 37,000 82 551 0
2020-10-06 09:13:50 GMT 48.169418 -6.512709 37,000 82 551 0
2020-10-06 09:13:45 GMT 48.167908 -6.530457 37,000 82 551 0
2020-10-06 09:13:42 GMT 48.166489 -6.547499 37,000 82 550 0
2020-10-06 09:13:37 GMT 48.165207 -6.562570 37,000 82 550 0
2020-10-06 09:13:34 GMT 48.164246 -6.573909 37,000 82 550 0
2020-10-06 09:13:29 GMT 48.162689 -6.592712 37,000 82 550 0
2020-10-06 09:13:25 GMT 48.161362 -6.607987 37,000 82 550 0
2020-10-06 09:13:21 GMT 48.160217 -6.621323 37,000 82 549 0
2020-10-06 09:13:16 GMT 48.158661 -6.639616 37,000 82 549 0
2020-10-06 09:13:05 GMT 48.154953 -6.683052 37,000 82 549 0
2020-10-06 09:12:57 GMT 48.152161 -6.715736 37,000 82 548 0
2020-10-06 09:12:53 GMT 48.151154 -6.726997 37,000 82 548 0
2020-10-06 09:12:50 GMT 48.150375 -6.736404 37,000 82 548 0
2020-10-06 09:12:46 GMT 48.148979 -6.752366 37,000 82 548 0
2020-10-06 09:12:40 GMT 48.146988 -6.775406 37,000 82 547 0
2020-10-06 09:12:34 GMT 48.144932 -6.798847 37,000 82 547 0
2020-10-06 09:12:29 GMT 48.143372 -6.817017 37,000 82 547 0
2020-10-06 09:12:26 GMT 48.142414 -6.828073 37,000 82 547 0
2020-10-06 09:12:15 GMT 48.138977 -6.867622 37,000 82 547 0
2020-10-06 09:12:05 GMT 48.135681 -6.905045 37,000 82 547 0
2020-10-06 09:11:56 GMT 48.132454 -6.941951 37,000 82 547 0
2020-10-06 09:11:46 GMT 48.129089 -6.979614 37,000 82 547 0
2020-10-06 09:11:38 GMT 48.126682 -7.007094 37,000 82 547 0
2020-10-06 09:11:35 GMT 48.125656 -7.018362 37,000 82 547 0
2020-10-06 09:11:29 GMT 48.123192 -7.046391 37,000 82 547 0
2020-10-06 09:11:26 GMT 48.122360 -7.055626 37,000 82 547 0
2020-10-06 09:11:15 GMT 48.118881 -7.094902 37,000 82 547 0
2020-10-06 09:11:05 GMT 48.115646 -7.131395 37,000 82 547 0
2020-10-06 09:10:58 GMT 48.112251 -7.169213 37,000 82 547 0
2020-10-06 09:10:55 GMT 48.112251 -7.169213 37,000 82 547 0
2020-10-06 09:10:48 GMT 48.109783 -7.196538 37,000 82 547 0
2020-10-06 09:10:45 GMT 48.108765 -7.207924 37,000 82 547 0
2020-10-06 09:10:38 GMT 48.106476 -7.232986 37,000 82 548 0
2020-10-06 09:10:35 GMT 48.105408 -7.244779 37,000 82 548 0
2020-10-06 09:10:24 GMT 48.101913 -7.283302 37,000 82 548 0
2020-10-06 09:10:15 GMT 48.098564 -7.320345 37,000 82 548 0
2020-10-06 09:10:04 GMT 48.094791 -7.361122 37,000 82 547 0
2020-10-06 09:09:54 GMT 48.091625 -7.395489 37,000 82 547 0
2020-10-06 09:09:45 GMT 48.088089 -7.433941 37,000 82 547 -64
2020-10-06 09:09:37 GMT 48.085716 -7.459717 37,000 82 546 0
2020-10-06 09:09:34 GMT 48.084686 -7.470772 37,000 82 546 0
2020-10-06 09:09:24 GMT 48.081116 -7.509155 37,000 82 546 0
2020-10-06 09:09:14 GMT 48.077663 -7.546199 37,000 82 545 0
2020-10-06 09:09:04 GMT 48.074158 -7.584000 37,000 82 545 0
2020-10-06 09:08:56 GMT 48.071411 -7.612976 37,000 81 545 -64
2020-10-06 09:08:53 GMT 48.070305 -7.624723 37,000 81 544 0
2020-10-06 09:08:44 GMT 48.066971 -7.660217 37,000 81 545 0
2020-10-06 09:08:36 GMT 48.064442 -7.686838 37,000 81 545 0
2020-10-06 09:08:32 GMT 48.062897 -7.703339 37,000 81 545 0
2020-10-06 09:08:26 GMT 48.060974 -7.723457 37,000 81 545 0
2020-10-06 09:08:22 GMT 48.059505 -7.738882 37,000 81 545 0
2020-10-06 09:08:16 GMT 48.057312 -7.761772 37,000 81 545 0
2020-10-06 09:08:13 GMT 48.056122 -7.774406 37,000 81 545 0
2020-10-06 09:08:03 GMT 48.052551 -7.811966 37,000 81 545 0
2020-10-06 09:07:52 GMT 48.048843 -7.850693 37,000 81 545 0
2020-10-06 09:07:42 GMT 48.045353 -7.886846 37,000 81 544 0
2020-10-06 09:07:32 GMT 48.041428 -7.927116 37,000 81 543 0
2020-10-06 09:07:21 GMT 48.037861 -7.964313 37,000 81 542 0
2020-10-06 09:07:11 GMT 48.033875 -8.005188 37,000 81 542 64
2020-10-06 09:07:02 GMT 48.030853 -8.036224 37,000 81 541 64
2020-10-06 09:06:52 GMT 48.027283 -8.072754 37,000 81 541 64
2020-10-06 09:06:42 GMT 48.023613 -8.110164 37,000 81 541 64
2020-10-06 09:06:32 GMT 48.020050 -8.147255 37,000 81 541 64
2020-10-06 09:06:22 GMT 48.016308 -8.185448 37,000 81 540 64
2020-10-06 09:06:11 GMT 48.012543 -8.222786 37,000 81 540 0
2020-10-06 09:06:01 GMT 48.008835 -8.259933 37,000 82 542 -64
2020-10-06 09:05:51 GMT 48.005768 -8.297012 37,000 83 544 -64
2020-10-06 09:05:42 GMT 48.003387 -8.334366 37,000 85 546 -64
2020-10-06 09:05:31 GMT 48.001602 -8.375015 37,000 87 549 0
2020-10-06 09:05:21 GMT 48.000805 -8.413062 37,000 89 552 -128
2020-10-06 09:05:11 GMT 48.000710 -8.450670 37,000 89 552 -64
2020-10-06 09:05:01 GMT 48.000641 -8.488106 37,000 89 552 -64
2020-10-06 09:04:51 GMT 48.000641 -8.526489 37,000 89 552 0
2020-10-06 09:04:40 GMT 48.000595 -8.565628 37,000 89 552 64
2020-10-06 09:04:30 GMT 48.000523 -8.603703 37,000 89 551 64
2020-10-06 09:04:21 GMT 48.000477 -8.640888 37,000 89 551 64
2020-10-06 09:04:10 GMT 48.000385 -8.684059 37,000 89 551 -64
2020-10-06 09:04:00 GMT 48.000183 -8.719093 37,000 89 550 64
2020-10-06 09:03:49 GMT 48.000366 -8.760841 37,000 91 553 0
2020-10-06 09:03:40 GMT 48.001129 -8.796035 37,000 91 553 64
2020-10-06 09:03:29 GMT 48.001968 -8.835261 37,000 91 553 0
2020-10-06 09:03:20 GMT 48.002808 -8.872164 37,000 91 554 0
2020-10-06 09:03:09 GMT 48.003643 -8.911814 37,000 91 554 0
2020-10-06 09:02:59 GMT 48.004440 -8.951248 37,000 91 554 0
2020-10-06 09:02:49 GMT 48.005180 -8.986957 37,000 91 554 64
2020-10-06 09:02:40 GMT 48.006042 -9.027946 37,000 91 555 64
2020-10-06 09:02:29 GMT 48.006763 -9.065552 37,000 91 555 0
2020-10-06 09:02:19 GMT 48.007507 -9.103889 37,000 91 555 0
We lost coverage of the aircraft here for a total of 163 minutes
2020-10-06 06:18:50 GMT 47.033333 -46.799999 37,000 67 560
2020-10-06 06:17:50 GMT 47.000000 -47.000000 37,000 61 570
2020-10-06 06:16:50 GMT 46.900002 -47.233334 37,000 66 570
2020-10-06 06:15:51 GMT 46.849998 -47.450001 37,000 62 570
2020-10-06 06:14:50 GMT 46.766666 -47.633331 37,000 65 570
2020-10-06 06:13:50 GMT 46.716667 -47.849998 37,000 62 570
2020-10-06 06:12:50 GMT 46.633331 -48.066666 37,000 62 570
2020-10-06 06:11:50 GMT 46.566666 -48.283333 37,000 63 570
We lost coverage of the aircraft here for a total of 7 minutes
2020-10-06 06:04:24 GMT 46.059994 -49.834740 37,000 62 568 -64
2020-10-06 06:04:21 GMT 46.056225 -49.845039 37,000 62 566 0
2020-10-06 06:04:09 GMT 46.043427 -49.881817 37,000 64 563 0
2020-10-06 06:02:14 GMT 45.958466 -50.280472 37,000 77 539 0
2020-10-06 06:02:05 GMT 45.953716 -50.312096 37,000 77 538 64
2020-10-06 05:59:51 GMT 45.883049 -50.777161 37,000 77 528 0
2020-10-06 05:59:40 GMT 45.877323 -50.814034 37,000 77 527 0
2020-10-06 05:59:27 GMT 45.870575 -50.857792 37,000 77 527 0
2020-10-06 05:59:20 GMT 45.866756 -50.882149 37,000 77 527 0
2020-10-06 05:59:10 GMT 45.861217 -50.917923 37,000 77 527 0
2020-10-06 05:58:59 GMT 45.855816 -50.952324 37,000 77 528 0
2020-10-06 05:58:47 GMT 45.849670 -50.991943 37,000 77 529 0
2020-10-06 05:58:38 GMT 45.844345 -51.025932 37,000 77 529 0
2020-10-06 05:58:28 GMT 45.839172 -51.058758 37,000 77 530 0
2020-10-06 05:58:18 GMT 45.833519 -51.094872 37,000 77 532 0
2020-10-06 05:58:08 GMT 45.827911 -51.130440 37,000 77 533 0
2020-10-06 05:57:56 GMT 45.822113 -51.167038 37,000 77 534 0
2020-10-06 05:57:46 GMT 45.816387 -51.203156 37,000 77 534 0
2020-10-06 05:57:36 GMT 45.810608 -51.239498 37,000 77 535 -64
2020-10-06 05:57:25 GMT 45.805115 -51.273998 37,000 77 535 0
2020-10-06 05:56:41 GMT 45.780258 -51.429882 37,000 77 536 0
2020-10-06 05:56:33 GMT 45.776676 -51.452202 37,000 77 536 64
2020-10-06 05:56:24 GMT 45.771194 -51.486221 37,000 77 537 0
2020-10-06 05:56:14 GMT 45.765244 -51.523197 37,000 77 537 0
2020-10-06 05:55:52 GMT 45.753479 -51.596149 37,000 76 538 0
2020-10-06 05:55:43 GMT 45.747677 -51.631691 37,000 76 539 -64
2020-10-06 05:55:32 GMT 45.741989 -51.666557 37,000 76 540 64
2020-10-06 05:55:10 GMT 45.729149 -51.745125 37,000 76 541 0
2020-10-06 05:55:00 GMT 45.723843 -51.777466 37,000 76 541 0
2020-10-06 05:54:39 GMT 45.711643 -51.852242 37,000 76 541 0
2020-10-06 05:54:29 GMT 45.706421 -51.883671 37,000 76 541 -64
2020-10-06 05:54:17 GMT 45.699142 -51.927750 37,000 76 541 -64
2020-10-06 05:53:49 GMT 45.666668 -52.066666 37,000 74 540
2020-10-06 05:52:49 GMT 45.633331 -52.283333 37,000 74 540
2020-10-06 05:51:49 GMT 45.616669 -52.466667 37,000 75 540
2020-10-06 05:50:50 GMT 45.566666 -52.599998 37,000 78 540
2020-10-06 05:49:50 GMT 45.533333 -52.816666 37,000 76 540
2020-10-06 05:48:49 GMT 45.500000 -53.099998 37,000 75 530
2020-10-06 05:47:49 GMT 45.466667 -53.316666 37,000 74 530
2020-10-06 05:46:49 GMT 45.416668 -53.516666 37,000 76 530
2020-10-06 05:45:48 GMT 45.383331 -53.733334 37,000 74 530
2020-10-06 05:44:48 GMT 45.349998 -53.933334 37,000 72 530
2020-10-06 05:43:48 GMT 45.316666 -54.116669 37,000 70 530
2020-10-06 05:42:49 GMT 45.266666 -54.333332 37,000 72 530
2020-10-06 05:41:49 GMT 45.233334 -54.466667 37,000 74 530
2020-10-06 05:40:50 GMT 45.183334 -54.650002 37,000 76 530
2020-10-06 05:39:50 GMT 45.150002 -54.849998 37,000 76 520
2020-10-06 05:38:50 GMT 45.116669 -55.066666 37,000 75 530
2020-10-06 05:37:50 GMT 45.083332 -55.266666 37,000 72 530
2020-10-06 05:36:49 GMT 45.033333 -55.533333 37,000 72 530
2020-10-06 05:35:49 GMT 45.000000 -55.716667 37,000 70 530
2020-10-06 05:34:50 GMT 44.950001 -55.866669 37,000 74 530
2020-10-06 05:33:50 GMT 44.916668 -56.049999 37,000 76 530
2020-10-06 05:32:50 GMT 44.866669 -56.266666 37,000 77 530
2020-10-06 05:31:49 GMT 44.833332 -56.466667 37,000 77 530
2020-10-06 05:30:49 GMT 44.799999 -56.750000 37,000 72 520
2020-10-06 05:29:48 GMT 44.766666 -56.933334 37,000 75 520
2020-10-06 05:28:48 GMT 44.733334 -57.133331 37,000 73 520
2020-10-06 05:27:50 GMT 44.683334 -57.266666 37,000 76 520
2020-10-06 05:26:50 GMT 44.666668 -57.466667 37,000 74 520
We lost coverage of the aircraft here for a total of 8 minutes
2020-10-06 05:19:14 GMT 44.396961 -58.988945 37,000 75 519 0
2020-10-06 05:18:47 GMT 44.379776 -59.078716 37,000 74 518 0
2020-10-06 05:18:42 GMT 44.377785 -59.088894 37,000 74 518 0
2020-10-06 05:18:24 GMT 44.365726 -59.151260 37,000 74 519 0
2020-10-06 05:17:49 GMT 44.344173 -59.262466 37,000 74 520 0
2020-10-06 05:17:41 GMT 44.338448 -59.291939 37,000 74 521 0
2020-10-06 05:17:30 GMT 44.332069 -59.324631 37,000 74 521 0
2020-10-06 05:17:20 GMT 44.325459 -59.358597 37,000 74 521 0
2020-10-06 05:17:08 GMT 44.318436 -59.394314 37,000 74 520 0
2020-10-06 05:16:59 GMT 44.312393 -59.425049 37,000 74 520 0
2020-10-06 05:16:48 GMT 44.305389 -59.460560 37,000 74 520 0
2020-10-06 05:16:37 GMT 44.298878 -59.493645 37,000 74 520 0
2020-10-06 05:16:27 GMT 44.292171 -59.527878 37,000 74 519 -64
2020-10-06 05:16:17 GMT 44.285843 -59.559765 37,000 74 519 64
2020-10-06 05:16:07 GMT 44.278839 -59.595074 37,000 74 520 -64
2020-10-06 05:15:56 GMT 44.272530 -59.627224 37,000 74 520 0
2020-10-06 05:15:46 GMT 44.265636 -59.662060 37,000 74 520 0
2020-10-06 05:15:33 GMT 44.257736 -59.701603 37,000 74 520 0
2020-10-06 05:15:14 GMT 44.245468 -59.763271 37,000 74 521 0
2020-10-06 05:15:00 GMT 44.236679 -59.807217 37,000 74 522 0
2020-10-06 05:14:47 GMT 44.227745 -59.851974 37,000 74 522 -64
2020-10-06 05:14:43 GMT 44.225372 -59.863899 37,000 74 522 64
2020-10-06 05:14:33 GMT 44.218761 -59.896858 37,000 74 522 0
2020-10-06 05:14:01 GMT 44.197403 -60.002876 37,000 74 521 0
2020-10-06 05:13:51 GMT 44.191498 -60.031918 37,000 74 521 0
2020-10-06 05:13:41 GMT 44.184452 -60.066898 37,000 74 521 0
2020-10-06 05:13:30 GMT 44.178085 -60.098282 37,000 74 520 0
2020-10-06 05:13:20 GMT 44.170898 -60.133667 37,000 74 520 0
2020-10-06 05:13:09 GMT 44.164341 -60.165646 37,000 74 520 0
2020-10-06 05:12:57 GMT 44.156288 -60.205208 37,000 74 521 0
2020-10-06 05:12:49 GMT 44.150467 -60.233524 37,000 74 520 0
2020-10-06 05:12:37 GMT 44.143299 -60.268578 37,000 74 520 0
2020-10-06 05:12:28 GMT 44.136875 -60.300098 37,000 74 520 0
2020-10-06 05:12:17 GMT 44.130123 -60.333187 37,000 74 520 0
2020-10-06 05:12:07 GMT 44.122879 -60.368275 37,000 74 520 0
2020-10-06 05:11:55 GMT 44.115879 -60.402439 37,000 74 519 0
2020-10-06 05:11:41 GMT 44.106197 -60.449196 37,000 74 519 0
2020-10-06 05:11:34 GMT 44.101913 -60.469994 37,000 74 519 0
2020-10-06 05:11:18 GMT 44.091534 -60.520149 37,000 73 518 0
2020-10-06 05:11:15 GMT 44.088646 -60.534210 37,000 73 518 0
2020-10-06 05:11:03 GMT 44.081680 -60.567627 37,000 73 518 0
2020-10-06 05:10:54 GMT 44.074680 -60.601303 37,000 73 518 0
2020-10-06 05:10:43 GMT 44.067654 -60.635113 37,000 73 519 0
2020-10-06 05:10:33 GMT 44.060993 -60.667091 37,000 73 519 0
2020-10-06 05:10:22 GMT 44.054031 -60.700485 37,000 73 519 64
2020-10-06 05:10:12 GMT 44.046707 -60.735359 37,000 73 519 0
2020-10-06 05:10:01 GMT 44.039627 -60.769108 37,000 73 520 0
2020-10-06 05:09:50 GMT 44.032738 -60.802067 37,000 73 520 0
2020-10-06 05:09:40 GMT 44.025787 -60.835194 37,000 73 520 0
2020-10-06 05:09:30 GMT 44.018646 -60.869110 37,000 73 520 0
2020-10-06 05:09:20 GMT 44.011597 -60.902454 37,000 73 520 0
2020-10-06 05:09:08 GMT 44.004456 -60.936371 37,000 73 520 0
2020-10-06 05:08:52 GMT 43.992889 -60.990929 37,000 73 521 0
2020-10-06 05:08:46 GMT 43.989349 -61.007717 37,000 73 521 0
2020-10-06 05:08:26 GMT 43.975712 -61.071754 37,000 73 520 0
2020-10-06 05:08:15 GMT 43.968292 -61.106724 37,000 73 520 0
2020-10-06 05:08:05 GMT 43.961651 -61.137871 37,000 73 520 0
2020-10-06 05:07:55 GMT 43.954903 -61.169456 37,000 73 520 0
2020-10-06 05:07:44 GMT 43.947453 -61.204247 37,000 73 521 0
2020-10-06 05:07:34 GMT 43.940552 -61.236389 37,000 73 521 0
2020-10-06 05:07:25 GMT 43.933319 -61.269920 37,000 73 521 0
2020-10-06 05:07:14 GMT 43.926224 -61.302944 37,000 73 522 0
2020-10-06 05:07:04 GMT 43.918964 -61.336735 37,000 73 523 0
2020-10-06 05:06:53 GMT 43.911850 -61.369694 37,000 73 525 0
2020-10-06 05:06:42 GMT 43.904617 -61.403099 37,000 73 525 0
2020-10-06 05:06:33 GMT 43.897430 -61.436249 37,000 73 526 0
2020-10-06 05:06:22 GMT 43.890060 -61.470039 37,000 73 526 0
2020-10-06 05:06:12 GMT 43.882874 -61.503189 37,000 73 526 0
2020-10-06 05:06:01 GMT 43.875671 -61.536190 37,000 73 526 0
2020-10-06 05:05:50 GMT 43.868130 -61.571045 37,000 73 526 0
2020-10-06 05:05:40 GMT 43.860725 -61.604855 37,000 73 526 0
2020-10-06 05:05:30 GMT 43.853668 -61.637196 37,000 73 526 0
2020-10-06 05:05:20 GMT 43.846252 -61.671307 37,000 73 526 0
2020-10-06 05:05:09 GMT 43.838894 -61.704906 37,000 73 526 0
2020-10-06 05:04:58 GMT 43.831398 -61.738979 37,000 73 525 0
2020-10-06 05:04:48 GMT 43.824326 -61.771206 37,000 73 524 0
2020-10-06 05:04:38 GMT 43.817017 -61.804440 37,000 73 524 0
2020-10-06 05:04:28 GMT 43.809425 -61.838638 37,000 73 523 0
2020-10-06 05:04:16 GMT 43.802025 -61.872253 37,000 73 523 0
2020-10-06 05:04:07 GMT 43.794571 -61.905914 37,000 72 522 0
2020-10-06 05:03:55 GMT 43.787270 -61.938957 37,000 72 522 0
2020-10-06 05:03:42 GMT 43.777634 -61.982372 37,000 72 521 0
2020-10-06 05:03:35 GMT 43.772781 -62.004345 37,000 72 520 0
2020-10-06 05:03:24 GMT 43.765202 -62.038486 37,000 72 520 0
2020-10-06 05:03:10 GMT 43.754150 -62.087765 37,000 72 520 0
2020-10-06 05:03:02 GMT 43.749607 -62.108196 37,000 72 519 0
2020-10-06 05:02:54 GMT 43.743256 -62.136501 37,000 72 519 0
2020-10-06 05:02:34 GMT 43.729916 -62.196091 37,000 72 519 0
2020-10-06 05:02:23 GMT 43.721210 -62.234932 37,000 72 518 0
2020-10-06 05:02:11 GMT 43.713730 -62.268208 37,000 72 518 0
2020-10-06 05:02:02 GMT 43.706177 -62.301933 37,000 72 518 0
2020-10-06 05:01:49 GMT 43.697754 -62.339363 37,000 72 517 0
2020-10-06 05:01:39 GMT 43.690842 -62.369896 37,000 72 517 0
2020-10-06 05:01:31 GMT 43.684067 -62.399788 37,000 72 517 0
2020-10-06 05:01:19 GMT 43.676651 -62.432556 37,000 72 517 64
2020-10-06 05:01:10 GMT 43.669117 -62.465710 37,000 72 517 -64
2020-10-06 05:00:59 GMT 43.661949 -62.497166 37,000 72 516 0
2020-10-06 05:00:49 GMT 43.654175 -62.531040 37,000 72 517 0
2020-10-06 05:00:38 GMT 43.646667 -62.564201 37,000 72 516 0
2020-10-06 05:00:27 GMT 43.639278 -62.596699 37,000 72 516 0
2020-10-06 05:00:17 GMT 43.631783 -62.629330 37,000 72 516 0
2020-10-06 05:00:06 GMT 43.624054 -62.663078 37,000 72 517 64
2020-10-06 04:59:53 GMT 43.613998 -62.706821 37,000 72 517 0
2020-10-06 04:59:40 GMT 43.605469 -62.744007 37,000 72 517 0
2020-10-06 04:59:30 GMT 43.597229 -62.779774 37,000 72 517 0
2020-10-06 04:59:25 GMT 43.594254 -62.792614 37,000 72 517 0
2020-10-06 04:59:15 GMT 43.586628 -62.825645 37,000 72 517 0
2020-10-06 04:59:04 GMT 43.579365 -62.856968 37,000 72 516 0
2020-10-06 04:58:53 GMT 43.571640 -62.890278 37,000 72 517 0
2020-10-06 04:58:44 GMT 43.564144 -62.922691 37,000 72 517 0
2020-10-06 04:58:32 GMT 43.556274 -62.956497 37,000 72 516 0
2020-10-06 04:58:23 GMT 43.549011 -62.987759 37,000 72 516 0
2020-10-06 04:58:11 GMT 43.541145 -63.021568 37,000 72 516 0
2020-10-06 04:58:01 GMT 43.533604 -63.053677 37,000 72 516 0
2020-10-06 04:57:52 GMT 43.526016 -63.086178 37,000 72 516 0
2020-10-06 04:57:41 GMT 43.518677 -63.117603 37,000 72 516 -64
2020-10-06 04:57:31 GMT 43.511120 -63.149872 37,000 72 516 0
2020-10-06 04:57:17 GMT 43.501530 -63.190807 37,000 72 517 0
2020-10-06 04:57:09 GMT 43.495697 -63.215652 37,000 72 518 0
2020-10-06 04:56:58 GMT 43.486679 -63.253979 37,000 72 518 0
2020-10-06 04:56:45 GMT 43.478161 -63.289948 37,000 72 518 0
2020-10-06 04:56:38 GMT 43.471573 -63.317913 37,000 72 518 0
2020-10-06 04:55:17 GMT 43.412476 -63.566765 37,000 71 519 -64
2020-10-06 04:50:37 GMT 43.198471 -64.445351 37,000 71 518 0
2020-10-06 04:50:32 GMT 43.193161 -64.466751 37,000 71 519 0
2020-10-06 04:50:25 GMT 43.189407 -64.482018 37,000 71 519 0
2020-10-06 04:50:11 GMT 43.178467 -64.525833 37,000 71 520 0
2020-10-06 04:50:03 GMT 43.172314 -64.550629 37,000 71 520 0
2020-10-06 04:49:52 GMT 43.163979 -64.583916 37,000 71 521 0
2020-10-06 04:49:44 GMT 43.156952 -64.612129 37,000 71 522 0
2020-10-06 04:49:33 GMT 43.149261 -64.642982 37,000 71 522 0
2020-10-06 04:49:22 GMT 43.140884 -64.676323 37,000 71 521 0
2020-10-06 04:49:13 GMT 43.133068 -64.707573 37,000 71 520 0
2020-10-06 04:49:02 GMT 43.124924 -64.739883 37,000 71 519 64
2020-10-06 04:48:51 GMT 43.116543 -64.773430 37,000 71 520 0
2020-10-06 04:48:42 GMT 43.108814 -64.804100 37,000 71 519 0
2020-10-06 04:48:20 GMT 43.091675 -64.871902 37,000 71 516 0
2020-10-06 04:48:00 GMT 43.076599 -64.931358 37,000 70 515 0
2020-10-06 04:47:50 GMT 43.068268 -64.964188 37,000 70 515 0
2020-10-06 04:47:38 GMT 43.060074 -64.996422 37,000 70 514 0
2020-10-06 04:47:28 GMT 43.051529 -65.029991 37,000 70 514 0
2020-10-06 04:47:17 GMT 43.041080 -65.070908 37,000 70 514 0
2020-10-06 04:47:07 GMT 43.035774 -65.091774 37,000 70 514 0
2020-10-06 04:46:57 GMT 43.027676 -65.123619 37,000 70 514 0
2020-10-06 04:46:48 GMT 43.019901 -65.153893 37,000 70 514 0
2020-10-06 04:46:37 GMT 43.011520 -65.186661 37,000 70 514 0
2020-10-06 04:46:26 GMT 43.003418 -65.218353 37,000 70 513 0
2020-10-06 04:46:16 GMT 42.995361 -65.249786 37,000 70 513 0
2020-10-06 04:46:06 GMT 42.987175 -65.281677 37,000 70 512 0
2020-10-06 04:45:55 GMT 42.978561 -65.314995 37,000 70 512 0
2020-10-06 04:45:44 GMT 42.970600 -65.345894 37,000 70 512 0
2020-10-06 04:45:35 GMT 42.963058 -65.375061 37,000 70 512 64
2020-10-06 04:45:25 GMT 42.954773 -65.406975 37,000 70 511 0
2020-10-06 04:45:14 GMT 42.946838 -65.437767 37,000 70 510 0
2020-10-06 04:45:03 GMT 42.937878 -65.472435 37,000 70 511 0
2020-10-06 04:44:54 GMT 42.930382 -65.501205 37,000 70 510 0
2020-10-06 04:44:41 GMT 42.920975 -65.537407 37,000 70 510 0
2020-10-06 04:44:32 GMT 42.914085 -65.563858 37,000 70 510 0
2020-10-06 04:44:22 GMT 42.905334 -65.597404 37,000 70 510 0
2020-10-06 04:44:12 GMT 42.897514 -65.627419 37,000 70 510 0
2020-10-06 04:44:02 GMT 42.889320 -65.658875 37,000 70 511 0
2020-10-06 04:43:51 GMT 42.881359 -65.689415 37,000 70 511 0
2020-10-06 04:43:40 GMT 42.872864 -65.722000 37,000 70 511 0
2020-10-06 04:43:30 GMT 42.864323 -65.754616 37,000 70 511 0
2020-10-06 04:43:16 GMT 42.853989 -65.793983 37,000 70 512 -64
2020-10-06 04:43:10 GMT 42.848373 -65.815323 37,000 70 512 0
2020-10-06 04:42:44 GMT 42.827637 -65.894081 37,000 70 512 64
2020-10-06 04:42:33 GMT 42.819168 -65.926010 37,000 70 512 64
2020-10-06 04:41:33 GMT 42.769775 -66.112144 37,000 70 514 0
2020-10-06 04:41:22 GMT 42.762131 -66.140816 37,000 70 515 0
2020-10-06 04:41:13 GMT 42.754532 -66.169403 37,000 70 516 0
2020-10-06 04:40:22 GMT 42.712284 -66.327339 37,000 69 518 64
2020-10-06 04:40:10 GMT 42.703392 -66.360229 37,000 69 518 0
2020-10-06 04:40:04 GMT 42.697357 -66.382706 37,000 69 518 0
2020-10-06 04:40:00 GMT 42.695206 -66.390633 37,000 69 518 0
2020-10-06 04:39:41 GMT 42.679462 -66.449081 37,000 69 518 0
2020-10-06 04:39:32 GMT 42.671970 -66.476799 37,000 69 518 0
2020-10-06 04:38:55 GMT 42.641850 -66.587875 37,000 69 516 0
2020-10-06 04:38:48 GMT 42.635193 -66.612289 37,000 69 516 0
2020-10-06 04:38:39 GMT 42.627651 -66.640060 37,000 69 516 0
2020-10-06 04:38:28 GMT 42.618622 -66.673279 37,000 69 516 0
2020-10-06 04:38:17 GMT 42.610382 -66.703552 37,000 69 516 0
2020-10-06 04:37:51 GMT 42.589291 -66.780586 37,000 69 516 0
2020-10-06 04:36:52 GMT 42.539749 -66.960861 37,000 69 513 64
2020-10-06 04:36:42 GMT 42.531429 -66.991119 37,000 69 513 0
2020-10-06 04:36:33 GMT 42.522995 -67.021660 37,000 69 513 0
2020-10-06 04:36:25 GMT 42.517136 -67.042793 37,000 69 513 0
2020-10-06 04:36:14 GMT 42.508118 -67.075401 37,000 69 513 0
2020-10-06 04:36:04 GMT 42.500004 -67.104622 37,000 69 512 0
2020-10-06 04:35:54 GMT 42.491501 -67.135391 37,000 69 512 0
2020-10-06 04:35:42 GMT 42.480919 -67.173347 37,000 69 513 0
2020-10-06 04:35:31 GMT 42.472549 -67.203552 37,000 69 513 0
2020-10-06 04:35:20 GMT 42.463715 -67.235077 37,000 69 513 0
2020-10-06 04:35:10 GMT 42.455017 -67.266289 37,000 69 513 0
2020-10-06 04:35:00 GMT 42.446365 -67.297249 37,000 69 515 0
2020-10-06 04:34:50 GMT 42.438000 -67.327225 37,000 69 516 0
2020-10-06 04:34:39 GMT 42.428833 -67.359924 37,000 69 517 0
2020-10-06 04:34:30 GMT 42.421555 -67.385895 37,000 69 517 0
2020-10-06 04:34:27 GMT 42.418774 -67.395691 37,000 69 517 0
2020-10-06 04:34:18 GMT 42.410484 -67.425270 37,000 69 517 0
2020-10-06 04:34:08 GMT 42.402924 -67.452309 37,000 69 517 -64
2020-10-06 04:33:59 GMT 42.394051 -67.483841 37,000 69 517 0
2020-10-06 04:33:48 GMT 42.385529 -67.514168 37,000 69 517 64
2020-10-06 04:33:39 GMT 42.377930 -67.541008 37,000 69 517 0
2020-10-06 04:33:31 GMT 42.369892 -67.569496 37,000 69 516 0
2020-10-06 04:33:19 GMT 42.359837 -67.605072 37,000 69 517 -64
2020-10-06 04:33:08 GMT 42.351288 -67.635330 37,000 69 516 -64
2020-10-06 04:32:57 GMT 42.341961 -67.668243 37,000 69 517 0
2020-10-06 04:32:48 GMT 42.333347 -67.698647 37,000 69 516 64
2020-10-06 04:32:36 GMT 42.324642 -67.729309 37,000 69 516 0
2020-10-06 04:32:26 GMT 42.316132 -67.759178 37,000 69 516 0
2020-10-06 04:32:17 GMT 42.306976 -67.791260 37,000 68 515 0
2020-10-06 04:32:11 GMT 42.302902 -67.805679 37,000 68 515 -64
2020-10-06 04:32:08 GMT 42.299690 -67.816879 37,000 68 515 0
2020-10-06 04:32:05 GMT 42.297592 -67.824219 37,000 68 515 -64
2020-10-06 04:31:58 GMT 42.291321 -67.846069 37,000 68 514 64
2020-10-06 04:31:53 GMT 42.287384 -67.859863 37,000 68 515 0
2020-10-06 04:31:45 GMT 42.280380 -67.884399 37,000 68 514 0
2020-10-06 04:31:41 GMT 42.277348 -67.894997 37,000 68 514 0
2020-10-06 04:31:34 GMT 42.268360 -67.926361 37,000 68 514 64
2020-10-06 04:31:25 GMT 42.262962 -67.945206 37,000 68 514 0
2020-10-06 04:31:22 GMT 42.260284 -67.954620 37,000 68 514 0
2020-10-06 04:31:15 GMT 42.255325 -67.971840 37,000 68 514 0
2020-10-06 04:31:11 GMT 42.251862 -67.983894 37,000 68 514 64
2020-10-06 04:31:06 GMT 42.246643 -68.002129 37,000 68 514 0
2020-10-06 04:31:02 GMT 42.244034 -68.011116 37,000 68 514 0
2020-10-06 04:30:55 GMT 42.237312 -68.034561 37,000 68 515 0
2020-10-06 04:30:52 GMT 42.233959 -68.046188 37,000 68 514 0
2020-10-06 04:30:46 GMT 42.229843 -68.060364 37,000 68 515 0
2020-10-06 04:30:40 GMT 42.225254 -68.076401 37,000 68 515 0
2020-10-06 04:30:35 GMT 42.220737 -68.091919 37,000 68 515 0
2020-10-06 04:30:30 GMT 42.215881 -68.108803 37,000 68 515 0
2020-10-06 04:30:25 GMT 42.211380 -68.124496 37,000 68 515 -64
2020-10-06 04:30:20 GMT 42.207367 -68.138390 37,000 68 515 0
2020-10-06 04:30:15 GMT 42.203018 -68.153687 37,000 68 515 0
2020-10-06 04:30:11 GMT 42.198578 -68.169083 37,000 68 516 0
2020-10-06 04:30:05 GMT 42.194344 -68.183708 37,000 68 517 0
2020-10-06 04:30:00 GMT 42.189922 -68.198975 37,000 68 517 0
2020-10-06 04:29:54 GMT 42.184845 -68.216545 37,000 68 517 64
2020-10-06 04:29:50 GMT 42.181496 -68.228104 37,000 68 517 0
2020-10-06 04:29:40 GMT 42.172417 -68.259270 37,000 68 518 0
2020-10-06 04:29:34 GMT 42.167679 -68.275597 37,000 68 517 64
2020-10-06 04:29:29 GMT 42.163570 -68.289803 37,000 68 517 0
2020-10-06 04:29:23 GMT 42.157986 -68.308968 37,000 68 517 0
2020-10-06 04:29:19 GMT 42.154449 -68.321106 37,000 68 516 0
2020-10-06 04:29:14 GMT 42.149372 -68.338539 37,000 68 516 64
2020-10-06 04:29:09 GMT 42.145973 -68.350227 37,000 68 516 64
2020-10-06 04:29:03 GMT 42.140762 -68.367981 37,000 68 516 0
2020-10-06 04:28:59 GMT 42.136478 -68.382736 37,000 68 515 -64
2020-10-06 04:28:53 GMT 42.132057 -68.397942 37,000 68 515 64
2020-10-06 04:28:47 GMT 42.126797 -68.415825 37,000 68 515 0
2020-10-06 04:28:37 GMT 42.118511 -68.444122 37,000 68 514 -64
2020-10-06 04:28:27 GMT 42.109772 -68.473976 37,025 68 514 64
2020-10-06 04:28:17 GMT 42.100586 -68.505379 37,000 68 515 0
2020-10-06 04:28:11 GMT 42.094894 -68.524910 37,000 68 518 0
2020-10-06 04:28:07 GMT 42.091827 -68.535400 37,000 68 518 0
2020-10-06 04:28:00 GMT 42.085876 -68.555580 37,000 68 519 0
2020-10-06 04:27:56 GMT 42.082489 -68.567169 37,000 68 519 64
2020-10-06 04:27:52 GMT 42.077496 -68.584129 37,000 68 520 64
2020-10-06 04:27:47 GMT 42.073727 -68.596970 37,000 68 519 64
2020-10-06 04:27:36 GMT 42.064362 -68.628654 37,000 68 519 0
2020-10-06 04:27:30 GMT 42.059387 -68.645515 37,000 68 519 0
2020-10-06 04:27:25 GMT 42.055386 -68.658997 37,000 68 518 0
2020-10-06 04:27:21 GMT 42.050262 -68.676369 37,000 68 518 0
2020-10-06 04:27:14 GMT 42.045547 -68.692329 37,000 68 518 -64
2020-10-06 04:27:10 GMT 42.041519 -68.706062 37,025 68 517 64
2020-10-06 04:27:06 GMT 42.037323 -68.720245 37,000 68 516 0
2020-10-06 04:27:00 GMT 42.032593 -68.736153 37,000 68 516 0
2020-10-06 04:26:55 GMT 42.028152 -68.751167 37,000 68 516 0
2020-10-06 04:26:50 GMT 42.023254 -68.767738 37,000 68 516 64
2020-10-06 04:26:44 GMT 42.018841 -68.782715 37,000 68 515 128
2020-10-06 04:26:40 GMT 42.014008 -68.798882 36,975 68 515 320
2020-10-06 04:26:35 GMT 42.010181 -68.811783 36,875 68 514 512
2020-10-06 04:26:32 GMT 42.007965 -68.819359 36,925 68 515 576
2020-10-06 04:26:29 GMT 42.005199 -68.828705 36,900 68 515 640
2020-10-06 04:26:24 GMT 42.000965 -68.842949 36,825 68 515 704
2020-10-06 04:26:19 GMT 41.996338 -68.858559 36,775 68 515 768
2020-10-06 04:26:14 GMT 41.991852 -68.873665 36,700 68 516 896
2020-10-06 04:26:09 GMT 41.987095 -68.889580 36,625 68 517 960
2020-10-06 04:26:01 GMT 41.979950 -68.913612 36,475 68 519 896
2020-10-06 04:25:58 GMT 41.978119 -68.919861 36,450 68 519 896
2020-10-06 04:25:52 GMT 41.972580 -68.938400 36,375 68 519 640
2020-10-06 04:25:48 GMT 41.969124 -68.949875 36,350 68 520 576
2020-10-06 04:25:41 GMT 41.961906 -68.974083 36,275 68 520 640
2020-10-06 04:25:38 GMT 41.959862 -68.980980 36,250 68 520 576
2020-10-06 04:25:34 GMT 41.955948 -68.994141 36,200 68 520 512
2020-10-06 04:25:31 GMT 41.954460 -68.999252 36,175 68 520 512
2020-10-06 04:25:28 GMT 41.950470 -69.012558 36,150 68 520 512
2020-10-06 04:25:21 GMT 41.945335 -69.029716 36,100 68 519 512
2020-10-06 04:25:17 GMT 41.941284 -69.043129 36,050 68 519 448
2020-10-06 04:25:12 GMT 41.936142 -69.060310 36,025 68 519 448
2020-10-06 04:25:06 GMT 41.931789 -69.074753 36,000 68 518 448
2020-10-06 04:25:01 GMT 41.927216 -69.090080 35,950 68 518 448
2020-10-06 04:24:56 GMT 41.922943 -69.104256 35,900 68 518 512
2020-10-06 04:24:50 GMT 41.917831 -69.121361 35,875 68 518 512
2020-10-06 04:24:46 GMT 41.914169 -69.133591 35,825 68 518 512
2020-10-06 04:24:40 GMT 41.907906 -69.154526 35,775 68 517 448
2020-10-06 04:24:36 GMT 41.904739 -69.165054 35,750 68 517 448
2020-10-06 04:24:31 GMT 41.900368 -69.179436 35,725 68 516 384
2020-10-06 04:24:28 GMT 41.895081 -69.197136 35,700 68 516 384
2020-10-06 04:24:22 GMT 41.891800 -69.207924 35,650 68 515 448
2020-10-06 04:24:19 GMT 41.889999 -69.213989 35,600 68 515 512
2020-10-06 04:24:16 GMT 41.886566 -69.225227 35,600 68 515 448
2020-10-06 04:24:10 GMT 41.880524 -69.245331 35,550 68 515 512
2020-10-06 04:24:05 GMT 41.877323 -69.255829 35,525 67 514 512
2020-10-06 04:24:00 GMT 41.872559 -69.271667 35,475 67 514 576
2020-10-06 04:23:57 GMT 41.869873 -69.280678 35,450 67 514 640
2020-10-06 04:23:54 GMT 41.867569 -69.288147 35,425 67 514 640
2020-10-06 04:23:51 GMT 41.864365 -69.298820 34,825 67 514 704
2020-10-06 04:23:47 GMT 41.860748 -69.310760 35,325 67 514 768
2020-10-06 04:23:44 GMT 41.858917 -69.316803 35,300 67 514 768
2020-10-06 04:23:39 GMT 41.852875 -69.336838 35,225 67 514 768
2020-10-06 04:23:35 GMT 41.849529 -69.347878 35,175 67 514 768
2020-10-06 04:23:28 GMT 41.840332 -69.378098 34,675 67 514 640
2020-10-06 04:23:24 GMT 41.840332 -69.378098 35,025 67 514 832
2020-10-06 04:23:17 GMT 41.834198 -69.398514 34,950 67 515 768
2020-10-06 04:23:13 GMT 41.831188 -69.408363 34,900 67 515 768
2020-10-06 04:23:10 GMT 41.827560 -69.420357 34,850 67 515 768
2020-10-06 04:23:04 GMT 41.821926 -69.438766 34,775 67 515 768
2020-10-06 04:22:59 GMT 41.818039 -69.451637 34,700 67 515 768
2020-10-06 04:22:56 GMT 41.815735 -69.459145 34,700 67 515 704
2020-10-06 04:22:53 GMT 41.813004 -69.468178 34,650 67 515 704
2020-10-06 04:22:50 GMT 41.810028 -69.477913 34,600 67 515 640
2020-10-06 04:22:47 GMT 41.806515 -69.489609 34,550 67 515 640
2020-10-06 04:22:41 GMT 41.801117 -69.507301 34,500 67 515 640
2020-10-06 04:22:38 GMT 41.799767 -69.511711 34,450 67 514 640
2020-10-06 04:22:35 GMT 41.796787 -69.521484 34,450 67 514 640
2020-10-06 04:22:32 GMT 41.793961 -69.530724 34,400 67 514 640
2020-10-06 04:22:29 GMT 41.791260 -69.539589 34,375 67 515 640
2020-10-06 04:22:26 GMT 41.788639 -69.548309 34,175 67 514 640
2020-10-06 04:22:23 GMT 41.784988 -69.560188 34,300 67 514 640
2020-10-06 04:22:19 GMT 41.781517 -69.571564 34,250 67 514 640
2020-10-06 04:22:16 GMT 41.778763 -69.580475 34,225 67 514 704
2020-10-06 04:22:10 GMT 41.773605 -69.597427 34,150 67 514 640
2020-10-06 04:22:05 GMT 41.770115 -69.608864 34,125 67 514 640
2020-10-06 04:22:02 GMT 41.766907 -69.619301 34,075 67 513 576
2020-10-06 04:21:58 GMT 41.762787 -69.632782 34,050 67 513 640
2020-10-06 04:21:54 GMT 41.760086 -69.641586 34,000 67 513 704
2020-10-06 04:21:51 GMT 41.757545 -69.650002 33,975 67 513 704
2020-10-06 04:21:46 GMT 41.752048 -69.667885 33,875 67 513 704
2020-10-06 04:21:43 GMT 41.749237 -69.677101 33,875 67 513 704
2020-10-06 04:21:39 GMT 41.744659 -69.692024 33,800 67 512 832
2020-10-06 04:21:34 GMT 41.741203 -69.703270 33,750 67 512 832
2020-10-06 04:21:30 GMT 41.738571 -69.711937 33,700 67 512 896
2020-10-06 04:21:27 GMT 41.735870 -69.720673 33,650 67 512 896
2020-10-06 04:21:24 GMT 41.732918 -69.730225 33,625 67 512 896
2020-10-06 04:21:20 GMT 41.729519 -69.741341 33,550 67 512 896
2020-10-06 04:21:16 GMT 41.725067 -69.755821 33,500 67 512 896
2020-10-06 04:21:11 GMT 41.720535 -69.770592 33,425 67 512 832
2020-10-06 04:21:06 GMT 41.716717 -69.782860 33,350 67 512 832
2020-10-06 04:21:03 GMT 41.713505 -69.793396 33,300 67 512 832
2020-10-06 04:21:00 GMT 41.711288 -69.800575 33,275 67 512 832
2020-10-06 04:20:56 GMT 41.707489 -69.812813 33,225 67 511 832
2020-10-06 04:20:50 GMT 41.702194 -69.829933 33,150 67 511 832
2020-10-06 04:20:46 GMT 41.696136 -69.849640 33,050 67 511 896
2020-10-06 04:20:43 GMT 41.696136 -69.849640 33,025 67 511 896
2020-10-06 04:20:37 GMT 41.689346 -69.871643 32,925 67 512 1024
2020-10-06 04:20:33 GMT 41.686569 -69.880600 32,875 67 512 1024
2020-10-06 04:20:29 GMT 41.682549 -69.893616 32,775 67 512 1088
2020-10-06 04:20:23 GMT 41.677567 -69.909714 32,550 67 513 1344
2020-10-06 04:20:18 GMT 41.673981 -69.921402 32,575 67 513 1280
2020-10-06 04:20:13 GMT 41.668629 -69.938705 32,450 67 515 1408
2020-10-06 04:20:08 GMT 41.664093 -69.953262 32,175 67 517 1536
2020-10-06 04:20:05 GMT 41.661694 -69.961067 32,175 67 517 1536
2020-10-06 04:20:02 GMT 41.658279 -69.972115 32,175 67 517 1536
2020-10-06 04:19:59 GMT 41.655899 -69.979729 32,075 67 518 1472
2020-10-06 04:19:56 GMT 41.652420 -69.990967 31,575 67 521 1280
2020-10-06 04:19:52 GMT 41.649673 -69.999825 31,800 67 520 1408
2020-10-06 04:19:49 GMT 41.644096 -70.017723 31,800 67 520 1408
2020-10-06 04:19:42 GMT 41.640232 -70.030174 31,700 67 520 1344
2020-10-06 04:19:35 GMT 41.632133 -70.056297 31,500 67 521 1216
2020-10-06 04:19:32 GMT 41.630264 -70.062370 31,450 67 521 1216
2020-10-06 04:19:26 GMT 41.625938 -70.076233 31,375 67 521 1280
2020-10-06 04:19:22 GMT 41.621983 -70.089005 31,300 67 522 1344
2020-10-06 04:19:18 GMT 41.617218 -70.104324 31,150 67 522 1472
2020-10-06 04:19:12 GMT 41.612686 -70.118866 31,000 67 523 1408
2020-10-06 04:19:06 GMT 41.607056 -70.137093 30,925 67 524 1344
2020-10-06 04:19:02 GMT 41.602154 -70.152748 30,675 67 524 960
2020-10-06 04:18:56 GMT 41.598083 -70.165749 30,700 67 524 1088
2020-10-06 04:18:53 GMT 41.594833 -70.176170 30,600 67 524 832
2020-10-06 04:18:50 GMT 41.589443 -70.193314 30,575 67 524 768
2020-10-06 04:18:47 GMT 41.589443 -70.193314 30,550 67 524 640
2020-10-06 04:18:44 GMT 41.585953 -70.204506 30,525 67 524 576
2020-10-06 04:18:39 GMT 41.582088 -70.216881 30,500 67 523 512
2020-10-06 04:18:35 GMT 41.578735 -70.227547 30,400 67 522 512
2020-10-06 04:18:31 GMT 41.573429 -70.244537 30,400 67 522 512
2020-10-06 04:18:28 GMT 41.571167 -70.251762 30,400 67 522 512
2020-10-06 04:18:25 GMT 41.569382 -70.257446 30,375 67 522 512
2020-10-06 04:18:19 GMT 41.563793 -70.275322 30,275 67 520 448
2020-10-06 04:18:16 GMT 41.560501 -70.285843 30,300 67 520 448
2020-10-06 04:18:09 GMT 41.554001 -70.306503 30,250 67 519 448
2020-10-06 04:18:06 GMT 41.550751 -70.316872 30,225 67 518 448
2020-10-06 04:17:59 GMT 41.544334 -70.337280 30,175 67 517 512
2020-10-06 04:17:56 GMT 41.541447 -70.346420 30,150 67 516 640
2020-10-06 04:17:52 GMT 41.537025 -70.360466 30,100 67 516 640
2020-10-06 04:17:49 GMT 41.534592 -70.368240 30,075 67 516 640
2020-10-06 04:17:44 GMT 41.531250 -70.378792 30,025 67 515 640
2020-10-06 04:17:40 GMT 41.526489 -70.393959 29,975 67 515 512
2020-10-06 04:17:37 GMT 41.524384 -70.400703 29,950 67 515 512
2020-10-06 04:17:34 GMT 41.522141 -70.407692 29,875 67 512 448
2020-10-06 04:17:31 GMT 41.518871 -70.418083 29,900 67 512 448
2020-10-06 04:17:28 GMT 41.516098 -70.426987 29,875 67 512 448
2020-10-06 04:17:25 GMT 41.512398 -70.438782 29,850 67 512 448
2020-10-06 04:17:18 GMT 41.506302 -70.458069 29,800 67 510 512
2020-10-06 04:17:14 GMT 41.503189 -70.467934 29,800 67 510 512
2020-10-06 04:17:11 GMT 41.499924 -70.478188 29,750 67 510 512
2020-10-06 04:17:07 GMT 41.497086 -70.487198 29,700 67 510 576
2020-10-06 04:17:04 GMT 41.493965 -70.497032 29,675 67 509 576
2020-10-06 04:16:58 GMT 41.488426 -70.514595 29,625 67 509 576
2020-10-06 04:16:55 GMT 41.486237 -70.521561 29,550 67 508 576
2020-10-06 04:16:52 GMT 41.482269 -70.534096 29,550 67 508 576
2020-10-06 04:16:49 GMT 41.476833 -70.551193 29,475 67 506 512
2020-10-06 04:16:46 GMT 41.476833 -70.551193 29,500 67 506 512
2020-10-06 04:16:42 GMT 41.474030 -70.559944 29,475 67 506 512
2020-10-06 04:16:38 GMT 41.470734 -70.570305 29,450 67 506 448
2020-10-06 04:16:35 GMT 41.467339 -70.581024 29,425 67 505 512
2020-10-06 04:16:32 GMT 41.465469 -70.586906 29,350 67 504 640
2020-10-06 04:16:27 GMT 41.453838 -70.623695 29,325 67 504 640
2020-10-06 04:16:22 GMT 41.453838 -70.623695 29,275 67 504 640
2020-10-06 04:16:19 GMT 41.452534 -70.627655 29,250 67 504 640
2020-10-06 04:16:16 GMT 41.450207 -70.635124 29,225 67 504 640
2020-10-06 04:16:12 GMT 41.446945 -70.645409 29,175 67 503 768
2020-10-06 04:16:01 GMT 41.432610 -70.690445 28,975 66 504 832
2020-10-06 04:15:54 GMT 41.429443 -70.700264 28,950 66 504 768
2020-10-06 04:15:51 GMT 41.428116 -70.704514 28,925 67 503 768
2020-10-06 04:15:48 GMT 41.424728 -70.715065 28,850 67 503 768
2020-10-06 04:15:45 GMT 41.421158 -70.726341 28,825 67 502 768
2020-10-06 04:15:41 GMT 41.415154 -70.745117 28,750 67 502 704
2020-10-06 04:15:38 GMT 41.415154 -70.745117 28,750 67 502 704
2020-10-06 04:15:34 GMT 41.412415 -70.753761 28,675 67 502 768
2020-10-06 04:15:31 GMT 41.409100 -70.764153 28,600 66 503 768
2020-10-06 04:15:27 GMT 41.405685 -70.774803 28,600 67 502 768
2020-10-06 04:15:23 GMT 41.402435 -70.785034 28,575 66 502 768
2020-10-06 04:15:19 GMT 41.395615 -70.806381 28,275 66 500 512
2020-10-06 04:15:16 GMT 41.395615 -70.806381 28,475 66 502 704
2020-10-06 04:15:13 GMT 41.393181 -70.813911 28,425 67 501 640
2020-10-06 04:15:09 GMT 41.389160 -70.826485 28,425 67 501 640
2020-10-06 04:15:06 GMT 41.387329 -70.832169 28,350 66 500 576
2020-10-06 04:15:03 GMT 41.384171 -70.842102 28,325 66 500 512
2020-10-06 04:15:00 GMT 41.380783 -70.852539 28,300 66 500 512
2020-10-06 04:14:56 GMT 41.377865 -70.861755 28,275 66 500 512
2020-10-06 04:14:53 GMT 41.374741 -70.871460 28,275 66 500 512
2020-10-06 04:14:50 GMT 41.372360 -70.878845 28,200 66 499 576
2020-10-06 04:14:46 GMT 41.368744 -70.890076 27,500 66 496 768
2020-10-06 04:14:42 GMT 41.365341 -70.900642 28,075 66 497 704
2020-10-06 04:14:38 GMT 41.362175 -70.910507 28,100 66 497 704
2020-10-06 04:14:35 GMT 41.358589 -70.921745 28,050 66 496 768
2020-10-06 04:14:32 GMT 41.356201 -70.929138 28,025 66 496 768
2020-10-06 04:14:29 GMT 41.352859 -70.939514 27,975 66 496 768
2020-10-06 04:14:25 GMT 41.345398 -70.962830 27,925 66 496 768
2020-10-06 04:14:21 GMT 41.345398 -70.962830 27,875 66 496 768
2020-10-06 04:14:18 GMT 41.343460 -70.968872 27,850 66 495 768
2020-10-06 04:14:15 GMT 41.341133 -70.976112 27,800 66 495 768
2020-10-06 04:14:12 GMT 41.337570 -70.987183 27,725 66 495 768
2020-10-06 04:14:09 GMT 41.335373 -70.993896 27,750 66 495 768
2020-10-06 04:14:06 GMT 41.331219 -71.006889 27,725 66 495 768
2020-10-06 04:14:01 GMT 41.327213 -71.019180 27,625 66 495 768
2020-10-06 04:13:58 GMT 41.324467 -71.027863 27,275 66 495 768
2020-10-06 04:13:53 GMT 41.321320 -71.037476 27,550 66 494 768
2020-10-06 04:13:49 GMT 41.316879 -71.051270 27,475 66 494 832
2020-10-06 04:13:45 GMT 41.313389 -71.062134 27,425 66 490 576
2020-10-06 04:13:41 GMT 41.309647 -71.073669 27,325 66 491 576
2020-10-06 04:13:38 GMT 41.307861 -71.079224 27,325 66 492 704
2020-10-06 04:13:35 GMT 41.303879 -71.091492 27,275 66 491 576
2020-10-06 04:13:29 GMT 41.299255 -71.105896 27,250 66 491 576
2020-10-06 04:13:26 GMT 41.295135 -71.118652 27,150 66 490 576
2020-10-06 04:13:23 GMT 41.293716 -71.123108 27,175 66 490 576
2020-10-06 04:13:19 GMT 41.291138 -71.130981 27,150 66 489 576
2020-10-06 04:13:16 GMT 41.288132 -71.140198 27,125 66 489 640
2020-10-06 04:13:13 GMT 41.285316 -71.148895 27,075 66 488 704
2020-10-06 04:13:10 GMT 41.282665 -71.157196 27,050 66 488 704
2020-10-06 04:13:05 GMT 41.278519 -71.169983 26,950 66 487 704
2020-10-06 04:13:02 GMT 41.275314 -71.179871 26,950 66 487 704
2020-10-06 04:12:59 GMT 41.271835 -71.190552 26,900 66 486 768
2020-10-06 04:12:56 GMT 41.269226 -71.198486 26,875 66 486 768
2020-10-06 04:12:53 GMT 41.267349 -71.204391 26,825 66 486 768
2020-10-06 04:12:50 GMT 41.263763 -71.215378 26,750 66 485 768
2020-10-06 04:12:47 GMT 41.262089 -71.220558 26,750 66 485 768
2020-10-06 04:12:44 GMT 41.259529 -71.228485 26,725 66 485 768
2020-10-06 04:12:41 GMT 41.256687 -71.237221 26,675 66 485 832
2020-10-06 04:12:38 GMT 41.254074 -71.245300 26,650 66 484 832
2020-10-06 04:12:35 GMT 41.250687 -71.255676 26,600 66 484 832
2020-10-06 04:12:31 GMT 41.247704 -71.264816 26,550 66 483 832
2020-10-06 04:12:28 GMT 41.244633 -71.274300 26,500 66 483 896
2020-10-06 04:12:25 GMT 41.243187 -71.278671 26,475 66 483 896
2020-10-06 04:12:22 GMT 41.239975 -71.288635 26,425 66 483 896
2020-10-06 04:12:19 GMT 41.237137 -71.297363 26,400 66 483 896
2020-10-06 04:12:16 GMT 41.234344 -71.305885 26,325 66 482 896
2020-10-06 04:12:12 GMT 41.230637 -71.317200 26,200 66 481 832
2020-10-06 04:12:05 GMT 41.225220 -71.333855 26,175 66 482 832
2020-10-06 04:12:02 GMT 41.222076 -71.343506 26,100 66 481 768
2020-10-06 04:11:59 GMT 41.218964 -71.352966 26,075 66 481 768
2020-10-06 04:11:56 GMT 41.216282 -71.361198 25,975 66 479 640
2020-10-06 04:11:53 GMT 41.214203 -71.367554 26,000 66 480 704
2020-10-06 04:11:50 GMT 41.211502 -71.375977 25,975 66 479 640
2020-10-06 04:11:46 GMT 41.207111 -71.389282 25,925 66 478 640
2020-10-06 04:11:43 GMT 41.204830 -71.396278 25,900 66 478 640
2020-10-06 04:11:39 GMT 41.202362 -71.403831 25,850 66 475 832
2020-10-06 04:11:36 GMT 41.199371 -71.413086 25,825 66 477 704
2020-10-06 04:11:33 GMT 41.192909 -71.432793 25,775 66 477 768
2020-10-06 04:11:30 GMT 41.192909 -71.432793 25,725 66 476 832
2020-10-06 04:11:24 GMT 41.188980 -71.444702 25,675 66 476 896
2020-10-06 04:11:21 GMT 41.186768 -71.451523 25,625 66 475 896
2020-10-06 04:11:17 GMT 41.181507 -71.467560 25,525 66 475 832
2020-10-06 04:11:14 GMT 41.180111 -71.471809 25,500 66 475 768
2020-10-06 04:11:11 GMT 41.176338 -71.483292 25,450 66 474 768
2020-10-06 04:11:08 GMT 41.175156 -71.486938 25,450 66 474 768
2020-10-06 04:11:04 GMT 41.170612 -71.500893 25,375 66 473 832
2020-10-06 04:10:59 GMT 41.166733 -71.512756 25,300 66 472 832
2020-10-06 04:10:54 GMT 41.159225 -71.535583 25,175 66 464 768
2020-10-06 04:10:51 GMT 41.159225 -71.535583 25,175 66 472 832
2020-10-06 04:10:48 GMT 41.157578 -71.540588 25,175 66 472 832
2020-10-06 04:10:43 GMT 41.153015 -71.554520 25,100 66 471 832
2020-10-06 04:10:40 GMT 41.150436 -71.562317 25,075 66 471 832
2020-10-06 04:10:37 GMT 41.147598 -71.571045 24,975 66 470 832
2020-10-06 04:10:33 GMT 41.143936 -71.582092 24,975 66 470 832
2020-10-06 04:10:30 GMT 41.142288 -71.587097 24,925 66 466 768
2020-10-06 04:10:27 GMT 41.139748 -71.594902 24,175 66 467 768
2020-10-06 04:10:23 GMT 41.134689 -71.610291 24,800 66 467 768
2020-10-06 04:10:20 GMT 41.132172 -71.617859 24,750 66 467 768
2020-10-06 04:10:17 GMT 41.130299 -71.623497 24,750 66 467 768
2020-10-06 04:10:12 GMT 41.126247 -71.635788 24,700 66 467 768
2020-10-06 04:10:09 GMT 41.123409 -71.644470 24,625 66 466 768
2020-10-06 04:10:03 GMT 41.118073 -71.660522 24,575 66 464 768
2020-10-06 04:10:00 GMT 41.115726 -71.667686 24,550 66 464 768
2020-10-06 04:09:57 GMT 41.112350 -71.677917 23,825 66 459 960
2020-10-06 04:09:53 GMT 41.109863 -71.685356 24,450 66 463 832
2020-10-06 04:09:50 GMT 41.107208 -71.693405 24,400 66 462 832
2020-10-06 04:09:47 GMT 41.104229 -71.702461 24,350 66 461 896
2020-10-06 04:09:42 GMT 41.099579 -71.716553 24,275 66 461 960
2020-10-06 04:09:36 GMT 41.094360 -71.732361 24,175 66 460 1024
2020-10-06 04:09:33 GMT 41.089417 -71.747314 24,125 66 460 1024
2020-10-06 04:09:30 GMT 41.089417 -71.747314 24,075 66 460 1024
2020-10-06 04:09:25 GMT 41.086353 -71.756454 24,050 66 459 1024
2020-10-06 04:09:22 GMT 41.083282 -71.765755 23,950 66 459 960
2020-10-06 04:09:19 GMT 41.080673 -71.773621 23,925 66 459 960
2020-10-06 04:09:15 GMT 41.077740 -71.782486 23,850 66 458 1024
2020-10-06 04:09:12 GMT 41.074249 -71.793030 23,775 66 458 1024
2020-10-06 04:09:09 GMT 41.072067 -71.799561 23,725 66 458 1088
2020-10-06 04:09:06 GMT 41.065430 -71.819580 23,600 66 457 1088
2020-10-06 04:09:02 GMT 41.065430 -71.819580 23,575 66 457 1088
2020-10-06 04:08:59 GMT 41.063232 -71.826233 23,550 66 457 1088
2020-10-06 04:08:54 GMT 41.058933 -71.839165 23,450 66 457 1152
2020-10-06 04:08:51 GMT 41.056870 -71.845459 23,350 66 456 1152
2020-10-06 04:08:48 GMT 41.054581 -71.852356 23,350 66 456 1216
2020-10-06 04:08:44 GMT 41.050323 -71.865112 23,250 66 456 1216
2020-10-06 04:08:40 GMT 41.047028 -71.875061 23,175 66 456 1216
2020-10-06 04:08:34 GMT 41.042549 -71.888474 23,050 66 455 1152
2020-10-06 04:08:30 GMT 41.038963 -71.899216 22,975 66 455 1152
2020-10-06 04:08:27 GMT 41.036869 -71.905579 22,900 66 455 1152
2020-10-06 04:08:24 GMT 41.034122 -71.913757 22,850 66 455 1152
2020-10-06 04:08:21 GMT 41.031647 -71.921265 22,525 66 455 1152
2020-10-06 04:08:18 GMT 41.028397 -71.930908 22,725 66 455 1152
2020-10-06 04:08:14 GMT 41.024689 -71.942139 22,650 66 454 1216
2020-10-06 04:08:11 GMT 41.022171 -71.949768 22,600 66 454 1216
2020-10-06 04:08:08 GMT 41.020344 -71.955208 22,550 66 454 1216
2020-10-06 04:08:05 GMT 41.017319 -71.964233 22,475 66 454 1280
2020-10-06 04:08:02 GMT 41.014526 -71.972595 22,400 66 453 1216
2020-10-06 04:07:58 GMT 41.011078 -71.982918 22,325 66 453 1216
2020-10-06 04:07:55 GMT 41.008797 -71.989723 22,250 66 453 1216
2020-10-06 04:07:52 GMT 41.006470 -71.996704 22,250 66 453 1216
2020-10-06 04:07:47 GMT 41.001953 -72.010262 22,100 66 453 1152
2020-10-06 04:07:43 GMT 40.999466 -72.017761 22,050 66 452 1088
2020-10-06 04:07:39 GMT 40.995163 -72.030640 21,975 66 452 1088
2020-10-06 04:07:36 GMT 40.993561 -72.035461 21,925 66 451 1024
2020-10-06 04:07:32 GMT 40.990547 -72.044411 21,850 66 451 1024
2020-10-06 04:07:29 GMT 40.986732 -72.055771 21,775 66 450 1024
2020-10-06 04:07:26 GMT 40.984962 -72.061012 21,775 66 450 1024
2020-10-06 04:07:23 GMT 40.981655 -72.070808 21,675 66 450 1024
2020-10-06 04:07:19 GMT 40.978397 -72.080612 21,600 66 449 1024
2020-10-06 04:07:16 GMT 40.976631 -72.085915 21,525 66 449 1088
2020-10-06 04:07:13 GMT 40.974117 -72.093468 21,500 66 449 1152
2020-10-06 04:07:10 GMT 40.971928 -72.099960 21,475 66 448 1152
2020-10-06 04:07:07 GMT 40.969025 -72.108582 21,375 66 448 1216
2020-10-06 04:07:04 GMT 40.966480 -72.116257 21,325 66 448 1216
2020-10-06 04:07:01 GMT 40.963074 -72.126343 21,275 66 447 1216
2020-10-06 04:06:58 GMT 40.960896 -72.132988 21,200 66 447 1152
2020-10-06 04:06:55 GMT 40.958939 -72.138725 21,150 66 447 1088
2020-10-06 04:06:52 GMT 40.956161 -72.147095 21,100 66 446 1088
2020-10-06 04:06:49 GMT 40.954330 -72.152527 21,050 66 446 1088
2020-10-06 04:06:46 GMT 40.951401 -72.161255 21,000 66 445 1088
2020-10-06 04:06:43 GMT 40.948059 -72.171204 20,925 66 444 1088
2020-10-06 04:06:40 GMT 40.945816 -72.177917 20,875 66 444 1088
2020-10-06 04:06:35 GMT 40.941761 -72.189911 20,800 66 443 1088
2020-10-06 04:06:30 GMT 40.937992 -72.201027 20,675 66 441 1088
2020-10-06 04:06:27 GMT 40.935379 -72.208801 20,650 66 441 1088
2020-10-06 04:06:24 GMT 40.932907 -72.216187 20,625 66 441 1088
2020-10-06 04:06:20 GMT 40.930115 -72.224548 20,300 66 440 1088
2020-10-06 04:06:15 GMT 40.922722 -72.246529 20,425 66 438 1152
2020-10-06 04:06:12 GMT 40.922722 -72.246529 20,375 66 438 1152
2020-10-06 04:06:09 GMT 40.920719 -72.252396 20,325 66 438 1216
2020-10-06 04:06:06 GMT 40.917480 -72.262085 20,125 66 437 1280
2020-10-06 04:06:03 GMT 40.913319 -72.274368 20,125 66 437 1280
2020-10-06 04:06:00 GMT 40.909920 -72.284424 20,075 66 437 1280
2020-10-06 04:05:57 GMT 40.909920 -72.284424 20,050 66 437 1280
2020-10-06 04:05:53 GMT 40.907639 -72.291222 19,975 65 436 1280
2020-10-06 04:05:50 GMT 40.905533 -72.297424 19,925 66 436 1280
2020-10-06 04:05:46 GMT 40.901276 -72.310059 19,800 66 435 1344
2020-10-06 04:05:43 GMT 40.899445 -72.315506 19,800 66 435 1344
2020-10-06 04:05:40 GMT 40.897430 -72.321472 19,725 66 435 1344
2020-10-06 04:05:35 GMT 40.892136 -72.337105 19,575 65 434 1344
2020-10-06 04:05:32 GMT 40.889763 -72.344162 19,525 65 434 1344
2020-10-06 04:05:28 GMT 40.886875 -72.352646 19,425 65 434 1280
2020-10-06 04:05:23 GMT 40.882317 -72.366196 19,300 65 433 1280
2020-10-06 04:05:20 GMT 40.880688 -72.371002 19,275 65 433 1280
2020-10-06 04:05:17 GMT 40.878159 -72.378357 19,200 65 433 1280
2020-10-06 04:05:14 GMT 40.875053 -72.387665 19,100 65 432 1344
2020-10-06 04:05:10 GMT 40.872208 -72.395996 19,000 65 432 1280
2020-10-06 04:05:07 GMT 40.869278 -72.404663 18,975 65 432 1280
2020-10-06 04:05:03 GMT 40.863831 -72.420776 18,850 65 431 1280
2020-10-06 04:05:00 GMT 40.863831 -72.420776 18,800 65 431 1280
2020-10-06 04:04:57 GMT 40.861862 -72.426514 18,775 65 431 1280
2020-10-06 04:04:53 GMT 40.858109 -72.437668 18,650 65 430 1344
2020-10-06 04:04:50 GMT 40.855225 -72.446167 18,575 65 430 1280
2020-10-06 04:04:47 GMT 40.853348 -72.451660 18,425 65 429 1280
2020-10-06 04:04:43 GMT 40.850189 -72.460999 18,475 65 429 1216
2020-10-06 04:04:40 GMT 40.848083 -72.467224 18,425 65 429 1216
2020-10-06 04:04:37 GMT 40.845215 -72.475685 18,250 65 427 1152
2020-10-06 04:04:33 GMT 40.841446 -72.486755 18,250 65 427 1152
2020-10-06 04:04:29 GMT 40.838928 -72.494141 18,175 65 426 1088
2020-10-06 04:04:25 GMT 40.836227 -72.502090 18,125 65 425 1088
2020-10-06 04:04:22 GMT 40.833435 -72.510254 18,025 65 424 1024
2020-10-06 04:04:19 GMT 40.830502 -72.518814 18,000 65 423 1024
2020-10-06 04:04:15 GMT 40.828083 -72.525932 17,825 65 420 960
2020-10-06 04:04:11 GMT 40.823914 -72.538208 17,850 65 421 960
2020-10-06 04:04:07 GMT 40.821705 -72.544662 17,825 65 420 960
2020-10-06 04:04:04 GMT 40.819004 -72.552589 17,775 65 419 960
2020-10-06 04:04:01 GMT 40.816040 -72.561340 17,700 65 418 1024
2020-10-06 04:03:58 GMT 40.814117 -72.567070 17,650 65 417 1088
2020-10-06 04:03:54 GMT 40.811321 -72.575188 17,525 65 416 1152
2020-10-06 04:03:51 GMT 40.808807 -72.582550 17,500 65 415 1344
2020-10-06 04:03:48 GMT 40.806015 -72.590759 17,450 65 415 1344
2020-10-06 04:03:45 GMT 40.803406 -72.598389 17,300 65 415 1408
2020-10-06 04:03:41 GMT 40.800980 -72.605530 17,300 65 415 1472
2020-10-06 04:03:38 GMT 40.798103 -72.613945 17,175 65 414 1536
2020-10-06 04:03:35 GMT 40.795944 -72.620300 17,125 65 414 1536
2020-10-06 04:03:32 GMT 40.793678 -72.626869 17,025 65 414 1536
2020-10-06 04:03:29 GMT 40.791275 -72.633911 17,025 65 414 1536
2020-10-06 04:03:26 GMT 40.789349 -72.639542 16,900 65 414 1536
2020-10-06 04:03:23 GMT 40.786972 -72.646545 16,850 65 414 1536
2020-10-06 04:03:20 GMT 40.784321 -72.654274 16,750 65 413 1536
2020-10-06 04:03:17 GMT 40.781479 -72.662659 16,650 65 413 1472
2020-10-06 04:03:14 GMT 40.778732 -72.670715 16,575 65 413 1344
2020-10-06 04:03:10 GMT 40.776314 -72.677681 16,525 65 412 1280
2020-10-06 04:03:07 GMT 40.774017 -72.684448 16,475 65 412 1216
2020-10-06 04:03:04 GMT 40.771801 -72.690979 16,375 65 411 1152
2020-10-06 04:03:00 GMT 40.767796 -72.702591 16,275 65 410 1280
2020-10-06 04:02:57 GMT 40.765377 -72.709641 16,150 65 408 1344
2020-10-06 04:02:54 GMT 40.764446 -72.712387 16,200 65 409 1344
2020-10-06 04:02:51 GMT 40.761749 -72.720215 16,150 65 409 1344
2020-10-06 04:02:48 GMT 40.759464 -72.726868 16,000 65 408 1472
2020-10-06 04:02:45 GMT 40.756252 -72.736168 15,950 65 407 1472
2020-10-06 04:02:41 GMT 40.754379 -72.741699 15,850 65 406 1536
2020-10-06 04:02:38 GMT 40.751358 -72.750488 15,775 65 406 1536
2020-10-06 04:02:34 GMT 40.745499 -72.767570 15,675 65 405 1536
2020-10-06 04:02:31 GMT 40.745499 -72.767570 15,625 65 405 1536
2020-10-06 04:02:28 GMT 40.743530 -72.773315 15,525 65 405 1472
2020-10-06 04:02:25 GMT 40.740795 -72.781242 15,425 65 405 1472
2020-10-06 04:02:22 GMT 40.739166 -72.785980 15,375 65 405 1408
2020-10-06 04:02:19 GMT 40.736526 -72.793762 15,325 65 404 1408
2020-10-06 04:02:13 GMT 40.732418 -72.805710 15,200 65 403 1344
2020-10-06 04:02:10 GMT 40.729980 -72.812805 15,150 65 402 1280
2020-10-06 04:02:07 GMT 40.727692 -72.819458 15,050 65 401 1216
2020-10-06 04:02:04 GMT 40.724762 -72.827942 14,950 65 399 1280
2020-10-06 04:02:01 GMT 40.722828 -72.833611 14,925 65 400 1216
2020-10-06 04:01:58 GMT 40.720451 -72.840477 14,750 65 397 1280
2020-10-06 04:01:55 GMT 40.717846 -72.848030 14,800 65 398 1216
2020-10-06 04:01:52 GMT 40.716404 -72.852211 14,750 65 398 1280
2020-10-06 04:01:49 GMT 40.713409 -72.860901 14,675 65 397 1280
2020-10-06 04:01:45 GMT 40.708786 -72.874329 14,575 65 396 1280
2020-10-06 04:01:39 GMT 40.706451 -72.881104 14,425 65 395 1472
2020-10-06 04:01:36 GMT 40.703972 -72.888229 14,425 65 395 1472
2020-10-06 04:01:33 GMT 40.700958 -72.897095 14,275 65 395 1856
2020-10-06 04:01:30 GMT 40.699318 -72.901840 14,200 65 395 2112
2020-10-06 04:01:27 GMT 40.696518 -72.910034 14,100 65 395 2240
2020-10-06 04:01:24 GMT 40.694687 -72.915283 14,050 65 395 2240
2020-10-06 04:01:21 GMT 40.693085 -72.919861 13,900 65 396 1984
2020-10-06 04:01:18 GMT 40.689789 -72.929504 13,825 65 396 1856
2020-10-06 04:01:15 GMT 40.688240 -72.934052 13,700 65 396 1664
2020-10-06 04:01:11 GMT 40.685669 -72.941406 12,450 65 395 1664
2020-10-06 04:01:08 GMT 40.682140 -72.951591 13,475 65 395 1664
2020-10-06 04:01:05 GMT 40.678802 -72.961304 13,400 65 395 1728
2020-10-06 04:01:02 GMT 40.678802 -72.961304 13,100 65 393 1664
2020-10-06 04:00:58 GMT 40.675049 -72.972046 13,225 65 394 1728
2020-10-06 04:00:55 GMT 40.673126 -72.977722 13,150 65 394 1728
2020-10-06 04:00:52 GMT 40.670876 -72.984177 12,800 65 394 1664
2020-10-06 04:00:49 GMT 40.668919 -72.989853 12,950 65 393 1664
2020-10-06 04:00:46 GMT 40.665848 -72.998657 12,850 65 393 1600
2020-10-06 04:00:42 GMT 40.659027 -73.018433 12,775 65 387 1536
2020-10-06 04:00:38 GMT 40.659027 -73.018433 12,700 65 392 1472
2020-10-06 04:00:35 GMT 40.657513 -73.022881 12,600 65 390 1472
2020-10-06 04:00:31 GMT 40.655560 -73.028496 12,525 65 389 1536
2020-10-06 04:00:28 GMT 40.653091 -73.035614 12,450 65 388 1536
2020-10-06 04:00:24 GMT 40.649780 -73.045166 12,350 65 387 1536
2020-10-06 04:00:21 GMT 40.647831 -73.050842 12,175 65 384 1472
2020-10-06 04:00:17 GMT 40.644897 -73.059204 12,175 65 386 1472
2020-10-06 04:00:14 GMT 40.642570 -73.066071 12,075 65 384 1408
2020-10-06 04:00:11 GMT 40.640617 -73.071632 12,025 65 384 1408
2020-10-06 04:00:07 GMT 40.637077 -73.081802 11,875 65 382 1600
2020-10-06 04:00:04 GMT 40.634491 -73.089294 11,825 65 382 1664
2020-10-06 03:59:59 GMT 40.631882 -73.096924 11,550 65 380 1664
2020-10-06 03:59:54 GMT 40.626930 -73.111145 11,525 65 380 1664
2020-10-06 03:59:51 GMT 40.625347 -73.115761 11,450 65 380 1600
2020-10-06 03:59:48 GMT 40.623550 -73.120911 11,400 65 379 1600
2020-10-06 03:59:45 GMT 40.620392 -73.129944 11,275 65 377 1408
2020-10-06 03:59:39 GMT 40.616776 -73.140320 11,200 65 374 1216
2020-10-06 03:59:36 GMT 40.614639 -73.146477 11,125 65 374 1216
2020-10-06 03:59:33 GMT 40.612358 -73.153091 11,000 65 371 1344
2020-10-06 03:59:30 GMT 40.610497 -73.158455 11,000 65 371 1344
2020-10-06 03:59:26 GMT 40.607437 -73.167175 10,900 65 369 1280
2020-10-06 03:59:23 GMT 40.604965 -73.174316 10,825 65 368 1216
2020-10-06 03:59:20 GMT 40.603466 -73.178680 10,775 65 367 1152
2020-10-06 03:59:16 GMT 40.599838 -73.189087 10,700 65 364 896
2020-10-06 03:59:12 GMT 40.597366 -73.196167 10,650 65 361 704
2020-10-06 03:59:09 GMT 40.595627 -73.201111 10,625 65 359 640
2020-10-06 03:59:05 GMT 40.592808 -73.209145 10,575 65 353 640
2020-10-06 03:59:02 GMT 40.589035 -73.219788 10,200 64 326 576
2020-10-06 03:58:55 GMT 40.586243 -73.227661 10,475 64 346 576
2020-10-06 03:58:52 GMT 40.583263 -73.235985 10,450 64 344 576
2020-10-06 03:58:49 GMT 40.581985 -73.239685 10,425 64 340 576
2020-10-06 03:58:44 GMT 40.578690 -73.248840 10,375 64 337 576
2020-10-06 03:58:41 GMT 40.576538 -73.254761 10,375 64 334 576
2020-10-06 03:58:38 GMT 40.574791 -73.259583 10,325 64 332 576
2020-10-06 03:58:35 GMT 40.571869 -73.267639 10,300 64 327 576
2020-10-06 03:58:32 GMT 40.570183 -73.272194 10,275 64 325 576
2020-10-06 03:58:29 GMT 40.568573 -73.276550 10,250 64 321 640
2020-10-06 03:58:26 GMT 40.566605 -73.282043 10,200 64 320 640
2020-10-06 03:58:22 GMT 40.564083 -73.288918 10,175 64 315 576
2020-10-06 03:58:19 GMT 40.562317 -73.293793 10,150 65 314 512
2020-10-06 03:58:16 GMT 40.560699 -73.298401 10,100 65 310 512
2020-10-06 03:58:12 GMT 40.556076 -73.312073 10,025 67 305 1024
2020-10-06 03:58:09 GMT 40.556076 -73.312073 10,000 68 304 1280
2020-10-06 03:58:06 GMT 40.554356 -73.317574 9,950 71 305 1600
2020-10-06 03:58:03 GMT 40.553329 -73.321106 9,800 74 306 1600
2020-10-06 03:58:00 GMT 40.551235 -73.331306 9,775 81 307 1280
2020-10-06 03:57:57 GMT 40.551235 -73.331306 9,650 87 307 1280
2020-10-06 03:57:53 GMT 40.550629 -73.341042 9,675 88 307 1280
2020-10-06 03:57:50 GMT 40.550720 -73.345337 9,450 98 305 1792
2020-10-06 03:57:47 GMT 40.551422 -73.352341 9,450 102 304 1984
2020-10-06 03:57:43 GMT 40.552818 -73.359833 9,300 108 304 2112
2020-10-06 03:57:40 GMT 40.553970 -73.364014 9,125 112 302 1984
2020-10-06 03:57:36 GMT 40.555801 -73.369568 9,150 116 301 1856
2020-10-06 03:57:33 GMT 40.557892 -73.375000 9,000 119 298 1600
2020-10-06 03:57:30 GMT 40.559986 -73.379936 8,950 119 296 1600
2020-10-06 03:57:27 GMT 40.561665 -73.383804 8,725 119 294 1664
2020-10-06 03:57:23 GMT 40.564133 -73.389526 8,775 119 294 1664
2020-10-06 03:57:20 GMT 40.567017 -73.396103 8,675 119 292 1600
2020-10-06 03:57:16 GMT 40.570415 -73.404030 8,525 119 290 1408
2020-10-06 03:57:12 GMT 40.571548 -73.406555 8,300 119 288 1216
2020-10-06 03:57:09 GMT 40.574982 -73.414429 8,400 119 283 1088
2020-10-06 03:57:06 GMT 40.575989 -73.416687 8,375 119 284 1024
2020-10-06 03:57:03 GMT 40.577583 -73.420380 8,350 119 283 1088
2020-10-06 03:57:00 GMT 40.580238 -73.426498 8,250 119 279 1344
2020-10-06 03:56:57 GMT 40.582397 -73.431458 8,150 119 278 1408
2020-10-06 03:56:54 GMT 40.583359 -73.433655 7,900 119 275 1344
2020-10-06 03:56:51 GMT 40.585590 -73.438858 8,050 119 274 1280
2020-10-06 03:56:48 GMT 40.587872 -73.444099 7,975 119 272 1344
2020-10-06 03:56:44 GMT 40.591827 -73.453156 7,875 119 270 2496
2020-10-06 03:56:41 GMT 40.591827 -73.453156 7,825 119 270 1792
2020-10-06 03:56:38 GMT 40.593658 -73.457336 7,750 119 269 2240
2020-10-06 03:56:35 GMT 40.597458 -73.466187 7,475 119 270 2688
2020-10-06 03:56:32 GMT 40.597458 -73.466187 7,150 119 271 2304
2020-10-06 03:56:28 GMT 40.600662 -73.473633 7,250 119 271 2560
2020-10-06 03:56:24 GMT 40.602070 -73.476875 7,150 119 271 2432
2020-10-06 03:56:21 GMT 40.604691 -73.482788 7,025 119 271 1984
2020-10-06 03:56:17 GMT 40.606586 -73.487175 6,925 119 271 1856
2020-10-06 03:56:14 GMT 40.611053 -73.497559 6,700 119 269 1920
2020-10-06 03:56:10 GMT 40.611053 -73.497559 6,700 119 269 1920
2020-10-06 03:56:06 GMT 40.613663 -73.503593 5,400 118 264 2016
2020-10-06 03:56:03 GMT 40.616581 -73.508377 5,400 118 264 2016
2020-10-06 03:56:00 GMT 40.618370 -73.512581 5,400 118 264 2016
2020-10-06 03:55:57 GMT 40.620152 -73.516777 5,400 118 264 2016
2020-10-06 03:55:54 GMT 40.621929 -73.520988 5,400 118 264 2016
2020-10-06 03:55:51 GMT 40.623711 -73.525192 5,400 118 264 2016
2020-10-06 03:55:48 GMT 40.625488 -73.529404 5,400 118 264 1504
2020-10-06 03:55:45 GMT 40.627270 -73.533600 5,400 118 264 1504
2020-10-06 03:55:42 GMT 40.629051 -73.537811 5,400 118 264 1504
2020-10-06 03:55:39 GMT 40.630829 -73.542023 5,400 118 264 1504
2020-10-06 03:55:36 GMT 40.632610 -73.546219 5,400 118 264 1504
2020-10-06 03:55:33 GMT 40.634392 -73.550392 5,100 118 264 1504
2020-10-06 03:55:30 GMT 40.636051 -73.554543 5,100 118 264 1504
2020-10-06 03:55:27 GMT 40.637852 -73.558777 5,100 119 266 1504
2020-10-06 03:55:24 GMT 40.639660 -73.563072 4,900 119 265 1504
2020-10-06 03:55:21 GMT 40.643261 -73.571640 4,700 119 263 1504
2020-10-06 03:55:18 GMT 40.643261 -73.571640 4,700 119 263 1504
2020-10-06 03:55:15 GMT 40.645012 -73.575996 4,600 119 261 1504
2020-10-06 03:55:12 GMT 40.646820 -73.580116 4,600 119 261 1504
2020-10-06 03:55:09 GMT 40.648621 -73.584259 4,400 119 261 1504
2020-10-06 03:55:06 GMT 40.650192 -73.588257 4,400 119 261 1504
2020-10-06 03:55:03 GMT 40.652180 -73.592491 4,200 119 261 1504
2020-10-06 03:55:00 GMT 40.653999 -73.596550 4,000 119 262 1504
2020-10-06 03:54:57 GMT 40.655685 -73.601013 4,000 119 260 2112
2020-10-06 03:54:54 GMT 40.657600 -73.604843 3,700 120 262 1504
2020-10-06 03:54:51 GMT 40.659389 -73.609093 3,700 120 261 1504
2020-10-06 03:54:48 GMT 40.661221 -73.613281 3,500 120 260 608
2020-10-06 03:54:45 GMT 40.663059 -73.617371 3,500 120 260 608
2020-10-06 03:54:42 GMT 40.664879 -73.621719 3,200 121 257 608
2020-10-06 03:54:39 GMT 40.666618 -73.625816 3,200 121 257 608
2020-10-06 03:54:36 GMT 40.668468 -73.629807 3,200 121 256 608
2020-10-06 03:54:33 GMT 40.670219 -73.633888 2,900 121 256 608
2020-10-06 03:54:30 GMT 40.672081 -73.638031 2,900 121 256 608
2020-10-06 03:54:27 GMT 40.673840 -73.641907 2,900 121 248 608
2020-10-06 03:54:24 GMT 40.675331 -73.645470 2,700 122 259 608
2020-10-06 03:54:21 GMT 40.677219 -73.649490 2,700 122 259 608
2020-10-06 03:54:18 GMT 40.679253 -73.653717 2,500 124 263 608
2020-10-06 03:54:15 GMT 40.680420 -73.657791 2,400 125 259 608
2020-10-06 03:54:12 GMT 40.682549 -73.661613 2,400 125 259 608
2020-10-06 03:54:09 GMT 40.684219 -73.665443 2,200 123 262 608
2020-10-06 03:54:06 GMT 40.686470 -73.669060 2,100 118 257 608
2020-10-06 03:54:03 GMT 40.688370 -73.673042 2,100 118 257 608
2020-10-06 03:54:00 GMT 40.690441 -73.676941 2,000 110 248 608
2020-10-06 03:53:57 GMT 40.693859 -73.684776 1,900 98 245 608
2020-10-06 03:53:54 GMT 40.693859 -73.684776 1,900 98 245 608
2020-10-06 03:53:51 GMT 40.695469 -73.688904 1,800 89 242 608
2020-10-06 03:53:48 GMT 40.696178 -73.693817 1,800 89 242 608
2020-10-06 03:53:45 GMT 40.695950 -73.697990 1,800 84 229 192
2020-10-06 03:53:42 GMT 40.695759 -73.702179 1,700 80 224 192
2020-10-06 03:53:39 GMT 40.695351 -73.706238 1,700 80 224 192
2020-10-06 03:53:36 GMT 40.695049 -73.710083 1,600 74 225 192
2020-10-06 03:53:33 GMT 40.694519 -73.714073 1,600 70 221 192
2020-10-06 03:53:30 GMT 40.693569 -73.717911 1,500 65 220 192
2020-10-06 03:53:27 GMT 40.692741 -73.721519 1,500 65 220 192
2020-10-06 03:53:24 GMT 40.691509 -73.725143 1,500 65 219 192
2020-10-06 03:53:21 GMT 40.690048 -73.728844 1,450 54 200 192
2020-10-06 03:53:18 GMT 40.688580 -73.731850 1,425 48 204 -128
2020-10-06 03:53:15 GMT 40.686741 -73.734459 1,425 36 207 256
2020-10-06 03:53:12 GMT 40.684460 -73.736832 1,350 31 203 256
2020-10-06 03:53:09 GMT 40.682140 -73.738853 1,350 30 204 -32
2020-10-06 03:53:06 GMT 40.679710 -73.740730 1,300 30 199 0
2020-10-06 03:53:03 GMT 40.677341 -73.742577 1,300 30 194 0
2020-10-06 03:53:00 GMT 40.675060 -73.744408 1,300 31 190 0
2020-10-06 03:52:57 GMT 40.672749 -73.746178 1,225 31 186 2112
2020-10-06 03:52:54 GMT 40.670509 -73.747978 1,200 31 181 2112
2020-10-06 03:52:51 GMT 40.668339 -73.749672 1,100 32 183 2112
2020-10-06 03:52:48 GMT 40.666199 -73.751480 1,100 31 178 2112
2020-10-06 03:52:45 GMT 40.664040 -73.753090 900 32 177 864
2020-10-06 03:52:42 GMT 40.662010 -73.754837 700 30 179 864
2020-10-06 03:52:39 GMT 40.659859 -73.756569 700 30 174 864
2020-10-06 03:52:36 GMT 40.657761 -73.758209 650 30 173 864
2020-10-06 03:52:33 GMT 40.655689 -73.759773 500 30 181 864
2020-10-06 03:52:30 GMT 40.653500 -73.761421 325 29 170 864
2020-10-06 03:52:27 GMT 40.651409 -73.763046 275 28 177 864
2020-10-06 03:52:24 GMT 40.649189 -73.764603 -100 28 173 864
2020-10-06 03:52:21 GMT 40.647110 -73.766159 -100 29 171 864
2020-10-06 03:52:18 GMT 40.645061 -73.767700 -100 29 181 864
2020-10-06 03:52:15 GMT 40.642910 -73.769333 -200 30 178 864
2020-10-06 03:52:12 GMT 40.640770 -73.770958 -225 30 177 864
2020-10-06 03:52:09 GMT 40.638710 -73.772552 -225 30 165 -352
2020-10-06 03:52:06 GMT 40.636761 -73.774101 -225 29 157 -352
2020-10-06 03:52:03 GMT 40.634869 -73.775497 -225 31 150 0
2020-10-06 03:52:00 GMT 40.633129 -73.776917 -225 30 140 0
2020-10-06 03:51:57 GMT 40.631500 -73.778130 -200 30 128 0
2020-10-06 03:51:54 GMT 40.629978 -73.779312 -200 31 112
2020-10-06 03:51:51 GMT 40.628639 -73.780388 0 31 106
2020-10-06 03:51:48 GMT 40.626308 -73.782211 0 29 90
2020-10-06 03:51:45 GMT 40.626308 -73.782211 0 31 81
2020-10-06 03:51:42 GMT 40.625370 -73.782944 0 32 72
2020-10-06 03:51:39 GMT 40.623940 -73.784073 0 30 47
2020-10-06 03:51:36 GMT 40.623940 -73.784073 0 32 35
2020-10-06 03:51:33 GMT 40.623428 -73.784470 0 29 23
2020-10-06 03:51:30 GMT 40.623131 -73.784714 0 31 18
2020-10-06 03:51:27 GMT 40.622952 -73.784798 0 34 12
2020-10-06 03:51:24 GMT 40.622810 -73.784927 0 39 8
2020-10-06 03:51:21 GMT 40.622700 -73.785049 0 19 8
2020-10-06 03:51:18 GMT 40.622589 -73.785088 0 45 9
2020-10-06 03:51:15 GMT 40.622478 -73.785179 0 56 10
2020-10-06 03:51:12 GMT 40.622391 -73.785347 0 69 10
2020-10-06 03:51:09 GMT 40.622311 -73.785431 0 81 11
2020-10-06 03:51:06 GMT 40.622269 -73.785637 0 106 9
2020-10-06 03:51:03 GMT 40.622311 -73.785789 0 108 9
2020-10-06 03:51:00 GMT 40.622349 -73.785988 0 119 12
2020-10-06 03:50:57 GMT 40.622410 -73.786140 0 121 8
2020-10-06 03:50:54 GMT 40.622452 -73.786263 0 124 12
2020-10-06 03:50:51 GMT 40.622532 -73.786423 0 128 8
2020-10-06 03:50:48 GMT 40.622631 -73.786560 0 157 8
2020-10-06 03:50:45 GMT 40.622730 -73.786659 0 170 7
2020-10-06 03:50:42 GMT 40.622799 -73.786659 0 172 8
2020-10-06 03:50:39 GMT 40.622929 -73.786697 0 201 9
2020-10-06 03:50:36 GMT 40.623032 -73.786652 0 198 9
2020-10-06 03:50:33 GMT 40.623180 -73.786613 0 211 8
2020-10-06 03:50:30 GMT 40.623299 -73.786583 0 222 9
2020-10-06 03:50:27 GMT 40.623341 -73.786400 0 204 11
2020-10-06 03:50:24 GMT 40.623482 -73.786293 0 199 10
2020-10-06 03:50:21 GMT 40.623619 -73.786263 0 211 10
2020-10-06 03:50:18 GMT 40.623699 -73.786140 0 205 8
2020-10-06 03:50:15 GMT 40.623810 -73.786087 0 215 9
2020-10-06 03:50:12 GMT 40.623901 -73.786018 0 217 7
2020-10-06 03:50:09 GMT 40.623970 -73.785927 0 200 9
2020-10-06 03:50:06 GMT 40.624100 -73.785912 0 216 9
2020-10-06 03:50:03 GMT 40.624161 -73.785782 0 212 7
2020-10-06 03:50:00 GMT 40.624222 -73.785667 0 193 10
2020-10-06 03:49:57 GMT 40.624359 -73.785652 0 209 8
2020-10-06 03:49:54 GMT 40.624458 -73.785599 0 216 8
2020-10-06 03:49:51 GMT 40.624592 -73.785431 0 216 7
2020-10-06 03:49:48 GMT 40.624592 -73.785431 0 217 9
2020-10-06 03:49:45 GMT 40.624691 -73.785370 0 206 9
2020-10-06 03:49:42 GMT 40.624802 -73.785301 0 204 9
2020-10-06 03:49:39 GMT 40.624920 -73.785210 0 217 9
2020-10-06 03:49:36 GMT 40.625031 -73.785110 0 210 10
2020-10-06 03:49:33 GMT 40.625149 -73.785011 0 208 9
2020-10-06 03:49:30 GMT 40.625259 -73.784927 0 200 10
2020-10-06 03:49:27 GMT 40.625401 -73.784843 0 207 9
2020-10-06 03:49:24 GMT 40.625530 -73.784760 0 221 9
2020-10-06 03:49:21 GMT 40.625629 -73.784637 0 209 9
2020-10-06 03:49:18 GMT 40.625751 -73.784561 0 220 14
2020-10-06 03:49:15 GMT 40.625881 -73.784401 0 204 12
2020-10-06 03:49:12 GMT 40.626041 -73.784309 0 203 14
2020-10-06 03:49:09 GMT 40.626362 -73.784081 0 219 11
2020-10-06 03:49:06 GMT 40.626362 -73.784081 0 213 12
2020-10-06 03:49:03 GMT 40.626492 -73.783943 0 204 13
2020-10-06 03:49:00 GMT 40.626659 -73.783836 0 208 13
2020-10-06 03:48:57 GMT 40.626808 -73.783760 0 219 13
2020-10-06 03:48:54 GMT 40.626942 -73.783600 0 212 13
2020-10-06 03:48:51 GMT 40.627121 -73.783501 0 207 12
2020-10-06 03:48:48 GMT 40.627270 -73.783401 0 218 16
2020-10-06 03:48:45 GMT 40.627449 -73.783241 0 218 14
2020-10-06 03:48:42 GMT 40.627579 -73.783081 0 205 12
2020-10-06 03:48:39 GMT 40.627769 -73.782982 0 207 15
2020-10-06 03:48:36 GMT 40.627941 -73.782852 0 222 14
2020-10-06 03:48:33 GMT 40.628090 -73.782707 0 211 13
2020-10-06 03:48:30 GMT 40.628231 -73.782578 0 213 13
2020-10-06 03:48:27 GMT 40.628399 -73.782417 0 204 12
2020-10-06 03:48:24 GMT 40.628551 -73.782333 0 204 14
2020-10-06 03:48:21 GMT 40.628700 -73.782211 0 206 13
2020-10-06 03:48:18 GMT 40.628868 -73.782120 0 216 13
2020-10-06 03:48:15 GMT 40.629021 -73.782013 0 215 14
2020-10-06 03:48:12 GMT 40.629189 -73.781860 0 212 13
2020-10-06 03:48:09 GMT 40.629299 -73.781708 0 216 12
2020-10-06 03:48:06 GMT 40.629471 -73.781631 0 209 13
2020-10-06 03:48:03 GMT 40.629631 -73.781509 0 212 13
2020-10-06 03:48:00 GMT 40.629780 -73.781403 0 209 14
2020-10-06 03:47:57 GMT 40.629929 -73.781250 0 211 13
2020-10-06 03:47:54 GMT 40.630070 -73.781158 0 211 12
2020-10-06 03:47:51 GMT 40.630211 -73.781021 0 206 13
2020-10-06 03:47:48 GMT 40.630371 -73.780922 0 208 12
2020-10-06 03:47:45 GMT 40.630539 -73.780830 0 218 13
2020-10-06 03:47:42 GMT 40.630680 -73.780670 0 206 13
2020-10-06 03:47:39 GMT 40.630821 -73.780563 0 217 13
2020-10-06 03:47:36 GMT 40.630951 -73.780418 0 208 14
2020-10-06 03:47:33 GMT 40.631119 -73.780289 0 197 12
2020-10-06 03:47:30 GMT 40.631290 -73.780212 0 188 13
2020-10-06 03:47:27 GMT 40.631439 -73.780182 0 178 12
2020-10-06 03:47:24 GMT 40.631618 -73.780190 0 192 12
2020-10-06 03:47:21 GMT 40.631748 -73.780167 0 186 14
2020-10-06 03:47:18 GMT 40.631950 -73.780144 0 189 12
2020-10-06 03:47:15 GMT 40.632111 -73.780113 0 187 14
2020-10-06 03:47:12 GMT 40.632332 -73.780098 0 190 14
2020-10-06 03:47:09 GMT 40.632488 -73.780037 0 196 15
2020-10-06 03:47:06 GMT 40.632710 -73.779968 0 202 13
2020-10-06 03:47:03 GMT 40.632919 -73.779877 0 198 12
2020-10-06 03:47:00 GMT 40.633251 -73.779747 0 208 14
2020-10-06 03:46:57 GMT 40.633251 -73.779747 0 218 16
2020-10-06 03:46:54 GMT 40.633419 -73.779556 0 202 14
2020-10-06 03:46:51 GMT 40.633579 -73.779457 0 206 15
2020-10-06 03:46:48 GMT 40.633789 -73.779350 0 210 13
2020-10-06 03:46:45 GMT 40.633930 -73.779228 0 215 12
2020-10-06 03:46:42 GMT 40.634060 -73.779099 0 207 12
2020-10-06 03:46:39 GMT 40.634251 -73.778992 0 210 13
2020-10-06 03:46:36 GMT 40.634392 -73.778877 0 217 7
2020-10-06 03:46:33 GMT 40.634460 -73.778809 0 229 10
2020-10-06 03:46:30 GMT 40.634560 -73.778679 0 213 9
2020-10-06 03:46:27 GMT 40.634640 -73.778542 0 198 8
2020-10-06 03:46:24 GMT 40.634750 -73.778481 0 201 9
2020-10-06 03:46:21 GMT 40.634861 -73.778427 0 203 8
2020-10-06 03:46:18 GMT 40.635059 -73.778297 0 228 8
2020-10-06 03:46:15 GMT 40.635059 -73.778297 0 218 7
2020-10-06 03:46:12 GMT 40.635090 -73.778191 0 199 6
2020-10-06 03:46:09 GMT 40.635151 -73.778168 0 214 5
2020-10-06 03:46:06 GMT 40.635281 -73.778084 0 162 8
2020-10-06 03:46:03 GMT 40.635399 -73.778084 0 154 6
2020-10-06 03:46:00 GMT 40.635490 -73.778091 0 134 6
2020-10-06 03:45:57 GMT 40.635559 -73.778168 0 96 6
2020-10-06 03:45:54 GMT 40.635632 -73.778320 0 114 3
2020-10-06 03:45:51 GMT 40.635590 -73.778381 0 138 9
2020-10-06 03:45:48 GMT 40.635590 -73.778481 0 150 19
2020-10-06 03:45:45 GMT 40.635811 -73.778633 0 146 19
2020-10-06 03:45:42 GMT 40.635796 -73.778687 0 157 8
2020-10-06 03:45:32 GMT 40.636112 -73.778877 0 171 7
2020-10-06 03:45:25 GMT 40.636311 -73.778923 0 174 7
2020-10-06 03:45:22 GMT 40.636414 -73.778938 0 174 9
2020-10-06 03:45:15 GMT 40.636669 -73.778969 0 174 8
2020-10-06 03:45:11 GMT 40.636803 -73.778992 0 174 8
2020-10-06 03:45:01 GMT 40.637169 -73.779053 0 171 7
2020-10-06 03:44:49 GMT 40.637444 -73.779083 0 171 3
2020-10-06 03:44:13 GMT 40.637531 -73.779106 0 171 0
2020-10-06 03:44:08 GMT 40.637535 -73.779114 0 171 0
2020-10-06 03:43:43 GMT 40.637543 -73.779106 0 171 0
2020-10-06 03:42:53 GMT 40.637535 -73.779114 0 171 0
2020-10-06 03:42:48 GMT 40.637543 -73.779106 0 171 0
2020-10-06 03:42:43 GMT 40.637535 -73.779114 0 171 0
2020-10-06 03:42:03 GMT 40.637543 -73.779106 0 171 0
2020-10-06 03:41:53 GMT 40.637535 -73.779114 0 171 0
2020-10-06 03:41:48 GMT 40.637543 -73.779106 0 171 0
2020-10-06 03:41:44 GMT 40.637535 -73.779114 0 171 0
2020-10-06 03:41:28 GMT 40.637543 -73.779106 0 171 2
2020-10-06 03:41:24 GMT 40.637512 -73.779099 0 171 3
2020-10-06 03:41:17 GMT 40.637421 -73.779099 0 174 4
2020-10-06 03:41:14 GMT 40.637363 -73.779144 0 180 4
2020-10-06 03:41:07 GMT 40.637272 -73.779266 0 199 5
2020-10-06 03:41:03 GMT 40.637238 -73.779343 0 210 5
2020-10-06 03:40:57 GMT 40.637192 -73.779526 0 227 5
2020-10-06 03:40:53 GMT 40.637173 -73.779640 0 236 5
2020-10-06 03:40:46 GMT 40.637157 -73.779816 0 247 5
2020-10-06 03:40:42 GMT 40.637146 -73.779938 0 253 5
2020-10-06 03:40:36 GMT 40.637135 -73.780090 0 258 5
2020-10-06 03:40:32 GMT 40.637135 -73.780197 0 261 4
2020-10-06 03:40:25 GMT 40.637123 -73.780342 0 261 3
2020-10-06 03:40:22 GMT 40.637123 -73.780396 0 264 2
2020-10-06 03:40:15 GMT 40.637135 -73.780441 0 264 0
2020-10-06 03:40:05 GMT 40.637135 -73.780449 0 264 0
2020-10-06 03:40:02 GMT 40.637123 -73.780457 0 264 0
2020-10-06 03:39:48 GMT 40.637135 -73.780457 0 264 0
2020-10-06 03:39:40 GMT 40.637230 -73.780464 0 264 0
2020-10-06 03:39:30 GMT 40.637135 -73.780457 0 264 0

Making use of Plane Finder data

You are free to use the raw flight data, aircraft information and images provided in this report for your own purposes provided the data is correctly attributed to Plane Finder. We ask that you please credit Plane Finder and link to planefinder.net in close proximity to the content.

Optionally one of the following logos (no smaller then 150x24px) can be used and must link to planefinder.net

Embedding the Plane Finder map

You are welcome to embed the Plane Finder playback map on your website to offer visitors a more interactive experience. We suggest using the following HTML code:

<iframe src="//planefinder.net/data/report/DL234-N823NW-7700-squawk-2020-10-06/map" width="800" height="600" seamless="seamless"></iframe>

Where our data comes from

Plane Finder has a global network of data feeds and antenna radars that receive data broadcast directly from aircraft. The primary technologies used are ADS-B and MLAT. We also show feeds from the FAA and a FLARM glider feed.

Click here to find out more about the Plane Finder network.

How we collect our data